<?xml version="1.0" encoding="UTF-8" ?>
<gpx version="1.1" xmlns:xsi="http://www.w3.org/2001/XMLSchema-instance"
    xmlns="http://www.topografix.com/GPX/1/1"
    xsi:schemaLocation="http://www.topografix.com/GPX/1/1 http://www.topografix.com/GPX/1/1/gpx.xsd"
    creator="Openrunner - https://www.openrunner.com" >	<trk>
	                   <name>1 - parcours_1062199-2-25104613</name>
						<trkseg>
					<trkpt lat="45.013940" lon="4.394830">
						<ele>1115</ele>
						<time>2026-09-02T21:38:18Z</time>
					</trkpt>
					<trkpt lat="45.013840" lon="4.394640">
						<ele>1113</ele>
						<time>2026-09-02T21:38:26Z</time>
					</trkpt>
					<trkpt lat="45.013590" lon="4.394470">
						<ele>1112</ele>
						<time>2026-09-02T21:38:40Z</time>
					</trkpt>
					<trkpt lat="45.013400" lon="4.394430">
						<ele>1113</ele>
						<time>2026-09-02T21:38:50Z</time>
					</trkpt>
					<trkpt lat="45.013190" lon="4.394430">
						<ele>1112</ele>
						<time>2026-09-02T21:39:00Z</time>
					</trkpt>
					<trkpt lat="45.013080" lon="4.394450">
						<ele>1111</ele>
						<time>2026-09-02T21:39:06Z</time>
					</trkpt>
					<trkpt lat="45.012950" lon="4.394520">
						<ele>1111</ele>
						<time>2026-09-02T21:39:13Z</time>
					</trkpt>
					<trkpt lat="45.012780" lon="4.394640">
						<ele>1111</ele>
						<time>2026-09-02T21:39:22Z</time>
					</trkpt>
					<trkpt lat="45.012650" lon="4.394990">
						<ele>1115</ele>
						<time>2026-09-02T21:39:36Z</time>
					</trkpt>
					<trkpt lat="45.012490" lon="4.395290">
						<ele>1114</ele>
						<time>2026-09-02T21:39:50Z</time>
					</trkpt>
					<trkpt lat="45.012350" lon="4.395490">
						<ele>1111</ele>
						<time>2026-09-02T21:40:00Z</time>
					</trkpt>
					<trkpt lat="45.012300" lon="4.395660">
						<ele>1110</ele>
						<time>2026-09-02T21:40:06Z</time>
					</trkpt>
					<trkpt lat="45.012170" lon="4.395780">
						<ele>1107</ele>
						<time>2026-09-02T21:40:14Z</time>
					</trkpt>
					<trkpt lat="45.012060" lon="4.396030">
						<ele>1104</ele>
						<time>2026-09-02T21:40:24Z</time>
					</trkpt>
					<trkpt lat="45.012050" lon="4.396220">
						<ele>1104</ele>
						<time>2026-09-02T21:40:31Z</time>
					</trkpt>
					<trkpt lat="45.012070" lon="4.396330">
						<ele>1104</ele>
						<time>2026-09-02T21:40:35Z</time>
					</trkpt>
					<trkpt lat="45.011920" lon="4.396600">
						<ele>1101</ele>
						<time>2026-09-02T21:40:47Z</time>
					</trkpt>
					<trkpt lat="45.011900" lon="4.396570">
						<ele>1101</ele>
						<time>2026-09-02T21:40:49Z</time>
					</trkpt>
					<trkpt lat="45.011780" lon="4.396740">
						<ele>1099</ele>
						<time>2026-09-02T21:40:57Z</time>
					</trkpt>
					<trkpt lat="45.011520" lon="4.396930">
						<ele>1094</ele>
						<time>2026-09-02T21:41:12Z</time>
					</trkpt>
					<trkpt lat="45.011160" lon="4.396960">
						<ele>1088</ele>
						<time>2026-09-02T21:41:30Z</time>
					</trkpt>
					<trkpt lat="45.010860" lon="4.397040">
						<ele>1084</ele>
						<time>2026-09-02T21:41:45Z</time>
					</trkpt>
					<trkpt lat="45.010480" lon="4.397280">
						<ele>1081</ele>
						<time>2026-09-02T21:42:06Z</time>
					</trkpt>
					<trkpt lat="45.010240" lon="4.397380">
						<ele>1078</ele>
						<time>2026-09-02T21:42:19Z</time>
					</trkpt>
					<trkpt lat="45.009980" lon="4.397550">
						<ele>1076</ele>
						<time>2026-09-02T21:42:33Z</time>
					</trkpt>
					<trkpt lat="45.009950" lon="4.397630">
						<ele>1075</ele>
						<time>2026-09-02T21:42:36Z</time>
					</trkpt>
					<trkpt lat="45.009790" lon="4.397750">
						<ele>1074</ele>
						<time>2026-09-02T21:42:45Z</time>
					</trkpt>
					<trkpt lat="45.009510" lon="4.397840">
						<ele>1071</ele>
						<time>2026-09-02T21:42:59Z</time>
					</trkpt>
					<trkpt lat="45.009440" lon="4.397840">
						<ele>1070</ele>
						<time>2026-09-02T21:43:03Z</time>
					</trkpt>
					<trkpt lat="45.009440" lon="4.397740">
						<ele>1070</ele>
						<time>2026-09-02T21:43:07Z</time>
					</trkpt>
					<trkpt lat="45.009300" lon="4.397670">
						<ele>1069</ele>
						<time>2026-09-02T21:43:14Z</time>
					</trkpt>
					<trkpt lat="45.009620" lon="4.396360">
						<ele>1067</ele>
						<time>2026-09-02T21:44:03Z</time>
					</trkpt>
					<trkpt lat="45.010010" lon="4.395680">
						<ele>1067</ele>
						<time>2026-09-02T21:44:34Z</time>
					</trkpt>
					<trkpt lat="45.010280" lon="4.394740">
						<ele>1068</ele>
						<time>2026-09-02T21:45:10Z</time>
					</trkpt>
					<trkpt lat="45.010680" lon="4.393890">
						<ele>1064</ele>
						<time>2026-09-02T21:45:46Z</time>
					</trkpt>
					<trkpt lat="45.010830" lon="4.393470">
						<ele>1061</ele>
						<time>2026-09-02T21:46:03Z</time>
					</trkpt>
					<trkpt lat="45.011000" lon="4.393170">
						<ele>1062</ele>
						<time>2026-09-02T21:46:16Z</time>
					</trkpt>
					<trkpt lat="45.011480" lon="4.392170">
						<ele>1060</ele>
						<time>2026-09-02T21:46:59Z</time>
					</trkpt>
					<trkpt lat="45.011530" lon="4.392090">
						<ele>1060</ele>
						<time>2026-09-02T21:47:03Z</time>
					</trkpt>
					<trkpt lat="45.011850" lon="4.391750">
						<ele>1059</ele>
						<time>2026-09-02T21:47:23Z</time>
					</trkpt>
					<trkpt lat="45.012860" lon="4.390820">
						<ele>1057</ele>
						<time>2026-09-02T21:48:23Z</time>
					</trkpt>
					<trkpt lat="45.013150" lon="4.390600">
						<ele>1057</ele>
						<time>2026-09-02T21:48:40Z</time>
					</trkpt>
					<trkpt lat="45.013350" lon="4.390350">
						<ele>1056</ele>
						<time>2026-09-02T21:48:53Z</time>
					</trkpt>
					<trkpt lat="45.013610" lon="4.389830">
						<ele>1055</ele>
						<time>2026-09-02T21:49:15Z</time>
					</trkpt>
					<trkpt lat="45.013870" lon="4.389120">
						<ele>1054</ele>
						<time>2026-09-02T21:49:44Z</time>
					</trkpt>
					<trkpt lat="45.014040" lon="4.388780">
						<ele>1053</ele>
						<time>2026-09-02T21:49:58Z</time>
					</trkpt>
					<trkpt lat="45.014590" lon="4.387980">
						<ele>1051</ele>
						<time>2026-09-02T21:50:38Z</time>
					</trkpt>
					<trkpt lat="45.014620" lon="4.387890">
						<ele>1051</ele>
						<time>2026-09-02T21:50:41Z</time>
					</trkpt>
					<trkpt lat="45.014650" lon="4.387910">
						<ele>1051</ele>
						<time>2026-09-02T21:50:43Z</time>
					</trkpt>
					<trkpt lat="45.014700" lon="4.387880">
						<ele>1051</ele>
						<time>2026-09-02T21:50:46Z</time>
					</trkpt>
					<trkpt lat="45.014700" lon="4.387790">
						<ele>1051</ele>
						<time>2026-09-02T21:50:49Z</time>
					</trkpt>
					<trkpt lat="45.014750" lon="4.387730">
						<ele>1050</ele>
						<time>2026-09-02T21:50:52Z</time>
					</trkpt>
					<trkpt lat="45.014770" lon="4.387550">
						<ele>1050</ele>
						<time>2026-09-02T21:50:59Z</time>
					</trkpt>
					<trkpt lat="45.014890" lon="4.387070">
						<ele>1049</ele>
						<time>2026-09-02T21:51:17Z</time>
					</trkpt>
					<trkpt lat="45.015020" lon="4.386270">
						<ele>1046</ele>
						<time>2026-09-02T21:51:46Z</time>
					</trkpt>
					<trkpt lat="45.015370" lon="4.386450">
						<ele>1045</ele>
						<time>2026-09-02T21:52:04Z</time>
					</trkpt>
					<trkpt lat="45.015500" lon="4.386570">
						<ele>1044</ele>
						<time>2026-09-02T21:52:12Z</time>
					</trkpt>
					<trkpt lat="45.015670" lon="4.386890">
						<ele>1044</ele>
						<time>2026-09-02T21:52:26Z</time>
					</trkpt>
					<trkpt lat="45.016650" lon="4.385970">
						<ele>1034</ele>
						<time>2026-09-02T21:53:25Z</time>
					</trkpt>
					<trkpt lat="45.016940" lon="4.385830">
						<ele>1031</ele>
						<time>2026-09-02T21:53:41Z</time>
					</trkpt>
					<trkpt lat="45.017470" lon="4.385710">
						<ele>1026</ele>
						<time>2026-09-02T21:54:07Z</time>
					</trkpt>
					<trkpt lat="45.017560" lon="4.385650">
						<ele>1025</ele>
						<time>2026-09-02T21:54:12Z</time>
					</trkpt>
					<trkpt lat="45.017800" lon="4.385330">
						<ele>1022</ele>
						<time>2026-09-02T21:54:29Z</time>
					</trkpt>
					<trkpt lat="45.017840" lon="4.385290">
						<ele>1021</ele>
						<time>2026-09-02T21:54:31Z</time>
					</trkpt>
					<trkpt lat="45.017890" lon="4.385280">
						<ele>1020</ele>
						<time>2026-09-02T21:54:34Z</time>
					</trkpt>
					<trkpt lat="45.018000" lon="4.385310">
						<ele>1018</ele>
						<time>2026-09-02T21:54:40Z</time>
					</trkpt>
					<trkpt lat="45.018370" lon="4.385510">
						<ele>1014</ele>
						<time>2026-09-02T21:54:59Z</time>
					</trkpt>
					<trkpt lat="45.019080" lon="4.385820">
						<ele>1010</ele>
						<time>2026-09-02T21:55:37Z</time>
					</trkpt>
					<trkpt lat="45.019370" lon="4.385970">
						<ele>1008</ele>
						<time>2026-09-02T21:55:52Z</time>
					</trkpt>
					<trkpt lat="45.019660" lon="4.386200">
						<ele>1007</ele>
						<time>2026-09-02T21:56:09Z</time>
					</trkpt>
					<trkpt lat="45.019820" lon="4.386480">
						<ele>1006</ele>
						<time>2026-09-02T21:56:21Z</time>
					</trkpt>
					<trkpt lat="45.019990" lon="4.386690">
						<ele>1004</ele>
						<time>2026-09-02T21:56:33Z</time>
					</trkpt>
					<trkpt lat="45.020120" lon="4.386780">
						<ele>1005</ele>
						<time>2026-09-02T21:56:40Z</time>
					</trkpt>
					<trkpt lat="45.020200" lon="4.386790">
						<ele>1005</ele>
						<time>2026-09-02T21:56:44Z</time>
					</trkpt>
					<trkpt lat="45.020330" lon="4.386750">
						<ele>1005</ele>
						<time>2026-09-02T21:56:51Z</time>
					</trkpt>
					<trkpt lat="45.020450" lon="4.386590">
						<ele>1006</ele>
						<time>2026-09-02T21:56:59Z</time>
					</trkpt>
					<trkpt lat="45.020550" lon="4.386500">
						<ele>1007</ele>
						<time>2026-09-02T21:57:05Z</time>
					</trkpt>
					<trkpt lat="45.020820" lon="4.386310">
						<ele>1010</ele>
						<time>2026-09-02T21:57:20Z</time>
					</trkpt>
					<trkpt lat="45.020680" lon="4.386410">
						<ele>1009</ele>
						<time>2026-09-02T21:57:28Z</time>
					</trkpt>
					<trkpt lat="45.020270" lon="4.385390">
						<ele>1012</ele>
						<time>2026-09-02T21:58:09Z</time>
					</trkpt>
					<trkpt lat="45.020120" lon="4.384820">
						<ele>1014</ele>
						<time>2026-09-02T21:58:31Z</time>
					</trkpt>
					<trkpt lat="45.020090" lon="4.384500">
						<ele>1016</ele>
						<time>2026-09-02T21:58:42Z</time>
					</trkpt>
					<trkpt lat="45.020100" lon="4.384180">
						<ele>1018</ele>
						<time>2026-09-02T21:58:53Z</time>
					</trkpt>
					<trkpt lat="45.019840" lon="4.384010">
						<ele>1019</ele>
						<time>2026-09-02T21:59:08Z</time>
					</trkpt>
					<trkpt lat="45.019680" lon="4.383940">
						<ele>1019</ele>
						<time>2026-09-02T21:59:16Z</time>
					</trkpt>
					<trkpt lat="45.019480" lon="4.383910">
						<ele>1018</ele>
						<time>2026-09-02T21:59:26Z</time>
					</trkpt>
					<trkpt lat="45.019090" lon="4.383900">
						<ele>1016</ele>
						<time>2026-09-02T21:59:46Z</time>
					</trkpt>
					<trkpt lat="45.018910" lon="4.383830">
						<ele>1015</ele>
						<time>2026-09-02T21:59:55Z</time>
					</trkpt>
					<trkpt lat="45.018870" lon="4.383760">
						<ele>1015</ele>
						<time>2026-09-02T21:59:58Z</time>
					</trkpt>
					<trkpt lat="45.018810" lon="4.383420">
						<ele>1019</ele>
						<time>2026-09-02T22:00:11Z</time>
					</trkpt>
					<trkpt lat="45.018680" lon="4.382080">
						<ele>1020</ele>
						<time>2026-09-02T22:00:59Z</time>
					</trkpt>
					<trkpt lat="45.018580" lon="4.381580">
						<ele>1018</ele>
						<time>2026-09-02T22:01:17Z</time>
					</trkpt>
					<trkpt lat="45.018240" lon="4.381050">
						<ele>1016</ele>
						<time>2026-09-02T22:01:42Z</time>
					</trkpt>
					<trkpt lat="45.017790" lon="4.380640">
						<ele>1012</ele>
						<time>2026-09-02T22:02:09Z</time>
					</trkpt>
					<trkpt lat="45.017710" lon="4.380500">
						<ele>1012</ele>
						<time>2026-09-02T22:02:15Z</time>
					</trkpt>
					<trkpt lat="45.017590" lon="4.380180">
						<ele>1014</ele>
						<time>2026-09-02T22:02:28Z</time>
					</trkpt>
					<trkpt lat="45.017290" lon="4.379730">
						<ele>1016</ele>
						<time>2026-09-02T22:02:50Z</time>
					</trkpt>
					<trkpt lat="45.017270" lon="4.379570">
						<ele>1018</ele>
						<time>2026-09-02T22:02:56Z</time>
					</trkpt>
					<trkpt lat="45.017310" lon="4.379360">
						<ele>1020</ele>
						<time>2026-09-02T22:03:04Z</time>
					</trkpt>
					<trkpt lat="45.017070" lon="4.378980">
						<ele>1021</ele>
						<time>2026-09-02T22:03:22Z</time>
					</trkpt>
					<trkpt lat="45.017160" lon="4.378970">
						<ele>1021</ele>
						<time>2026-09-02T22:03:26Z</time>
					</trkpt>
					<trkpt lat="45.017300" lon="4.378890">
						<ele>1021</ele>
						<time>2026-09-02T22:03:34Z</time>
					</trkpt>
					<trkpt lat="45.017890" lon="4.378100">
						<ele>1018</ele>
						<time>2026-09-02T22:04:14Z</time>
					</trkpt>
					<trkpt lat="45.018090" lon="4.377910">
						<ele>1018</ele>
						<time>2026-09-02T22:04:26Z</time>
					</trkpt>
					<trkpt lat="45.018170" lon="4.377760">
						<ele>1018</ele>
						<time>2026-09-02T22:04:33Z</time>
					</trkpt>
					<trkpt lat="45.018380" lon="4.377500">
						<ele>1017</ele>
						<time>2026-09-02T22:04:47Z</time>
					</trkpt>
					<trkpt lat="45.018390" lon="4.377100">
						<ele>1019</ele>
						<time>2026-09-02T22:05:01Z</time>
					</trkpt>
					<trkpt lat="45.018350" lon="4.377010">
						<ele>1019</ele>
						<time>2026-09-02T22:05:05Z</time>
					</trkpt>
					<trkpt lat="45.018060" lon="4.376930">
						<ele>1017</ele>
						<time>2026-09-02T22:05:20Z</time>
					</trkpt>
					<trkpt lat="45.017850" lon="4.376730">
						<ele>1016</ele>
						<time>2026-09-02T22:05:32Z</time>
					</trkpt>
					<trkpt lat="45.017760" lon="4.376600">
						<ele>1016</ele>
						<time>2026-09-02T22:05:39Z</time>
					</trkpt>
					<trkpt lat="45.017630" lon="4.376260">
						<ele>1018</ele>
						<time>2026-09-02T22:05:52Z</time>
					</trkpt>
					<trkpt lat="45.017510" lon="4.375780">
						<ele>1020</ele>
						<time>2026-09-02T22:06:10Z</time>
					</trkpt>
					<trkpt lat="45.017490" lon="4.375360">
						<ele>1021</ele>
						<time>2026-09-02T22:06:25Z</time>
					</trkpt>
					<trkpt lat="45.017680" lon="4.374690">
						<ele>1023</ele>
						<time>2026-09-02T22:06:51Z</time>
					</trkpt>
					<trkpt lat="45.017670" lon="4.374530">
						<ele>1023</ele>
						<time>2026-09-02T22:06:57Z</time>
					</trkpt>
					<trkpt lat="45.017580" lon="4.374390">
						<ele>1022</ele>
						<time>2026-09-02T22:07:03Z</time>
					</trkpt>
					<trkpt lat="45.017430" lon="4.374240">
						<ele>1021</ele>
						<time>2026-09-02T22:07:12Z</time>
					</trkpt>
					<trkpt lat="45.016950" lon="4.374120">
						<ele>1017</ele>
						<time>2026-09-02T22:07:37Z</time>
					</trkpt>
					<trkpt lat="45.016820" lon="4.373970">
						<ele>1016</ele>
						<time>2026-09-02T22:07:45Z</time>
					</trkpt>
					<trkpt lat="45.016720" lon="4.373770">
						<ele>1015</ele>
						<time>2026-09-02T22:07:54Z</time>
					</trkpt>
					<trkpt lat="45.016480" lon="4.372950">
						<ele>1013</ele>
						<time>2026-09-02T22:08:25Z</time>
					</trkpt>
					<trkpt lat="45.016570" lon="4.372180">
						<ele>1009</ele>
						<time>2026-09-02T22:08:53Z</time>
					</trkpt>
					<trkpt lat="45.016580" lon="4.371660">
						<ele>1008</ele>
						<time>2026-09-02T22:09:11Z</time>
					</trkpt>
					<trkpt lat="45.016610" lon="4.371440">
						<ele>1008</ele>
						<time>2026-09-02T22:09:19Z</time>
					</trkpt>
					<trkpt lat="45.016660" lon="4.370400">
						<ele>1009</ele>
						<time>2026-09-02T22:09:56Z</time>
					</trkpt>
					<trkpt lat="45.016710" lon="4.369960">
						<ele>1010</ele>
						<time>2026-09-02T22:10:12Z</time>
					</trkpt>
					<trkpt lat="45.016760" lon="4.368720">
						<ele>1010</ele>
						<time>2026-09-02T22:10:56Z</time>
					</trkpt>
					<trkpt lat="45.016700" lon="4.368390">
						<ele>1009</ele>
						<time>2026-09-02T22:11:08Z</time>
					</trkpt>
					<trkpt lat="45.016770" lon="4.368060">
						<ele>1009</ele>
						<time>2026-09-02T22:11:20Z</time>
					</trkpt>
					<trkpt lat="45.016820" lon="4.367590">
						<ele>1008</ele>
						<time>2026-09-02T22:11:37Z</time>
					</trkpt>
					<trkpt lat="45.016770" lon="4.366970">
						<ele>1011</ele>
						<time>2026-09-02T22:11:59Z</time>
					</trkpt>
					<trkpt lat="45.016740" lon="4.366860">
						<ele>1011</ele>
						<time>2026-09-02T22:12:03Z</time>
					</trkpt>
					<trkpt lat="45.016620" lon="4.366630">
						<ele>1014</ele>
						<time>2026-09-02T22:12:13Z</time>
					</trkpt>
					<trkpt lat="45.016630" lon="4.366500">
						<ele>1016</ele>
						<time>2026-09-02T22:12:18Z</time>
					</trkpt>
					<trkpt lat="45.016740" lon="4.366290">
						<ele>1018</ele>
						<time>2026-09-02T22:12:27Z</time>
					</trkpt>
					<trkpt lat="45.016820" lon="4.365980">
						<ele>1022</ele>
						<time>2026-09-02T22:12:39Z</time>
					</trkpt>
					<trkpt lat="45.016900" lon="4.365800">
						<ele>1024</ele>
						<time>2026-09-02T22:12:46Z</time>
					</trkpt>
					<trkpt lat="45.017040" lon="4.365670">
						<ele>1024</ele>
						<time>2026-09-02T22:12:55Z</time>
					</trkpt>
					<trkpt lat="45.017250" lon="4.365560">
						<ele>1023</ele>
						<time>2026-09-02T22:13:06Z</time>
					</trkpt>
					<trkpt lat="45.017350" lon="4.365470">
						<ele>1023</ele>
						<time>2026-09-02T22:13:12Z</time>
					</trkpt>
					<trkpt lat="45.018270" lon="4.364110">
						<ele>1031</ele>
						<time>2026-09-02T22:14:18Z</time>
					</trkpt>
					<trkpt lat="45.018360" lon="4.363890">
						<ele>1031</ele>
						<time>2026-09-02T22:14:27Z</time>
					</trkpt>
					<trkpt lat="45.018410" lon="4.363630">
						<ele>1032</ele>
						<time>2026-09-02T22:14:37Z</time>
					</trkpt>
					<trkpt lat="45.018500" lon="4.363360">
						<ele>1033</ele>
						<time>2026-09-02T22:14:47Z</time>
					</trkpt>
					<trkpt lat="45.018600" lon="4.363120">
						<ele>1033</ele>
						<time>2026-09-02T22:14:57Z</time>
					</trkpt>
					<trkpt lat="45.018660" lon="4.363040">
						<ele>1033</ele>
						<time>2026-09-02T22:15:01Z</time>
					</trkpt>
					<trkpt lat="45.018620" lon="4.362930">
						<ele>1033</ele>
						<time>2026-09-02T22:15:06Z</time>
					</trkpt>
					<trkpt lat="45.018550" lon="4.362860">
						<ele>1033</ele>
						<time>2026-09-02T22:15:10Z</time>
					</trkpt>
					<trkpt lat="45.018420" lon="4.362820">
						<ele>1033</ele>
						<time>2026-09-02T22:15:17Z</time>
					</trkpt>
					<trkpt lat="45.018190" lon="4.362820">
						<ele>1034</ele>
						<time>2026-09-02T22:15:28Z</time>
					</trkpt>
					<trkpt lat="45.018020" lon="4.362730">
						<ele>1034</ele>
						<time>2026-09-02T22:15:37Z</time>
					</trkpt>
					<trkpt lat="45.017940" lon="4.362660">
						<ele>1035</ele>
						<time>2026-09-02T22:15:42Z</time>
					</trkpt>
					<trkpt lat="45.017940" lon="4.362040">
						<ele>1033</ele>
						<time>2026-09-02T22:16:04Z</time>
					</trkpt>
					<trkpt lat="45.017890" lon="4.361610">
						<ele>1032</ele>
						<time>2026-09-02T22:16:19Z</time>
					</trkpt>
					<trkpt lat="45.017720" lon="4.360840">
						<ele>1028</ele>
						<time>2026-09-02T22:16:48Z</time>
					</trkpt>
					<trkpt lat="45.017560" lon="4.360290">
						<ele>1029</ele>
						<time>2026-09-02T22:17:09Z</time>
					</trkpt>
					<trkpt lat="45.017060" lon="4.358840">
						<ele>1028</ele>
						<time>2026-09-02T22:18:06Z</time>
					</trkpt>
					<trkpt lat="45.016740" lon="4.357820">
						<ele>1029</ele>
						<time>2026-09-02T22:18:46Z</time>
					</trkpt>
					<trkpt lat="45.016470" lon="4.357290">
						<ele>1027</ele>
						<time>2026-09-02T22:19:09Z</time>
					</trkpt>
					<trkpt lat="45.016240" lon="4.356900">
						<ele>1025</ele>
						<time>2026-09-02T22:19:27Z</time>
					</trkpt>
					<trkpt lat="45.016370" lon="4.356820">
						<ele>1026</ele>
						<time>2026-09-02T22:19:34Z</time>
					</trkpt>
					<trkpt lat="45.016970" lon="4.356680">
						<ele>1028</ele>
						<time>2026-09-02T22:20:04Z</time>
					</trkpt>
					<trkpt lat="45.018690" lon="4.355730">
						<ele>1037</ele>
						<time>2026-09-02T22:21:37Z</time>
					</trkpt>
					<trkpt lat="45.019310" lon="4.355470">
						<ele>1036</ele>
						<time>2026-09-02T22:22:09Z</time>
					</trkpt>
					<trkpt lat="45.019300" lon="4.355200">
						<ele>1037</ele>
						<time>2026-09-02T22:22:18Z</time>
					</trkpt>
					<trkpt lat="45.019180" lon="4.355050">
						<ele>1038</ele>
						<time>2026-09-02T22:22:26Z</time>
					</trkpt>
					<trkpt lat="45.018900" lon="4.354600">
						<ele>1040</ele>
						<time>2026-09-02T22:22:48Z</time>
					</trkpt>
					<trkpt lat="45.018530" lon="4.353490">
						<ele>1040</ele>
						<time>2026-09-02T22:23:31Z</time>
					</trkpt>
					<trkpt lat="45.018440" lon="4.353300">
						<ele>1040</ele>
						<time>2026-09-02T22:23:39Z</time>
					</trkpt>
					<trkpt lat="45.017810" lon="4.352270">
						<ele>1031</ele>
						<time>2026-09-02T22:24:27Z</time>
					</trkpt>
					<trkpt lat="45.017370" lon="4.351490">
						<ele>1028</ele>
						<time>2026-09-02T22:25:03Z</time>
					</trkpt>
					<trkpt lat="45.016600" lon="4.349700">
						<ele>1025</ele>
						<time>2026-09-02T22:26:17Z</time>
					</trkpt>
					<trkpt lat="45.015950" lon="4.347980">
						<ele>1015</ele>
						<time>2026-09-02T22:27:26Z</time>
					</trkpt>
					<trkpt lat="45.015800" lon="4.347720">
						<ele>1015</ele>
						<time>2026-09-02T22:27:38Z</time>
					</trkpt>
					<trkpt lat="45.015720" lon="4.347700">
						<ele>1016</ele>
						<time>2026-09-02T22:27:42Z</time>
					</trkpt>
					<trkpt lat="45.015700" lon="4.347640">
						<ele>1016</ele>
						<time>2026-09-02T22:27:44Z</time>
					</trkpt>
					<trkpt lat="45.015740" lon="4.347560">
						<ele>1016</ele>
						<time>2026-09-02T22:27:48Z</time>
					</trkpt>
					<trkpt lat="45.015750" lon="4.347340">
						<ele>1017</ele>
						<time>2026-09-02T22:27:55Z</time>
					</trkpt>
					<trkpt lat="45.015670" lon="4.346930">
						<ele>1020</ele>
						<time>2026-09-02T22:28:10Z</time>
					</trkpt>
					<trkpt lat="45.015310" lon="4.346270">
						<ele>1029</ele>
						<time>2026-09-02T22:28:40Z</time>
					</trkpt>
					<trkpt lat="45.015450" lon="4.345510">
						<ele>1031</ele>
						<time>2026-09-02T22:29:08Z</time>
					</trkpt>
					<trkpt lat="45.015420" lon="4.344860">
						<ele>1035</ele>
						<time>2026-09-02T22:29:31Z</time>
					</trkpt>
					<trkpt lat="45.015400" lon="4.344650">
						<ele>1035</ele>
						<time>2026-09-02T22:29:38Z</time>
					</trkpt>
					<trkpt lat="45.015350" lon="4.344450">
						<ele>1036</ele>
						<time>2026-09-02T22:29:46Z</time>
					</trkpt>
					<trkpt lat="45.015130" lon="4.343970">
						<ele>1040</ele>
						<time>2026-09-02T22:30:06Z</time>
					</trkpt>
					<trkpt lat="45.014810" lon="4.343100">
						<ele>1042</ele>
						<time>2026-09-02T22:30:41Z</time>
					</trkpt>
					<trkpt lat="45.014420" lon="4.341860">
						<ele>1043</ele>
						<time>2026-09-02T22:31:29Z</time>
					</trkpt>
					<trkpt lat="45.014320" lon="4.341510">
						<ele>1044</ele>
						<time>2026-09-02T22:31:42Z</time>
					</trkpt>
					<trkpt lat="45.014310" lon="4.341370">
						<ele>1045</ele>
						<time>2026-09-02T22:31:47Z</time>
					</trkpt>
					<trkpt lat="45.014250" lon="4.341130">
						<ele>1046</ele>
						<time>2026-09-02T22:31:56Z</time>
					</trkpt>
					<trkpt lat="45.014020" lon="4.340430">
						<ele>1046</ele>
						<time>2026-09-02T22:32:23Z</time>
					</trkpt>
					<trkpt lat="45.013790" lon="4.340070">
						<ele>1046</ele>
						<time>2026-09-02T22:32:40Z</time>
					</trkpt>
					<trkpt lat="45.013140" lon="4.339360">
						<ele>1044</ele>
						<time>2026-09-02T22:33:22Z</time>
					</trkpt>
					<trkpt lat="45.012870" lon="4.338920">
						<ele>1043</ele>
						<time>2026-09-02T22:33:42Z</time>
					</trkpt>
					<trkpt lat="45.012630" lon="4.338400">
						<ele>1042</ele>
						<time>2026-09-02T22:34:04Z</time>
					</trkpt>
					<trkpt lat="45.012440" lon="4.337530">
						<ele>1043</ele>
						<time>2026-09-02T22:34:36Z</time>
					</trkpt>
					<trkpt lat="45.012130" lon="4.336620">
						<ele>1041</ele>
						<time>2026-09-02T22:35:12Z</time>
					</trkpt>
					<trkpt lat="45.012060" lon="4.336150">
						<ele>1041</ele>
						<time>2026-09-02T22:35:29Z</time>
					</trkpt>
					<trkpt lat="45.012060" lon="4.336020">
						<ele>1041</ele>
						<time>2026-09-02T22:35:34Z</time>
					</trkpt>
					<trkpt lat="45.012010" lon="4.335800">
						<ele>1041</ele>
						<time>2026-09-02T22:35:42Z</time>
					</trkpt>
					<trkpt lat="45.011980" lon="4.335720">
						<ele>1041</ele>
						<time>2026-09-02T22:35:45Z</time>
					</trkpt>
					<trkpt lat="45.011650" lon="4.335200">
						<ele>1043</ele>
						<time>2026-09-02T22:36:10Z</time>
					</trkpt>
					<trkpt lat="45.011440" lon="4.334790">
						<ele>1047</ele>
						<time>2026-09-02T22:36:28Z</time>
					</trkpt>
					<trkpt lat="45.011410" lon="4.334690">
						<ele>1048</ele>
						<time>2026-09-02T22:36:32Z</time>
					</trkpt>
					<trkpt lat="45.011410" lon="4.334190">
						<ele>1051</ele>
						<time>2026-09-02T22:36:49Z</time>
					</trkpt>
					<trkpt lat="45.011380" lon="4.334010">
						<ele>1052</ele>
						<time>2026-09-02T22:36:56Z</time>
					</trkpt>
					<trkpt lat="45.011120" lon="4.333410">
						<ele>1059</ele>
						<time>2026-09-02T22:37:21Z</time>
					</trkpt>
					<trkpt lat="45.010910" lon="4.332720">
						<ele>1067</ele>
						<time>2026-09-02T22:37:47Z</time>
					</trkpt>
					<trkpt lat="45.010630" lon="4.332440">
						<ele>1072</ele>
						<time>2026-09-02T22:38:04Z</time>
					</trkpt>
					<trkpt lat="45.010290" lon="4.332290">
						<ele>1075</ele>
						<time>2026-09-02T22:38:22Z</time>
					</trkpt>
					<trkpt lat="45.009820" lon="4.332260">
						<ele>1079</ele>
						<time>2026-09-02T22:38:46Z</time>
					</trkpt>
					<trkpt lat="45.009360" lon="4.331850">
						<ele>1083</ele>
						<time>2026-09-02T22:39:13Z</time>
					</trkpt>
					<trkpt lat="45.008760" lon="4.330990">
						<ele>1082</ele>
						<time>2026-09-02T22:39:56Z</time>
					</trkpt>
					<trkpt lat="45.010800" lon="4.328250">
						<ele>1080</ele>
						<time>2026-09-02T22:42:16Z</time>
					</trkpt>
					<trkpt lat="45.009920" lon="4.324580">
						<ele>1082</ele>
						<time>2026-09-02T22:44:34Z</time>
					</trkpt>
					<trkpt lat="45.009480" lon="4.323190">
						<ele>1085</ele>
						<time>2026-09-02T22:45:27Z</time>
					</trkpt>
					<trkpt lat="45.007500" lon="4.320130">
						<ele>1074</ele>
						<time>2026-09-02T22:47:54Z</time>
					</trkpt>
					<trkpt lat="45.007760" lon="4.317780">
						<ele>1070</ele>
						<time>2026-09-02T22:49:18Z</time>
					</trkpt>
					<trkpt lat="45.007950" lon="4.316670">
						<ele>1069</ele>
						<time>2026-09-02T22:49:59Z</time>
					</trkpt>
					<trkpt lat="45.007480" lon="4.314960">
						<ele>1067</ele>
						<time>2026-09-02T22:51:04Z</time>
					</trkpt>
					<trkpt lat="45.007340" lon="4.314000">
						<ele>1068</ele>
						<time>2026-09-02T22:51:38Z</time>
					</trkpt>
					<trkpt lat="45.007370" lon="4.313070">
						<ele>1071</ele>
						<time>2026-09-02T22:52:11Z</time>
					</trkpt>
					<trkpt lat="45.007460" lon="4.312360">
						<ele>1074</ele>
						<time>2026-09-02T22:52:37Z</time>
					</trkpt>
					<trkpt lat="45.007770" lon="4.310740">
						<ele>1083</ele>
						<time>2026-09-02T22:53:36Z</time>
					</trkpt>
					<trkpt lat="45.007000" lon="4.308450">
						<ele>1088</ele>
						<time>2026-09-02T22:55:06Z</time>
					</trkpt>
					<trkpt lat="45.005880" lon="4.308240">
						<ele>1091</ele>
						<time>2026-09-02T22:56:02Z</time>
					</trkpt>
					<trkpt lat="45.003890" lon="4.308490">
						<ele>1095</ele>
						<time>2026-09-02T22:57:42Z</time>
					</trkpt>
					<trkpt lat="45.002340" lon="4.308150">
						<ele>1096</ele>
						<time>2026-09-02T22:59:01Z</time>
					</trkpt>
					<trkpt lat="45.000870" lon="4.307230">
						<ele>1098</ele>
						<time>2026-09-02T23:00:21Z</time>
					</trkpt>
					<trkpt lat="44.999960" lon="4.307260">
						<ele>1099</ele>
						<time>2026-09-02T23:01:07Z</time>
					</trkpt>
					<trkpt lat="44.998970" lon="4.306210">
						<ele>1102</ele>
						<time>2026-09-02T23:02:09Z</time>
					</trkpt>
					<trkpt lat="44.998850" lon="4.305910">
						<ele>1104</ele>
						<time>2026-09-02T23:02:21Z</time>
					</trkpt>
					<trkpt lat="44.998830" lon="4.305370">
						<ele>1105</ele>
						<time>2026-09-02T23:02:40Z</time>
					</trkpt>
					<trkpt lat="44.998790" lon="4.305160">
						<ele>1106</ele>
						<time>2026-09-02T23:02:48Z</time>
					</trkpt>
					<trkpt lat="44.998710" lon="4.304950">
						<ele>1107</ele>
						<time>2026-09-02T23:02:56Z</time>
					</trkpt>
					<trkpt lat="44.998550" lon="4.304670">
						<ele>1109</ele>
						<time>2026-09-02T23:03:09Z</time>
					</trkpt>
					<trkpt lat="44.998430" lon="4.304530">
						<ele>1110</ele>
						<time>2026-09-02T23:03:17Z</time>
					</trkpt>
					<trkpt lat="44.998290" lon="4.304440">
						<ele>1111</ele>
						<time>2026-09-02T23:03:25Z</time>
					</trkpt>
					<trkpt lat="44.998090" lon="4.304380">
						<ele>1112</ele>
						<time>2026-09-02T23:03:35Z</time>
					</trkpt>
					<trkpt lat="44.997870" lon="4.304280">
						<ele>1113</ele>
						<time>2026-09-02T23:03:46Z</time>
					</trkpt>
					<trkpt lat="44.997760" lon="4.304140">
						<ele>1114</ele>
						<time>2026-09-02T23:03:54Z</time>
					</trkpt>
					<trkpt lat="44.997080" lon="4.302130">
						<ele>1128</ele>
						<time>2026-09-02T23:05:13Z</time>
					</trkpt>
					<trkpt lat="44.996870" lon="4.301610">
						<ele>1130</ele>
						<time>2026-09-02T23:05:34Z</time>
					</trkpt>
					<trkpt lat="44.996740" lon="4.301500">
						<ele>1131</ele>
						<time>2026-09-02T23:05:41Z</time>
					</trkpt>
					<trkpt lat="44.996460" lon="4.301500">
						<ele>1133</ele>
						<time>2026-09-02T23:05:55Z</time>
					</trkpt>
					<trkpt lat="44.996310" lon="4.301450">
						<ele>1135</ele>
						<time>2026-09-02T23:06:03Z</time>
					</trkpt>
					<trkpt lat="44.995560" lon="4.300860">
						<ele>1138</ele>
						<time>2026-09-02T23:06:46Z</time>
					</trkpt>
					<trkpt lat="44.995300" lon="4.300530">
						<ele>1138</ele>
						<time>2026-09-02T23:07:04Z</time>
					</trkpt>
					<trkpt lat="44.995120" lon="4.300070">
						<ele>1139</ele>
						<time>2026-09-02T23:07:22Z</time>
					</trkpt>
					<trkpt lat="44.995060" lon="4.299790">
						<ele>1139</ele>
						<time>2026-09-02T23:07:32Z</time>
					</trkpt>
					<trkpt lat="44.995070" lon="4.299680">
						<ele>1138</ele>
						<time>2026-09-02T23:07:36Z</time>
					</trkpt>
					<trkpt lat="44.995140" lon="4.299460">
						<ele>1138</ele>
						<time>2026-09-02T23:07:45Z</time>
					</trkpt>
					<trkpt lat="44.995140" lon="4.299190">
						<ele>1137</ele>
						<time>2026-09-02T23:07:55Z</time>
					</trkpt>
					<trkpt lat="44.995080" lon="4.298950">
						<ele>1137</ele>
						<time>2026-09-02T23:08:04Z</time>
					</trkpt>
					<trkpt lat="44.994930" lon="4.298560">
						<ele>1136</ele>
						<time>2026-09-02T23:08:19Z</time>
					</trkpt>
					<trkpt lat="44.994660" lon="4.298150">
						<ele>1132</ele>
						<time>2026-09-02T23:08:39Z</time>
					</trkpt>
					<trkpt lat="44.994460" lon="4.297970">
						<ele>1130</ele>
						<time>2026-09-02T23:08:51Z</time>
					</trkpt>
					<trkpt lat="44.994300" lon="4.297920">
						<ele>1129</ele>
						<time>2026-09-02T23:08:59Z</time>
					</trkpt>
					<trkpt lat="44.994170" lon="4.297920">
						<ele>1129</ele>
						<time>2026-09-02T23:09:06Z</time>
					</trkpt>
					<trkpt lat="44.993940" lon="4.298100">
						<ele>1129</ele>
						<time>2026-09-02T23:09:19Z</time>
					</trkpt>
					<trkpt lat="44.993860" lon="4.298100">
						<ele>1128</ele>
						<time>2026-09-02T23:09:23Z</time>
					</trkpt>
					<trkpt lat="44.993720" lon="4.298000">
						<ele>1127</ele>
						<time>2026-09-02T23:09:31Z</time>
					</trkpt>
					<trkpt lat="44.993610" lon="4.297720">
						<ele>1124</ele>
						<time>2026-09-02T23:09:42Z</time>
					</trkpt>
					<trkpt lat="44.993480" lon="4.297240">
						<ele>1122</ele>
						<time>2026-09-02T23:10:00Z</time>
					</trkpt>
					<trkpt lat="44.993270" lon="4.296770">
						<ele>1120</ele>
						<time>2026-09-02T23:10:20Z</time>
					</trkpt>
					<trkpt lat="44.992760" lon="4.296050">
						<ele>1118</ele>
						<time>2026-09-02T23:10:56Z</time>
					</trkpt>
					<trkpt lat="44.991510" lon="4.294090">
						<ele>1116</ele>
						<time>2026-09-02T23:12:29Z</time>
					</trkpt>
					<trkpt lat="44.991450" lon="4.294020">
						<ele>1116</ele>
						<time>2026-09-02T23:12:33Z</time>
					</trkpt>
					<trkpt lat="44.991200" lon="4.293880">
						<ele>1117</ele>
						<time>2026-09-02T23:12:47Z</time>
					</trkpt>
					<trkpt lat="44.990830" lon="4.293460">
						<ele>1119</ele>
						<time>2026-09-02T23:13:10Z</time>
					</trkpt>
					<trkpt lat="44.990720" lon="4.293410">
						<ele>1120</ele>
						<time>2026-09-02T23:13:16Z</time>
					</trkpt>
					<trkpt lat="44.990220" lon="4.292880">
						<ele>1123</ele>
						<time>2026-09-02T23:13:47Z</time>
					</trkpt>
					<trkpt lat="44.989990" lon="4.292710">
						<ele>1126</ele>
						<time>2026-09-02T23:14:00Z</time>
					</trkpt>
					<trkpt lat="44.989750" lon="4.292480">
						<ele>1127</ele>
						<time>2026-09-02T23:14:15Z</time>
					</trkpt>
					<trkpt lat="44.989480" lon="4.292060">
						<ele>1127</ele>
						<time>2026-09-02T23:14:35Z</time>
					</trkpt>
					<trkpt lat="44.989000" lon="4.291150">
						<ele>1130</ele>
						<time>2026-09-02T23:15:15Z</time>
					</trkpt>
					<trkpt lat="44.988150" lon="4.290010">
						<ele>1130</ele>
						<time>2026-09-02T23:16:14Z</time>
					</trkpt>
					<trkpt lat="44.987710" lon="4.289320">
						<ele>1129</ele>
						<time>2026-09-02T23:16:47Z</time>
					</trkpt>
					<trkpt lat="44.987210" lon="4.288640">
						<ele>1126</ele>
						<time>2026-09-02T23:17:21Z</time>
					</trkpt>
					<trkpt lat="44.986860" lon="4.288110">
						<ele>1126</ele>
						<time>2026-09-02T23:17:47Z</time>
					</trkpt>
					<trkpt lat="44.986500" lon="4.287490">
						<ele>1130</ele>
						<time>2026-09-02T23:18:15Z</time>
					</trkpt>
					<trkpt lat="44.986160" lon="4.286750">
						<ele>1131</ele>
						<time>2026-09-02T23:18:47Z</time>
					</trkpt>
					<trkpt lat="44.985870" lon="4.286370">
						<ele>1130</ele>
						<time>2026-09-02T23:19:07Z</time>
					</trkpt>
					<trkpt lat="44.985600" lon="4.285780">
						<ele>1128</ele>
						<time>2026-09-02T23:19:31Z</time>
					</trkpt>
					<trkpt lat="44.985230" lon="4.284790">
						<ele>1129</ele>
						<time>2026-09-02T23:20:11Z</time>
					</trkpt>
					<trkpt lat="44.985090" lon="4.284490">
						<ele>1130</ele>
						<time>2026-09-02T23:20:24Z</time>
					</trkpt>
					<trkpt lat="44.984830" lon="4.284070">
						<ele>1131</ele>
						<time>2026-09-02T23:20:43Z</time>
					</trkpt>
					<trkpt lat="44.984410" lon="4.283090">
						<ele>1129</ele>
						<time>2026-09-02T23:21:24Z</time>
					</trkpt>
					<trkpt lat="44.984000" lon="4.282450">
						<ele>1127</ele>
						<time>2026-09-02T23:21:55Z</time>
					</trkpt>
					<trkpt lat="44.983810" lon="4.282070">
						<ele>1127</ele>
						<time>2026-09-02T23:22:11Z</time>
					</trkpt>
					<trkpt lat="44.983440" lon="4.281190">
						<ele>1128</ele>
						<time>2026-09-02T23:22:47Z</time>
					</trkpt>
					<trkpt lat="44.983370" lon="4.280940">
						<ele>1129</ele>
						<time>2026-09-02T23:22:57Z</time>
					</trkpt>
					<trkpt lat="44.982960" lon="4.279920">
						<ele>1132</ele>
						<time>2026-09-02T23:23:38Z</time>
					</trkpt>
					<trkpt lat="44.982940" lon="4.279560">
						<ele>1133</ele>
						<time>2026-09-02T23:23:51Z</time>
					</trkpt>
					<trkpt lat="44.983050" lon="4.278720">
						<ele>1137</ele>
						<time>2026-09-02T23:24:21Z</time>
					</trkpt>
					<trkpt lat="44.983080" lon="4.278140">
						<ele>1139</ele>
						<time>2026-09-02T23:24:42Z</time>
					</trkpt>
					<trkpt lat="44.983190" lon="4.277680">
						<ele>1140</ele>
						<time>2026-09-02T23:24:59Z</time>
					</trkpt>
					<trkpt lat="44.983300" lon="4.277040">
						<ele>1139</ele>
						<time>2026-09-02T23:25:22Z</time>
					</trkpt>
					<trkpt lat="44.983400" lon="4.276670">
						<ele>1139</ele>
						<time>2026-09-02T23:25:36Z</time>
					</trkpt>
					<trkpt lat="44.983390" lon="4.276190">
						<ele>1137</ele>
						<time>2026-09-02T23:25:53Z</time>
					</trkpt>
					<trkpt lat="44.983420" lon="4.275930">
						<ele>1137</ele>
						<time>2026-09-02T23:26:03Z</time>
					</trkpt>
					<trkpt lat="44.983430" lon="4.275300">
						<ele>1136</ele>
						<time>2026-09-02T23:26:25Z</time>
					</trkpt>
					<trkpt lat="44.983410" lon="4.274870">
						<ele>1136</ele>
						<time>2026-09-02T23:26:40Z</time>
					</trkpt>
					<trkpt lat="44.983450" lon="4.274680">
						<ele>1136</ele>
						<time>2026-09-02T23:26:47Z</time>
					</trkpt>
					<trkpt lat="44.983760" lon="4.274060">
						<ele>1135</ele>
						<time>2026-09-02T23:27:14Z</time>
					</trkpt>
					<trkpt lat="44.983920" lon="4.273790">
						<ele>1136</ele>
						<time>2026-09-02T23:27:27Z</time>
					</trkpt>
					<trkpt lat="44.984350" lon="4.273320">
						<ele>1137</ele>
						<time>2026-09-02T23:27:54Z</time>
					</trkpt>
					<trkpt lat="44.984990" lon="4.272440">
						<ele>1137</ele>
						<time>2026-09-02T23:28:39Z</time>
					</trkpt>
					<trkpt lat="44.985230" lon="4.272280">
						<ele>1136</ele>
						<time>2026-09-02T23:28:52Z</time>
					</trkpt>
					<trkpt lat="44.985420" lon="4.272060">
						<ele>1135</ele>
						<time>2026-09-02T23:29:04Z</time>
					</trkpt>
					<trkpt lat="44.985830" lon="4.271440">
						<ele>1135</ele>
						<time>2026-09-02T23:29:34Z</time>
					</trkpt>
					<trkpt lat="44.986490" lon="4.270290">
						<ele>1136</ele>
						<time>2026-09-02T23:30:27Z</time>
					</trkpt>
					<trkpt lat="44.986740" lon="4.270150">
						<ele>1135</ele>
						<time>2026-09-02T23:30:40Z</time>
					</trkpt>
					<trkpt lat="44.986770" lon="4.270100">
						<ele>1135</ele>
						<time>2026-09-02T23:30:42Z</time>
					</trkpt>
					<trkpt lat="44.986960" lon="4.269570">
						<ele>1135</ele>
						<time>2026-09-02T23:31:03Z</time>
					</trkpt>
					<trkpt lat="44.987260" lon="4.268870">
						<ele>1135</ele>
						<time>2026-09-02T23:31:32Z</time>
					</trkpt>
					<trkpt lat="44.987490" lon="4.268420">
						<ele>1135</ele>
						<time>2026-09-02T23:31:52Z</time>
					</trkpt>
					<trkpt lat="44.987600" lon="4.268060">
						<ele>1135</ele>
						<time>2026-09-02T23:32:06Z</time>
					</trkpt>
					<trkpt lat="44.987680" lon="4.267550">
						<ele>1136</ele>
						<time>2026-09-02T23:32:24Z</time>
					</trkpt>
					<trkpt lat="44.987860" lon="4.265250">
						<ele>1137</ele>
						<time>2026-09-02T23:33:46Z</time>
					</trkpt>
					<trkpt lat="44.988000" lon="4.264640">
						<ele>1135</ele>
						<time>2026-09-02T23:34:09Z</time>
					</trkpt>
					<trkpt lat="44.988020" lon="4.264220">
						<ele>1134</ele>
						<time>2026-09-02T23:34:24Z</time>
					</trkpt>
					<trkpt lat="44.988150" lon="4.263660">
						<ele>1131</ele>
						<time>2026-09-02T23:34:45Z</time>
					</trkpt>
					<trkpt lat="44.988280" lon="4.262850">
						<ele>1130</ele>
						<time>2026-09-02T23:35:14Z</time>
					</trkpt>
					<trkpt lat="44.988550" lon="4.262160">
						<ele>1127</ele>
						<time>2026-09-02T23:35:42Z</time>
					</trkpt>
					<trkpt lat="44.989070" lon="4.261990">
						<ele>1125</ele>
						<time>2026-09-02T23:36:09Z</time>
					</trkpt>
					<trkpt lat="44.989150" lon="4.261940">
						<ele>1124</ele>
						<time>2026-09-02T23:36:13Z</time>
					</trkpt>
					<trkpt lat="44.989200" lon="4.261790">
						<ele>1124</ele>
						<time>2026-09-02T23:36:19Z</time>
					</trkpt>
					<trkpt lat="44.989150" lon="4.261940">
						<ele>1124</ele>
						<time>2026-09-02T23:36:25Z</time>
					</trkpt>
					<trkpt lat="44.988350" lon="4.260500">
						<ele>1120</ele>
						<time>2026-09-02T23:37:30Z</time>
					</trkpt>
					<trkpt lat="44.987940" lon="4.260040">
						<ele>1118</ele>
						<time>2026-09-02T23:37:56Z</time>
					</trkpt>
					<trkpt lat="44.987270" lon="4.259380">
						<ele>1118</ele>
						<time>2026-09-02T23:38:37Z</time>
					</trkpt>
					<trkpt lat="44.987350" lon="4.258500">
						<ele>1114</ele>
						<time>2026-09-02T23:39:08Z</time>
					</trkpt>
					<trkpt lat="44.987800" lon="4.256940">
						<ele>1113</ele>
						<time>2026-09-02T23:40:08Z</time>
					</trkpt>
					<trkpt lat="44.987830" lon="4.256550">
						<ele>1114</ele>
						<time>2026-09-02T23:40:22Z</time>
					</trkpt>
					<trkpt lat="44.987800" lon="4.254590">
						<ele>1123</ele>
						<time>2026-09-02T23:41:31Z</time>
					</trkpt>
					<trkpt lat="44.987910" lon="4.253740">
						<ele>1128</ele>
						<time>2026-09-02T23:42:02Z</time>
					</trkpt>
					<trkpt lat="44.988440" lon="4.252050">
						<ele>1137</ele>
						<time>2026-09-02T23:43:07Z</time>
					</trkpt>
					<trkpt lat="44.988700" lon="4.251730">
						<ele>1138</ele>
						<time>2026-09-02T23:43:24Z</time>
					</trkpt>
					<trkpt lat="44.988800" lon="4.251310">
						<ele>1139</ele>
						<time>2026-09-02T23:43:40Z</time>
					</trkpt>
					<trkpt lat="44.988850" lon="4.251190">
						<ele>1139</ele>
						<time>2026-09-02T23:43:45Z</time>
					</trkpt>
					<trkpt lat="44.988970" lon="4.251070">
						<ele>1139</ele>
						<time>2026-09-02T23:43:52Z</time>
					</trkpt>
					<trkpt lat="44.989090" lon="4.251050">
						<ele>1139</ele>
						<time>2026-09-02T23:43:58Z</time>
					</trkpt>
					<trkpt lat="44.988970" lon="4.251070">
						<ele>1139</ele>
						<time>2026-09-02T23:44:04Z</time>
					</trkpt>
					<trkpt lat="44.988930" lon="4.250910">
						<ele>1140</ele>
						<time>2026-09-02T23:44:10Z</time>
					</trkpt>
					<trkpt lat="44.988820" lon="4.250770">
						<ele>1141</ele>
						<time>2026-09-02T23:44:18Z</time>
					</trkpt>
					<trkpt lat="44.988640" lon="4.250660">
						<ele>1142</ele>
						<time>2026-09-02T23:44:28Z</time>
					</trkpt>
					<trkpt lat="44.988450" lon="4.250610">
						<ele>1143</ele>
						<time>2026-09-02T23:44:37Z</time>
					</trkpt>
					<trkpt lat="44.988390" lon="4.249960">
						<ele>1146</ele>
						<time>2026-09-02T23:45:01Z</time>
					</trkpt>
					<trkpt lat="44.988380" lon="4.249250">
						<ele>1148</ele>
						<time>2026-09-02T23:45:26Z</time>
					</trkpt>
					<trkpt lat="44.988260" lon="4.248400">
						<ele>1152</ele>
						<time>2026-09-02T23:45:56Z</time>
					</trkpt>
					<trkpt lat="44.988350" lon="4.246740">
						<ele>1155</ele>
						<time>2026-09-02T23:46:55Z</time>
					</trkpt>
					<trkpt lat="44.988270" lon="4.246280">
						<ele>1156</ele>
						<time>2026-09-02T23:47:12Z</time>
					</trkpt>
					<trkpt lat="44.988150" lon="4.245960">
						<ele>1157</ele>
						<time>2026-09-02T23:47:25Z</time>
					</trkpt>
					<trkpt lat="44.987940" lon="4.245220">
						<ele>1156</ele>
						<time>2026-09-02T23:47:53Z</time>
					</trkpt>
					<trkpt lat="44.987900" lon="4.245000">
						<ele>1156</ele>
						<time>2026-09-02T23:48:01Z</time>
					</trkpt>
					<trkpt lat="44.987790" lon="4.243730">
						<ele>1148</ele>
						<time>2026-09-02T23:48:46Z</time>
					</trkpt>
					<trkpt lat="44.987850" lon="4.242820">
						<ele>1137</ele>
						<time>2026-09-02T23:49:19Z</time>
					</trkpt>
					<trkpt lat="44.987950" lon="4.242530">
						<ele>1131</ele>
						<time>2026-09-02T23:49:30Z</time>
					</trkpt>
					<trkpt lat="44.987910" lon="4.242130">
						<ele>1125</ele>
						<time>2026-09-02T23:49:44Z</time>
					</trkpt>
					<trkpt lat="44.987910" lon="4.241800">
						<ele>1120</ele>
						<time>2026-09-02T23:49:56Z</time>
					</trkpt>
					<trkpt lat="44.987810" lon="4.241290">
						<ele>1114</ele>
						<time>2026-09-02T23:50:15Z</time>
					</trkpt>
					<trkpt lat="44.987560" lon="4.240650">
						<ele>1108</ele>
						<time>2026-09-02T23:50:41Z</time>
					</trkpt>
					<trkpt lat="44.987500" lon="4.240420">
						<ele>1105</ele>
						<time>2026-09-02T23:50:49Z</time>
					</trkpt>
					<trkpt lat="44.987510" lon="4.240060">
						<ele>1100</ele>
						<time>2026-09-02T23:51:02Z</time>
					</trkpt>
					<trkpt lat="44.987560" lon="4.239810">
						<ele>1097</ele>
						<time>2026-09-02T23:51:11Z</time>
					</trkpt>
					<trkpt lat="44.987610" lon="4.239050">
						<ele>1092</ele>
						<time>2026-09-02T23:51:38Z</time>
					</trkpt>
					<trkpt lat="44.987710" lon="4.238490">
						<ele>1087</ele>
						<time>2026-09-02T23:51:59Z</time>
					</trkpt>
					<trkpt lat="44.987720" lon="4.238280">
						<ele>1086</ele>
						<time>2026-09-02T23:52:06Z</time>
					</trkpt>
					<trkpt lat="44.987850" lon="4.237420">
						<ele>1085</ele>
						<time>2026-09-02T23:52:37Z</time>
					</trkpt>
					<trkpt lat="44.987820" lon="4.236210">
						<ele>1088</ele>
						<time>2026-09-02T23:53:20Z</time>
					</trkpt>
					<trkpt lat="44.987870" lon="4.235070">
						<ele>1092</ele>
						<time>2026-09-02T23:54:01Z</time>
					</trkpt>
					<trkpt lat="44.987930" lon="4.234490">
						<ele>1094</ele>
						<time>2026-09-02T23:54:21Z</time>
					</trkpt>
					<trkpt lat="44.987920" lon="4.234530">
						<ele>1094</ele>
						<time>2026-09-02T23:54:23Z</time>
					</trkpt>
					<trkpt lat="44.987860" lon="4.234480">
						<ele>1095</ele>
						<time>2026-09-02T23:54:26Z</time>
					</trkpt>
					<trkpt lat="44.987630" lon="4.234470">
						<ele>1096</ele>
						<time>2026-09-02T23:54:38Z</time>
					</trkpt>
					<trkpt lat="44.987560" lon="4.234420">
						<ele>1096</ele>
						<time>2026-09-02T23:54:42Z</time>
					</trkpt>
					<trkpt lat="44.987410" lon="4.234230">
						<ele>1098</ele>
						<time>2026-09-02T23:54:52Z</time>
					</trkpt>
					<trkpt lat="44.987380" lon="4.234090">
						<ele>1099</ele>
						<time>2026-09-02T23:54:57Z</time>
					</trkpt>
					<trkpt lat="44.987090" lon="4.232400">
						<ele>1110</ele>
						<time>2026-09-02T23:55:59Z</time>
					</trkpt>
					<trkpt lat="44.987060" lon="4.231930">
						<ele>1114</ele>
						<time>2026-09-02T23:56:15Z</time>
					</trkpt>
					<trkpt lat="44.987020" lon="4.231710">
						<ele>1115</ele>
						<time>2026-09-02T23:56:23Z</time>
					</trkpt>
					<trkpt lat="44.987000" lon="4.230880">
						<ele>1124</ele>
						<time>2026-09-02T23:56:53Z</time>
					</trkpt>
					<trkpt lat="44.986960" lon="4.230340">
						<ele>1132</ele>
						<time>2026-09-02T23:57:12Z</time>
					</trkpt>
					<trkpt lat="44.986990" lon="4.230160">
						<ele>1135</ele>
						<time>2026-09-02T23:57:19Z</time>
					</trkpt>
					<trkpt lat="44.987030" lon="4.230120">
						<ele>1135</ele>
						<time>2026-09-02T23:57:21Z</time>
					</trkpt>
					<trkpt lat="44.987140" lon="4.230090">
						<ele>1136</ele>
						<time>2026-09-02T23:57:27Z</time>
					</trkpt>
					<trkpt lat="44.987030" lon="4.229730">
						<ele>1143</ele>
						<time>2026-09-02T23:57:40Z</time>
					</trkpt>
					<trkpt lat="44.986850" lon="4.229470">
						<ele>1148</ele>
						<time>2026-09-02T23:57:53Z</time>
					</trkpt>
					<trkpt lat="44.986590" lon="4.228420">
						<ele>1165</ele>
						<time>2026-09-02T23:58:33Z</time>
					</trkpt>
					<trkpt lat="44.986450" lon="4.228070">
						<ele>1168</ele>
						<time>2026-09-02T23:58:47Z</time>
					</trkpt>
					<trkpt lat="44.986300" lon="4.227780">
						<ele>1172</ele>
						<time>2026-09-02T23:59:00Z</time>
					</trkpt>
					<trkpt lat="44.986280" lon="4.227690">
						<ele>1173</ele>
						<time>2026-09-02T23:59:03Z</time>
					</trkpt>
					<trkpt lat="44.986300" lon="4.227350">
						<ele>1177</ele>
						<time>2026-09-02T23:59:15Z</time>
					</trkpt>
					<trkpt lat="44.986410" lon="4.226840">
						<ele>1179</ele>
						<time>2026-09-02T23:59:34Z</time>
					</trkpt>
					<trkpt lat="44.986360" lon="4.226350">
						<ele>1180</ele>
						<time>2026-09-02T23:59:51Z</time>
					</trkpt>
					<trkpt lat="44.986370" lon="4.226230">
						<ele>1180</ele>
						<time>2026-09-02T23:59:56Z</time>
					</trkpt>
					<trkpt lat="44.986300" lon="4.226210">
						<ele>1180</ele>
						<time>2026-09-02T23:59:59Z</time>
					</trkpt>
					<trkpt lat="44.986330" lon="4.226010">
						<ele>1180</ele>
						<time>2026-09-03T00:00:07Z</time>
					</trkpt>
					<trkpt lat="44.986190" lon="4.225930">
						<ele>1180</ele>
						<time>2026-09-03T00:00:14Z</time>
					</trkpt>
					<trkpt lat="44.986160" lon="4.226060">
						<ele>1180</ele>
						<time>2026-09-03T00:00:19Z</time>
					</trkpt>
					<trkpt lat="44.985740" lon="4.226070">
						<ele>1182</ele>
						<time>2026-09-03T00:00:40Z</time>
					</trkpt>
					<trkpt lat="44.985400" lon="4.226170">
						<ele>1182</ele>
						<time>2026-09-03T00:00:57Z</time>
					</trkpt>
					<trkpt lat="44.984980" lon="4.226350">
						<ele>1184</ele>
						<time>2026-09-03T00:01:19Z</time>
					</trkpt>
					<trkpt lat="44.984060" lon="4.226520">
						<ele>1189</ele>
						<time>2026-09-03T00:02:06Z</time>
					</trkpt>
					<trkpt lat="44.982920" lon="4.226030">
						<ele>1186</ele>
						<time>2026-09-03T00:03:05Z</time>
					</trkpt>
					<trkpt lat="44.981980" lon="4.225710">
						<ele>1183</ele>
						<time>2026-09-03T00:03:54Z</time>
					</trkpt>
					<trkpt lat="44.980280" lon="4.226780">
						<ele>1173</ele>
						<time>2026-09-03T00:05:27Z</time>
					</trkpt>
					<trkpt lat="44.979110" lon="4.227130">
						<ele>1171</ele>
						<time>2026-09-03T00:06:27Z</time>
					</trkpt>
					<trkpt lat="44.977850" lon="4.227380">
						<ele>1176</ele>
						<time>2026-09-03T00:07:30Z</time>
					</trkpt>
					<trkpt lat="44.977690" lon="4.228320">
						<ele>1170</ele>
						<time>2026-09-03T00:08:05Z</time>
					</trkpt>
					<trkpt lat="44.977960" lon="4.230120">
						<ele>1166</ele>
						<time>2026-09-03T00:09:10Z</time>
					</trkpt>
					<trkpt lat="44.976690" lon="4.231120">
						<ele>1169</ele>
						<time>2026-09-03T00:10:23Z</time>
					</trkpt>
					<trkpt lat="44.974650" lon="4.230870">
						<ele>1171</ele>
						<time>2026-09-03T00:12:05Z</time>
					</trkpt>
					<trkpt lat="44.972230" lon="4.230160">
						<ele>1177</ele>
						<time>2026-09-03T00:14:09Z</time>
					</trkpt>
					<trkpt lat="44.970430" lon="4.229330">
						<ele>1178</ele>
						<time>2026-09-03T00:15:43Z</time>
					</trkpt>
					<trkpt lat="44.970600" lon="4.228370">
						<ele>1181</ele>
						<time>2026-09-03T00:16:18Z</time>
					</trkpt>
					<trkpt lat="44.970930" lon="4.224820">
						<ele>1170</ele>
						<time>2026-09-03T00:18:25Z</time>
					</trkpt>
					<trkpt lat="44.971550" lon="4.222980">
						<ele>1164</ele>
						<time>2026-09-03T00:19:37Z</time>
					</trkpt>
					<trkpt lat="44.971170" lon="4.221270">
						<ele>1155</ele>
						<time>2026-09-03T00:20:41Z</time>
					</trkpt>
					<trkpt lat="44.969400" lon="4.219730">
						<ele>1147</ele>
						<time>2026-09-03T00:22:25Z</time>
					</trkpt>
					<trkpt lat="44.968050" lon="4.219110">
						<ele>1151</ele>
						<time>2026-09-03T00:23:36Z</time>
					</trkpt>
					<trkpt lat="44.967580" lon="4.218450">
						<ele>1151</ele>
						<time>2026-09-03T00:24:09Z</time>
					</trkpt>
					<trkpt lat="44.967350" lon="4.217610">
						<ele>1152</ele>
						<time>2026-09-03T00:24:41Z</time>
					</trkpt>
					<trkpt lat="44.966860" lon="4.216500">
						<ele>1157</ele>
						<time>2026-09-03T00:25:27Z</time>
					</trkpt>
					<trkpt lat="44.964970" lon="4.215570">
						<ele>1173</ele>
						<time>2026-09-03T00:27:07Z</time>
					</trkpt>
					<trkpt lat="44.963930" lon="4.214940">
						<ele>1186</ele>
						<time>2026-09-03T00:28:04Z</time>
					</trkpt>
					<trkpt lat="44.963850" lon="4.214930">
						<ele>1187</ele>
						<time>2026-09-03T00:28:08Z</time>
					</trkpt>
					<trkpt lat="44.963600" lon="4.214800">
						<ele>1192</ele>
						<time>2026-09-03T00:28:21Z</time>
					</trkpt>
					<trkpt lat="44.963510" lon="4.214810">
						<ele>1193</ele>
						<time>2026-09-03T00:28:26Z</time>
					</trkpt>
					<trkpt lat="44.963360" lon="4.214910">
						<ele>1195</ele>
						<time>2026-09-03T00:28:34Z</time>
					</trkpt>
					<trkpt lat="44.962600" lon="4.215660">
						<ele>1203</ele>
						<time>2026-09-03T00:29:21Z</time>
					</trkpt>
					<trkpt lat="44.962370" lon="4.215780">
						<ele>1205</ele>
						<time>2026-09-03T00:29:33Z</time>
					</trkpt>
					<trkpt lat="44.962060" lon="4.215810">
						<ele>1210</ele>
						<time>2026-09-03T00:29:48Z</time>
					</trkpt>
					<trkpt lat="44.961370" lon="4.215770">
						<ele>1218</ele>
						<time>2026-09-03T00:30:23Z</time>
					</trkpt>
					<trkpt lat="44.961230" lon="4.215700">
						<ele>1220</ele>
						<time>2026-09-03T00:30:30Z</time>
					</trkpt>
					<trkpt lat="44.961180" lon="4.215600">
						<ele>1221</ele>
						<time>2026-09-03T00:30:35Z</time>
					</trkpt>
					<trkpt lat="44.961120" lon="4.215640">
						<ele>1221</ele>
						<time>2026-09-03T00:30:38Z</time>
					</trkpt>
					<trkpt lat="44.961180" lon="4.215590">
						<ele>1221</ele>
						<time>2026-09-03T00:30:41Z</time>
					</trkpt>
					<trkpt lat="44.961150" lon="4.215480">
						<ele>1223</ele>
						<time>2026-09-03T00:30:46Z</time>
					</trkpt>
					<trkpt lat="44.960920" lon="4.213240">
						<ele>1243</ele>
						<time>2026-09-03T00:32:06Z</time>
					</trkpt>
					<trkpt lat="44.960750" lon="4.211880">
						<ele>1250</ele>
						<time>2026-09-03T00:32:55Z</time>
					</trkpt>
					<trkpt lat="44.960010" lon="4.209250">
						<ele>1262</ele>
						<time>2026-09-03T00:34:35Z</time>
					</trkpt>
					<trkpt lat="44.959940" lon="4.209230">
						<ele>1264</ele>
						<time>2026-09-03T00:34:39Z</time>
					</trkpt>
					<trkpt lat="44.959870" lon="4.209170">
						<ele>1267</ele>
						<time>2026-09-03T00:34:43Z</time>
					</trkpt>
					<trkpt lat="44.958950" lon="4.207800">
						<ele>1287</ele>
						<time>2026-09-03T00:35:49Z</time>
					</trkpt>
					<trkpt lat="44.958900" lon="4.207860">
						<ele>1289</ele>
						<time>2026-09-03T00:35:53Z</time>
					</trkpt>
					<trkpt lat="44.958950" lon="4.207800">
						<ele>1287</ele>
						<time>2026-09-03T00:35:56Z</time>
					</trkpt>
					<trkpt lat="44.958400" lon="4.207020">
						<ele>1295</ele>
						<time>2026-09-03T00:36:35Z</time>
					</trkpt>
					<trkpt lat="44.957980" lon="4.206510">
						<ele>1301</ele>
						<time>2026-09-03T00:37:03Z</time>
					</trkpt>
					<trkpt lat="44.957620" lon="4.206170">
						<ele>1305</ele>
						<time>2026-09-03T00:37:24Z</time>
					</trkpt>
					<trkpt lat="44.957450" lon="4.206030">
						<ele>1306</ele>
						<time>2026-09-03T00:37:34Z</time>
					</trkpt>
					<trkpt lat="44.957450" lon="4.206050">
						<ele>1306</ele>
						<time>2026-09-03T00:37:35Z</time>
					</trkpt>
					<trkpt lat="44.957450" lon="4.206030">
						<ele>1306</ele>
						<time>2026-09-03T00:37:36Z</time>
					</trkpt>
					<trkpt lat="44.956660" lon="4.205570">
						<ele>1312</ele>
						<time>2026-09-03T00:38:18Z</time>
					</trkpt>
					<trkpt lat="44.955220" lon="4.204510">
						<ele>1313</ele>
						<time>2026-09-03T00:39:40Z</time>
					</trkpt>
					<trkpt lat="44.955170" lon="4.204550">
						<ele>1314</ele>
						<time>2026-09-03T00:39:43Z</time>
					</trkpt>
					<trkpt lat="44.955190" lon="4.204490">
						<ele>1313</ele>
						<time>2026-09-03T00:39:45Z</time>
					</trkpt>
					<trkpt lat="44.954930" lon="4.204340">
						<ele>1314</ele>
						<time>2026-09-03T00:39:59Z</time>
					</trkpt>
					<trkpt lat="44.952080" lon="4.202810">
						<ele>1319</ele>
						<time>2026-09-03T00:42:32Z</time>
					</trkpt>
					<trkpt lat="44.951890" lon="4.202730">
						<ele>1319</ele>
						<time>2026-09-03T00:42:41Z</time>
					</trkpt>
					<trkpt lat="44.951780" lon="4.202710">
						<ele>1319</ele>
						<time>2026-09-03T00:42:47Z</time>
					</trkpt>
					<trkpt lat="44.951510" lon="4.202730">
						<ele>1317</ele>
						<time>2026-09-03T00:43:01Z</time>
					</trkpt>
					<trkpt lat="44.951400" lon="4.202780">
						<ele>1315</ele>
						<time>2026-09-03T00:43:06Z</time>
					</trkpt>
					<trkpt lat="44.951380" lon="4.202590">
						<ele>1314</ele>
						<time>2026-09-03T00:43:13Z</time>
					</trkpt>
					<trkpt lat="44.951410" lon="4.202060">
						<ele>1311</ele>
						<time>2026-09-03T00:43:32Z</time>
					</trkpt>
					<trkpt lat="44.951380" lon="4.201870">
						<ele>1310</ele>
						<time>2026-09-03T00:43:39Z</time>
					</trkpt>
					<trkpt lat="44.951290" lon="4.201800">
						<ele>1308</ele>
						<time>2026-09-03T00:43:44Z</time>
					</trkpt>
					<trkpt lat="44.951070" lon="4.201910">
						<ele>1305</ele>
						<time>2026-09-03T00:43:56Z</time>
					</trkpt>
					<trkpt lat="44.951100" lon="4.202010">
						<ele>1306</ele>
						<time>2026-09-03T00:44:00Z</time>
					</trkpt>
					<trkpt lat="44.951070" lon="4.201910">
						<ele>1305</ele>
						<time>2026-09-03T00:44:03Z</time>
					</trkpt>
					<trkpt lat="44.950970" lon="4.201980">
						<ele>1303</ele>
						<time>2026-09-03T00:44:09Z</time>
					</trkpt>
					<trkpt lat="44.950870" lon="4.202010">
						<ele>1302</ele>
						<time>2026-09-03T00:44:14Z</time>
					</trkpt>
					<trkpt lat="44.950800" lon="4.202250">
						<ele>1302</ele>
						<time>2026-09-03T00:44:23Z</time>
					</trkpt>
					<trkpt lat="44.950490" lon="4.202750">
						<ele>1299</ele>
						<time>2026-09-03T00:44:47Z</time>
					</trkpt>
					<trkpt lat="44.950460" lon="4.202760">
						<ele>1299</ele>
						<time>2026-09-03T00:44:48Z</time>
					</trkpt>
					<trkpt lat="44.950330" lon="4.202660">
						<ele>1296</ele>
						<time>2026-09-03T00:44:56Z</time>
					</trkpt>
					<trkpt lat="44.950290" lon="4.202790">
						<ele>1296</ele>
						<time>2026-09-03T00:45:01Z</time>
					</trkpt>
					<trkpt lat="44.950010" lon="4.203300">
						<ele>1295</ele>
						<time>2026-09-03T00:45:24Z</time>
					</trkpt>
					<trkpt lat="44.949840" lon="4.203700">
						<ele>1296</ele>
						<time>2026-09-03T00:45:40Z</time>
					</trkpt>
					<trkpt lat="44.949770" lon="4.203780">
						<ele>1295</ele>
						<time>2026-09-03T00:45:45Z</time>
					</trkpt>
					<trkpt lat="44.949680" lon="4.203970">
						<ele>1296</ele>
						<time>2026-09-03T00:45:53Z</time>
					</trkpt>
					<trkpt lat="44.949730" lon="4.204260">
						<ele>1299</ele>
						<time>2026-09-03T00:46:03Z</time>
					</trkpt>
					<trkpt lat="44.949630" lon="4.204090">
						<ele>1297</ele>
						<time>2026-09-03T00:46:11Z</time>
					</trkpt>
					<trkpt lat="44.949380" lon="4.204640">
						<ele>1299</ele>
						<time>2026-09-03T00:46:34Z</time>
					</trkpt>
					<trkpt lat="44.949320" lon="4.205090">
						<ele>1303</ele>
						<time>2026-09-03T00:46:51Z</time>
					</trkpt>
					<trkpt lat="44.949240" lon="4.205300">
						<ele>1305</ele>
						<time>2026-09-03T00:46:59Z</time>
					</trkpt>
					<trkpt lat="44.949010" lon="4.205840">
						<ele>1312</ele>
						<time>2026-09-03T00:47:21Z</time>
					</trkpt>
					<trkpt lat="44.948840" lon="4.206190">
						<ele>1317</ele>
						<time>2026-09-03T00:47:36Z</time>
					</trkpt>
					<trkpt lat="44.948610" lon="4.206570">
						<ele>1322</ele>
						<time>2026-09-03T00:47:54Z</time>
					</trkpt>
					<trkpt lat="44.948390" lon="4.207050">
						<ele>1327</ele>
						<time>2026-09-03T00:48:14Z</time>
					</trkpt>
					<trkpt lat="44.948290" lon="4.207310">
						<ele>1330</ele>
						<time>2026-09-03T00:48:25Z</time>
					</trkpt>
					<trkpt lat="44.948430" lon="4.207420">
						<ele>1330</ele>
						<time>2026-09-03T00:48:33Z</time>
					</trkpt>
					<trkpt lat="44.948290" lon="4.207310">
						<ele>1330</ele>
						<time>2026-09-03T00:48:41Z</time>
					</trkpt>
					<trkpt lat="44.948140" lon="4.207690">
						<ele>1335</ele>
						<time>2026-09-03T00:48:56Z</time>
					</trkpt>
					<trkpt lat="44.947790" lon="4.208370">
						<ele>1342</ele>
						<time>2026-09-03T00:49:26Z</time>
					</trkpt>
					<trkpt lat="44.947770" lon="4.208490">
						<ele>1343</ele>
						<time>2026-09-03T00:49:30Z</time>
					</trkpt>
					<trkpt lat="44.947540" lon="4.208610">
						<ele>1344</ele>
						<time>2026-09-03T00:49:43Z</time>
					</trkpt>
					<trkpt lat="44.946270" lon="4.209680">
						<ele>1358</ele>
						<time>2026-09-03T00:50:57Z</time>
					</trkpt>
					<trkpt lat="44.945730" lon="4.210070">
						<ele>1362</ele>
						<time>2026-09-03T00:51:27Z</time>
					</trkpt>
					<trkpt lat="44.944960" lon="4.210530">
						<ele>1365</ele>
						<time>2026-09-03T00:52:09Z</time>
					</trkpt>
					<trkpt lat="44.944740" lon="4.210630">
						<ele>1366</ele>
						<time>2026-09-03T00:52:20Z</time>
					</trkpt>
					<trkpt lat="44.944120" lon="4.210810">
						<ele>1371</ele>
						<time>2026-09-03T00:52:52Z</time>
					</trkpt>
					<trkpt lat="44.944170" lon="4.210860">
						<ele>1371</ele>
						<time>2026-09-03T00:52:55Z</time>
					</trkpt>
					<trkpt lat="44.943160" lon="4.209830">
						<ele>1372</ele>
						<time>2026-09-03T00:53:57Z</time>
					</trkpt>
					<trkpt lat="44.942790" lon="4.209360">
						<ele>1371</ele>
						<time>2026-09-03T00:54:22Z</time>
					</trkpt>
					<trkpt lat="44.941970" lon="4.208210">
						<ele>1367</ele>
						<time>2026-09-03T00:55:20Z</time>
					</trkpt>
					<trkpt lat="44.941150" lon="4.207320">
						<ele>1358</ele>
						<time>2026-09-03T00:56:12Z</time>
					</trkpt>
					<trkpt lat="44.941030" lon="4.207010">
						<ele>1356</ele>
						<time>2026-09-03T00:56:24Z</time>
					</trkpt>
					<trkpt lat="44.940810" lon="4.206250">
						<ele>1352</ele>
						<time>2026-09-03T00:56:54Z</time>
					</trkpt>
					<trkpt lat="44.940330" lon="4.204950">
						<ele>1336</ele>
						<time>2026-09-03T00:57:45Z</time>
					</trkpt>
					<trkpt lat="44.940120" lon="4.204560">
						<ele>1332</ele>
						<time>2026-09-03T00:58:03Z</time>
					</trkpt>
					<trkpt lat="44.940040" lon="4.204470">
						<ele>1331</ele>
						<time>2026-09-03T00:58:08Z</time>
					</trkpt>
					<trkpt lat="44.939270" lon="4.204140">
						<ele>1325</ele>
						<time>2026-09-03T00:58:48Z</time>
					</trkpt>
					<trkpt lat="44.939160" lon="4.204000">
						<ele>1324</ele>
						<time>2026-09-03T00:58:56Z</time>
					</trkpt>
					<trkpt lat="44.939110" lon="4.204030">
						<ele>1324</ele>
						<time>2026-09-03T00:58:58Z</time>
					</trkpt>
					<trkpt lat="44.939040" lon="4.204030">
						<ele>1324</ele>
						<time>2026-09-03T00:59:02Z</time>
					</trkpt>
					<trkpt lat="44.938720" lon="4.203940">
						<ele>1324</ele>
						<time>2026-09-03T00:59:18Z</time>
					</trkpt>
					<trkpt lat="44.938160" lon="4.204120">
						<ele>1327</ele>
						<time>2026-09-03T00:59:47Z</time>
					</trkpt>
					<trkpt lat="44.937660" lon="4.204970">
						<ele>1325</ele>
						<time>2026-09-03T01:00:26Z</time>
					</trkpt>
					<trkpt lat="44.934880" lon="4.210060">
						<ele>1310</ele>
						<time>2026-09-03T01:04:14Z</time>
					</trkpt>
					<trkpt lat="44.933780" lon="4.210190">
						<ele>1324</ele>
						<time>2026-09-03T01:05:09Z</time>
					</trkpt>
					<trkpt lat="44.930910" lon="4.212100">
						<ele>1360</ele>
						<time>2026-09-03T01:07:48Z</time>
					</trkpt>
					<trkpt lat="44.930150" lon="4.212050">
						<ele>1362</ele>
						<time>2026-09-03T01:08:26Z</time>
					</trkpt>
					<trkpt lat="44.929480" lon="4.212710">
						<ele>1350</ele>
						<time>2026-09-03T01:09:07Z</time>
					</trkpt>
					<trkpt lat="44.928800" lon="4.211910">
						<ele>1346</ele>
						<time>2026-09-03T01:09:51Z</time>
					</trkpt>
					<trkpt lat="44.927530" lon="4.211560">
						<ele>1335</ele>
						<time>2026-09-03T01:10:56Z</time>
					</trkpt>
					<trkpt lat="44.925550" lon="4.211640">
						<ele>1322</ele>
						<time>2026-09-03T01:12:35Z</time>
					</trkpt>
					<trkpt lat="44.924140" lon="4.211860">
						<ele>1326</ele>
						<time>2026-09-03T01:13:46Z</time>
					</trkpt>
					<trkpt lat="44.922950" lon="4.211830">
						<ele>1350</ele>
						<time>2026-09-03T01:14:45Z</time>
					</trkpt>
					<trkpt lat="44.921200" lon="4.212820">
						<ele>1366</ele>
						<time>2026-09-03T01:16:20Z</time>
					</trkpt>
					<trkpt lat="44.920650" lon="4.212740">
						<ele>1373</ele>
						<time>2026-09-03T01:16:47Z</time>
					</trkpt>
					<trkpt lat="44.921220" lon="4.212240">
						<ele>1373</ele>
						<time>2026-09-03T01:17:21Z</time>
					</trkpt>
					<trkpt lat="44.923770" lon="4.207510">
						<ele>1438</ele>
						<time>2026-09-03T01:20:52Z</time>
					</trkpt>
					<trkpt lat="44.924760" lon="4.207290">
						<ele>1434</ele>
						<time>2026-09-03T01:21:42Z</time>
					</trkpt>
					<trkpt lat="44.926270" lon="4.207570">
						<ele>1429</ele>
						<time>2026-09-03T01:22:58Z</time>
					</trkpt>
					<trkpt lat="44.926950" lon="4.207420">
						<ele>1430</ele>
						<time>2026-09-03T01:23:32Z</time>
					</trkpt>
					<trkpt lat="44.927530" lon="4.207100">
						<ele>1431</ele>
						<time>2026-09-03T01:24:04Z</time>
					</trkpt>
					<trkpt lat="44.926890" lon="4.206860">
						<ele>1434</ele>
						<time>2026-09-03T01:24:37Z</time>
					</trkpt>
					<trkpt lat="44.926710" lon="4.206220">
						<ele>1442</ele>
						<time>2026-09-03T01:25:01Z</time>
					</trkpt>
					<trkpt lat="44.926310" lon="4.205920">
						<ele>1452</ele>
						<time>2026-09-03T01:25:24Z</time>
					</trkpt>
					<trkpt lat="44.925460" lon="4.205980">
						<ele>1459</ele>
						<time>2026-09-03T01:26:06Z</time>
					</trkpt>
					<trkpt lat="44.924990" lon="4.205880">
						<ele>1463</ele>
						<time>2026-09-03T01:26:30Z</time>
					</trkpt>
					<trkpt lat="44.925110" lon="4.205510">
						<ele>1469</ele>
						<time>2026-09-03T01:26:45Z</time>
					</trkpt>
					<trkpt lat="44.925610" lon="4.204970">
						<ele>1472</ele>
						<time>2026-09-03T01:27:16Z</time>
					</trkpt>
					<trkpt lat="44.925900" lon="4.204310">
						<ele>1475</ele>
						<time>2026-09-03T01:27:44Z</time>
					</trkpt>
					<trkpt lat="44.926010" lon="4.202880">
						<ele>1482</ele>
						<time>2026-09-03T01:28:35Z</time>
					</trkpt>
					<trkpt lat="44.924880" lon="4.203400">
						<ele>1502</ele>
						<time>2026-09-03T01:29:34Z</time>
					</trkpt>
					<trkpt lat="44.924330" lon="4.202990">
						<ele>1502</ele>
						<time>2026-09-03T01:30:05Z</time>
					</trkpt>
					<trkpt lat="44.921220" lon="4.198700">
						<ele>1523</ele>
						<time>2026-09-03T01:33:43Z</time>
					</trkpt>
					<trkpt lat="44.921130" lon="4.198800">
						<ele>1525</ele>
						<time>2026-09-03T01:33:49Z</time>
					</trkpt>
					<trkpt lat="44.920590" lon="4.199170">
						<ele>1532</ele>
						<time>2026-09-03T01:34:19Z</time>
					</trkpt>
					<trkpt lat="44.920480" lon="4.199190">
						<ele>1533</ele>
						<time>2026-09-03T01:34:24Z</time>
					</trkpt>
					<trkpt lat="44.920360" lon="4.199070">
						<ele>1534</ele>
						<time>2026-09-03T01:34:31Z</time>
					</trkpt>
					<trkpt lat="44.920250" lon="4.198630">
						<ele>1536</ele>
						<time>2026-09-03T01:34:48Z</time>
					</trkpt>
					<trkpt lat="44.920280" lon="4.198340">
						<ele>1536</ele>
						<time>2026-09-03T01:34:58Z</time>
					</trkpt>
					<trkpt lat="44.920270" lon="4.198110">
						<ele>1538</ele>
						<time>2026-09-03T01:35:07Z</time>
					</trkpt>
					<trkpt lat="44.920230" lon="4.197990">
						<ele>1540</ele>
						<time>2026-09-03T01:35:11Z</time>
					</trkpt>
					<trkpt lat="44.920070" lon="4.197730">
						<ele>1545</ele>
						<time>2026-09-03T01:35:23Z</time>
					</trkpt>
					<trkpt lat="44.920050" lon="4.197610">
						<ele>1546</ele>
						<time>2026-09-03T01:35:28Z</time>
					</trkpt>
					<trkpt lat="44.920090" lon="4.197320">
						<ele>1548</ele>
						<time>2026-09-03T01:35:38Z</time>
					</trkpt>
					<trkpt lat="44.920450" lon="4.196380">
						<ele>1549</ele>
						<time>2026-09-03T01:36:16Z</time>
					</trkpt>
					<trkpt lat="44.920520" lon="4.196080">
						<ele>1550</ele>
						<time>2026-09-03T01:36:27Z</time>
					</trkpt>
					<trkpt lat="44.920520" lon="4.195080">
						<ele>1554</ele>
						<time>2026-09-03T01:37:03Z</time>
					</trkpt>
					<trkpt lat="44.920470" lon="4.194360">
						<ele>1555</ele>
						<time>2026-09-03T01:37:28Z</time>
					</trkpt>
					<trkpt lat="44.920340" lon="4.193590">
						<ele>1557</ele>
						<time>2026-09-03T01:37:56Z</time>
					</trkpt>
					<trkpt lat="44.919950" lon="4.192550">
						<ele>1559</ele>
						<time>2026-09-03T01:38:38Z</time>
					</trkpt>
					<trkpt lat="44.919840" lon="4.192170">
						<ele>1558</ele>
						<time>2026-09-03T01:38:53Z</time>
					</trkpt>
					<trkpt lat="44.919710" lon="4.191650">
						<ele>1556</ele>
						<time>2026-09-03T01:39:12Z</time>
					</trkpt>
					<trkpt lat="44.919570" lon="4.190820">
						<ele>1553</ele>
						<time>2026-09-03T01:39:42Z</time>
					</trkpt>
					<trkpt lat="44.919440" lon="4.190250">
						<ele>1553</ele>
						<time>2026-09-03T01:40:04Z</time>
					</trkpt>
					<trkpt lat="44.919320" lon="4.189920">
						<ele>1555</ele>
						<time>2026-09-03T01:40:17Z</time>
					</trkpt>
					<trkpt lat="44.919140" lon="4.189570">
						<ele>1559</ele>
						<time>2026-09-03T01:40:32Z</time>
					</trkpt>
					<trkpt lat="44.918970" lon="4.188660">
						<ele>1561</ele>
						<time>2026-09-03T01:41:06Z</time>
					</trkpt>
					<trkpt lat="44.918720" lon="4.187830">
						<ele>1561</ele>
						<time>2026-09-03T01:41:37Z</time>
					</trkpt>
					<trkpt lat="44.918640" lon="4.187640">
						<ele>1561</ele>
						<time>2026-09-03T01:41:45Z</time>
					</trkpt>
					<trkpt lat="44.917820" lon="4.186340">
						<ele>1567</ele>
						<time>2026-09-03T01:42:47Z</time>
					</trkpt>
					<trkpt lat="44.917640" lon="4.185970">
						<ele>1568</ele>
						<time>2026-09-03T01:43:03Z</time>
					</trkpt>
					<trkpt lat="44.917480" lon="4.185410">
						<ele>1567</ele>
						<time>2026-09-03T01:43:24Z</time>
					</trkpt>
					<trkpt lat="44.917250" lon="4.184870">
						<ele>1569</ele>
						<time>2026-09-03T01:43:47Z</time>
					</trkpt>
					<trkpt lat="44.917090" lon="4.184580">
						<ele>1571</ele>
						<time>2026-09-03T01:44:00Z</time>
					</trkpt>
					<trkpt lat="44.916840" lon="4.183980">
						<ele>1573</ele>
						<time>2026-09-03T01:44:24Z</time>
					</trkpt>
					<trkpt lat="44.916210" lon="4.182050">
						<ele>1576</ele>
						<time>2026-09-03T01:45:40Z</time>
					</trkpt>
					<trkpt lat="44.916120" lon="4.181710">
						<ele>1576</ele>
						<time>2026-09-03T01:45:53Z</time>
					</trkpt>
					<trkpt lat="44.916050" lon="4.181320">
						<ele>1576</ele>
						<time>2026-09-03T01:46:07Z</time>
					</trkpt>
					<trkpt lat="44.915920" lon="4.180330">
						<ele>1575</ele>
						<time>2026-09-03T01:46:42Z</time>
					</trkpt>
					<trkpt lat="44.915900" lon="4.180010">
						<ele>1575</ele>
						<time>2026-09-03T01:46:54Z</time>
					</trkpt>
					<trkpt lat="44.915900" lon="4.178980">
						<ele>1571</ele>
						<time>2026-09-03T01:47:30Z</time>
					</trkpt>
					<trkpt lat="44.915940" lon="4.178610">
						<ele>1569</ele>
						<time>2026-09-03T01:47:44Z</time>
					</trkpt>
					<trkpt lat="44.915800" lon="4.178680">
						<ele>1571</ele>
						<time>2026-09-03T01:47:51Z</time>
					</trkpt>
					<trkpt lat="44.915940" lon="4.178610">
						<ele>1569</ele>
						<time>2026-09-03T01:47:58Z</time>
					</trkpt>
					<trkpt lat="44.915840" lon="4.178350">
						<ele>1569</ele>
						<time>2026-09-03T01:48:09Z</time>
					</trkpt>
					<trkpt lat="44.915750" lon="4.177990">
						<ele>1567</ele>
						<time>2026-09-03T01:48:22Z</time>
					</trkpt>
					<trkpt lat="44.915550" lon="4.177370">
						<ele>1562</ele>
						<time>2026-09-03T01:48:47Z</time>
					</trkpt>
					<trkpt lat="44.915440" lon="4.176590">
						<ele>1556</ele>
						<time>2026-09-03T01:49:15Z</time>
					</trkpt>
					<trkpt lat="44.915410" lon="4.176150">
						<ele>1553</ele>
						<time>2026-09-03T01:49:30Z</time>
					</trkpt>
					<trkpt lat="44.915360" lon="4.176050">
						<ele>1552</ele>
						<time>2026-09-03T01:49:35Z</time>
					</trkpt>
					<trkpt lat="44.915160" lon="4.176300">
						<ele>1552</ele>
						<time>2026-09-03T01:49:48Z</time>
					</trkpt>
					<trkpt lat="44.914970" lon="4.176470">
						<ele>1551</ele>
						<time>2026-09-03T01:49:59Z</time>
					</trkpt>
					<trkpt lat="44.913990" lon="4.177510">
						<ele>1550</ele>
						<time>2026-09-03T01:51:01Z</time>
					</trkpt>
					<trkpt lat="44.913390" lon="4.178270">
						<ele>1551</ele>
						<time>2026-09-03T01:51:41Z</time>
					</trkpt>
					<trkpt lat="44.912980" lon="4.178660">
						<ele>1553</ele>
						<time>2026-09-03T01:52:06Z</time>
					</trkpt>
					<trkpt lat="44.912810" lon="4.178800">
						<ele>1554</ele>
						<time>2026-09-03T01:52:16Z</time>
					</trkpt>
					<trkpt lat="44.912160" lon="4.179200">
						<ele>1555</ele>
						<time>2026-09-03T01:52:51Z</time>
					</trkpt>
					<trkpt lat="44.911790" lon="4.179470">
						<ele>1556</ele>
						<time>2026-09-03T01:53:12Z</time>
					</trkpt>
					<trkpt lat="44.911250" lon="4.179790">
						<ele>1557</ele>
						<time>2026-09-03T01:53:41Z</time>
					</trkpt>
					<trkpt lat="44.910780" lon="4.180140">
						<ele>1559</ele>
						<time>2026-09-03T01:54:08Z</time>
					</trkpt>
					<trkpt lat="44.910470" lon="4.180270">
						<ele>1560</ele>
						<time>2026-09-03T01:54:24Z</time>
					</trkpt>
					<trkpt lat="44.910140" lon="4.180530">
						<ele>1563</ele>
						<time>2026-09-03T01:54:43Z</time>
					</trkpt>
					<trkpt lat="44.908910" lon="4.181340">
						<ele>1567</ele>
						<time>2026-09-03T01:55:51Z</time>
					</trkpt>
					<trkpt lat="44.908720" lon="4.181490">
						<ele>1567</ele>
						<time>2026-09-03T01:56:02Z</time>
					</trkpt>
					<trkpt lat="44.908670" lon="4.181590">
						<ele>1568</ele>
						<time>2026-09-03T01:56:06Z</time>
					</trkpt>
					<trkpt lat="44.908590" lon="4.181630">
						<ele>1568</ele>
						<time>2026-09-03T01:56:10Z</time>
					</trkpt>
					<trkpt lat="44.908490" lon="4.181770">
						<ele>1568</ele>
						<time>2026-09-03T01:56:17Z</time>
					</trkpt>
					<trkpt lat="44.908350" lon="4.181910">
						<ele>1568</ele>
						<time>2026-09-03T01:56:26Z</time>
					</trkpt>
					<trkpt lat="44.908010" lon="4.181990">
						<ele>1566</ele>
						<time>2026-09-03T01:56:43Z</time>
					</trkpt>
					<trkpt lat="44.907810" lon="4.182100">
						<ele>1565</ele>
						<time>2026-09-03T01:56:54Z</time>
					</trkpt>
					<trkpt lat="44.907680" lon="4.182100">
						<ele>1563</ele>
						<time>2026-09-03T01:57:01Z</time>
					</trkpt>
					<trkpt lat="44.907560" lon="4.182140">
						<ele>1562</ele>
						<time>2026-09-03T01:57:07Z</time>
					</trkpt>
					<trkpt lat="44.906600" lon="4.182510">
						<ele>1558</ele>
						<time>2026-09-03T01:57:57Z</time>
					</trkpt>
					<trkpt lat="44.906110" lon="4.182670">
						<ele>1552</ele>
						<time>2026-09-03T01:58:22Z</time>
					</trkpt>
					<trkpt lat="44.904290" lon="4.182870">
						<ele>1532</ele>
						<time>2026-09-03T01:59:53Z</time>
					</trkpt>
					<trkpt lat="44.903620" lon="4.182830">
						<ele>1524</ele>
						<time>2026-09-03T02:00:27Z</time>
					</trkpt>
					<trkpt lat="44.903250" lon="4.182880">
						<ele>1521</ele>
						<time>2026-09-03T02:00:45Z</time>
					</trkpt>
					<trkpt lat="44.903110" lon="4.182860">
						<ele>1520</ele>
						<time>2026-09-03T02:00:52Z</time>
					</trkpt>
					<trkpt lat="44.902820" lon="4.182880">
						<ele>1518</ele>
						<time>2026-09-03T02:01:07Z</time>
					</trkpt>
					<trkpt lat="44.902520" lon="4.182870">
						<ele>1515</ele>
						<time>2026-09-03T02:01:22Z</time>
					</trkpt>
					<trkpt lat="44.901890" lon="4.182740">
						<ele>1510</ele>
						<time>2026-09-03T02:01:54Z</time>
					</trkpt>
					<trkpt lat="44.901240" lon="4.182690">
						<ele>1507</ele>
						<time>2026-09-03T02:02:26Z</time>
					</trkpt>
					<trkpt lat="44.900940" lon="4.182640">
						<ele>1505</ele>
						<time>2026-09-03T02:02:41Z</time>
					</trkpt>
					<trkpt lat="44.900730" lon="4.182540">
						<ele>1503</ele>
						<time>2026-09-03T02:02:52Z</time>
					</trkpt>
					<trkpt lat="44.900600" lon="4.182610">
						<ele>1503</ele>
						<time>2026-09-03T02:02:59Z</time>
					</trkpt>
					<trkpt lat="44.900430" lon="4.182600">
						<ele>1502</ele>
						<time>2026-09-03T02:03:08Z</time>
					</trkpt>
					<trkpt lat="44.900230" lon="4.182640">
						<ele>1501</ele>
						<time>2026-09-03T02:03:18Z</time>
					</trkpt>
					<trkpt lat="44.900040" lon="4.183300">
						<ele>1506</ele>
						<time>2026-09-03T02:03:43Z</time>
					</trkpt>
					<trkpt lat="44.899930" lon="4.183560">
						<ele>1508</ele>
						<time>2026-09-03T02:03:54Z</time>
					</trkpt>
					<trkpt lat="44.899650" lon="4.184760">
						<ele>1514</ele>
						<time>2026-09-03T02:04:39Z</time>
					</trkpt>
					<trkpt lat="44.899510" lon="4.185140">
						<ele>1514</ele>
						<time>2026-09-03T02:04:54Z</time>
					</trkpt>
					<trkpt lat="44.899610" lon="4.185110">
						<ele>1514</ele>
						<time>2026-09-03T02:04:59Z</time>
					</trkpt>
					<trkpt lat="44.899400" lon="4.185190">
						<ele>1513</ele>
						<time>2026-09-03T02:05:10Z</time>
					</trkpt>
					<trkpt lat="44.899320" lon="4.184930">
						<ele>1514</ele>
						<time>2026-09-03T02:05:20Z</time>
					</trkpt>
					<trkpt lat="44.899250" lon="4.185000">
						<ele>1514</ele>
						<time>2026-09-03T02:05:24Z</time>
					</trkpt>
					<trkpt lat="44.899170" lon="4.185020">
						<ele>1514</ele>
						<time>2026-09-03T02:05:28Z</time>
					</trkpt>
					<trkpt lat="44.898440" lon="4.184570">
						<ele>1519</ele>
						<time>2026-09-03T02:06:08Z</time>
					</trkpt>
					<trkpt lat="44.898240" lon="4.184530">
						<ele>1521</ele>
						<time>2026-09-03T02:06:18Z</time>
					</trkpt>
					<trkpt lat="44.897920" lon="4.184370">
						<ele>1524</ele>
						<time>2026-09-03T02:06:35Z</time>
					</trkpt>
					<trkpt lat="44.897760" lon="4.184410">
						<ele>1526</ele>
						<time>2026-09-03T02:06:43Z</time>
					</trkpt>
					<trkpt lat="44.897590" lon="4.184330">
						<ele>1528</ele>
						<time>2026-09-03T02:06:52Z</time>
					</trkpt>
					<trkpt lat="44.897470" lon="4.184230">
						<ele>1530</ele>
						<time>2026-09-03T02:06:59Z</time>
					</trkpt>
					<trkpt lat="44.897190" lon="4.184160">
						<ele>1532</ele>
						<time>2026-09-03T02:07:14Z</time>
					</trkpt>
					<trkpt lat="44.897020" lon="4.184180">
						<ele>1533</ele>
						<time>2026-09-03T02:07:22Z</time>
					</trkpt>
					<trkpt lat="44.896860" lon="4.184140">
						<ele>1535</ele>
						<time>2026-09-03T02:07:30Z</time>
					</trkpt>
					<trkpt lat="44.896620" lon="4.184040">
						<ele>1537</ele>
						<time>2026-09-03T02:07:43Z</time>
					</trkpt>
					<trkpt lat="44.896350" lon="4.183990">
						<ele>1539</ele>
						<time>2026-09-03T02:07:56Z</time>
					</trkpt>
					<trkpt lat="44.896240" lon="4.183890">
						<ele>1541</ele>
						<time>2026-09-03T02:08:03Z</time>
					</trkpt>
					<trkpt lat="44.896140" lon="4.183860">
						<ele>1542</ele>
						<time>2026-09-03T02:08:08Z</time>
					</trkpt>
					<trkpt lat="44.896020" lon="4.183910">
						<ele>1542</ele>
						<time>2026-09-03T02:08:14Z</time>
					</trkpt>
					<trkpt lat="44.895730" lon="4.183940">
						<ele>1544</ele>
						<time>2026-09-03T02:08:29Z</time>
					</trkpt>
					<trkpt lat="44.895590" lon="4.183860">
						<ele>1545</ele>
						<time>2026-09-03T02:08:36Z</time>
					</trkpt>
					<trkpt lat="44.895420" lon="4.183610">
						<ele>1550</ele>
						<time>2026-09-03T02:08:49Z</time>
					</trkpt>
					<trkpt lat="44.895320" lon="4.183600">
						<ele>1551</ele>
						<time>2026-09-03T02:08:54Z</time>
					</trkpt>
					<trkpt lat="44.895190" lon="4.183640">
						<ele>1552</ele>
						<time>2026-09-03T02:09:00Z</time>
					</trkpt>
					<trkpt lat="44.894940" lon="4.183780">
						<ele>1550</ele>
						<time>2026-09-03T02:09:14Z</time>
					</trkpt>
					<trkpt lat="44.894740" lon="4.183830">
						<ele>1551</ele>
						<time>2026-09-03T02:09:24Z</time>
					</trkpt>
					<trkpt lat="44.894420" lon="4.183820">
						<ele>1554</ele>
						<time>2026-09-03T02:09:40Z</time>
					</trkpt>
					<trkpt lat="44.894320" lon="4.183680">
						<ele>1558</ele>
						<time>2026-09-03T02:09:47Z</time>
					</trkpt>
					<trkpt lat="44.894140" lon="4.183590">
						<ele>1562</ele>
						<time>2026-09-03T02:09:57Z</time>
					</trkpt>
					<trkpt lat="44.894040" lon="4.183580">
						<ele>1563</ele>
						<time>2026-09-03T02:10:02Z</time>
					</trkpt>
					<trkpt lat="44.893750" lon="4.183660">
						<ele>1565</ele>
						<time>2026-09-03T02:10:16Z</time>
					</trkpt>
					<trkpt lat="44.893600" lon="4.183190">
						<ele>1572</ele>
						<time>2026-09-03T02:10:35Z</time>
					</trkpt>
					<trkpt lat="44.893360" lon="4.182920">
						<ele>1574</ele>
						<time>2026-09-03T02:10:50Z</time>
					</trkpt>
					<trkpt lat="44.893310" lon="4.182840">
						<ele>1574</ele>
						<time>2026-09-03T02:10:54Z</time>
					</trkpt>
					<trkpt lat="44.893310" lon="4.182790">
						<ele>1574</ele>
						<time>2026-09-03T02:10:56Z</time>
					</trkpt>
					<trkpt lat="44.893080" lon="4.182900">
						<ele>1573</ele>
						<time>2026-09-03T02:11:08Z</time>
					</trkpt>
					<trkpt lat="44.892860" lon="4.182860">
						<ele>1572</ele>
						<time>2026-09-03T02:11:19Z</time>
					</trkpt>
					<trkpt lat="44.892730" lon="4.182910">
						<ele>1571</ele>
						<time>2026-09-03T02:11:26Z</time>
					</trkpt>
					<trkpt lat="44.892600" lon="4.182910">
						<ele>1570</ele>
						<time>2026-09-03T02:11:32Z</time>
					</trkpt>
					<trkpt lat="44.892490" lon="4.183010">
						<ele>1570</ele>
						<time>2026-09-03T02:11:39Z</time>
					</trkpt>
					<trkpt lat="44.892290" lon="4.183090">
						<ele>1568</ele>
						<time>2026-09-03T02:11:49Z</time>
					</trkpt>
					<trkpt lat="44.892160" lon="4.183110">
						<ele>1566</ele>
						<time>2026-09-03T02:11:56Z</time>
					</trkpt>
					<trkpt lat="44.891730" lon="4.183090">
						<ele>1562</ele>
						<time>2026-09-03T02:12:17Z</time>
					</trkpt>
					<trkpt lat="44.891480" lon="4.182980">
						<ele>1560</ele>
						<time>2026-09-03T02:12:30Z</time>
					</trkpt>
					<trkpt lat="44.891180" lon="4.182930">
						<ele>1558</ele>
						<time>2026-09-03T02:12:45Z</time>
					</trkpt>
					<trkpt lat="44.891050" lon="4.182940">
						<ele>1557</ele>
						<time>2026-09-03T02:12:52Z</time>
					</trkpt>
					<trkpt lat="44.890930" lon="4.182920">
						<ele>1556</ele>
						<time>2026-09-03T02:12:58Z</time>
					</trkpt>
					<trkpt lat="44.890370" lon="4.182520">
						<ele>1553</ele>
						<time>2026-09-03T02:13:29Z</time>
					</trkpt>
					<trkpt lat="44.890270" lon="4.182440">
						<ele>1552</ele>
						<time>2026-09-03T02:13:35Z</time>
					</trkpt>
					<trkpt lat="44.890190" lon="4.182330">
						<ele>1552</ele>
						<time>2026-09-03T02:13:41Z</time>
					</trkpt>
					<trkpt lat="44.889950" lon="4.182150">
						<ele>1550</ele>
						<time>2026-09-03T02:13:54Z</time>
					</trkpt>
					<trkpt lat="44.889750" lon="4.182010">
						<ele>1549</ele>
						<time>2026-09-03T02:14:06Z</time>
					</trkpt>
					<trkpt lat="44.889370" lon="4.181810">
						<ele>1547</ele>
						<time>2026-09-03T02:14:26Z</time>
					</trkpt>
					<trkpt lat="44.889240" lon="4.181680">
						<ele>1546</ele>
						<time>2026-09-03T02:14:34Z</time>
					</trkpt>
					<trkpt lat="44.889150" lon="4.181500">
						<ele>1547</ele>
						<time>2026-09-03T02:14:42Z</time>
					</trkpt>
					<trkpt lat="44.889050" lon="4.181380">
						<ele>1547</ele>
						<time>2026-09-03T02:14:48Z</time>
					</trkpt>
					<trkpt lat="44.888570" lon="4.181210">
						<ele>1543</ele>
						<time>2026-09-03T02:15:13Z</time>
					</trkpt>
					<trkpt lat="44.888280" lon="4.181150">
						<ele>1541</ele>
						<time>2026-09-03T02:15:28Z</time>
					</trkpt>
					<trkpt lat="44.888150" lon="4.181050">
						<ele>1539</ele>
						<time>2026-09-03T02:15:35Z</time>
					</trkpt>
					<trkpt lat="44.887940" lon="4.180950">
						<ele>1537</ele>
						<time>2026-09-03T02:15:46Z</time>
					</trkpt>
					<trkpt lat="44.887770" lon="4.180970">
						<ele>1535</ele>
						<time>2026-09-03T02:15:55Z</time>
					</trkpt>
					<trkpt lat="44.887590" lon="4.180920">
						<ele>1533</ele>
						<time>2026-09-03T02:16:04Z</time>
					</trkpt>
					<trkpt lat="44.887390" lon="4.180940">
						<ele>1530</ele>
						<time>2026-09-03T02:16:14Z</time>
					</trkpt>
					<trkpt lat="44.887150" lon="4.180750">
						<ele>1528</ele>
						<time>2026-09-03T02:16:28Z</time>
					</trkpt>
					<trkpt lat="44.887070" lon="4.180760">
						<ele>1527</ele>
						<time>2026-09-03T02:16:32Z</time>
					</trkpt>
					<trkpt lat="44.886860" lon="4.180890">
						<ele>1524</ele>
						<time>2026-09-03T02:16:43Z</time>
					</trkpt>
					<trkpt lat="44.886740" lon="4.181140">
						<ele>1521</ele>
						<time>2026-09-03T02:16:54Z</time>
					</trkpt>
					<trkpt lat="44.886710" lon="4.181160">
						<ele>1521</ele>
						<time>2026-09-03T02:16:55Z</time>
					</trkpt>
					<trkpt lat="44.886440" lon="4.181150">
						<ele>1518</ele>
						<time>2026-09-03T02:17:09Z</time>
					</trkpt>
					<trkpt lat="44.886220" lon="4.181200">
						<ele>1516</ele>
						<time>2026-09-03T02:17:20Z</time>
					</trkpt>
					<trkpt lat="44.886080" lon="4.181380">
						<ele>1514</ele>
						<time>2026-09-03T02:17:30Z</time>
					</trkpt>
					<trkpt lat="44.885900" lon="4.181430">
						<ele>1512</ele>
						<time>2026-09-03T02:17:39Z</time>
					</trkpt>
					<trkpt lat="44.885780" lon="4.181490">
						<ele>1511</ele>
						<time>2026-09-03T02:17:45Z</time>
					</trkpt>
					<trkpt lat="44.885570" lon="4.181650">
						<ele>1509</ele>
						<time>2026-09-03T02:17:57Z</time>
					</trkpt>
					<trkpt lat="44.885540" lon="4.181730">
						<ele>1508</ele>
						<time>2026-09-03T02:18:00Z</time>
					</trkpt>
					<trkpt lat="44.885550" lon="4.181890">
						<ele>1506</ele>
						<time>2026-09-03T02:18:06Z</time>
					</trkpt>
					<trkpt lat="44.884980" lon="4.182180">
						<ele>1497</ele>
						<time>2026-09-03T02:18:36Z</time>
					</trkpt>
					<trkpt lat="44.884740" lon="4.182270">
						<ele>1495</ele>
						<time>2026-09-03T02:18:49Z</time>
					</trkpt>
					<trkpt lat="44.884220" lon="4.182310">
						<ele>1492</ele>
						<time>2026-09-03T02:19:15Z</time>
					</trkpt>
					<trkpt lat="44.883960" lon="4.182280">
						<ele>1489</ele>
						<time>2026-09-03T02:19:28Z</time>
					</trkpt>
					<trkpt lat="44.883520" lon="4.182130">
						<ele>1487</ele>
						<time>2026-09-03T02:19:51Z</time>
					</trkpt>
					<trkpt lat="44.882480" lon="4.181650">
						<ele>1476</ele>
						<time>2026-09-03T02:20:45Z</time>
					</trkpt>
					<trkpt lat="44.881370" lon="4.180670">
						<ele>1467</ele>
						<time>2026-09-03T02:21:51Z</time>
					</trkpt>
					<trkpt lat="44.880440" lon="4.179990">
						<ele>1459</ele>
						<time>2026-09-03T02:22:43Z</time>
					</trkpt>
					<trkpt lat="44.880030" lon="4.179750">
						<ele>1457</ele>
						<time>2026-09-03T02:23:05Z</time>
					</trkpt>
					<trkpt lat="44.879770" lon="4.179710">
						<ele>1455</ele>
						<time>2026-09-03T02:23:19Z</time>
					</trkpt>
					<trkpt lat="44.879340" lon="4.179760">
						<ele>1451</ele>
						<time>2026-09-03T02:23:40Z</time>
					</trkpt>
					<trkpt lat="44.878150" lon="4.179370">
						<ele>1436</ele>
						<time>2026-09-03T02:24:41Z</time>
					</trkpt>
					<trkpt lat="44.878090" lon="4.179440">
						<ele>1434</ele>
						<time>2026-09-03T02:24:45Z</time>
					</trkpt>
					<trkpt lat="44.878110" lon="4.179610">
						<ele>1433</ele>
						<time>2026-09-03T02:24:51Z</time>
					</trkpt>
					<trkpt lat="44.878340" lon="4.180110">
						<ele>1433</ele>
						<time>2026-09-03T02:25:12Z</time>
					</trkpt>
					<trkpt lat="44.879000" lon="4.181830">
						<ele>1419</ele>
						<time>2026-09-03T02:26:22Z</time>
					</trkpt>
					<trkpt lat="44.879060" lon="4.182040">
						<ele>1417</ele>
						<time>2026-09-03T02:26:30Z</time>
					</trkpt>
					<trkpt lat="44.879310" lon="4.182520">
						<ele>1409</ele>
						<time>2026-09-03T02:26:51Z</time>
					</trkpt>
					<trkpt lat="44.879320" lon="4.182610">
						<ele>1406</ele>
						<time>2026-09-03T02:26:54Z</time>
					</trkpt>
					<trkpt lat="44.879290" lon="4.182670">
						<ele>1405</ele>
						<time>2026-09-03T02:26:57Z</time>
					</trkpt>
					<trkpt lat="44.879260" lon="4.182680">
						<ele>1405</ele>
						<time>2026-09-03T02:26:58Z</time>
					</trkpt>
					<trkpt lat="44.879070" lon="4.182600">
						<ele>1407</ele>
						<time>2026-09-03T02:27:08Z</time>
					</trkpt>
					<trkpt lat="44.878810" lon="4.182250">
						<ele>1409</ele>
						<time>2026-09-03T02:27:26Z</time>
					</trkpt>
					<trkpt lat="44.878740" lon="4.182220">
						<ele>1409</ele>
						<time>2026-09-03T02:27:30Z</time>
					</trkpt>
					<trkpt lat="44.878690" lon="4.182250">
						<ele>1407</ele>
						<time>2026-09-03T02:27:33Z</time>
					</trkpt>
					<trkpt lat="44.878670" lon="4.182360">
						<ele>1405</ele>
						<time>2026-09-03T02:27:37Z</time>
					</trkpt>
					<trkpt lat="44.878820" lon="4.182780">
						<ele>1401</ele>
						<time>2026-09-03T02:27:53Z</time>
					</trkpt>
					<trkpt lat="44.878830" lon="4.182930">
						<ele>1398</ele>
						<time>2026-09-03T02:27:59Z</time>
					</trkpt>
					<trkpt lat="44.878790" lon="4.182960">
						<ele>1397</ele>
						<time>2026-09-03T02:28:01Z</time>
					</trkpt>
					<trkpt lat="44.878570" lon="4.182830">
						<ele>1398</ele>
						<time>2026-09-03T02:28:13Z</time>
					</trkpt>
					<trkpt lat="44.878470" lon="4.182820">
						<ele>1397</ele>
						<time>2026-09-03T02:28:18Z</time>
					</trkpt>
					<trkpt lat="44.878420" lon="4.182830">
						<ele>1397</ele>
						<time>2026-09-03T02:28:20Z</time>
					</trkpt>
					<trkpt lat="44.878340" lon="4.182900">
						<ele>1395</ele>
						<time>2026-09-03T02:28:25Z</time>
					</trkpt>
					<trkpt lat="44.878260" lon="4.183420">
						<ele>1390</ele>
						<time>2026-09-03T02:28:44Z</time>
					</trkpt>
					<trkpt lat="44.878210" lon="4.183600">
						<ele>1388</ele>
						<time>2026-09-03T02:28:51Z</time>
					</trkpt>
					<trkpt lat="44.878110" lon="4.183800">
						<ele>1386</ele>
						<time>2026-09-03T02:28:59Z</time>
					</trkpt>
					<trkpt lat="44.877910" lon="4.184070">
						<ele>1384</ele>
						<time>2026-09-03T02:29:13Z</time>
					</trkpt>
					<trkpt lat="44.877780" lon="4.184130">
						<ele>1384</ele>
						<time>2026-09-03T02:29:20Z</time>
					</trkpt>
					<trkpt lat="44.876930" lon="4.184950">
						<ele>1386</ele>
						<time>2026-09-03T02:30:12Z</time>
					</trkpt>
					<trkpt lat="44.875750" lon="4.185860">
						<ele>1404</ele>
						<time>2026-09-03T02:31:19Z</time>
					</trkpt>
					<trkpt lat="44.874300" lon="4.186010">
						<ele>1421</ele>
						<time>2026-09-03T02:32:32Z</time>
					</trkpt>
					<trkpt lat="44.873010" lon="4.187010">
						<ele>1441</ele>
						<time>2026-09-03T02:33:45Z</time>
					</trkpt>
					<trkpt lat="44.872720" lon="4.187490">
						<ele>1449</ele>
						<time>2026-09-03T02:34:08Z</time>
					</trkpt>
					<trkpt lat="44.871560" lon="4.187490">
						<ele>1451</ele>
						<time>2026-09-03T02:35:06Z</time>
					</trkpt>
					<trkpt lat="44.870420" lon="4.186760">
						<ele>1457</ele>
						<time>2026-09-03T02:36:08Z</time>
					</trkpt>
					<trkpt lat="44.869830" lon="4.186480">
						<ele>1459</ele>
						<time>2026-09-03T02:36:40Z</time>
					</trkpt>
					<trkpt lat="44.869260" lon="4.186360">
						<ele>1459</ele>
						<time>2026-09-03T02:37:08Z</time>
					</trkpt>
					<trkpt lat="44.869010" lon="4.187000">
						<ele>1467</ele>
						<time>2026-09-03T02:37:34Z</time>
					</trkpt>
					<trkpt lat="44.868860" lon="4.187480">
						<ele>1472</ele>
						<time>2026-09-03T02:37:53Z</time>
					</trkpt>
					<trkpt lat="44.866770" lon="4.193000">
						<ele>1421</ele>
						<time>2026-09-03T02:41:35Z</time>
					</trkpt>
					<trkpt lat="44.866480" lon="4.193570">
						<ele>1411</ele>
						<time>2026-09-03T02:42:00Z</time>
					</trkpt>
					<trkpt lat="44.866190" lon="4.193920">
						<ele>1406</ele>
						<time>2026-09-03T02:42:19Z</time>
					</trkpt>
					<trkpt lat="44.866010" lon="4.194250">
						<ele>1404</ele>
						<time>2026-09-03T02:42:34Z</time>
					</trkpt>
					<trkpt lat="44.865900" lon="4.194490">
						<ele>1404</ele>
						<time>2026-09-03T02:42:44Z</time>
					</trkpt>
					<trkpt lat="44.865890" lon="4.194590">
						<ele>1403</ele>
						<time>2026-09-03T02:42:47Z</time>
					</trkpt>
					<trkpt lat="44.865930" lon="4.194700">
						<ele>1403</ele>
						<time>2026-09-03T02:42:52Z</time>
					</trkpt>
					<trkpt lat="44.865750" lon="4.194970">
						<ele>1402</ele>
						<time>2026-09-03T02:43:05Z</time>
					</trkpt>
					<trkpt lat="44.864150" lon="4.196250">
						<ele>1396</ele>
						<time>2026-09-03T02:44:37Z</time>
					</trkpt>
					<trkpt lat="44.863730" lon="4.196530">
						<ele>1397</ele>
						<time>2026-09-03T02:45:00Z</time>
					</trkpt>
					<trkpt lat="44.862810" lon="4.196940">
						<ele>1396</ele>
						<time>2026-09-03T02:45:49Z</time>
					</trkpt>
					<trkpt lat="44.862750" lon="4.196990">
						<ele>1396</ele>
						<time>2026-09-03T02:45:52Z</time>
					</trkpt>
					<trkpt lat="44.862380" lon="4.197160">
						<ele>1394</ele>
						<time>2026-09-03T02:46:11Z</time>
					</trkpt>
					<trkpt lat="44.862120" lon="4.197340">
						<ele>1394</ele>
						<time>2026-09-03T02:46:26Z</time>
					</trkpt>
					<trkpt lat="44.861850" lon="4.197450">
						<ele>1394</ele>
						<time>2026-09-03T02:46:40Z</time>
					</trkpt>
					<trkpt lat="44.861630" lon="4.197470">
						<ele>1393</ele>
						<time>2026-09-03T02:46:51Z</time>
					</trkpt>
					<trkpt lat="44.860830" lon="4.197420">
						<ele>1393</ele>
						<time>2026-09-03T02:47:31Z</time>
					</trkpt>
					<trkpt lat="44.860650" lon="4.197530">
						<ele>1394</ele>
						<time>2026-09-03T02:47:41Z</time>
					</trkpt>
					<trkpt lat="44.860480" lon="4.197640">
						<ele>1394</ele>
						<time>2026-09-03T02:47:50Z</time>
					</trkpt>
					<trkpt lat="44.860260" lon="4.197840">
						<ele>1395</ele>
						<time>2026-09-03T02:48:03Z</time>
					</trkpt>
					<trkpt lat="44.860030" lon="4.198220">
						<ele>1395</ele>
						<time>2026-09-03T02:48:21Z</time>
					</trkpt>
					<trkpt lat="44.859570" lon="4.198680">
						<ele>1391</ele>
						<time>2026-09-03T02:48:49Z</time>
					</trkpt>
					<trkpt lat="44.859360" lon="4.198770">
						<ele>1388</ele>
						<time>2026-09-03T02:49:00Z</time>
					</trkpt>
					<trkpt lat="44.858990" lon="4.198840">
						<ele>1384</ele>
						<time>2026-09-03T02:49:19Z</time>
					</trkpt>
					<trkpt lat="44.858860" lon="4.199030">
						<ele>1382</ele>
						<time>2026-09-03T02:49:28Z</time>
					</trkpt>
					<trkpt lat="44.858680" lon="4.199190">
						<ele>1381</ele>
						<time>2026-09-03T02:49:39Z</time>
					</trkpt>
					<trkpt lat="44.858530" lon="4.199310">
						<ele>1380</ele>
						<time>2026-09-03T02:49:48Z</time>
					</trkpt>
					<trkpt lat="44.858380" lon="4.199370">
						<ele>1378</ele>
						<time>2026-09-03T02:49:55Z</time>
					</trkpt>
					<trkpt lat="44.857730" lon="4.199880">
						<ele>1379</ele>
						<time>2026-09-03T02:50:33Z</time>
					</trkpt>
					<trkpt lat="44.857640" lon="4.199970">
						<ele>1379</ele>
						<time>2026-09-03T02:50:38Z</time>
					</trkpt>
					<trkpt lat="44.857450" lon="4.200290">
						<ele>1379</ele>
						<time>2026-09-03T02:50:53Z</time>
					</trkpt>
					<trkpt lat="44.857300" lon="4.200470">
						<ele>1380</ele>
						<time>2026-09-03T02:51:03Z</time>
					</trkpt>
					<trkpt lat="44.856900" lon="4.200750">
						<ele>1381</ele>
						<time>2026-09-03T02:51:25Z</time>
					</trkpt>
					<trkpt lat="44.856830" lon="4.200940">
						<ele>1381</ele>
						<time>2026-09-03T02:51:33Z</time>
					</trkpt>
					<trkpt lat="44.856560" lon="4.201300">
						<ele>1381</ele>
						<time>2026-09-03T02:51:51Z</time>
					</trkpt>
					<trkpt lat="44.856400" lon="4.201570">
						<ele>1382</ele>
						<time>2026-09-03T02:52:04Z</time>
					</trkpt>
					<trkpt lat="44.856250" lon="4.201990">
						<ele>1384</ele>
						<time>2026-09-03T02:52:21Z</time>
					</trkpt>
					<trkpt lat="44.856230" lon="4.202110">
						<ele>1384</ele>
						<time>2026-09-03T02:52:25Z</time>
					</trkpt>
					<trkpt lat="44.855840" lon="4.203190">
						<ele>1382</ele>
						<time>2026-09-03T02:53:08Z</time>
					</trkpt>
					<trkpt lat="44.855610" lon="4.203970">
						<ele>1374</ele>
						<time>2026-09-03T02:53:38Z</time>
					</trkpt>
					<trkpt lat="44.855530" lon="4.204100">
						<ele>1373</ele>
						<time>2026-09-03T02:53:44Z</time>
					</trkpt>
					<trkpt lat="44.855400" lon="4.204220">
						<ele>1371</ele>
						<time>2026-09-03T02:53:52Z</time>
					</trkpt>
					<trkpt lat="44.855270" lon="4.204420">
						<ele>1368</ele>
						<time>2026-09-03T02:54:01Z</time>
					</trkpt>
					<trkpt lat="44.855160" lon="4.204480">
						<ele>1366</ele>
						<time>2026-09-03T02:54:07Z</time>
					</trkpt>
					<trkpt lat="44.855040" lon="4.204510">
						<ele>1365</ele>
						<time>2026-09-03T02:54:13Z</time>
					</trkpt>
					<trkpt lat="44.855010" lon="4.204500">
						<ele>1365</ele>
						<time>2026-09-03T02:54:15Z</time>
					</trkpt>
					<trkpt lat="44.854960" lon="4.204420">
						<ele>1365</ele>
						<time>2026-09-03T02:54:19Z</time>
					</trkpt>
					<trkpt lat="44.854790" lon="4.204700">
						<ele>1362</ele>
						<time>2026-09-03T02:54:32Z</time>
					</trkpt>
					<trkpt lat="44.854750" lon="4.204810">
						<ele>1361</ele>
						<time>2026-09-03T02:54:36Z</time>
					</trkpt>
					<trkpt lat="44.854750" lon="4.204940">
						<ele>1360</ele>
						<time>2026-09-03T02:54:41Z</time>
					</trkpt>
					<trkpt lat="44.854630" lon="4.204940">
						<ele>1360</ele>
						<time>2026-09-03T02:54:47Z</time>
					</trkpt>
					<trkpt lat="44.854040" lon="4.205520">
						<ele>1355</ele>
						<time>2026-09-03T02:55:23Z</time>
					</trkpt>
					<trkpt lat="44.853810" lon="4.205660">
						<ele>1355</ele>
						<time>2026-09-03T02:55:35Z</time>
					</trkpt>
					<trkpt lat="44.853660" lon="4.205690">
						<ele>1355</ele>
						<time>2026-09-03T02:55:43Z</time>
					</trkpt>
					<trkpt lat="44.853440" lon="4.205650">
						<ele>1355</ele>
						<time>2026-09-03T02:55:54Z</time>
					</trkpt>
					<trkpt lat="44.853160" lon="4.205560">
						<ele>1355</ele>
						<time>2026-09-03T02:56:08Z</time>
					</trkpt>
					<trkpt lat="44.853100" lon="4.205470">
						<ele>1355</ele>
						<time>2026-09-03T02:56:13Z</time>
					</trkpt>
					<trkpt lat="44.851490" lon="4.204970">
						<ele>1356</ele>
						<time>2026-09-03T02:57:35Z</time>
					</trkpt>
					<trkpt lat="44.851280" lon="4.204860">
						<ele>1359</ele>
						<time>2026-09-03T02:57:46Z</time>
					</trkpt>
					<trkpt lat="44.851130" lon="4.204910">
						<ele>1360</ele>
						<time>2026-09-03T02:57:54Z</time>
					</trkpt>
					<trkpt lat="44.850630" lon="4.204890">
						<ele>1365</ele>
						<time>2026-09-03T02:58:19Z</time>
					</trkpt>
					<trkpt lat="44.850450" lon="4.204920">
						<ele>1368</ele>
						<time>2026-09-03T02:58:28Z</time>
					</trkpt>
					<trkpt lat="44.850110" lon="4.205030">
						<ele>1371</ele>
						<time>2026-09-03T02:58:46Z</time>
					</trkpt>
					<trkpt lat="44.849620" lon="4.205100">
						<ele>1376</ele>
						<time>2026-09-03T02:59:10Z</time>
					</trkpt>
					<trkpt lat="44.849540" lon="4.205170">
						<ele>1377</ele>
						<time>2026-09-03T02:59:15Z</time>
					</trkpt>
					<trkpt lat="44.849220" lon="4.205580">
						<ele>1379</ele>
						<time>2026-09-03T02:59:37Z</time>
					</trkpt>
					<trkpt lat="44.849140" lon="4.205720">
						<ele>1380</ele>
						<time>2026-09-03T02:59:43Z</time>
					</trkpt>
					<trkpt lat="44.848900" lon="4.206240">
						<ele>1381</ele>
						<time>2026-09-03T03:00:05Z</time>
					</trkpt>
					<trkpt lat="44.848680" lon="4.206910">
						<ele>1383</ele>
						<time>2026-09-03T03:00:31Z</time>
					</trkpt>
					<trkpt lat="44.848460" lon="4.207190">
						<ele>1384</ele>
						<time>2026-09-03T03:00:46Z</time>
					</trkpt>
					<trkpt lat="44.848350" lon="4.207430">
						<ele>1384</ele>
						<time>2026-09-03T03:00:56Z</time>
					</trkpt>
					<trkpt lat="44.848210" lon="4.207660">
						<ele>1384</ele>
						<time>2026-09-03T03:01:07Z</time>
					</trkpt>
					<trkpt lat="44.847980" lon="4.207940">
						<ele>1386</ele>
						<time>2026-09-03T03:01:22Z</time>
					</trkpt>
					<trkpt lat="44.847840" lon="4.208050">
						<ele>1387</ele>
						<time>2026-09-03T03:01:30Z</time>
					</trkpt>
					<trkpt lat="44.847740" lon="4.208240">
						<ele>1388</ele>
						<time>2026-09-03T03:01:39Z</time>
					</trkpt>
					<trkpt lat="44.847560" lon="4.208870">
						<ele>1391</ele>
						<time>2026-09-03T03:02:03Z</time>
					</trkpt>
					<trkpt lat="44.847490" lon="4.209590">
						<ele>1394</ele>
						<time>2026-09-03T03:02:29Z</time>
					</trkpt>
					<trkpt lat="44.847310" lon="4.210240">
						<ele>1398</ele>
						<time>2026-09-03T03:02:53Z</time>
					</trkpt>
					<trkpt lat="44.847190" lon="4.210500">
						<ele>1400</ele>
						<time>2026-09-03T03:03:04Z</time>
					</trkpt>
					<trkpt lat="44.846670" lon="4.211230">
						<ele>1405</ele>
						<time>2026-09-03T03:03:41Z</time>
					</trkpt>
					<trkpt lat="44.845730" lon="4.211900">
						<ele>1409</ele>
						<time>2026-09-03T03:04:34Z</time>
					</trkpt>
					<trkpt lat="44.845620" lon="4.211930">
						<ele>1409</ele>
						<time>2026-09-03T03:04:39Z</time>
					</trkpt>
					<trkpt lat="44.845360" lon="4.212110">
						<ele>1411</ele>
						<time>2026-09-03T03:04:54Z</time>
					</trkpt>
					<trkpt lat="44.844820" lon="4.212350">
						<ele>1411</ele>
						<time>2026-09-03T03:05:22Z</time>
					</trkpt>
					<trkpt lat="44.844590" lon="4.212560">
						<ele>1412</ele>
						<time>2026-09-03T03:05:36Z</time>
					</trkpt>
					<trkpt lat="44.844360" lon="4.213030">
						<ele>1413</ele>
						<time>2026-09-03T03:05:56Z</time>
					</trkpt>
					<trkpt lat="44.844240" lon="4.213350">
						<ele>1413</ele>
						<time>2026-09-03T03:06:09Z</time>
					</trkpt>
					<trkpt lat="44.844200" lon="4.213420">
						<ele>1413</ele>
						<time>2026-09-03T03:06:12Z</time>
					</trkpt>
					<trkpt lat="44.844090" lon="4.213480">
						<ele>1412</ele>
						<time>2026-09-03T03:06:18Z</time>
					</trkpt>
					<trkpt lat="44.843970" lon="4.214050">
						<ele>1413</ele>
						<time>2026-09-03T03:06:39Z</time>
					</trkpt>
					<trkpt lat="44.843690" lon="4.215000">
						<ele>1414</ele>
						<time>2026-09-03T03:07:16Z</time>
					</trkpt>
					<trkpt lat="44.843330" lon="4.215960">
						<ele>1414</ele>
						<time>2026-09-03T03:07:54Z</time>
					</trkpt>
					<trkpt lat="44.843210" lon="4.216180">
						<ele>1415</ele>
						<time>2026-09-03T03:08:04Z</time>
					</trkpt>
					<trkpt lat="44.842740" lon="4.215770">
						<ele>1410</ele>
						<time>2026-09-03T03:08:32Z</time>
					</trkpt>
					<trkpt lat="44.842420" lon="4.215230">
						<ele>1404</ele>
						<time>2026-09-03T03:08:57Z</time>
					</trkpt>
					<trkpt lat="44.842040" lon="4.214520">
						<ele>1394</ele>
						<time>2026-09-03T03:09:28Z</time>
					</trkpt>
					<trkpt lat="44.841550" lon="4.214140">
						<ele>1386</ele>
						<time>2026-09-03T03:09:56Z</time>
					</trkpt>
					<trkpt lat="44.840340" lon="4.212700">
						<ele>1360</ele>
						<time>2026-09-03T03:11:15Z</time>
					</trkpt>
					<trkpt lat="44.839860" lon="4.213470">
						<ele>1357</ele>
						<time>2026-09-03T03:11:52Z</time>
					</trkpt>
					<trkpt lat="44.839560" lon="4.214540">
						<ele>1359</ele>
						<time>2026-09-03T03:12:33Z</time>
					</trkpt>
					<trkpt lat="44.838940" lon="4.216110">
						<ele>1361</ele>
						<time>2026-09-03T03:13:36Z</time>
					</trkpt>
					<trkpt lat="44.837720" lon="4.217400">
						<ele>1358</ele>
						<time>2026-09-03T03:14:53Z</time>
					</trkpt>
					<trkpt lat="44.836390" lon="4.219190">
						<ele>1369</ele>
						<time>2026-09-03T03:16:25Z</time>
					</trkpt>
					<trkpt lat="44.836340" lon="4.219860">
						<ele>1373</ele>
						<time>2026-09-03T03:16:49Z</time>
					</trkpt>
					<trkpt lat="44.836350" lon="4.220640">
						<ele>1379</ele>
						<time>2026-09-03T03:17:16Z</time>
					</trkpt>
					<trkpt lat="44.836320" lon="4.220840">
						<ele>1380</ele>
						<time>2026-09-03T03:17:24Z</time>
					</trkpt>
					<trkpt lat="44.836250" lon="4.221000">
						<ele>1381</ele>
						<time>2026-09-03T03:17:30Z</time>
					</trkpt>
					<trkpt lat="44.835760" lon="4.221360">
						<ele>1389</ele>
						<time>2026-09-03T03:17:58Z</time>
					</trkpt>
					<trkpt lat="44.835640" lon="4.221410">
						<ele>1391</ele>
						<time>2026-09-03T03:18:04Z</time>
					</trkpt>
					<trkpt lat="44.835520" lon="4.221390">
						<ele>1393</ele>
						<time>2026-09-03T03:18:10Z</time>
					</trkpt>
					<trkpt lat="44.835420" lon="4.221330">
						<ele>1394</ele>
						<time>2026-09-03T03:18:16Z</time>
					</trkpt>
					<trkpt lat="44.835310" lon="4.221210">
						<ele>1395</ele>
						<time>2026-09-03T03:18:23Z</time>
					</trkpt>
					<trkpt lat="44.835080" lon="4.220740">
						<ele>1395</ele>
						<time>2026-09-03T03:18:43Z</time>
					</trkpt>
					<trkpt lat="44.834970" lon="4.220290">
						<ele>1396</ele>
						<time>2026-09-03T03:19:00Z</time>
					</trkpt>
					<trkpt lat="44.834930" lon="4.220270">
						<ele>1396</ele>
						<time>2026-09-03T03:19:02Z</time>
					</trkpt>
					<trkpt lat="44.834870" lon="4.220340">
						<ele>1398</ele>
						<time>2026-09-03T03:19:06Z</time>
					</trkpt>
					<trkpt lat="44.834940" lon="4.220690">
						<ele>1398</ele>
						<time>2026-09-03T03:19:19Z</time>
					</trkpt>
					<trkpt lat="44.835020" lon="4.221600">
						<ele>1402</ele>
						<time>2026-09-03T03:19:51Z</time>
					</trkpt>
					<trkpt lat="44.835030" lon="4.221930">
						<ele>1403</ele>
						<time>2026-09-03T03:20:03Z</time>
					</trkpt>
					<trkpt lat="44.834980" lon="4.222050">
						<ele>1404</ele>
						<time>2026-09-03T03:20:08Z</time>
					</trkpt>
					<trkpt lat="44.834910" lon="4.221990">
						<ele>1405</ele>
						<time>2026-09-03T03:20:12Z</time>
					</trkpt>
					<trkpt lat="44.834840" lon="4.221590">
						<ele>1404</ele>
						<time>2026-09-03T03:20:27Z</time>
					</trkpt>
					<trkpt lat="44.834800" lon="4.221500">
						<ele>1404</ele>
						<time>2026-09-03T03:20:30Z</time>
					</trkpt>
					<trkpt lat="44.834730" lon="4.221420">
						<ele>1405</ele>
						<time>2026-09-03T03:20:35Z</time>
					</trkpt>
					<trkpt lat="44.834680" lon="4.221490">
						<ele>1406</ele>
						<time>2026-09-03T03:20:38Z</time>
					</trkpt>
					<trkpt lat="44.834620" lon="4.222040">
						<ele>1408</ele>
						<time>2026-09-03T03:20:58Z</time>
					</trkpt>
					<trkpt lat="44.834580" lon="4.222180">
						<ele>1409</ele>
						<time>2026-09-03T03:21:04Z</time>
					</trkpt>
					<trkpt lat="44.834520" lon="4.222260">
						<ele>1410</ele>
						<time>2026-09-03T03:21:08Z</time>
					</trkpt>
					<trkpt lat="44.834460" lon="4.222220">
						<ele>1410</ele>
						<time>2026-09-03T03:21:11Z</time>
					</trkpt>
					<trkpt lat="44.834440" lon="4.221830">
						<ele>1410</ele>
						<time>2026-09-03T03:21:25Z</time>
					</trkpt>
					<trkpt lat="44.834410" lon="4.221770">
						<ele>1410</ele>
						<time>2026-09-03T03:21:27Z</time>
					</trkpt>
					<trkpt lat="44.834380" lon="4.221760">
						<ele>1411</ele>
						<time>2026-09-03T03:21:29Z</time>
					</trkpt>
					<trkpt lat="44.834080" lon="4.222380">
						<ele>1415</ele>
						<time>2026-09-03T03:21:56Z</time>
					</trkpt>
					<trkpt lat="44.834010" lon="4.222480">
						<ele>1416</ele>
						<time>2026-09-03T03:22:01Z</time>
					</trkpt>
					<trkpt lat="44.833940" lon="4.222520">
						<ele>1416</ele>
						<time>2026-09-03T03:22:04Z</time>
					</trkpt>
					<trkpt lat="44.833730" lon="4.222540">
						<ele>1419</ele>
						<time>2026-09-03T03:22:15Z</time>
					</trkpt>
					<trkpt lat="44.833590" lon="4.222480">
						<ele>1420</ele>
						<time>2026-09-03T03:22:22Z</time>
					</trkpt>
					<trkpt lat="44.833450" lon="4.222290">
						<ele>1422</ele>
						<time>2026-09-03T03:22:32Z</time>
					</trkpt>
					<trkpt lat="44.833230" lon="4.222530">
						<ele>1424</ele>
						<time>2026-09-03T03:22:46Z</time>
					</trkpt>
					<trkpt lat="44.832970" lon="4.222680">
						<ele>1428</ele>
						<time>2026-09-03T03:23:00Z</time>
					</trkpt>
					<trkpt lat="44.832770" lon="4.222690">
						<ele>1430</ele>
						<time>2026-09-03T03:23:10Z</time>
					</trkpt>
					<trkpt lat="44.832400" lon="4.222800">
						<ele>1434</ele>
						<time>2026-09-03T03:23:29Z</time>
					</trkpt>
					<trkpt lat="44.832260" lon="4.222760">
						<ele>1436</ele>
						<time>2026-09-03T03:23:36Z</time>
					</trkpt>
					<trkpt lat="44.832120" lon="4.222670">
						<ele>1437</ele>
						<time>2026-09-03T03:23:44Z</time>
					</trkpt>
					<trkpt lat="44.831790" lon="4.222250">
						<ele>1439</ele>
						<time>2026-09-03T03:24:06Z</time>
					</trkpt>
					<trkpt lat="44.831620" lon="4.222170">
						<ele>1440</ele>
						<time>2026-09-03T03:24:15Z</time>
					</trkpt>
					<trkpt lat="44.831340" lon="4.222100">
						<ele>1442</ele>
						<time>2026-09-03T03:24:29Z</time>
					</trkpt>
					<trkpt lat="44.831150" lon="4.222010">
						<ele>1443</ele>
						<time>2026-09-03T03:24:39Z</time>
					</trkpt>
					<trkpt lat="44.831010" lon="4.222020">
						<ele>1444</ele>
						<time>2026-09-03T03:24:46Z</time>
					</trkpt>
					<trkpt lat="44.830880" lon="4.221960">
						<ele>1445</ele>
						<time>2026-09-03T03:24:53Z</time>
					</trkpt>
					<trkpt lat="44.830720" lon="4.221930">
						<ele>1446</ele>
						<time>2026-09-03T03:25:01Z</time>
					</trkpt>
					<trkpt lat="44.830610" lon="4.221860">
						<ele>1447</ele>
						<time>2026-09-03T03:25:07Z</time>
					</trkpt>
					<trkpt lat="44.830510" lon="4.221580">
						<ele>1447</ele>
						<time>2026-09-03T03:25:18Z</time>
					</trkpt>
					<trkpt lat="44.830400" lon="4.221160">
						<ele>1447</ele>
						<time>2026-09-03T03:25:34Z</time>
					</trkpt>
					<trkpt lat="44.830260" lon="4.220820">
						<ele>1448</ele>
						<time>2026-09-03T03:25:48Z</time>
					</trkpt>
					<trkpt lat="44.830200" lon="4.220730">
						<ele>1449</ele>
						<time>2026-09-03T03:25:53Z</time>
					</trkpt>
					<trkpt lat="44.829930" lon="4.221000">
						<ele>1451</ele>
						<time>2026-09-03T03:26:09Z</time>
					</trkpt>
					<trkpt lat="44.829680" lon="4.221630">
						<ele>1452</ele>
						<time>2026-09-03T03:26:35Z</time>
					</trkpt>
					<trkpt lat="44.829520" lon="4.222700">
						<ele>1452</ele>
						<time>2026-09-03T03:27:14Z</time>
					</trkpt>
					<trkpt lat="44.829110" lon="4.223340">
						<ele>1453</ele>
						<time>2026-09-03T03:27:44Z</time>
					</trkpt>
					<trkpt lat="44.828730" lon="4.226200">
						<ele>1448</ele>
						<time>2026-09-03T03:29:27Z</time>
					</trkpt>
					<trkpt lat="44.827100" lon="4.223190">
						<ele>1448</ele>
						<time>2026-09-03T03:31:42Z</time>
					</trkpt>
					<trkpt lat="44.826730" lon="4.221110">
						<ele>1450</ele>
						<time>2026-09-03T03:32:58Z</time>
					</trkpt>
					<trkpt lat="44.826420" lon="4.221200">
						<ele>1450</ele>
						<time>2026-09-03T03:33:14Z</time>
					</trkpt>
					<trkpt lat="44.825780" lon="4.220960">
						<ele>1449</ele>
						<time>2026-09-03T03:33:47Z</time>
					</trkpt>
					<trkpt lat="44.825260" lon="4.220680">
						<ele>1448</ele>
						<time>2026-09-03T03:34:15Z</time>
					</trkpt>
					<trkpt lat="44.824990" lon="4.220680">
						<ele>1448</ele>
						<time>2026-09-03T03:34:28Z</time>
					</trkpt>
					<trkpt lat="44.824570" lon="4.220760">
						<ele>1450</ele>
						<time>2026-09-03T03:34:50Z</time>
					</trkpt>
					<trkpt lat="44.824460" lon="4.220660">
						<ele>1451</ele>
						<time>2026-09-03T03:34:56Z</time>
					</trkpt>
					<trkpt lat="44.824340" lon="4.220500">
						<ele>1452</ele>
						<time>2026-09-03T03:35:04Z</time>
					</trkpt>
					<trkpt lat="44.824270" lon="4.220240">
						<ele>1452</ele>
						<time>2026-09-03T03:35:14Z</time>
					</trkpt>
					<trkpt lat="44.824040" lon="4.219880">
						<ele>1453</ele>
						<time>2026-09-03T03:35:31Z</time>
					</trkpt>
					<trkpt lat="44.823900" lon="4.219380">
						<ele>1453</ele>
						<time>2026-09-03T03:35:50Z</time>
					</trkpt>
					<trkpt lat="44.823610" lon="4.218930">
						<ele>1454</ele>
						<time>2026-09-03T03:36:12Z</time>
					</trkpt>
					<trkpt lat="44.823260" lon="4.218090">
						<ele>1452</ele>
						<time>2026-09-03T03:36:47Z</time>
					</trkpt>
					<trkpt lat="44.823200" lon="4.217840">
						<ele>1451</ele>
						<time>2026-09-03T03:36:56Z</time>
					</trkpt>
					<trkpt lat="44.822850" lon="4.217200">
						<ele>1450</ele>
						<time>2026-09-03T03:37:25Z</time>
					</trkpt>
					<trkpt lat="44.822110" lon="4.216500">
						<ele>1449</ele>
						<time>2026-09-03T03:38:09Z</time>
					</trkpt>
					<trkpt lat="44.821920" lon="4.216380">
						<ele>1449</ele>
						<time>2026-09-03T03:38:20Z</time>
					</trkpt>
					<trkpt lat="44.821800" lon="4.216340">
						<ele>1449</ele>
						<time>2026-09-03T03:38:26Z</time>
					</trkpt>
					<trkpt lat="44.821630" lon="4.216140">
						<ele>1448</ele>
						<time>2026-09-03T03:38:37Z</time>
					</trkpt>
					<trkpt lat="44.821160" lon="4.215870">
						<ele>1448</ele>
						<time>2026-09-03T03:39:02Z</time>
					</trkpt>
					<trkpt lat="44.820920" lon="4.215690">
						<ele>1447</ele>
						<time>2026-09-03T03:39:16Z</time>
					</trkpt>
					<trkpt lat="44.820380" lon="4.215420">
						<ele>1445</ele>
						<time>2026-09-03T03:39:45Z</time>
					</trkpt>
					<trkpt lat="44.820110" lon="4.215320">
						<ele>1444</ele>
						<time>2026-09-03T03:39:59Z</time>
					</trkpt>
					<trkpt lat="44.819720" lon="4.215220">
						<ele>1442</ele>
						<time>2026-09-03T03:40:18Z</time>
					</trkpt>
					<trkpt lat="44.819360" lon="4.215160">
						<ele>1440</ele>
						<time>2026-09-03T03:40:37Z</time>
					</trkpt>
					<trkpt lat="44.819210" lon="4.215160">
						<ele>1439</ele>
						<time>2026-09-03T03:40:44Z</time>
					</trkpt>
					<trkpt lat="44.818910" lon="4.215260">
						<ele>1438</ele>
						<time>2026-09-03T03:41:00Z</time>
					</trkpt>
					<trkpt lat="44.818540" lon="4.215270">
						<ele>1434</ele>
						<time>2026-09-03T03:41:18Z</time>
					</trkpt>
					<trkpt lat="44.818490" lon="4.215290">
						<ele>1434</ele>
						<time>2026-09-03T03:41:21Z</time>
					</trkpt>
					<trkpt lat="44.818340" lon="4.215430">
						<ele>1434</ele>
						<time>2026-09-03T03:41:30Z</time>
					</trkpt>
					<trkpt lat="44.818270" lon="4.215460">
						<ele>1434</ele>
						<time>2026-09-03T03:41:33Z</time>
					</trkpt>
					<trkpt lat="44.817870" lon="4.215520">
						<ele>1433</ele>
						<time>2026-09-03T03:41:53Z</time>
					</trkpt>
					<trkpt lat="44.817540" lon="4.215700">
						<ele>1434</ele>
						<time>2026-09-03T03:42:11Z</time>
					</trkpt>
					<trkpt lat="44.817000" lon="4.216050">
						<ele>1434</ele>
						<time>2026-09-03T03:42:41Z</time>
					</trkpt>
					<trkpt lat="44.816770" lon="4.216070">
						<ele>1433</ele>
						<time>2026-09-03T03:42:52Z</time>
					</trkpt>
					<trkpt lat="44.816580" lon="4.216170">
						<ele>1432</ele>
						<time>2026-09-03T03:43:03Z</time>
					</trkpt>
					<trkpt lat="44.816090" lon="4.216250">
						<ele>1428</ele>
						<time>2026-09-03T03:43:27Z</time>
					</trkpt>
					<trkpt lat="44.815750" lon="4.216390">
						<ele>1427</ele>
						<time>2026-09-03T03:43:45Z</time>
					</trkpt>
					<trkpt lat="44.815670" lon="4.216510">
						<ele>1428</ele>
						<time>2026-09-03T03:43:51Z</time>
					</trkpt>
					<trkpt lat="44.815600" lon="4.216690">
						<ele>1429</ele>
						<time>2026-09-03T03:43:58Z</time>
					</trkpt>
					<trkpt lat="44.815500" lon="4.216780">
						<ele>1429</ele>
						<time>2026-09-03T03:44:04Z</time>
					</trkpt>
					<trkpt lat="44.815290" lon="4.217040">
						<ele>1430</ele>
						<time>2026-09-03T03:44:18Z</time>
					</trkpt>
					<trkpt lat="44.815210" lon="4.217040">
						<ele>1430</ele>
						<time>2026-09-03T03:44:22Z</time>
					</trkpt>
					<trkpt lat="44.815120" lon="4.216990">
						<ele>1428</ele>
						<time>2026-09-03T03:44:27Z</time>
					</trkpt>
					<trkpt lat="44.815050" lon="4.217000">
						<ele>1428</ele>
						<time>2026-09-03T03:44:30Z</time>
					</trkpt>
					<trkpt lat="44.814940" lon="4.217110">
						<ele>1427</ele>
						<time>2026-09-03T03:44:37Z</time>
					</trkpt>
					<trkpt lat="44.814840" lon="4.217380">
						<ele>1429</ele>
						<time>2026-09-03T03:44:48Z</time>
					</trkpt>
					<trkpt lat="44.814860" lon="4.217750">
						<ele>1433</ele>
						<time>2026-09-03T03:45:01Z</time>
					</trkpt>
					<trkpt lat="44.814960" lon="4.218000">
						<ele>1436</ele>
						<time>2026-09-03T03:45:11Z</time>
					</trkpt>
					<trkpt lat="44.814970" lon="4.218270">
						<ele>1439</ele>
						<time>2026-09-03T03:45:21Z</time>
					</trkpt>
					<trkpt lat="44.815050" lon="4.218680">
						<ele>1443</ele>
						<time>2026-09-03T03:45:36Z</time>
					</trkpt>
					<trkpt lat="44.815050" lon="4.218780">
						<ele>1444</ele>
						<time>2026-09-03T03:45:40Z</time>
					</trkpt>
					<trkpt lat="44.814700" lon="4.219350">
						<ele>1442</ele>
						<time>2026-09-03T03:46:06Z</time>
					</trkpt>
					<trkpt lat="44.814430" lon="4.220070">
						<ele>1439</ele>
						<time>2026-09-03T03:46:35Z</time>
					</trkpt>
					<trkpt lat="44.814330" lon="4.220390">
						<ele>1438</ele>
						<time>2026-09-03T03:46:48Z</time>
					</trkpt>
					<trkpt lat="44.814290" lon="4.220700">
						<ele>1437</ele>
						<time>2026-09-03T03:46:59Z</time>
					</trkpt>
					<trkpt lat="44.814070" lon="4.221590">
						<ele>1431</ele>
						<time>2026-09-03T03:47:32Z</time>
					</trkpt>
					<trkpt lat="44.814000" lon="4.222140">
						<ele>1426</ele>
						<time>2026-09-03T03:47:52Z</time>
					</trkpt>
					<trkpt lat="44.814260" lon="4.222650">
						<ele>1427</ele>
						<time>2026-09-03T03:48:14Z</time>
					</trkpt>
					<trkpt lat="44.814360" lon="4.222780">
						<ele>1428</ele>
						<time>2026-09-03T03:48:21Z</time>
					</trkpt>
					<trkpt lat="44.814510" lon="4.222910">
						<ele>1429</ele>
						<time>2026-09-03T03:48:30Z</time>
					</trkpt>
					<trkpt lat="44.814590" lon="4.223070">
						<ele>1429</ele>
						<time>2026-09-03T03:48:37Z</time>
					</trkpt>
					<trkpt lat="44.814650" lon="4.223130">
						<ele>1430</ele>
						<time>2026-09-03T03:48:41Z</time>
					</trkpt>
					<trkpt lat="44.814790" lon="4.223360">
						<ele>1430</ele>
						<time>2026-09-03T03:48:51Z</time>
					</trkpt>
					<trkpt lat="44.814980" lon="4.223580">
						<ele>1430</ele>
						<time>2026-09-03T03:49:04Z</time>
					</trkpt>
					<trkpt lat="44.815260" lon="4.223790">
						<ele>1433</ele>
						<time>2026-09-03T03:49:20Z</time>
					</trkpt>
					<trkpt lat="44.815540" lon="4.224080">
						<ele>1434</ele>
						<time>2026-09-03T03:49:37Z</time>
					</trkpt>
					<trkpt lat="44.815770" lon="4.224360">
						<ele>1434</ele>
						<time>2026-09-03T03:49:52Z</time>
					</trkpt>
					<trkpt lat="44.816320" lon="4.225210">
						<ele>1435</ele>
						<time>2026-09-03T03:50:33Z</time>
					</trkpt>
					<trkpt lat="44.816470" lon="4.225370">
						<ele>1436</ele>
						<time>2026-09-03T03:50:42Z</time>
					</trkpt>
					<trkpt lat="44.817170" lon="4.225870">
						<ele>1436</ele>
						<time>2026-09-03T03:51:22Z</time>
					</trkpt>
					<trkpt lat="44.817340" lon="4.225940">
						<ele>1437</ele>
						<time>2026-09-03T03:51:31Z</time>
					</trkpt>
					<trkpt lat="44.818000" lon="4.226070">
						<ele>1440</ele>
						<time>2026-09-03T03:52:04Z</time>
					</trkpt>
					<trkpt lat="44.818270" lon="4.226150">
						<ele>1442</ele>
						<time>2026-09-03T03:52:18Z</time>
					</trkpt>
					<trkpt lat="44.818720" lon="4.226450">
						<ele>1442</ele>
						<time>2026-09-03T03:52:43Z</time>
					</trkpt>
					<trkpt lat="44.819300" lon="4.226730">
						<ele>1442</ele>
						<time>2026-09-03T03:53:13Z</time>
					</trkpt>
					<trkpt lat="44.820350" lon="4.226990">
						<ele>1440</ele>
						<time>2026-09-03T03:54:07Z</time>
					</trkpt>
					<trkpt lat="44.820930" lon="4.227230">
						<ele>1438</ele>
						<time>2026-09-03T03:54:37Z</time>
					</trkpt>
					<trkpt lat="44.821360" lon="4.227300">
						<ele>1437</ele>
						<time>2026-09-03T03:54:59Z</time>
					</trkpt>
					<trkpt lat="44.821900" lon="4.227550">
						<ele>1434</ele>
						<time>2026-09-03T03:55:27Z</time>
					</trkpt>
					<trkpt lat="44.822080" lon="4.227580">
						<ele>1433</ele>
						<time>2026-09-03T03:55:36Z</time>
					</trkpt>
					<trkpt lat="44.822370" lon="4.227700">
						<ele>1431</ele>
						<time>2026-09-03T03:55:51Z</time>
					</trkpt>
					<trkpt lat="44.822930" lon="4.227980">
						<ele>1429</ele>
						<time>2026-09-03T03:56:21Z</time>
					</trkpt>
					<trkpt lat="44.823670" lon="4.228470">
						<ele>1428</ele>
						<time>2026-09-03T03:57:02Z</time>
					</trkpt>
					<trkpt lat="44.824050" lon="4.228660">
						<ele>1428</ele>
						<time>2026-09-03T03:57:22Z</time>
					</trkpt>
					<trkpt lat="44.824150" lon="4.228740">
						<ele>1428</ele>
						<time>2026-09-03T03:57:28Z</time>
					</trkpt>
					<trkpt lat="44.824380" lon="4.229520">
						<ele>1427</ele>
						<time>2026-09-03T03:57:58Z</time>
					</trkpt>
					<trkpt lat="44.824120" lon="4.229680">
						<ele>1426</ele>
						<time>2026-09-03T03:58:12Z</time>
					</trkpt>
					<trkpt lat="44.823890" lon="4.229910">
						<ele>1424</ele>
						<time>2026-09-03T03:58:26Z</time>
					</trkpt>
					<trkpt lat="44.823680" lon="4.230240">
						<ele>1423</ele>
						<time>2026-09-03T03:58:42Z</time>
					</trkpt>
					<trkpt lat="44.823610" lon="4.230430">
						<ele>1422</ele>
						<time>2026-09-03T03:58:49Z</time>
					</trkpt>
					<trkpt lat="44.823560" lon="4.230600">
						<ele>1421</ele>
						<time>2026-09-03T03:58:56Z</time>
					</trkpt>
					<trkpt lat="44.823190" lon="4.232780">
						<ele>1412</ele>
						<time>2026-09-03T04:00:16Z</time>
					</trkpt>
					<trkpt lat="44.823040" lon="4.233520">
						<ele>1408</ele>
						<time>2026-09-03T04:00:43Z</time>
					</trkpt>
					<trkpt lat="44.822980" lon="4.234070">
						<ele>1405</ele>
						<time>2026-09-03T04:01:03Z</time>
					</trkpt>
					<trkpt lat="44.822890" lon="4.234410">
						<ele>1402</ele>
						<time>2026-09-03T04:01:15Z</time>
					</trkpt>
					<trkpt lat="44.822510" lon="4.235310">
						<ele>1394</ele>
						<time>2026-09-03T04:01:53Z</time>
					</trkpt>
					<trkpt lat="44.821890" lon="4.237460">
						<ele>1380</ele>
						<time>2026-09-03T04:03:15Z</time>
					</trkpt>
					<trkpt lat="44.821500" lon="4.238430">
						<ele>1377</ele>
						<time>2026-09-03T04:03:55Z</time>
					</trkpt>
					<trkpt lat="44.821010" lon="4.239370">
						<ele>1373</ele>
						<time>2026-09-03T04:04:36Z</time>
					</trkpt>
					<trkpt lat="44.820780" lon="4.239740">
						<ele>1373</ele>
						<time>2026-09-03T04:04:53Z</time>
					</trkpt>
					<trkpt lat="44.820220" lon="4.240500">
						<ele>1371</ele>
						<time>2026-09-03T04:05:32Z</time>
					</trkpt>
					<trkpt lat="44.819850" lon="4.240900">
						<ele>1371</ele>
						<time>2026-09-03T04:05:56Z</time>
					</trkpt>
					<trkpt lat="44.819200" lon="4.241520">
						<ele>1372</ele>
						<time>2026-09-03T04:06:35Z</time>
					</trkpt>
					<trkpt lat="44.819060" lon="4.241620">
						<ele>1371</ele>
						<time>2026-09-03T04:06:43Z</time>
					</trkpt>
					<trkpt lat="44.819000" lon="4.242010">
						<ele>1372</ele>
						<time>2026-09-03T04:06:57Z</time>
					</trkpt>
					<trkpt lat="44.818920" lon="4.242270">
						<ele>1372</ele>
						<time>2026-09-03T04:07:07Z</time>
					</trkpt>
					<trkpt lat="44.818580" lon="4.243010">
						<ele>1375</ele>
						<time>2026-09-03T04:07:38Z</time>
					</trkpt>
					<trkpt lat="44.818470" lon="4.243180">
						<ele>1376</ele>
						<time>2026-09-03T04:07:47Z</time>
					</trkpt>
					<trkpt lat="44.818340" lon="4.243340">
						<ele>1377</ele>
						<time>2026-09-03T04:07:55Z</time>
					</trkpt>
					<trkpt lat="44.818030" lon="4.243590">
						<ele>1379</ele>
						<time>2026-09-03T04:08:13Z</time>
					</trkpt>
					<trkpt lat="44.817770" lon="4.243720">
						<ele>1380</ele>
						<time>2026-09-03T04:08:27Z</time>
					</trkpt>
					<trkpt lat="44.817490" lon="4.243760">
						<ele>1381</ele>
						<time>2026-09-03T04:08:41Z</time>
					</trkpt>
					<trkpt lat="44.814720" lon="4.243820">
						<ele>1397</ele>
						<time>2026-09-03T04:11:00Z</time>
					</trkpt>
					<trkpt lat="44.813820" lon="4.243860">
						<ele>1399</ele>
						<time>2026-09-03T04:11:45Z</time>
					</trkpt>
					<trkpt lat="44.813500" lon="4.244010">
						<ele>1400</ele>
						<time>2026-09-03T04:12:01Z</time>
					</trkpt>
					<trkpt lat="44.813370" lon="4.244190">
						<ele>1401</ele>
						<time>2026-09-03T04:12:11Z</time>
					</trkpt>
					<trkpt lat="44.813330" lon="4.244340">
						<ele>1400</ele>
						<time>2026-09-03T04:12:16Z</time>
					</trkpt>
					<trkpt lat="44.812440" lon="4.243840">
						<ele>1396</ele>
						<time>2026-09-03T04:13:04Z</time>
					</trkpt>
					<trkpt lat="44.812060" lon="4.243680">
						<ele>1396</ele>
						<time>2026-09-03T04:13:24Z</time>
					</trkpt>
					<trkpt lat="44.811850" lon="4.243620">
						<ele>1397</ele>
						<time>2026-09-03T04:13:35Z</time>
					</trkpt>
					<trkpt lat="44.811770" lon="4.243570">
						<ele>1397</ele>
						<time>2026-09-03T04:13:39Z</time>
					</trkpt>
					<trkpt lat="44.811590" lon="4.243530">
						<ele>1397</ele>
						<time>2026-09-03T04:13:48Z</time>
					</trkpt>
					<trkpt lat="44.811380" lon="4.243440">
						<ele>1397</ele>
						<time>2026-09-03T04:13:59Z</time>
					</trkpt>
					<trkpt lat="44.810370" lon="4.242840">
						<ele>1395</ele>
						<time>2026-09-03T04:14:54Z</time>
					</trkpt>
					<trkpt lat="44.810300" lon="4.242820">
						<ele>1395</ele>
						<time>2026-09-03T04:14:58Z</time>
					</trkpt>
					<trkpt lat="44.810300" lon="4.242550">
						<ele>1394</ele>
						<time>2026-09-03T04:15:07Z</time>
					</trkpt>
					<trkpt lat="44.810360" lon="4.242280">
						<ele>1393</ele>
						<time>2026-09-03T04:15:17Z</time>
					</trkpt>
					<trkpt lat="44.810610" lon="4.241770">
						<ele>1393</ele>
						<time>2026-09-03T04:15:39Z</time>
					</trkpt>
					<trkpt lat="44.810750" lon="4.241610">
						<ele>1393</ele>
						<time>2026-09-03T04:15:48Z</time>
					</trkpt>
					<trkpt lat="44.810830" lon="4.241390">
						<ele>1391</ele>
						<time>2026-09-03T04:15:57Z</time>
					</trkpt>
					<trkpt lat="44.810740" lon="4.241330">
						<ele>1389</ele>
						<time>2026-09-03T04:16:02Z</time>
					</trkpt>
					<trkpt lat="44.810040" lon="4.241050">
						<ele>1380</ele>
						<time>2026-09-03T04:16:39Z</time>
					</trkpt>
					<trkpt lat="44.809380" lon="4.240820">
						<ele>1372</ele>
						<time>2026-09-03T04:17:13Z</time>
					</trkpt>
					<trkpt lat="44.809070" lon="4.240680">
						<ele>1368</ele>
						<time>2026-09-03T04:17:29Z</time>
					</trkpt>
					<trkpt lat="44.808780" lon="4.240590">
						<ele>1365</ele>
						<time>2026-09-03T04:17:44Z</time>
					</trkpt>
					<trkpt lat="44.808680" lon="4.240580">
						<ele>1364</ele>
						<time>2026-09-03T04:17:49Z</time>
					</trkpt>
					<trkpt lat="44.808430" lon="4.240490">
						<ele>1362</ele>
						<time>2026-09-03T04:18:02Z</time>
					</trkpt>
					<trkpt lat="44.808290" lon="4.240480">
						<ele>1361</ele>
						<time>2026-09-03T04:18:09Z</time>
					</trkpt>
					<trkpt lat="44.807840" lon="4.240330">
						<ele>1359</ele>
						<time>2026-09-03T04:18:32Z</time>
					</trkpt>
					<trkpt lat="44.807510" lon="4.240260">
						<ele>1358</ele>
						<time>2026-09-03T04:18:48Z</time>
					</trkpt>
					<trkpt lat="44.807180" lon="4.240140">
						<ele>1355</ele>
						<time>2026-09-03T04:19:06Z</time>
					</trkpt>
					<trkpt lat="44.806580" lon="4.240100">
						<ele>1353</ele>
						<time>2026-09-03T04:19:36Z</time>
					</trkpt>
					<trkpt lat="44.806380" lon="4.240060">
						<ele>1352</ele>
						<time>2026-09-03T04:19:46Z</time>
					</trkpt>
					<trkpt lat="44.805930" lon="4.240060">
						<ele>1349</ele>
						<time>2026-09-03T04:20:08Z</time>
					</trkpt>
					<trkpt lat="44.805770" lon="4.240010">
						<ele>1348</ele>
						<time>2026-09-03T04:20:16Z</time>
					</trkpt>
					<trkpt lat="44.805480" lon="4.240000">
						<ele>1344</ele>
						<time>2026-09-03T04:20:31Z</time>
					</trkpt>
					<trkpt lat="44.805400" lon="4.239960">
						<ele>1343</ele>
						<time>2026-09-03T04:20:35Z</time>
					</trkpt>
					<trkpt lat="44.805330" lon="4.239870">
						<ele>1341</ele>
						<time>2026-09-03T04:20:40Z</time>
					</trkpt>
					<trkpt lat="44.805230" lon="4.239820">
						<ele>1339</ele>
						<time>2026-09-03T04:20:45Z</time>
					</trkpt>
					<trkpt lat="44.805030" lon="4.239900">
						<ele>1337</ele>
						<time>2026-09-03T04:20:56Z</time>
					</trkpt>
					<trkpt lat="44.804800" lon="4.239910">
						<ele>1335</ele>
						<time>2026-09-03T04:21:07Z</time>
					</trkpt>
					<trkpt lat="44.804680" lon="4.239940">
						<ele>1334</ele>
						<time>2026-09-03T04:21:13Z</time>
					</trkpt>
					<trkpt lat="44.804320" lon="4.240150">
						<ele>1330</ele>
						<time>2026-09-03T04:21:33Z</time>
					</trkpt>
					<trkpt lat="44.804130" lon="4.240210">
						<ele>1328</ele>
						<time>2026-09-03T04:21:43Z</time>
					</trkpt>
					<trkpt lat="44.804020" lon="4.240230">
						<ele>1326</ele>
						<time>2026-09-03T04:21:48Z</time>
					</trkpt>
					<trkpt lat="44.803410" lon="4.240190">
						<ele>1315</ele>
						<time>2026-09-03T04:22:19Z</time>
					</trkpt>
					<trkpt lat="44.803220" lon="4.240220">
						<ele>1311</ele>
						<time>2026-09-03T04:22:28Z</time>
					</trkpt>
					<trkpt lat="44.803060" lon="4.240300">
						<ele>1309</ele>
						<time>2026-09-03T04:22:37Z</time>
					</trkpt>
					<trkpt lat="44.802980" lon="4.240310">
						<ele>1308</ele>
						<time>2026-09-03T04:22:41Z</time>
					</trkpt>
					<trkpt lat="44.802470" lon="4.240150">
						<ele>1299</ele>
						<time>2026-09-03T04:23:07Z</time>
					</trkpt>
					<trkpt lat="44.802260" lon="4.240050">
						<ele>1295</ele>
						<time>2026-09-03T04:23:18Z</time>
					</trkpt>
					<trkpt lat="44.802060" lon="4.240100">
						<ele>1291</ele>
						<time>2026-09-03T04:23:28Z</time>
					</trkpt>
					<trkpt lat="44.801990" lon="4.240080">
						<ele>1289</ele>
						<time>2026-09-03T04:23:32Z</time>
					</trkpt>
					<trkpt lat="44.801660" lon="4.239870">
						<ele>1282</ele>
						<time>2026-09-03T04:23:50Z</time>
					</trkpt>
					<trkpt lat="44.801520" lon="4.239620">
						<ele>1280</ele>
						<time>2026-09-03T04:24:01Z</time>
					</trkpt>
					<trkpt lat="44.801480" lon="4.239590">
						<ele>1279</ele>
						<time>2026-09-03T04:24:03Z</time>
					</trkpt>
					<trkpt lat="44.801170" lon="4.239480">
						<ele>1276</ele>
						<time>2026-09-03T04:24:19Z</time>
					</trkpt>
					<trkpt lat="44.800600" lon="4.239370">
						<ele>1274</ele>
						<time>2026-09-03T04:24:48Z</time>
					</trkpt>
					<trkpt lat="44.800020" lon="4.238390">
						<ele>1272</ele>
						<time>2026-09-03T04:25:33Z</time>
					</trkpt>
					<trkpt lat="44.799640" lon="4.237570">
						<ele>1268</ele>
						<time>2026-09-03T04:26:08Z</time>
					</trkpt>
					<trkpt lat="44.799300" lon="4.237040">
						<ele>1266</ele>
						<time>2026-09-03T04:26:34Z</time>
					</trkpt>
					<trkpt lat="44.798870" lon="4.236280">
						<ele>1262</ele>
						<time>2026-09-03T04:27:08Z</time>
					</trkpt>
					<trkpt lat="44.798800" lon="4.235960">
						<ele>1260</ele>
						<time>2026-09-03T04:27:20Z</time>
					</trkpt>
					<trkpt lat="44.798500" lon="4.235350">
						<ele>1257</ele>
						<time>2026-09-03T04:27:46Z</time>
					</trkpt>
					<trkpt lat="44.798360" lon="4.234960">
						<ele>1256</ele>
						<time>2026-09-03T04:28:02Z</time>
					</trkpt>
					<trkpt lat="44.798200" lon="4.234780">
						<ele>1254</ele>
						<time>2026-09-03T04:28:12Z</time>
					</trkpt>
					<trkpt lat="44.797620" lon="4.234240">
						<ele>1250</ele>
						<time>2026-09-03T04:28:47Z</time>
					</trkpt>
					<trkpt lat="44.797310" lon="4.233830">
						<ele>1249</ele>
						<time>2026-09-03T04:29:08Z</time>
					</trkpt>
					<trkpt lat="44.796630" lon="4.232780">
						<ele>1251</ele>
						<time>2026-09-03T04:29:59Z</time>
					</trkpt>
					<trkpt lat="44.795830" lon="4.231480">
						<ele>1260</ele>
						<time>2026-09-03T04:31:00Z</time>
					</trkpt>
					<trkpt lat="44.795540" lon="4.230950">
						<ele>1261</ele>
						<time>2026-09-03T04:31:24Z</time>
					</trkpt>
					<trkpt lat="44.795390" lon="4.230740">
						<ele>1262</ele>
						<time>2026-09-03T04:31:34Z</time>
					</trkpt>
					<trkpt lat="44.795110" lon="4.230460">
						<ele>1263</ele>
						<time>2026-09-03T04:31:51Z</time>
					</trkpt>
					<trkpt lat="44.794650" lon="4.230090">
						<ele>1262</ele>
						<time>2026-09-03T04:32:18Z</time>
					</trkpt>
					<trkpt lat="44.794250" lon="4.229710">
						<ele>1262</ele>
						<time>2026-09-03T04:32:42Z</time>
					</trkpt>
					<trkpt lat="44.794150" lon="4.229660">
						<ele>1262</ele>
						<time>2026-09-03T04:32:47Z</time>
					</trkpt>
					<trkpt lat="44.794040" lon="4.229640">
						<ele>1261</ele>
						<time>2026-09-03T04:32:53Z</time>
					</trkpt>
					<trkpt lat="44.793820" lon="4.229650">
						<ele>1260</ele>
						<time>2026-09-03T04:33:04Z</time>
					</trkpt>
					<trkpt lat="44.793520" lon="4.229740">
						<ele>1258</ele>
						<time>2026-09-03T04:33:19Z</time>
					</trkpt>
					<trkpt lat="44.793400" lon="4.229740">
						<ele>1258</ele>
						<time>2026-09-03T04:33:25Z</time>
					</trkpt>
					<trkpt lat="44.793240" lon="4.229700">
						<ele>1257</ele>
						<time>2026-09-03T04:33:33Z</time>
					</trkpt>
					<trkpt lat="44.792870" lon="4.229510">
						<ele>1255</ele>
						<time>2026-09-03T04:33:53Z</time>
					</trkpt>
					<trkpt lat="44.792210" lon="4.229120">
						<ele>1250</ele>
						<time>2026-09-03T04:34:29Z</time>
					</trkpt>
					<trkpt lat="44.792040" lon="4.229000">
						<ele>1248</ele>
						<time>2026-09-03T04:34:38Z</time>
					</trkpt>
					<trkpt lat="44.791780" lon="4.228750">
						<ele>1246</ele>
						<time>2026-09-03T04:34:54Z</time>
					</trkpt>
					<trkpt lat="44.791610" lon="4.228520">
						<ele>1244</ele>
						<time>2026-09-03T04:35:06Z</time>
					</trkpt>
					<trkpt lat="44.791520" lon="4.228340">
						<ele>1243</ele>
						<time>2026-09-03T04:35:14Z</time>
					</trkpt>
					<trkpt lat="44.791140" lon="4.226930">
						<ele>1241</ele>
						<time>2026-09-03T04:36:07Z</time>
					</trkpt>
					<trkpt lat="44.790880" lon="4.226220">
						<ele>1241</ele>
						<time>2026-09-03T04:36:36Z</time>
					</trkpt>
					<trkpt lat="44.790440" lon="4.225420">
						<ele>1232</ele>
						<time>2026-09-03T04:37:12Z</time>
					</trkpt>
					<trkpt lat="44.790340" lon="4.225350">
						<ele>1231</ele>
						<time>2026-09-03T04:37:17Z</time>
					</trkpt>
					<trkpt lat="44.790220" lon="4.225340">
						<ele>1231</ele>
						<time>2026-09-03T04:37:23Z</time>
					</trkpt>
					<trkpt lat="44.790130" lon="4.225300">
						<ele>1230</ele>
						<time>2026-09-03T04:37:28Z</time>
					</trkpt>
					<trkpt lat="44.790040" lon="4.225180">
						<ele>1230</ele>
						<time>2026-09-03T04:37:34Z</time>
					</trkpt>
					<trkpt lat="44.789970" lon="4.225300">
						<ele>1230</ele>
						<time>2026-09-03T04:37:40Z</time>
					</trkpt>
					<trkpt lat="44.789930" lon="4.225460">
						<ele>1230</ele>
						<time>2026-09-03T04:37:46Z</time>
					</trkpt>
					<trkpt lat="44.789920" lon="4.225750">
						<ele>1231</ele>
						<time>2026-09-03T04:37:56Z</time>
					</trkpt>
					<trkpt lat="44.790070" lon="4.226670">
						<ele>1230</ele>
						<time>2026-09-03T04:38:30Z</time>
					</trkpt>
					<trkpt lat="44.790080" lon="4.227170">
						<ele>1230</ele>
						<time>2026-09-03T04:38:47Z</time>
					</trkpt>
					<trkpt lat="44.789940" lon="4.227670">
						<ele>1228</ele>
						<time>2026-09-03T04:39:06Z</time>
					</trkpt>
					<trkpt lat="44.789840" lon="4.228180">
						<ele>1227</ele>
						<time>2026-09-03T04:39:25Z</time>
					</trkpt>
					<trkpt lat="44.789740" lon="4.228340">
						<ele>1227</ele>
						<time>2026-09-03T04:39:33Z</time>
					</trkpt>
					<trkpt lat="44.789650" lon="4.228400">
						<ele>1227</ele>
						<time>2026-09-03T04:39:38Z</time>
					</trkpt>
					<trkpt lat="44.789560" lon="4.228710">
						<ele>1226</ele>
						<time>2026-09-03T04:39:50Z</time>
					</trkpt>
					<trkpt lat="44.789370" lon="4.228840">
						<ele>1226</ele>
						<time>2026-09-03T04:40:00Z</time>
					</trkpt>
					<trkpt lat="44.789240" lon="4.228880">
						<ele>1225</ele>
						<time>2026-09-03T04:40:07Z</time>
					</trkpt>
					<trkpt lat="44.788880" lon="4.228870">
						<ele>1230</ele>
						<time>2026-09-03T04:40:25Z</time>
					</trkpt>
					<trkpt lat="44.788800" lon="4.228900">
						<ele>1231</ele>
						<time>2026-09-03T04:40:29Z</time>
					</trkpt>
					<trkpt lat="44.788600" lon="4.229140">
						<ele>1233</ele>
						<time>2026-09-03T04:40:42Z</time>
					</trkpt>
					<trkpt lat="44.788410" lon="4.229470">
						<ele>1234</ele>
						<time>2026-09-03T04:40:57Z</time>
					</trkpt>
					<trkpt lat="44.788250" lon="4.229470">
						<ele>1236</ele>
						<time>2026-09-03T04:41:05Z</time>
					</trkpt>
					<trkpt lat="44.788070" lon="4.229520">
						<ele>1238</ele>
						<time>2026-09-03T04:41:14Z</time>
					</trkpt>
					<trkpt lat="44.787740" lon="4.229810">
						<ele>1241</ele>
						<time>2026-09-03T04:41:34Z</time>
					</trkpt>
					<trkpt lat="44.787490" lon="4.229880">
						<ele>1244</ele>
						<time>2026-09-03T04:41:47Z</time>
					</trkpt>
					<trkpt lat="44.787150" lon="4.229920">
						<ele>1246</ele>
						<time>2026-09-03T04:42:04Z</time>
					</trkpt>
					<trkpt lat="44.786650" lon="4.229590">
						<ele>1248</ele>
						<time>2026-09-03T04:42:31Z</time>
					</trkpt>
					<trkpt lat="44.786420" lon="4.229500">
						<ele>1249</ele>
						<time>2026-09-03T04:42:43Z</time>
					</trkpt>
					<trkpt lat="44.786320" lon="4.229500">
						<ele>1249</ele>
						<time>2026-09-03T04:42:48Z</time>
					</trkpt>
					<trkpt lat="44.786120" lon="4.229610">
						<ele>1250</ele>
						<time>2026-09-03T04:42:59Z</time>
					</trkpt>
					<trkpt lat="44.785850" lon="4.229640">
						<ele>1251</ele>
						<time>2026-09-03T04:43:13Z</time>
					</trkpt>
					<trkpt lat="44.785710" lon="4.229620">
						<ele>1252</ele>
						<time>2026-09-03T04:43:20Z</time>
					</trkpt>
					<trkpt lat="44.785650" lon="4.229640">
						<ele>1253</ele>
						<time>2026-09-03T04:43:23Z</time>
					</trkpt>
					<trkpt lat="44.785570" lon="4.229780">
						<ele>1253</ele>
						<time>2026-09-03T04:43:29Z</time>
					</trkpt>
					<trkpt lat="44.785460" lon="4.229870">
						<ele>1254</ele>
						<time>2026-09-03T04:43:35Z</time>
					</trkpt>
					<trkpt lat="44.785400" lon="4.229880">
						<ele>1255</ele>
						<time>2026-09-03T04:43:39Z</time>
					</trkpt>
					<trkpt lat="44.785340" lon="4.229860">
						<ele>1255</ele>
						<time>2026-09-03T04:43:42Z</time>
					</trkpt>
					<trkpt lat="44.785110" lon="4.229650">
						<ele>1260</ele>
						<time>2026-09-03T04:43:55Z</time>
					</trkpt>
					<trkpt lat="44.784880" lon="4.229490">
						<ele>1264</ele>
						<time>2026-09-03T04:44:08Z</time>
					</trkpt>
					<trkpt lat="44.784780" lon="4.229450">
						<ele>1265</ele>
						<time>2026-09-03T04:44:13Z</time>
					</trkpt>
					<trkpt lat="44.784290" lon="4.229400">
						<ele>1270</ele>
						<time>2026-09-03T04:44:38Z</time>
					</trkpt>
					<trkpt lat="44.783600" lon="4.229450">
						<ele>1275</ele>
						<time>2026-09-03T04:45:13Z</time>
					</trkpt>
					<trkpt lat="44.783280" lon="4.229500">
						<ele>1276</ele>
						<time>2026-09-03T04:45:29Z</time>
					</trkpt>
					<trkpt lat="44.782680" lon="4.229710">
						<ele>1278</ele>
						<time>2026-09-03T04:46:00Z</time>
					</trkpt>
					<trkpt lat="44.782090" lon="4.229830">
						<ele>1280</ele>
						<time>2026-09-03T04:46:29Z</time>
					</trkpt>
					<trkpt lat="44.781590" lon="4.229780">
						<ele>1282</ele>
						<time>2026-09-03T04:46:54Z</time>
					</trkpt>
					<trkpt lat="44.781340" lon="4.229710">
						<ele>1281</ele>
						<time>2026-09-03T04:47:07Z</time>
					</trkpt>
					<trkpt lat="44.781110" lon="4.229730">
						<ele>1280</ele>
						<time>2026-09-03T04:47:19Z</time>
					</trkpt>
					<trkpt lat="44.780600" lon="4.229950">
						<ele>1281</ele>
						<time>2026-09-03T04:47:45Z</time>
					</trkpt>
					<trkpt lat="44.780370" lon="4.229980">
						<ele>1280</ele>
						<time>2026-09-03T04:47:57Z</time>
					</trkpt>
					<trkpt lat="44.780060" lon="4.230080">
						<ele>1280</ele>
						<time>2026-09-03T04:48:13Z</time>
					</trkpt>
					<trkpt lat="44.779810" lon="4.230220">
						<ele>1280</ele>
						<time>2026-09-03T04:48:26Z</time>
					</trkpt>
					<trkpt lat="44.779400" lon="4.230550">
						<ele>1282</ele>
						<time>2026-09-03T04:48:50Z</time>
					</trkpt>
					<trkpt lat="44.779050" lon="4.230620">
						<ele>1281</ele>
						<time>2026-09-03T04:49:08Z</time>
					</trkpt>
					<trkpt lat="44.778880" lon="4.230610">
						<ele>1281</ele>
						<time>2026-09-03T04:49:16Z</time>
					</trkpt>
					<trkpt lat="44.778770" lon="4.230630">
						<ele>1280</ele>
						<time>2026-09-03T04:49:22Z</time>
					</trkpt>
					<trkpt lat="44.778320" lon="4.230840">
						<ele>1281</ele>
						<time>2026-09-03T04:49:45Z</time>
					</trkpt>
					<trkpt lat="44.778090" lon="4.230720">
						<ele>1281</ele>
						<time>2026-09-03T04:49:58Z</time>
					</trkpt>
					<trkpt lat="44.777750" lon="4.230630">
						<ele>1281</ele>
						<time>2026-09-03T04:50:15Z</time>
					</trkpt>
					<trkpt lat="44.777320" lon="4.230280">
						<ele>1281</ele>
						<time>2026-09-03T04:50:40Z</time>
					</trkpt>
					<trkpt lat="44.776960" lon="4.230090">
						<ele>1284</ele>
						<time>2026-09-03T04:50:59Z</time>
					</trkpt>
					<trkpt lat="44.776690" lon="4.229620">
						<ele>1288</ele>
						<time>2026-09-03T04:51:21Z</time>
					</trkpt>
					<trkpt lat="44.776570" lon="4.229290">
						<ele>1289</ele>
						<time>2026-09-03T04:51:34Z</time>
					</trkpt>
					<trkpt lat="44.776510" lon="4.229190">
						<ele>1289</ele>
						<time>2026-09-03T04:51:38Z</time>
					</trkpt>
					<trkpt lat="44.776320" lon="4.228890">
						<ele>1288</ele>
						<time>2026-09-03T04:51:53Z</time>
					</trkpt>
					<trkpt lat="44.776050" lon="4.228630">
						<ele>1286</ele>
						<time>2026-09-03T04:52:09Z</time>
					</trkpt>
					<trkpt lat="44.775950" lon="4.228490">
						<ele>1284</ele>
						<time>2026-09-03T04:52:16Z</time>
					</trkpt>
					<trkpt lat="44.775780" lon="4.228410">
						<ele>1282</ele>
						<time>2026-09-03T04:52:25Z</time>
					</trkpt>
					<trkpt lat="44.775310" lon="4.228260">
						<ele>1274</ele>
						<time>2026-09-03T04:52:49Z</time>
					</trkpt>
					<trkpt lat="44.775120" lon="4.228310">
						<ele>1272</ele>
						<time>2026-09-03T04:52:59Z</time>
					</trkpt>
					<trkpt lat="44.774940" lon="4.228400">
						<ele>1271</ele>
						<time>2026-09-03T04:53:08Z</time>
					</trkpt>
					<trkpt lat="44.774510" lon="4.228390">
						<ele>1267</ele>
						<time>2026-09-03T04:53:30Z</time>
					</trkpt>
					<trkpt lat="44.774110" lon="4.228230">
						<ele>1263</ele>
						<time>2026-09-03T04:53:51Z</time>
					</trkpt>
					<trkpt lat="44.773710" lon="4.227950">
						<ele>1264</ele>
						<time>2026-09-03T04:54:13Z</time>
					</trkpt>
					<trkpt lat="44.773250" lon="4.227300">
						<ele>1264</ele>
						<time>2026-09-03T04:54:46Z</time>
					</trkpt>
					<trkpt lat="44.773170" lon="4.227060">
						<ele>1263</ele>
						<time>2026-09-03T04:54:55Z</time>
					</trkpt>
					<trkpt lat="44.773140" lon="4.226850">
						<ele>1263</ele>
						<time>2026-09-03T04:55:03Z</time>
					</trkpt>
					<trkpt lat="44.773090" lon="4.226700">
						<ele>1263</ele>
						<time>2026-09-03T04:55:09Z</time>
					</trkpt>
					<trkpt lat="44.772900" lon="4.226580">
						<ele>1264</ele>
						<time>2026-09-03T04:55:19Z</time>
					</trkpt>
					<trkpt lat="44.772820" lon="4.226490">
						<ele>1265</ele>
						<time>2026-09-03T04:55:24Z</time>
					</trkpt>
					<trkpt lat="44.772500" lon="4.226050">
						<ele>1267</ele>
						<time>2026-09-03T04:55:47Z</time>
					</trkpt>
					<trkpt lat="44.772280" lon="4.225860">
						<ele>1265</ele>
						<time>2026-09-03T04:56:00Z</time>
					</trkpt>
					<trkpt lat="44.772170" lon="4.225630">
						<ele>1266</ele>
						<time>2026-09-03T04:56:09Z</time>
					</trkpt>
					<trkpt lat="44.772200" lon="4.225380">
						<ele>1268</ele>
						<time>2026-09-03T04:56:18Z</time>
					</trkpt>
					<trkpt lat="44.772190" lon="4.225180">
						<ele>1270</ele>
						<time>2026-09-03T04:56:26Z</time>
					</trkpt>
					<trkpt lat="44.772260" lon="4.224840">
						<ele>1272</ele>
						<time>2026-09-03T04:56:38Z</time>
					</trkpt>
					<trkpt lat="44.772390" lon="4.224450">
						<ele>1274</ele>
						<time>2026-09-03T04:56:53Z</time>
					</trkpt>
					<trkpt lat="44.772380" lon="4.224170">
						<ele>1274</ele>
						<time>2026-09-03T04:57:03Z</time>
					</trkpt>
					<trkpt lat="44.772350" lon="4.224020">
						<ele>1275</ele>
						<time>2026-09-03T04:57:09Z</time>
					</trkpt>
					<trkpt lat="44.772360" lon="4.223710">
						<ele>1277</ele>
						<time>2026-09-03T04:57:20Z</time>
					</trkpt>
					<trkpt lat="44.772470" lon="4.222900">
						<ele>1279</ele>
						<time>2026-09-03T04:57:49Z</time>
					</trkpt>
					<trkpt lat="44.772460" lon="4.222230">
						<ele>1278</ele>
						<time>2026-09-03T04:58:13Z</time>
					</trkpt>
					<trkpt lat="44.772330" lon="4.221110">
						<ele>1272</ele>
						<time>2026-09-03T04:58:53Z</time>
					</trkpt>
					<trkpt lat="44.772340" lon="4.220360">
						<ele>1269</ele>
						<time>2026-09-03T04:59:20Z</time>
					</trkpt>
					<trkpt lat="44.772250" lon="4.219640">
						<ele>1267</ele>
						<time>2026-09-03T04:59:46Z</time>
					</trkpt>
					<trkpt lat="44.772250" lon="4.219420">
						<ele>1267</ele>
						<time>2026-09-03T04:59:54Z</time>
					</trkpt>
					<trkpt lat="44.772330" lon="4.218910">
						<ele>1266</ele>
						<time>2026-09-03T05:00:12Z</time>
					</trkpt>
					<trkpt lat="44.772330" lon="4.218740">
						<ele>1266</ele>
						<time>2026-09-03T05:00:18Z</time>
					</trkpt>
					<trkpt lat="44.772120" lon="4.217710">
						<ele>1260</ele>
						<time>2026-09-03T05:00:56Z</time>
					</trkpt>
					<trkpt lat="44.771780" lon="4.217250">
						<ele>1259</ele>
						<time>2026-09-03T05:01:20Z</time>
					</trkpt>
					<trkpt lat="44.771630" lon="4.216890">
						<ele>1258</ele>
						<time>2026-09-03T05:01:35Z</time>
					</trkpt>
					<trkpt lat="44.771550" lon="4.216580">
						<ele>1258</ele>
						<time>2026-09-03T05:01:47Z</time>
					</trkpt>
					<trkpt lat="44.771550" lon="4.216300">
						<ele>1258</ele>
						<time>2026-09-03T05:01:57Z</time>
					</trkpt>
					<trkpt lat="44.771660" lon="4.215990">
						<ele>1257</ele>
						<time>2026-09-03T05:02:09Z</time>
					</trkpt>
					<trkpt lat="44.771710" lon="4.215700">
						<ele>1257</ele>
						<time>2026-09-03T05:02:19Z</time>
					</trkpt>
					<trkpt lat="44.771730" lon="4.215720">
						<ele>1257</ele>
						<time>2026-09-03T05:02:21Z</time>
					</trkpt>
					<trkpt lat="44.771390" lon="4.215420">
						<ele>1257</ele>
						<time>2026-09-03T05:02:41Z</time>
					</trkpt>
					<trkpt lat="44.770530" lon="4.214510">
						<ele>1249</ele>
						<time>2026-09-03T05:03:35Z</time>
					</trkpt>
					<trkpt lat="44.770410" lon="4.214420">
						<ele>1248</ele>
						<time>2026-09-03T05:03:41Z</time>
					</trkpt>
					<trkpt lat="44.770260" lon="4.214360">
						<ele>1247</ele>
						<time>2026-09-03T05:03:49Z</time>
					</trkpt>
					<trkpt lat="44.770080" lon="4.214360">
						<ele>1246</ele>
						<time>2026-09-03T05:03:58Z</time>
					</trkpt>
					<trkpt lat="44.769730" lon="4.214450">
						<ele>1243</ele>
						<time>2026-09-03T05:04:16Z</time>
					</trkpt>
					<trkpt lat="44.769460" lon="4.214580">
						<ele>1240</ele>
						<time>2026-09-03T05:04:30Z</time>
					</trkpt>
					<trkpt lat="44.769180" lon="4.214860">
						<ele>1239</ele>
						<time>2026-09-03T05:04:47Z</time>
					</trkpt>
					<trkpt lat="44.768840" lon="4.215080">
						<ele>1238</ele>
						<time>2026-09-03T05:05:06Z</time>
					</trkpt>
					<trkpt lat="44.768280" lon="4.215230">
						<ele>1235</ele>
						<time>2026-09-03T05:05:35Z</time>
					</trkpt>
					<trkpt lat="44.768070" lon="4.215050">
						<ele>1236</ele>
						<time>2026-09-03T05:05:47Z</time>
					</trkpt>
					<trkpt lat="44.767950" lon="4.215100">
						<ele>1236</ele>
						<time>2026-09-03T05:05:53Z</time>
					</trkpt>
					<trkpt lat="44.767830" lon="4.215080">
						<ele>1236</ele>
						<time>2026-09-03T05:05:59Z</time>
					</trkpt>
					<trkpt lat="44.767360" lon="4.214800">
						<ele>1236</ele>
						<time>2026-09-03T05:06:25Z</time>
					</trkpt>
					<trkpt lat="44.767240" lon="4.214690">
						<ele>1236</ele>
						<time>2026-09-03T05:06:32Z</time>
					</trkpt>
					<trkpt lat="44.767030" lon="4.214370">
						<ele>1237</ele>
						<time>2026-09-03T05:06:47Z</time>
					</trkpt>
					<trkpt lat="44.766510" lon="4.214090">
						<ele>1240</ele>
						<time>2026-09-03T05:07:15Z</time>
					</trkpt>
					<trkpt lat="44.766210" lon="4.213690">
						<ele>1237</ele>
						<time>2026-09-03T05:07:36Z</time>
					</trkpt>
					<trkpt lat="44.765920" lon="4.213420">
						<ele>1236</ele>
						<time>2026-09-03T05:07:53Z</time>
					</trkpt>
					<trkpt lat="44.765860" lon="4.213390">
						<ele>1236</ele>
						<time>2026-09-03T05:07:57Z</time>
					</trkpt>
					<trkpt lat="44.765710" lon="4.213210">
						<ele>1235</ele>
						<time>2026-09-03T05:08:06Z</time>
					</trkpt>
					<trkpt lat="44.765580" lon="4.212950">
						<ele>1233</ele>
						<time>2026-09-03T05:08:18Z</time>
					</trkpt>
					<trkpt lat="44.765420" lon="4.212730">
						<ele>1232</ele>
						<time>2026-09-03T05:08:29Z</time>
					</trkpt>
					<trkpt lat="44.765290" lon="4.212480">
						<ele>1231</ele>
						<time>2026-09-03T05:08:40Z</time>
					</trkpt>
					<trkpt lat="44.765290" lon="4.212370">
						<ele>1231</ele>
						<time>2026-09-03T05:08:44Z</time>
					</trkpt>
					<trkpt lat="44.765120" lon="4.212310">
						<ele>1230</ele>
						<time>2026-09-03T05:08:53Z</time>
					</trkpt>
					<trkpt lat="44.764960" lon="4.212210">
						<ele>1230</ele>
						<time>2026-09-03T05:09:01Z</time>
					</trkpt>
					<trkpt lat="44.764880" lon="4.212100">
						<ele>1230</ele>
						<time>2026-09-03T05:09:07Z</time>
					</trkpt>
					<trkpt lat="44.764830" lon="4.211980">
						<ele>1230</ele>
						<time>2026-09-03T05:09:12Z</time>
					</trkpt>
					<trkpt lat="44.764810" lon="4.211850">
						<ele>1231</ele>
						<time>2026-09-03T05:09:17Z</time>
					</trkpt>
					<trkpt lat="44.764810" lon="4.211630">
						<ele>1231</ele>
						<time>2026-09-03T05:09:24Z</time>
					</trkpt>
					<trkpt lat="44.764890" lon="4.211120">
						<ele>1235</ele>
						<time>2026-09-03T05:09:43Z</time>
					</trkpt>
					<trkpt lat="44.765000" lon="4.210950">
						<ele>1236</ele>
						<time>2026-09-03T05:09:51Z</time>
					</trkpt>
					<trkpt lat="44.765300" lon="4.210580">
						<ele>1235</ele>
						<time>2026-09-03T05:10:11Z</time>
					</trkpt>
					<trkpt lat="44.765380" lon="4.210050">
						<ele>1238</ele>
						<time>2026-09-03T05:10:30Z</time>
					</trkpt>
					<trkpt lat="44.765540" lon="4.209510">
						<ele>1240</ele>
						<time>2026-09-03T05:10:51Z</time>
					</trkpt>
					<trkpt lat="44.765560" lon="4.208890">
						<ele>1241</ele>
						<time>2026-09-03T05:11:13Z</time>
					</trkpt>
					<trkpt lat="44.765550" lon="4.208250">
						<ele>1242</ele>
						<time>2026-09-03T05:11:36Z</time>
					</trkpt>
					<trkpt lat="44.765520" lon="4.207880">
						<ele>1242</ele>
						<time>2026-09-03T05:11:49Z</time>
					</trkpt>
					<trkpt lat="44.765400" lon="4.207120">
						<ele>1244</ele>
						<time>2026-09-03T05:12:17Z</time>
					</trkpt>
					<trkpt lat="44.765210" lon="4.206240">
						<ele>1250</ele>
						<time>2026-09-03T05:12:50Z</time>
					</trkpt>
					<trkpt lat="44.765210" lon="4.206040">
						<ele>1252</ele>
						<time>2026-09-03T05:12:57Z</time>
					</trkpt>
					<trkpt lat="44.765300" lon="4.205510">
						<ele>1255</ele>
						<time>2026-09-03T05:13:16Z</time>
					</trkpt>
					<trkpt lat="44.765460" lon="4.205220">
						<ele>1256</ele>
						<time>2026-09-03T05:13:29Z</time>
					</trkpt>
					<trkpt lat="44.765480" lon="4.204610">
						<ele>1260</ele>
						<time>2026-09-03T05:13:51Z</time>
					</trkpt>
					<trkpt lat="44.765210" lon="4.203820">
						<ele>1266</ele>
						<time>2026-09-03T05:14:22Z</time>
					</trkpt>
					<trkpt lat="44.765130" lon="4.203750">
						<ele>1266</ele>
						<time>2026-09-03T05:14:27Z</time>
					</trkpt>
					<trkpt lat="44.765060" lon="4.203740">
						<ele>1267</ele>
						<time>2026-09-03T05:14:30Z</time>
					</trkpt>
					<trkpt lat="44.764860" lon="4.203630">
						<ele>1269</ele>
						<time>2026-09-03T05:14:41Z</time>
					</trkpt>
					<trkpt lat="44.764640" lon="4.203300">
						<ele>1273</ele>
						<time>2026-09-03T05:14:57Z</time>
					</trkpt>
					<trkpt lat="44.764000" lon="4.202230">
						<ele>1284</ele>
						<time>2026-09-03T05:15:47Z</time>
					</trkpt>
					<trkpt lat="44.763790" lon="4.201580">
						<ele>1287</ele>
						<time>2026-09-03T05:16:12Z</time>
					</trkpt>
					<trkpt lat="44.763660" lon="4.201480">
						<ele>1288</ele>
						<time>2026-09-03T05:16:20Z</time>
					</trkpt>
					<trkpt lat="44.763500" lon="4.201410">
						<ele>1288</ele>
						<time>2026-09-03T05:16:28Z</time>
					</trkpt>
					<trkpt lat="44.763120" lon="4.201300">
						<ele>1289</ele>
						<time>2026-09-03T05:16:47Z</time>
					</trkpt>
					<trkpt lat="44.762900" lon="4.201300">
						<ele>1290</ele>
						<time>2026-09-03T05:16:58Z</time>
					</trkpt>
					<trkpt lat="44.762590" lon="4.201380">
						<ele>1289</ele>
						<time>2026-09-03T05:17:14Z</time>
					</trkpt>
					<trkpt lat="44.761540" lon="4.201460">
						<ele>1289</ele>
						<time>2026-09-03T05:18:07Z</time>
					</trkpt>
					<trkpt lat="44.761170" lon="4.201350">
						<ele>1290</ele>
						<time>2026-09-03T05:18:26Z</time>
					</trkpt>
					<trkpt lat="44.760530" lon="4.201000">
						<ele>1291</ele>
						<time>2026-09-03T05:19:00Z</time>
					</trkpt>
					<trkpt lat="44.760270" lon="4.200930">
						<ele>1290</ele>
						<time>2026-09-03T05:19:13Z</time>
					</trkpt>
					<trkpt lat="44.759830" lon="4.200900">
						<ele>1289</ele>
						<time>2026-09-03T05:19:35Z</time>
					</trkpt>
					<trkpt lat="44.759700" lon="4.200860">
						<ele>1289</ele>
						<time>2026-09-03T05:19:42Z</time>
					</trkpt>
					<trkpt lat="44.759430" lon="4.200900">
						<ele>1287</ele>
						<time>2026-09-03T05:19:56Z</time>
					</trkpt>
					<trkpt lat="44.758660" lon="4.201180">
						<ele>1286</ele>
						<time>2026-09-03T05:20:35Z</time>
					</trkpt>
					<trkpt lat="44.757590" lon="4.201380">
						<ele>1285</ele>
						<time>2026-09-03T05:21:29Z</time>
					</trkpt>
					<trkpt lat="44.757190" lon="4.201400">
						<ele>1282</ele>
						<time>2026-09-03T05:21:49Z</time>
					</trkpt>
					<trkpt lat="44.756230" lon="4.200160">
						<ele>1275</ele>
						<time>2026-09-03T05:22:55Z</time>
					</trkpt>
					<trkpt lat="44.756360" lon="4.199470">
						<ele>1276</ele>
						<time>2026-09-03T05:23:20Z</time>
					</trkpt>
					<trkpt lat="44.756400" lon="4.199120">
						<ele>1276</ele>
						<time>2026-09-03T05:23:33Z</time>
					</trkpt>
					<trkpt lat="44.756440" lon="4.197880">
						<ele>1275</ele>
						<time>2026-09-03T05:24:17Z</time>
					</trkpt>
					<trkpt lat="44.756430" lon="4.197560">
						<ele>1274</ele>
						<time>2026-09-03T05:24:28Z</time>
					</trkpt>
					<trkpt lat="44.756270" lon="4.196850">
						<ele>1273</ele>
						<time>2026-09-03T05:24:54Z</time>
					</trkpt>
					<trkpt lat="44.756190" lon="4.196190">
						<ele>1271</ele>
						<time>2026-09-03T05:25:18Z</time>
					</trkpt>
					<trkpt lat="44.756090" lon="4.195760">
						<ele>1271</ele>
						<time>2026-09-03T05:25:34Z</time>
					</trkpt>
					<trkpt lat="44.755960" lon="4.195350">
						<ele>1271</ele>
						<time>2026-09-03T05:25:50Z</time>
					</trkpt>
					<trkpt lat="44.755720" lon="4.194750">
						<ele>1272</ele>
						<time>2026-09-03T05:26:15Z</time>
					</trkpt>
					<trkpt lat="44.755580" lon="4.194520">
						<ele>1273</ele>
						<time>2026-09-03T05:26:26Z</time>
					</trkpt>
					<trkpt lat="44.755400" lon="4.194300">
						<ele>1274</ele>
						<time>2026-09-03T05:26:37Z</time>
					</trkpt>
					<trkpt lat="44.755370" lon="4.194190">
						<ele>1274</ele>
						<time>2026-09-03T05:26:42Z</time>
					</trkpt>
					<trkpt lat="44.755370" lon="4.193540">
						<ele>1275</ele>
						<time>2026-09-03T05:27:05Z</time>
					</trkpt>
					<trkpt lat="44.755330" lon="4.192900">
						<ele>1274</ele>
						<time>2026-09-03T05:27:28Z</time>
					</trkpt>
					<trkpt lat="44.755130" lon="4.191550">
						<ele>1268</ele>
						<time>2026-09-03T05:28:17Z</time>
					</trkpt>
					<trkpt lat="44.754830" lon="4.190500">
						<ele>1258</ele>
						<time>2026-09-03T05:28:57Z</time>
					</trkpt>
					<trkpt lat="44.754370" lon="4.189470">
						<ele>1246</ele>
						<time>2026-09-03T05:29:40Z</time>
					</trkpt>
					<trkpt lat="44.754200" lon="4.189010">
						<ele>1239</ele>
						<time>2026-09-03T05:29:58Z</time>
					</trkpt>
					<trkpt lat="44.754080" lon="4.188790">
						<ele>1236</ele>
						<time>2026-09-03T05:30:08Z</time>
					</trkpt>
					<trkpt lat="44.753840" lon="4.188830">
						<ele>1237</ele>
						<time>2026-09-03T05:30:20Z</time>
					</trkpt>
					<trkpt lat="44.753500" lon="4.188940">
						<ele>1237</ele>
						<time>2026-09-03T05:30:38Z</time>
					</trkpt>
					<trkpt lat="44.753330" lon="4.188940">
						<ele>1237</ele>
						<time>2026-09-03T05:30:46Z</time>
					</trkpt>
					<trkpt lat="44.753300" lon="4.188880">
						<ele>1237</ele>
						<time>2026-09-03T05:30:49Z</time>
					</trkpt>
					<trkpt lat="44.753270" lon="4.188600">
						<ele>1237</ele>
						<time>2026-09-03T05:30:59Z</time>
					</trkpt>
					<trkpt lat="44.753300" lon="4.187950">
						<ele>1235</ele>
						<time>2026-09-03T05:31:22Z</time>
					</trkpt>
					<trkpt lat="44.753260" lon="4.187790">
						<ele>1236</ele>
						<time>2026-09-03T05:31:28Z</time>
					</trkpt>
					<trkpt lat="44.753120" lon="4.187530">
						<ele>1237</ele>
						<time>2026-09-03T05:31:40Z</time>
					</trkpt>
					<trkpt lat="44.753050" lon="4.187440">
						<ele>1238</ele>
						<time>2026-09-03T05:31:45Z</time>
					</trkpt>
					<trkpt lat="44.752840" lon="4.187260">
						<ele>1239</ele>
						<time>2026-09-03T05:31:57Z</time>
					</trkpt>
					<trkpt lat="44.752480" lon="4.187020">
						<ele>1240</ele>
						<time>2026-09-03T05:32:17Z</time>
					</trkpt>
					<trkpt lat="44.752290" lon="4.186750">
						<ele>1238</ele>
						<time>2026-09-03T05:32:30Z</time>
					</trkpt>
					<trkpt lat="44.751900" lon="4.186350">
						<ele>1237</ele>
						<time>2026-09-03T05:32:54Z</time>
					</trkpt>
					<trkpt lat="44.751790" lon="4.186270">
						<ele>1237</ele>
						<time>2026-09-03T05:33:01Z</time>
					</trkpt>
					<trkpt lat="44.751380" lon="4.186200">
						<ele>1240</ele>
						<time>2026-09-03T05:33:21Z</time>
					</trkpt>
					<trkpt lat="44.750980" lon="4.186170">
						<ele>1242</ele>
						<time>2026-09-03T05:33:41Z</time>
					</trkpt>
					<trkpt lat="44.750210" lon="4.185970">
						<ele>1247</ele>
						<time>2026-09-03T05:34:21Z</time>
					</trkpt>
					<trkpt lat="44.749290" lon="4.185570">
						<ele>1256</ele>
						<time>2026-09-03T05:35:09Z</time>
					</trkpt>
					<trkpt lat="44.749040" lon="4.185380">
						<ele>1258</ele>
						<time>2026-09-03T05:35:23Z</time>
					</trkpt>
					<trkpt lat="44.748960" lon="4.185230">
						<ele>1259</ele>
						<time>2026-09-03T05:35:30Z</time>
					</trkpt>
					<trkpt lat="44.748940" lon="4.185070">
						<ele>1259</ele>
						<time>2026-09-03T05:35:35Z</time>
					</trkpt>
					<trkpt lat="44.748950" lon="4.184900">
						<ele>1260</ele>
						<time>2026-09-03T05:35:41Z</time>
					</trkpt>
					<trkpt lat="44.749000" lon="4.184750">
						<ele>1260</ele>
						<time>2026-09-03T05:35:47Z</time>
					</trkpt>
					<trkpt lat="44.749290" lon="4.184380">
						<ele>1259</ele>
						<time>2026-09-03T05:36:07Z</time>
					</trkpt>
					<trkpt lat="44.749700" lon="4.183950">
						<ele>1262</ele>
						<time>2026-09-03T05:36:33Z</time>
					</trkpt>
					<trkpt lat="44.750150" lon="4.183650">
						<ele>1264</ele>
						<time>2026-09-03T05:36:57Z</time>
					</trkpt>
					<trkpt lat="44.750470" lon="4.183530">
						<ele>1265</ele>
						<time>2026-09-03T05:37:14Z</time>
					</trkpt>
					<trkpt lat="44.750800" lon="4.183450">
						<ele>1266</ele>
						<time>2026-09-03T05:37:31Z</time>
					</trkpt>
					<trkpt lat="44.751060" lon="4.183320">
						<ele>1267</ele>
						<time>2026-09-03T05:37:45Z</time>
					</trkpt>
					<trkpt lat="44.751160" lon="4.183210">
						<ele>1268</ele>
						<time>2026-09-03T05:37:51Z</time>
					</trkpt>
					<trkpt lat="44.751210" lon="4.183080">
						<ele>1269</ele>
						<time>2026-09-03T05:37:56Z</time>
					</trkpt>
					<trkpt lat="44.751190" lon="4.182990">
						<ele>1270</ele>
						<time>2026-09-03T05:38:00Z</time>
					</trkpt>
					<trkpt lat="44.750850" lon="4.182600">
						<ele>1277</ele>
						<time>2026-09-03T05:38:21Z</time>
					</trkpt>
					<trkpt lat="44.750590" lon="4.182380">
						<ele>1280</ele>
						<time>2026-09-03T05:38:37Z</time>
					</trkpt>
					<trkpt lat="44.750370" lon="4.182110">
						<ele>1281</ele>
						<time>2026-09-03T05:38:51Z</time>
					</trkpt>
					<trkpt lat="44.750140" lon="4.181960">
						<ele>1282</ele>
						<time>2026-09-03T05:39:04Z</time>
					</trkpt>
					<trkpt lat="44.749820" lon="4.181350">
						<ele>1279</ele>
						<time>2026-09-03T05:39:31Z</time>
					</trkpt>
					<trkpt lat="44.749700" lon="4.180970">
						<ele>1275</ele>
						<time>2026-09-03T05:39:46Z</time>
					</trkpt>
					<trkpt lat="44.749610" lon="4.180800">
						<ele>1272</ele>
						<time>2026-09-03T05:39:53Z</time>
					</trkpt>
					<trkpt lat="44.749400" lon="4.180610">
						<ele>1268</ele>
						<time>2026-09-03T05:40:06Z</time>
					</trkpt>
					<trkpt lat="44.749090" lon="4.180490">
						<ele>1264</ele>
						<time>2026-09-03T05:40:22Z</time>
					</trkpt>
					<trkpt lat="44.748960" lon="4.180390">
						<ele>1262</ele>
						<time>2026-09-03T05:40:29Z</time>
					</trkpt>
					<trkpt lat="44.748880" lon="4.180260">
						<ele>1260</ele>
						<time>2026-09-03T05:40:35Z</time>
					</trkpt>
					<trkpt lat="44.748820" lon="4.180070">
						<ele>1258</ele>
						<time>2026-09-03T05:40:43Z</time>
					</trkpt>
					<trkpt lat="44.748750" lon="4.179560">
						<ele>1255</ele>
						<time>2026-09-03T05:41:01Z</time>
					</trkpt>
					<trkpt lat="44.748700" lon="4.179460">
						<ele>1253</ele>
						<time>2026-09-03T05:41:06Z</time>
					</trkpt>
					<trkpt lat="44.748170" lon="4.179170">
						<ele>1242</ele>
						<time>2026-09-03T05:41:34Z</time>
					</trkpt>
					<trkpt lat="44.748030" lon="4.179040">
						<ele>1241</ele>
						<time>2026-09-03T05:41:42Z</time>
					</trkpt>
					<trkpt lat="44.747910" lon="4.178850">
						<ele>1240</ele>
						<time>2026-09-03T05:41:51Z</time>
					</trkpt>
					<trkpt lat="44.747830" lon="4.178640">
						<ele>1239</ele>
						<time>2026-09-03T05:42:00Z</time>
					</trkpt>
					<trkpt lat="44.747610" lon="4.177320">
						<ele>1235</ele>
						<time>2026-09-03T05:42:48Z</time>
					</trkpt>
					<trkpt lat="44.747570" lon="4.176830">
						<ele>1236</ele>
						<time>2026-09-03T05:43:06Z</time>
					</trkpt>
					<trkpt lat="44.747570" lon="4.176370">
						<ele>1236</ele>
						<time>2026-09-03T05:43:22Z</time>
					</trkpt>
					<trkpt lat="44.747510" lon="4.175750">
						<ele>1234</ele>
						<time>2026-09-03T05:43:44Z</time>
					</trkpt>
					<trkpt lat="44.747510" lon="4.175310">
						<ele>1233</ele>
						<time>2026-09-03T05:44:00Z</time>
					</trkpt>
					<trkpt lat="44.747450" lon="4.174760">
						<ele>1233</ele>
						<time>2026-09-03T05:44:20Z</time>
					</trkpt>
					<trkpt lat="44.747350" lon="4.174250">
						<ele>1234</ele>
						<time>2026-09-03T05:44:38Z</time>
					</trkpt>
					<trkpt lat="44.747220" lon="4.173850">
						<ele>1233</ele>
						<time>2026-09-03T05:44:54Z</time>
					</trkpt>
					<trkpt lat="44.746740" lon="4.172870">
						<ele>1225</ele>
						<time>2026-09-03T05:45:36Z</time>
					</trkpt>
					<trkpt lat="44.746420" lon="4.172460">
						<ele>1228</ele>
						<time>2026-09-03T05:45:58Z</time>
					</trkpt>
					<trkpt lat="44.746160" lon="4.171960">
						<ele>1230</ele>
						<time>2026-09-03T05:46:20Z</time>
					</trkpt>
					<trkpt lat="44.745610" lon="4.171160">
						<ele>1229</ele>
						<time>2026-09-03T05:47:00Z</time>
					</trkpt>
					<trkpt lat="44.745450" lon="4.171000">
						<ele>1227</ele>
						<time>2026-09-03T05:47:09Z</time>
					</trkpt>
					<trkpt lat="44.744940" lon="4.170620">
						<ele>1221</ele>
						<time>2026-09-03T05:47:38Z</time>
					</trkpt>
					<trkpt lat="44.744230" lon="4.170440">
						<ele>1215</ele>
						<time>2026-09-03T05:48:14Z</time>
					</trkpt>
					<trkpt lat="44.744070" lon="4.170090">
						<ele>1215</ele>
						<time>2026-09-03T05:48:29Z</time>
					</trkpt>
					<trkpt lat="44.743940" lon="4.169620">
						<ele>1220</ele>
						<time>2026-09-03T05:48:47Z</time>
					</trkpt>
					<trkpt lat="44.743900" lon="4.169460">
						<ele>1222</ele>
						<time>2026-09-03T05:48:53Z</time>
					</trkpt>
					<trkpt lat="44.743880" lon="4.169060">
						<ele>1228</ele>
						<time>2026-09-03T05:49:07Z</time>
					</trkpt>
					<trkpt lat="44.743760" lon="4.168860">
						<ele>1231</ele>
						<time>2026-09-03T05:49:17Z</time>
					</trkpt>
					<trkpt lat="44.743690" lon="4.168800">
						<ele>1232</ele>
						<time>2026-09-03T05:49:21Z</time>
					</trkpt>
					<trkpt lat="44.743220" lon="4.168550">
						<ele>1233</ele>
						<time>2026-09-03T05:49:46Z</time>
					</trkpt>
					<trkpt lat="44.742360" lon="4.168190">
						<ele>1233</ele>
						<time>2026-09-03T05:50:31Z</time>
					</trkpt>
					<trkpt lat="44.742060" lon="4.168020">
						<ele>1236</ele>
						<time>2026-09-03T05:50:47Z</time>
					</trkpt>
					<trkpt lat="44.741720" lon="4.167760">
						<ele>1240</ele>
						<time>2026-09-03T05:51:06Z</time>
					</trkpt>
					<trkpt lat="44.741660" lon="4.167690">
						<ele>1241</ele>
						<time>2026-09-03T05:51:10Z</time>
					</trkpt>
					<trkpt lat="44.741540" lon="4.167440">
						<ele>1245</ele>
						<time>2026-09-03T05:51:21Z</time>
					</trkpt>
					<trkpt lat="44.741510" lon="4.167220">
						<ele>1247</ele>
						<time>2026-09-03T05:51:29Z</time>
					</trkpt>
					<trkpt lat="44.741560" lon="4.166750">
						<ele>1252</ele>
						<time>2026-09-03T05:51:46Z</time>
					</trkpt>
					<trkpt lat="44.741660" lon="4.166510">
						<ele>1254</ele>
						<time>2026-09-03T05:51:56Z</time>
					</trkpt>
					<trkpt lat="44.741660" lon="4.166320">
						<ele>1255</ele>
						<time>2026-09-03T05:52:03Z</time>
					</trkpt>
					<trkpt lat="44.741600" lon="4.165640">
						<ele>1258</ele>
						<time>2026-09-03T05:52:27Z</time>
					</trkpt>
					<trkpt lat="44.741470" lon="4.165450">
						<ele>1258</ele>
						<time>2026-09-03T05:52:36Z</time>
					</trkpt>
					<trkpt lat="44.741450" lon="4.165380">
						<ele>1259</ele>
						<time>2026-09-03T05:52:39Z</time>
					</trkpt>
					<trkpt lat="44.741460" lon="4.165240">
						<ele>1259</ele>
						<time>2026-09-03T05:52:44Z</time>
					</trkpt>
					<trkpt lat="44.741660" lon="4.164690">
						<ele>1260</ele>
						<time>2026-09-03T05:53:06Z</time>
					</trkpt>
					<trkpt lat="44.741920" lon="4.164110">
						<ele>1260</ele>
						<time>2026-09-03T05:53:30Z</time>
					</trkpt>
					<trkpt lat="44.742500" lon="4.162960">
						<ele>1257</ele>
						<time>2026-09-03T05:54:20Z</time>
					</trkpt>
					<trkpt lat="44.742630" lon="4.162630">
						<ele>1259</ele>
						<time>2026-09-03T05:54:34Z</time>
					</trkpt>
					<trkpt lat="44.742670" lon="4.162500">
						<ele>1260</ele>
						<time>2026-09-03T05:54:39Z</time>
					</trkpt>
					<trkpt lat="44.742900" lon="4.160730">
						<ele>1263</ele>
						<time>2026-09-03T05:55:43Z</time>
					</trkpt>
					<trkpt lat="44.743160" lon="4.159760">
						<ele>1267</ele>
						<time>2026-09-03T05:56:20Z</time>
					</trkpt>
					<trkpt lat="44.743400" lon="4.159160">
						<ele>1270</ele>
						<time>2026-09-03T05:56:44Z</time>
					</trkpt>
					<trkpt lat="44.743430" lon="4.159010">
						<ele>1271</ele>
						<time>2026-09-03T05:56:50Z</time>
					</trkpt>
					<trkpt lat="44.743390" lon="4.158730">
						<ele>1272</ele>
						<time>2026-09-03T05:57:00Z</time>
					</trkpt>
					<trkpt lat="44.743160" lon="4.158200">
						<ele>1274</ele>
						<time>2026-09-03T05:57:22Z</time>
					</trkpt>
					<trkpt lat="44.742720" lon="4.157400">
						<ele>1280</ele>
						<time>2026-09-03T05:57:58Z</time>
					</trkpt>
					<trkpt lat="44.742670" lon="4.157260">
						<ele>1280</ele>
						<time>2026-09-03T05:58:03Z</time>
					</trkpt>
					<trkpt lat="44.742670" lon="4.156980">
						<ele>1282</ele>
						<time>2026-09-03T05:58:13Z</time>
					</trkpt>
					<trkpt lat="44.742720" lon="4.156530">
						<ele>1284</ele>
						<time>2026-09-03T05:58:30Z</time>
					</trkpt>
					<trkpt lat="44.742940" lon="4.155400">
						<ele>1287</ele>
						<time>2026-09-03T05:59:11Z</time>
					</trkpt>
					<trkpt lat="44.743010" lon="4.154230">
						<ele>1287</ele>
						<time>2026-09-03T05:59:53Z</time>
					</trkpt>
					<trkpt lat="44.743060" lon="4.153770">
						<ele>1288</ele>
						<time>2026-09-03T06:00:09Z</time>
					</trkpt>
					<trkpt lat="44.743050" lon="4.153420">
						<ele>1288</ele>
						<time>2026-09-03T06:00:22Z</time>
					</trkpt>
					<trkpt lat="44.742930" lon="4.152990">
						<ele>1288</ele>
						<time>2026-09-03T06:00:38Z</time>
					</trkpt>
					<trkpt lat="44.742500" lon="4.152170">
						<ele>1286</ele>
						<time>2026-09-03T06:01:15Z</time>
					</trkpt>
					<trkpt lat="44.742340" lon="4.151610">
						<ele>1289</ele>
						<time>2026-09-03T06:01:36Z</time>
					</trkpt>
					<trkpt lat="44.742050" lon="4.151040">
						<ele>1292</ele>
						<time>2026-09-03T06:02:01Z</time>
					</trkpt>
					<trkpt lat="44.741910" lon="4.150820">
						<ele>1292</ele>
						<time>2026-09-03T06:02:11Z</time>
					</trkpt>
					<trkpt lat="44.741770" lon="4.150460">
						<ele>1292</ele>
						<time>2026-09-03T06:02:26Z</time>
					</trkpt>
					<trkpt lat="44.741750" lon="4.150310">
						<ele>1293</ele>
						<time>2026-09-03T06:02:31Z</time>
					</trkpt>
					<trkpt lat="44.741770" lon="4.149710">
						<ele>1299</ele>
						<time>2026-09-03T06:02:53Z</time>
					</trkpt>
					<trkpt lat="44.741890" lon="4.148600">
						<ele>1306</ele>
						<time>2026-09-03T06:03:33Z</time>
					</trkpt>
					<trkpt lat="44.742030" lon="4.148320">
						<ele>1307</ele>
						<time>2026-09-03T06:03:45Z</time>
					</trkpt>
					<trkpt lat="44.742930" lon="4.147130">
						<ele>1302</ele>
						<time>2026-09-03T06:04:47Z</time>
					</trkpt>
					<trkpt lat="44.743140" lon="4.146800">
						<ele>1301</ele>
						<time>2026-09-03T06:05:02Z</time>
					</trkpt>
					<trkpt lat="44.743440" lon="4.146130">
						<ele>1298</ele>
						<time>2026-09-03T06:05:31Z</time>
					</trkpt>
					<trkpt lat="44.743540" lon="4.145770">
						<ele>1297</ele>
						<time>2026-09-03T06:05:44Z</time>
					</trkpt>
					<trkpt lat="44.743720" lon="4.144700">
						<ele>1291</ele>
						<time>2026-09-03T06:06:23Z</time>
					</trkpt>
					<trkpt lat="44.743710" lon="4.143830">
						<ele>1288</ele>
						<time>2026-09-03T06:06:54Z</time>
					</trkpt>
					<trkpt lat="44.743770" lon="4.143140">
						<ele>1282</ele>
						<time>2026-09-03T06:07:19Z</time>
					</trkpt>
					<trkpt lat="44.743900" lon="4.142430">
						<ele>1281</ele>
						<time>2026-09-03T06:07:45Z</time>
					</trkpt>
					<trkpt lat="44.744530" lon="4.140400">
						<ele>1282</ele>
						<time>2026-09-03T06:09:04Z</time>
					</trkpt>
					<trkpt lat="44.744920" lon="4.139710">
						<ele>1278</ele>
						<time>2026-09-03T06:09:35Z</time>
					</trkpt>
					<trkpt lat="44.745200" lon="4.139120">
						<ele>1272</ele>
						<time>2026-09-03T06:10:00Z</time>
					</trkpt>
					<trkpt lat="44.745550" lon="4.138610">
						<ele>1269</ele>
						<time>2026-09-03T06:10:26Z</time>
					</trkpt>
					<trkpt lat="44.745740" lon="4.138400">
						<ele>1267</ele>
						<time>2026-09-03T06:10:38Z</time>
					</trkpt>
					<trkpt lat="44.745760" lon="4.138260">
						<ele>1266</ele>
						<time>2026-09-03T06:10:43Z</time>
					</trkpt>
					<trkpt lat="44.745910" lon="4.138060">
						<ele>1265</ele>
						<time>2026-09-03T06:10:53Z</time>
					</trkpt>
					<trkpt lat="44.745960" lon="4.137940">
						<ele>1265</ele>
						<time>2026-09-03T06:10:58Z</time>
					</trkpt>
					<trkpt lat="44.745950" lon="4.137810">
						<ele>1264</ele>
						<time>2026-09-03T06:11:03Z</time>
					</trkpt>
					<trkpt lat="44.746070" lon="4.137670">
						<ele>1263</ele>
						<time>2026-09-03T06:11:11Z</time>
					</trkpt>
					<trkpt lat="44.746150" lon="4.137450">
						<ele>1263</ele>
						<time>2026-09-03T06:11:19Z</time>
					</trkpt>
					<trkpt lat="44.747200" lon="4.135770">
						<ele>1270</ele>
						<time>2026-09-03T06:12:39Z</time>
					</trkpt>
					<trkpt lat="44.747320" lon="4.135470">
						<ele>1270</ele>
						<time>2026-09-03T06:12:51Z</time>
					</trkpt>
					<trkpt lat="44.747690" lon="4.134820">
						<ele>1270</ele>
						<time>2026-09-03T06:13:21Z</time>
					</trkpt>
					<trkpt lat="44.748170" lon="4.133660">
						<ele>1267</ele>
						<time>2026-09-03T06:14:08Z</time>
					</trkpt>
					<trkpt lat="44.748980" lon="4.132110">
						<ele>1267</ele>
						<time>2026-09-03T06:15:17Z</time>
					</trkpt>
					<trkpt lat="44.749730" lon="4.130890">
						<ele>1260</ele>
						<time>2026-09-03T06:16:14Z</time>
					</trkpt>
					<trkpt lat="44.750100" lon="4.130390">
						<ele>1254</ele>
						<time>2026-09-03T06:16:40Z</time>
					</trkpt>
					<trkpt lat="44.750820" lon="4.129320">
						<ele>1236</ele>
						<time>2026-09-03T06:17:32Z</time>
					</trkpt>
					<trkpt lat="44.751030" lon="4.129110">
						<ele>1233</ele>
						<time>2026-09-03T06:17:45Z</time>
					</trkpt>
					<trkpt lat="44.751270" lon="4.128920">
						<ele>1231</ele>
						<time>2026-09-03T06:17:59Z</time>
					</trkpt>
					<trkpt lat="44.751520" lon="4.128560">
						<ele>1229</ele>
						<time>2026-09-03T06:18:17Z</time>
					</trkpt>
					<trkpt lat="44.751780" lon="4.128120">
						<ele>1226</ele>
						<time>2026-09-03T06:18:37Z</time>
					</trkpt>
					<trkpt lat="44.752050" lon="4.127320">
						<ele>1224</ele>
						<time>2026-09-03T06:19:09Z</time>
					</trkpt>
					<trkpt lat="44.752160" lon="4.126820">
						<ele>1225</ele>
						<time>2026-09-03T06:19:27Z</time>
					</trkpt>
					<trkpt lat="44.752200" lon="4.126530">
						<ele>1226</ele>
						<time>2026-09-03T06:19:38Z</time>
					</trkpt>
					<trkpt lat="44.752250" lon="4.125650">
						<ele>1227</ele>
						<time>2026-09-03T06:20:09Z</time>
					</trkpt>
					<trkpt lat="44.752240" lon="4.124970">
						<ele>1225</ele>
						<time>2026-09-03T06:20:33Z</time>
					</trkpt>
					<trkpt lat="44.752170" lon="4.124650">
						<ele>1224</ele>
						<time>2026-09-03T06:20:45Z</time>
					</trkpt>
					<trkpt lat="44.751930" lon="4.123980">
						<ele>1223</ele>
						<time>2026-09-03T06:21:12Z</time>
					</trkpt>
					<trkpt lat="44.751430" lon="4.122990">
						<ele>1227</ele>
						<time>2026-09-03T06:21:55Z</time>
					</trkpt>
					<trkpt lat="44.751290" lon="4.121590">
						<ele>1230</ele>
						<time>2026-09-03T06:22:45Z</time>
					</trkpt>
					<trkpt lat="44.751220" lon="4.121220">
						<ele>1233</ele>
						<time>2026-09-03T06:22:59Z</time>
					</trkpt>
					<trkpt lat="44.750980" lon="4.120330">
						<ele>1239</ele>
						<time>2026-09-03T06:23:33Z</time>
					</trkpt>
					<trkpt lat="44.750940" lon="4.120060">
						<ele>1241</ele>
						<time>2026-09-03T06:23:42Z</time>
					</trkpt>
					<trkpt lat="44.750950" lon="4.119580">
						<ele>1244</ele>
						<time>2026-09-03T06:23:59Z</time>
					</trkpt>
					<trkpt lat="44.751050" lon="4.118560">
						<ele>1249</ele>
						<time>2026-09-03T06:24:36Z</time>
					</trkpt>
					<trkpt lat="44.751210" lon="4.117920">
						<ele>1254</ele>
						<time>2026-09-03T06:25:00Z</time>
					</trkpt>
					<trkpt lat="44.751710" lon="4.116980">
						<ele>1264</ele>
						<time>2026-09-03T06:25:42Z</time>
					</trkpt>
					<trkpt lat="44.751970" lon="4.116580">
						<ele>1265</ele>
						<time>2026-09-03T06:26:01Z</time>
					</trkpt>
					<trkpt lat="44.752830" lon="4.115520">
						<ele>1264</ele>
						<time>2026-09-03T06:26:58Z</time>
					</trkpt>
					<trkpt lat="44.753310" lon="4.115130">
						<ele>1265</ele>
						<time>2026-09-03T06:27:26Z</time>
					</trkpt>
					<trkpt lat="44.753570" lon="4.114850">
						<ele>1265</ele>
						<time>2026-09-03T06:27:43Z</time>
					</trkpt>
					<trkpt lat="44.753950" lon="4.114380">
						<ele>1265</ele>
						<time>2026-09-03T06:28:08Z</time>
					</trkpt>
					<trkpt lat="44.754260" lon="4.114100">
						<ele>1265</ele>
						<time>2026-09-03T06:28:26Z</time>
					</trkpt>
					<trkpt lat="44.754370" lon="4.113960">
						<ele>1264</ele>
						<time>2026-09-03T06:28:34Z</time>
					</trkpt>
					<trkpt lat="44.755210" lon="4.113260">
						<ele>1261</ele>
						<time>2026-09-03T06:29:23Z</time>
					</trkpt>
					<trkpt lat="44.755490" lon="4.112970">
						<ele>1260</ele>
						<time>2026-09-03T06:29:40Z</time>
					</trkpt>
					<trkpt lat="44.755620" lon="4.112790">
						<ele>1260</ele>
						<time>2026-09-03T06:29:49Z</time>
					</trkpt>
					<trkpt lat="44.755980" lon="4.111910">
						<ele>1261</ele>
						<time>2026-09-03T06:30:25Z</time>
					</trkpt>
					<trkpt lat="44.756240" lon="4.110930">
						<ele>1259</ele>
						<time>2026-09-03T06:31:02Z</time>
					</trkpt>
					<trkpt lat="44.756360" lon="4.110350">
						<ele>1257</ele>
						<time>2026-09-03T06:31:24Z</time>
					</trkpt>
					<trkpt lat="44.756620" lon="4.109580">
						<ele>1256</ele>
						<time>2026-09-03T06:31:54Z</time>
					</trkpt>
					<trkpt lat="44.756710" lon="4.109410">
						<ele>1256</ele>
						<time>2026-09-03T06:32:02Z</time>
					</trkpt>
					<trkpt lat="44.757250" lon="4.108590">
						<ele>1253</ele>
						<time>2026-09-03T06:32:41Z</time>
					</trkpt>
					<trkpt lat="44.757820" lon="4.107760">
						<ele>1247</ele>
						<time>2026-09-03T06:33:22Z</time>
					</trkpt>
					<trkpt lat="44.758020" lon="4.107430">
						<ele>1244</ele>
						<time>2026-09-03T06:33:38Z</time>
					</trkpt>
					<trkpt lat="44.758070" lon="4.107220">
						<ele>1241</ele>
						<time>2026-09-03T06:33:46Z</time>
					</trkpt>
					<trkpt lat="44.758230" lon="4.106900">
						<ele>1239</ele>
						<time>2026-09-03T06:34:00Z</time>
					</trkpt>
					<trkpt lat="44.758570" lon="4.106450">
						<ele>1234</ele>
						<time>2026-09-03T06:34:23Z</time>
					</trkpt>
					<trkpt lat="44.758870" lon="4.105890">
						<ele>1229</ele>
						<time>2026-09-03T06:34:48Z</time>
					</trkpt>
					<trkpt lat="44.759060" lon="4.105390">
						<ele>1224</ele>
						<time>2026-09-03T06:35:08Z</time>
					</trkpt>
					<trkpt lat="44.759170" lon="4.104940">
						<ele>1220</ele>
						<time>2026-09-03T06:35:25Z</time>
					</trkpt>
					<trkpt lat="44.759760" lon="4.102210">
						<ele>1206</ele>
						<time>2026-09-03T06:37:06Z</time>
					</trkpt>
					<trkpt lat="44.759870" lon="4.101610">
						<ele>1208</ele>
						<time>2026-09-03T06:37:28Z</time>
					</trkpt>
					<trkpt lat="44.759680" lon="4.101440">
						<ele>1205</ele>
						<time>2026-09-03T06:37:40Z</time>
					</trkpt>
					<trkpt lat="44.759630" lon="4.101280">
						<ele>1203</ele>
						<time>2026-09-03T06:37:46Z</time>
					</trkpt>
					<trkpt lat="44.759770" lon="4.100990">
						<ele>1204</ele>
						<time>2026-09-03T06:37:58Z</time>
					</trkpt>
					<trkpt lat="44.759740" lon="4.100810">
						<ele>1203</ele>
						<time>2026-09-03T06:38:05Z</time>
					</trkpt>
					<trkpt lat="44.759440" lon="4.100440">
						<ele>1194</ele>
						<time>2026-09-03T06:38:25Z</time>
					</trkpt>
					<trkpt lat="44.759450" lon="4.100290">
						<ele>1193</ele>
						<time>2026-09-03T06:38:30Z</time>
					</trkpt>
					<trkpt lat="44.759580" lon="4.099980">
						<ele>1192</ele>
						<time>2026-09-03T06:38:43Z</time>
					</trkpt>
					<trkpt lat="44.759480" lon="4.099800">
						<ele>1189</ele>
						<time>2026-09-03T06:38:51Z</time>
					</trkpt>
					<trkpt lat="44.759050" lon="4.099990">
						<ele>1185</ele>
						<time>2026-09-03T06:39:14Z</time>
					</trkpt>
					<trkpt lat="44.758400" lon="4.100590">
						<ele>1176</ele>
						<time>2026-09-03T06:39:53Z</time>
					</trkpt>
					<trkpt lat="44.758170" lon="4.100640">
						<ele>1170</ele>
						<time>2026-09-03T06:40:04Z</time>
					</trkpt>
					<trkpt lat="44.758070" lon="4.100450">
						<ele>1166</ele>
						<time>2026-09-03T06:40:13Z</time>
					</trkpt>
					<trkpt lat="44.758100" lon="4.100070">
						<ele>1163</ele>
						<time>2026-09-03T06:40:26Z</time>
					</trkpt>
					<trkpt lat="44.758240" lon="4.099240">
						<ele>1156</ele>
						<time>2026-09-03T06:40:56Z</time>
					</trkpt>
					<trkpt lat="44.758420" lon="4.098570">
						<ele>1152</ele>
						<time>2026-09-03T06:41:22Z</time>
					</trkpt>
					<trkpt lat="44.758500" lon="4.098370">
						<ele>1151</ele>
						<time>2026-09-03T06:41:30Z</time>
					</trkpt>
					<trkpt lat="44.758360" lon="4.098410">
						<ele>1148</ele>
						<time>2026-09-03T06:41:37Z</time>
					</trkpt>
					<trkpt lat="44.757830" lon="4.098760">
						<ele>1137</ele>
						<time>2026-09-03T06:42:07Z</time>
					</trkpt>
					<trkpt lat="44.757190" lon="4.099710">
						<ele>1129</ele>
						<time>2026-09-03T06:42:53Z</time>
					</trkpt>
					<trkpt lat="44.757140" lon="4.100150">
						<ele>1134</ele>
						<time>2026-09-03T06:43:09Z</time>
					</trkpt>
					<trkpt lat="44.756870" lon="4.100660">
						<ele>1135</ele>
						<time>2026-09-03T06:43:31Z</time>
					</trkpt>
					<trkpt lat="44.756440" lon="4.100500">
						<ele>1126</ele>
						<time>2026-09-03T06:43:54Z</time>
					</trkpt>
					<trkpt lat="44.756000" lon="4.100190">
						<ele>1119</ele>
						<time>2026-09-03T06:44:18Z</time>
					</trkpt>
					<trkpt lat="44.755420" lon="4.099940">
						<ele>1116</ele>
						<time>2026-09-03T06:44:49Z</time>
					</trkpt>
					<trkpt lat="44.755210" lon="4.099650">
						<ele>1113</ele>
						<time>2026-09-03T06:45:03Z</time>
					</trkpt>
					<trkpt lat="44.755020" lon="4.099480">
						<ele>1111</ele>
						<time>2026-09-03T06:45:15Z</time>
					</trkpt>
					<trkpt lat="44.754990" lon="4.099390">
						<ele>1110</ele>
						<time>2026-09-03T06:45:18Z</time>
					</trkpt>
					<trkpt lat="44.754930" lon="4.099360">
						<ele>1108</ele>
						<time>2026-09-03T06:45:21Z</time>
					</trkpt>
					<trkpt lat="44.754960" lon="4.099250">
						<ele>1107</ele>
						<time>2026-09-03T06:45:26Z</time>
					</trkpt>
					<trkpt lat="44.754950" lon="4.098700">
						<ele>1096</ele>
						<time>2026-09-03T06:45:45Z</time>
					</trkpt>
					<trkpt lat="44.755080" lon="4.097960">
						<ele>1085</ele>
						<time>2026-09-03T06:46:12Z</time>
					</trkpt>
					<trkpt lat="44.755190" lon="4.097820">
						<ele>1083</ele>
						<time>2026-09-03T06:46:20Z</time>
					</trkpt>
					<trkpt lat="44.755260" lon="4.097640">
						<ele>1080</ele>
						<time>2026-09-03T06:46:27Z</time>
					</trkpt>
					<trkpt lat="44.755370" lon="4.097040">
						<ele>1072</ele>
						<time>2026-09-03T06:46:49Z</time>
					</trkpt>
					<trkpt lat="44.755410" lon="4.096520">
						<ele>1066</ele>
						<time>2026-09-03T06:47:08Z</time>
					</trkpt>
					<trkpt lat="44.755650" lon="4.096070">
						<ele>1063</ele>
						<time>2026-09-03T06:47:28Z</time>
					</trkpt>
					<trkpt lat="44.755700" lon="4.095920">
						<ele>1062</ele>
						<time>2026-09-03T06:47:33Z</time>
					</trkpt>
					<trkpt lat="44.755680" lon="4.095830">
						<ele>1061</ele>
						<time>2026-09-03T06:47:37Z</time>
					</trkpt>
					<trkpt lat="44.755700" lon="4.095650">
						<ele>1059</ele>
						<time>2026-09-03T06:47:43Z</time>
					</trkpt>
					<trkpt lat="44.755770" lon="4.095460">
						<ele>1058</ele>
						<time>2026-09-03T06:47:51Z</time>
					</trkpt>
					<trkpt lat="44.755830" lon="4.095390">
						<ele>1057</ele>
						<time>2026-09-03T06:47:55Z</time>
					</trkpt>
					<trkpt lat="44.755930" lon="4.095360">
						<ele>1057</ele>
						<time>2026-09-03T06:48:00Z</time>
					</trkpt>
					<trkpt lat="44.756020" lon="4.095300">
						<ele>1056</ele>
						<time>2026-09-03T06:48:05Z</time>
					</trkpt>
					<trkpt lat="44.755890" lon="4.095180">
						<ele>1054</ele>
						<time>2026-09-03T06:48:13Z</time>
					</trkpt>
					<trkpt lat="44.755650" lon="4.095230">
						<ele>1054</ele>
						<time>2026-09-03T06:48:25Z</time>
					</trkpt>
					<trkpt lat="44.755590" lon="4.095270">
						<ele>1054</ele>
						<time>2026-09-03T06:48:28Z</time>
					</trkpt>
					<trkpt lat="44.755170" lon="4.095770">
						<ele>1053</ele>
						<time>2026-09-03T06:48:56Z</time>
					</trkpt>
					<trkpt lat="44.754890" lon="4.096150">
						<ele>1055</ele>
						<time>2026-09-03T06:49:15Z</time>
					</trkpt>
					<trkpt lat="44.754760" lon="4.096290">
						<ele>1056</ele>
						<time>2026-09-03T06:49:23Z</time>
					</trkpt>
					<trkpt lat="44.754670" lon="4.096330">
						<ele>1056</ele>
						<time>2026-09-03T06:49:28Z</time>
					</trkpt>
					<trkpt lat="44.754660" lon="4.096250">
						<ele>1055</ele>
						<time>2026-09-03T06:49:31Z</time>
					</trkpt>
					<trkpt lat="44.754610" lon="4.096300">
						<ele>1055</ele>
						<time>2026-09-03T06:49:34Z</time>
					</trkpt>
					<trkpt lat="44.754450" lon="4.096550">
						<ele>1055</ele>
						<time>2026-09-03T06:49:46Z</time>
					</trkpt>
					<trkpt lat="44.754170" lon="4.097080">
						<ele>1056</ele>
						<time>2026-09-03T06:50:09Z</time>
					</trkpt>
					<trkpt lat="44.753710" lon="4.097410">
						<ele>1059</ele>
						<time>2026-09-03T06:50:35Z</time>
					</trkpt>
					<trkpt lat="44.753170" lon="4.098170">
						<ele>1061</ele>
						<time>2026-09-03T06:51:13Z</time>
					</trkpt>
					<trkpt lat="44.752980" lon="4.098510">
						<ele>1063</ele>
						<time>2026-09-03T06:51:29Z</time>
					</trkpt>
					<trkpt lat="44.752750" lon="4.099290">
						<ele>1062</ele>
						<time>2026-09-03T06:51:59Z</time>
					</trkpt>
					<trkpt lat="44.752400" lon="4.100220">
						<ele>1062</ele>
						<time>2026-09-03T06:52:36Z</time>
					</trkpt>
					<trkpt lat="44.752290" lon="4.100580">
						<ele>1064</ele>
						<time>2026-09-03T06:52:50Z</time>
					</trkpt>
					<trkpt lat="44.752230" lon="4.100860">
						<ele>1064</ele>
						<time>2026-09-03T06:53:01Z</time>
					</trkpt>
					<trkpt lat="44.752170" lon="4.101510">
						<ele>1063</ele>
						<time>2026-09-03T06:53:24Z</time>
					</trkpt>
					<trkpt lat="44.752190" lon="4.101640">
						<ele>1062</ele>
						<time>2026-09-03T06:53:29Z</time>
					</trkpt>
					<trkpt lat="44.751990" lon="4.101860">
						<ele>1062</ele>
						<time>2026-09-03T06:53:41Z</time>
					</trkpt>
					<trkpt lat="44.751800" lon="4.102450">
						<ele>1060</ele>
						<time>2026-09-03T06:54:04Z</time>
					</trkpt>
					<trkpt lat="44.751710" lon="4.102310">
						<ele>1060</ele>
						<time>2026-09-03T06:54:11Z</time>
					</trkpt>
					<trkpt lat="44.751490" lon="4.102130">
						<ele>1068</ele>
						<time>2026-09-03T06:54:24Z</time>
					</trkpt>
					<trkpt lat="44.751460" lon="4.101940">
						<ele>1070</ele>
						<time>2026-09-03T06:54:31Z</time>
					</trkpt>
					<trkpt lat="44.751520" lon="4.101380">
						<ele>1072</ele>
						<time>2026-09-03T06:54:51Z</time>
					</trkpt>
					<trkpt lat="44.751700" lon="4.100850">
						<ele>1069</ele>
						<time>2026-09-03T06:55:12Z</time>
					</trkpt>
					<trkpt lat="44.751680" lon="4.100810">
						<ele>1070</ele>
						<time>2026-09-03T06:55:13Z</time>
					</trkpt>
					<trkpt lat="44.751610" lon="4.100900">
						<ele>1072</ele>
						<time>2026-09-03T06:55:18Z</time>
					</trkpt>
					<trkpt lat="44.751260" lon="4.101800">
						<ele>1081</ele>
						<time>2026-09-03T06:55:55Z</time>
					</trkpt>
					<trkpt lat="44.751120" lon="4.102100">
						<ele>1084</ele>
						<time>2026-09-03T06:56:07Z</time>
					</trkpt>
					<trkpt lat="44.750830" lon="4.103020">
						<ele>1084</ele>
						<time>2026-09-03T06:56:43Z</time>
					</trkpt>
					<trkpt lat="44.750690" lon="4.103330">
						<ele>1086</ele>
						<time>2026-09-03T06:56:56Z</time>
					</trkpt>
					<trkpt lat="44.750300" lon="4.103960">
						<ele>1091</ele>
						<time>2026-09-03T06:57:26Z</time>
					</trkpt>
					<trkpt lat="44.749670" lon="4.104590">
						<ele>1099</ele>
						<time>2026-09-03T06:58:05Z</time>
					</trkpt>
					<trkpt lat="44.749310" lon="4.104840">
						<ele>1104</ele>
						<time>2026-09-03T06:58:25Z</time>
					</trkpt>
					<trkpt lat="44.749280" lon="4.104750">
						<ele>1107</ele>
						<time>2026-09-03T06:58:28Z</time>
					</trkpt>
					<trkpt lat="44.749340" lon="4.104530">
						<ele>1112</ele>
						<time>2026-09-03T06:58:37Z</time>
					</trkpt>
					<trkpt lat="44.749740" lon="4.103980">
						<ele>1112</ele>
						<time>2026-09-03T06:59:05Z</time>
					</trkpt>
					<trkpt lat="44.749960" lon="4.103540">
						<ele>1115</ele>
						<time>2026-09-03T06:59:24Z</time>
					</trkpt>
					<trkpt lat="44.750190" lon="4.102540">
						<ele>1120</ele>
						<time>2026-09-03T07:00:01Z</time>
					</trkpt>
					<trkpt lat="44.750190" lon="4.102380">
						<ele>1122</ele>
						<time>2026-09-03T07:00:07Z</time>
					</trkpt>
					<trkpt lat="44.750160" lon="4.102390">
						<ele>1123</ele>
						<time>2026-09-03T07:00:08Z</time>
					</trkpt>
					<trkpt lat="44.750100" lon="4.102660">
						<ele>1122</ele>
						<time>2026-09-03T07:00:18Z</time>
					</trkpt>
					<trkpt lat="44.750020" lon="4.102840">
						<ele>1124</ele>
						<time>2026-09-03T07:00:26Z</time>
					</trkpt>
					<trkpt lat="44.749800" lon="4.103180">
						<ele>1127</ele>
						<time>2026-09-03T07:00:42Z</time>
					</trkpt>
					<trkpt lat="44.749280" lon="4.103720">
						<ele>1134</ele>
						<time>2026-09-03T07:01:15Z</time>
					</trkpt>
					<trkpt lat="44.749060" lon="4.103880">
						<ele>1136</ele>
						<time>2026-09-03T07:01:27Z</time>
					</trkpt>
					<trkpt lat="44.749010" lon="4.103890">
						<ele>1137</ele>
						<time>2026-09-03T07:01:29Z</time>
					</trkpt>
					<trkpt lat="44.748970" lon="4.103840">
						<ele>1139</ele>
						<time>2026-09-03T07:01:32Z</time>
					</trkpt>
					<trkpt lat="44.748980" lon="4.103760">
						<ele>1140</ele>
						<time>2026-09-03T07:01:35Z</time>
					</trkpt>
					<trkpt lat="44.749180" lon="4.103450">
						<ele>1143</ele>
						<time>2026-09-03T07:01:50Z</time>
					</trkpt>
					<trkpt lat="44.749390" lon="4.102900">
						<ele>1143</ele>
						<time>2026-09-03T07:02:12Z</time>
					</trkpt>
					<trkpt lat="44.749540" lon="4.102280">
						<ele>1146</ele>
						<time>2026-09-03T07:02:35Z</time>
					</trkpt>
					<trkpt lat="44.749550" lon="4.102000">
						<ele>1149</ele>
						<time>2026-09-03T07:02:45Z</time>
					</trkpt>
					<trkpt lat="44.749460" lon="4.101940">
						<ele>1153</ele>
						<time>2026-09-03T07:02:50Z</time>
					</trkpt>
					<trkpt lat="44.749410" lon="4.101990">
						<ele>1154</ele>
						<time>2026-09-03T07:02:53Z</time>
					</trkpt>
					<trkpt lat="44.749080" lon="4.102490">
						<ele>1156</ele>
						<time>2026-09-03T07:03:18Z</time>
					</trkpt>
					<trkpt lat="44.748900" lon="4.102650">
						<ele>1157</ele>
						<time>2026-09-03T07:03:28Z</time>
					</trkpt>
					<trkpt lat="44.748410" lon="4.102800">
						<ele>1163</ele>
						<time>2026-09-03T07:03:53Z</time>
					</trkpt>
					<trkpt lat="44.748360" lon="4.102780">
						<ele>1164</ele>
						<time>2026-09-03T07:03:56Z</time>
					</trkpt>
					<trkpt lat="44.748340" lon="4.102740">
						<ele>1165</ele>
						<time>2026-09-03T07:03:58Z</time>
					</trkpt>
					<trkpt lat="44.748410" lon="4.102490">
						<ele>1166</ele>
						<time>2026-09-03T07:04:07Z</time>
					</trkpt>
					<trkpt lat="44.748470" lon="4.101900">
						<ele>1170</ele>
						<time>2026-09-03T07:04:28Z</time>
					</trkpt>
					<trkpt lat="44.748680" lon="4.101150">
						<ele>1175</ele>
						<time>2026-09-03T07:04:57Z</time>
					</trkpt>
					<trkpt lat="44.748770" lon="4.100510">
						<ele>1181</ele>
						<time>2026-09-03T07:05:20Z</time>
					</trkpt>
					<trkpt lat="44.748780" lon="4.100230">
						<ele>1184</ele>
						<time>2026-09-03T07:05:30Z</time>
					</trkpt>
					<trkpt lat="44.748780" lon="4.099750">
						<ele>1187</ele>
						<time>2026-09-03T07:05:47Z</time>
					</trkpt>
					<trkpt lat="44.748750" lon="4.099420">
						<ele>1189</ele>
						<time>2026-09-03T07:05:59Z</time>
					</trkpt>
					<trkpt lat="44.748550" lon="4.098310">
						<ele>1195</ele>
						<time>2026-09-03T07:06:40Z</time>
					</trkpt>
					<trkpt lat="44.748550" lon="4.097430">
						<ele>1198</ele>
						<time>2026-09-03T07:07:11Z</time>
					</trkpt>
					<trkpt lat="44.748490" lon="4.097030">
						<ele>1199</ele>
						<time>2026-09-03T07:07:26Z</time>
					</trkpt>
					<trkpt lat="44.748430" lon="4.096890">
						<ele>1201</ele>
						<time>2026-09-03T07:07:31Z</time>
					</trkpt>
					<trkpt lat="44.748380" lon="4.096850">
						<ele>1202</ele>
						<time>2026-09-03T07:07:34Z</time>
					</trkpt>
					<trkpt lat="44.748280" lon="4.096830">
						<ele>1203</ele>
						<time>2026-09-03T07:07:39Z</time>
					</trkpt>
					<trkpt lat="44.747670" lon="4.097020">
						<ele>1209</ele>
						<time>2026-09-03T07:08:11Z</time>
					</trkpt>
					<trkpt lat="44.747120" lon="4.097240">
						<ele>1212</ele>
						<time>2026-09-03T07:08:39Z</time>
					</trkpt>
					<trkpt lat="44.746980" lon="4.097240">
						<ele>1213</ele>
						<time>2026-09-03T07:08:46Z</time>
					</trkpt>
					<trkpt lat="44.746830" lon="4.097100">
						<ele>1214</ele>
						<time>2026-09-03T07:08:55Z</time>
					</trkpt>
					<trkpt lat="44.746550" lon="4.096770">
						<ele>1216</ele>
						<time>2026-09-03T07:09:14Z</time>
					</trkpt>
					<trkpt lat="44.746080" lon="4.095870">
						<ele>1220</ele>
						<time>2026-09-03T07:09:53Z</time>
					</trkpt>
					<trkpt lat="44.745660" lon="4.094950">
						<ele>1220</ele>
						<time>2026-09-03T07:10:32Z</time>
					</trkpt>
					<trkpt lat="44.745160" lon="4.093630">
						<ele>1224</ele>
						<time>2026-09-03T07:11:25Z</time>
					</trkpt>
					<trkpt lat="44.745140" lon="4.093450">
						<ele>1225</ele>
						<time>2026-09-03T07:11:32Z</time>
					</trkpt>
					<trkpt lat="44.745140" lon="4.093170">
						<ele>1226</ele>
						<time>2026-09-03T07:11:42Z</time>
					</trkpt>
					<trkpt lat="44.745330" lon="4.091240">
						<ele>1232</ele>
						<time>2026-09-03T07:12:51Z</time>
					</trkpt>
					<trkpt lat="44.745410" lon="4.091060">
						<ele>1232</ele>
						<time>2026-09-03T07:12:59Z</time>
					</trkpt>
					<trkpt lat="44.745470" lon="4.090800">
						<ele>1233</ele>
						<time>2026-09-03T07:13:08Z</time>
					</trkpt>
					<trkpt lat="44.745500" lon="4.090330">
						<ele>1232</ele>
						<time>2026-09-03T07:13:25Z</time>
					</trkpt>
					<trkpt lat="44.745370" lon="4.090190">
						<ele>1232</ele>
						<time>2026-09-03T07:13:33Z</time>
					</trkpt>
					<trkpt lat="44.744930" lon="4.089930">
						<ele>1233</ele>
						<time>2026-09-03T07:13:57Z</time>
					</trkpt>
					<trkpt lat="44.744640" lon="4.089820">
						<ele>1233</ele>
						<time>2026-09-03T07:14:12Z</time>
					</trkpt>
					<trkpt lat="44.743630" lon="4.089590">
						<ele>1236</ele>
						<time>2026-09-03T07:15:03Z</time>
					</trkpt>
					<trkpt lat="44.743230" lon="4.089430">
						<ele>1238</ele>
						<time>2026-09-03T07:15:24Z</time>
					</trkpt>
					<trkpt lat="44.743110" lon="4.089360">
						<ele>1238</ele>
						<time>2026-09-03T07:15:31Z</time>
					</trkpt>
					<trkpt lat="44.742580" lon="4.088950">
						<ele>1240</ele>
						<time>2026-09-03T07:16:01Z</time>
					</trkpt>
					<trkpt lat="44.742180" lon="4.088730">
						<ele>1239</ele>
						<time>2026-09-03T07:16:22Z</time>
					</trkpt>
					<trkpt lat="44.742030" lon="4.088680">
						<ele>1238</ele>
						<time>2026-09-03T07:16:30Z</time>
					</trkpt>
					<trkpt lat="44.741790" lon="4.088550">
						<ele>1238</ele>
						<time>2026-09-03T07:16:43Z</time>
					</trkpt>
					<trkpt lat="44.741630" lon="4.088370">
						<ele>1238</ele>
						<time>2026-09-03T07:16:53Z</time>
					</trkpt>
					<trkpt lat="44.741570" lon="4.088240">
						<ele>1238</ele>
						<time>2026-09-03T07:16:59Z</time>
					</trkpt>
					<trkpt lat="44.741440" lon="4.087780">
						<ele>1237</ele>
						<time>2026-09-03T07:17:16Z</time>
					</trkpt>
					<trkpt lat="44.741320" lon="4.087710">
						<ele>1237</ele>
						<time>2026-09-03T07:17:23Z</time>
					</trkpt>
					<trkpt lat="44.741190" lon="4.087750">
						<ele>1237</ele>
						<time>2026-09-03T07:17:29Z</time>
					</trkpt>
					<trkpt lat="44.740990" lon="4.087730">
						<ele>1238</ele>
						<time>2026-09-03T07:17:40Z</time>
					</trkpt>
					<trkpt lat="44.740830" lon="4.087610">
						<ele>1239</ele>
						<time>2026-09-03T07:17:49Z</time>
					</trkpt>
					<trkpt lat="44.740640" lon="4.087410">
						<ele>1241</ele>
						<time>2026-09-03T07:18:00Z</time>
					</trkpt>
					<trkpt lat="44.740550" lon="4.087390">
						<ele>1241</ele>
						<time>2026-09-03T07:18:05Z</time>
					</trkpt>
					<trkpt lat="44.740330" lon="4.087400">
						<ele>1242</ele>
						<time>2026-09-03T07:18:16Z</time>
					</trkpt>
					<trkpt lat="44.740180" lon="4.087430">
						<ele>1243</ele>
						<time>2026-09-03T07:18:24Z</time>
					</trkpt>
					<trkpt lat="44.739970" lon="4.087530">
						<ele>1244</ele>
						<time>2026-09-03T07:18:35Z</time>
					</trkpt>
					<trkpt lat="44.739570" lon="4.087900">
						<ele>1240</ele>
						<time>2026-09-03T07:18:59Z</time>
					</trkpt>
					<trkpt lat="44.739150" lon="4.088490">
						<ele>1238</ele>
						<time>2026-09-03T07:19:28Z</time>
					</trkpt>
					<trkpt lat="44.739010" lon="4.088550">
						<ele>1236</ele>
						<time>2026-09-03T07:19:36Z</time>
					</trkpt>
					<trkpt lat="44.738900" lon="4.088510">
						<ele>1235</ele>
						<time>2026-09-03T07:19:41Z</time>
					</trkpt>
					<trkpt lat="44.738490" lon="4.087620">
						<ele>1231</ele>
						<time>2026-09-03T07:20:19Z</time>
					</trkpt>
					<trkpt lat="44.738410" lon="4.087530">
						<ele>1230</ele>
						<time>2026-09-03T07:20:24Z</time>
					</trkpt>
					<trkpt lat="44.737740" lon="4.087210">
						<ele>1222</ele>
						<time>2026-09-03T07:21:00Z</time>
					</trkpt>
					<trkpt lat="44.737560" lon="4.087090">
						<ele>1219</ele>
						<time>2026-09-03T07:21:10Z</time>
					</trkpt>
					<trkpt lat="44.737490" lon="4.087000">
						<ele>1218</ele>
						<time>2026-09-03T07:21:14Z</time>
					</trkpt>
					<trkpt lat="44.737380" lon="4.086610">
						<ele>1215</ele>
						<time>2026-09-03T07:21:29Z</time>
					</trkpt>
					<trkpt lat="44.737380" lon="4.086290">
						<ele>1215</ele>
						<time>2026-09-03T07:21:41Z</time>
					</trkpt>
					<trkpt lat="44.737460" lon="4.085750">
						<ele>1216</ele>
						<time>2026-09-03T07:22:00Z</time>
					</trkpt>
					<trkpt lat="44.737430" lon="4.085630">
						<ele>1216</ele>
						<time>2026-09-03T07:22:05Z</time>
					</trkpt>
					<trkpt lat="44.737390" lon="4.085590">
						<ele>1217</ele>
						<time>2026-09-03T07:22:07Z</time>
					</trkpt>
					<trkpt lat="44.736820" lon="4.085560">
						<ele>1217</ele>
						<time>2026-09-03T07:22:36Z</time>
					</trkpt>
					<trkpt lat="44.736740" lon="4.085570">
						<ele>1217</ele>
						<time>2026-09-03T07:22:40Z</time>
					</trkpt>
					<trkpt lat="44.736590" lon="4.085660">
						<ele>1216</ele>
						<time>2026-09-03T07:22:48Z</time>
					</trkpt>
					<trkpt lat="44.736610" lon="4.085740">
						<ele>1214</ele>
						<time>2026-09-03T07:22:51Z</time>
					</trkpt>
					<trkpt lat="44.736570" lon="4.085810">
						<ele>1213</ele>
						<time>2026-09-03T07:22:54Z</time>
					</trkpt>
					<trkpt lat="44.736350" lon="4.085970">
						<ele>1212</ele>
						<time>2026-09-03T07:23:07Z</time>
					</trkpt>
					<trkpt lat="44.735950" lon="4.086190">
						<ele>1209</ele>
						<time>2026-09-03T07:23:28Z</time>
					</trkpt>
					<trkpt lat="44.735830" lon="4.086330">
						<ele>1206</ele>
						<time>2026-09-03T07:23:36Z</time>
					</trkpt>
					<trkpt lat="44.735710" lon="4.086510">
						<ele>1204</ele>
						<time>2026-09-03T07:23:45Z</time>
					</trkpt>
					<trkpt lat="44.735490" lon="4.087010">
						<ele>1197</ele>
						<time>2026-09-03T07:24:05Z</time>
					</trkpt>
					<trkpt lat="44.735220" lon="4.087380">
						<ele>1192</ele>
						<time>2026-09-03T07:24:24Z</time>
					</trkpt>
					<trkpt lat="44.735030" lon="4.087500">
						<ele>1190</ele>
						<time>2026-09-03T07:24:35Z</time>
					</trkpt>
					<trkpt lat="44.734800" lon="4.087560">
						<ele>1187</ele>
						<time>2026-09-03T07:24:46Z</time>
					</trkpt>
					<trkpt lat="44.734680" lon="4.087570">
						<ele>1186</ele>
						<time>2026-09-03T07:24:52Z</time>
					</trkpt>
					<trkpt lat="44.734360" lon="4.087530">
						<ele>1184</ele>
						<time>2026-09-03T07:25:09Z</time>
					</trkpt>
					<trkpt lat="44.734080" lon="4.087440">
						<ele>1183</ele>
						<time>2026-09-03T07:25:23Z</time>
					</trkpt>
					<trkpt lat="44.733590" lon="4.087220">
						<ele>1178</ele>
						<time>2026-09-03T07:25:49Z</time>
					</trkpt>
					<trkpt lat="44.733040" lon="4.087020">
						<ele>1174</ele>
						<time>2026-09-03T07:26:17Z</time>
					</trkpt>
					<trkpt lat="44.732610" lon="4.086800">
						<ele>1173</ele>
						<time>2026-09-03T07:26:40Z</time>
					</trkpt>
					<trkpt lat="44.732520" lon="4.086780">
						<ele>1172</ele>
						<time>2026-09-03T07:26:45Z</time>
					</trkpt>
					<trkpt lat="44.732310" lon="4.086780">
						<ele>1171</ele>
						<time>2026-09-03T07:26:55Z</time>
					</trkpt>
					<trkpt lat="44.732210" lon="4.086810">
						<ele>1170</ele>
						<time>2026-09-03T07:27:00Z</time>
					</trkpt>
					<trkpt lat="44.732080" lon="4.086870">
						<ele>1168</ele>
						<time>2026-09-03T07:27:07Z</time>
					</trkpt>
					<trkpt lat="44.731610" lon="4.087170">
						<ele>1159</ele>
						<time>2026-09-03T07:27:33Z</time>
					</trkpt>
					<trkpt lat="44.731360" lon="4.087270">
						<ele>1154</ele>
						<time>2026-09-03T07:27:46Z</time>
					</trkpt>
					<trkpt lat="44.731230" lon="4.087280">
						<ele>1151</ele>
						<time>2026-09-03T07:27:52Z</time>
					</trkpt>
					<trkpt lat="44.731010" lon="4.087240">
						<ele>1149</ele>
						<time>2026-09-03T07:28:03Z</time>
					</trkpt>
					<trkpt lat="44.730960" lon="4.087140">
						<ele>1150</ele>
						<time>2026-09-03T07:28:08Z</time>
					</trkpt>
					<trkpt lat="44.730980" lon="4.086870">
						<ele>1154</ele>
						<time>2026-09-03T07:28:17Z</time>
					</trkpt>
					<trkpt lat="44.730950" lon="4.086730">
						<ele>1156</ele>
						<time>2026-09-03T07:28:23Z</time>
					</trkpt>
					<trkpt lat="44.730870" lon="4.086670">
						<ele>1156</ele>
						<time>2026-09-03T07:28:27Z</time>
					</trkpt>
					<trkpt lat="44.730650" lon="4.086570">
						<ele>1154</ele>
						<time>2026-09-03T07:28:39Z</time>
					</trkpt>
					<trkpt lat="44.730500" lon="4.086560">
						<ele>1153</ele>
						<time>2026-09-03T07:28:46Z</time>
					</trkpt>
					<trkpt lat="44.730390" lon="4.086590">
						<ele>1151</ele>
						<time>2026-09-03T07:28:52Z</time>
					</trkpt>
					<trkpt lat="44.729990" lon="4.086800">
						<ele>1142</ele>
						<time>2026-09-03T07:29:13Z</time>
					</trkpt>
					<trkpt lat="44.729910" lon="4.086800">
						<ele>1142</ele>
						<time>2026-09-03T07:29:17Z</time>
					</trkpt>
					<trkpt lat="44.729650" lon="4.086630">
						<ele>1142</ele>
						<time>2026-09-03T07:29:32Z</time>
					</trkpt>
					<trkpt lat="44.729510" lon="4.086660">
						<ele>1141</ele>
						<time>2026-09-03T07:29:39Z</time>
					</trkpt>
					<trkpt lat="44.729340" lon="4.086830">
						<ele>1138</ele>
						<time>2026-09-03T07:29:49Z</time>
					</trkpt>
					<trkpt lat="44.729280" lon="4.087130">
						<ele>1134</ele>
						<time>2026-09-03T07:30:00Z</time>
					</trkpt>
					<trkpt lat="44.729290" lon="4.087180">
						<ele>1134</ele>
						<time>2026-09-03T07:30:02Z</time>
					</trkpt>
					<trkpt lat="44.729320" lon="4.087200">
						<ele>1134</ele>
						<time>2026-09-03T07:30:04Z</time>
					</trkpt>
					<trkpt lat="44.729440" lon="4.087200">
						<ele>1134</ele>
						<time>2026-09-03T07:30:10Z</time>
					</trkpt>
					<trkpt lat="44.729460" lon="4.087220">
						<ele>1134</ele>
						<time>2026-09-03T07:30:11Z</time>
					</trkpt>
					<trkpt lat="44.729460" lon="4.087330">
						<ele>1132</ele>
						<time>2026-09-03T07:30:15Z</time>
					</trkpt>
					<trkpt lat="44.729190" lon="4.087540">
						<ele>1130</ele>
						<time>2026-09-03T07:30:30Z</time>
					</trkpt>
					<trkpt lat="44.728620" lon="4.087800">
						<ele>1125</ele>
						<time>2026-09-03T07:31:00Z</time>
					</trkpt>
					<trkpt lat="44.728570" lon="4.087930">
						<ele>1124</ele>
						<time>2026-09-03T07:31:06Z</time>
					</trkpt>
					<trkpt lat="44.728660" lon="4.088120">
						<ele>1123</ele>
						<time>2026-09-03T07:31:14Z</time>
					</trkpt>
					<trkpt lat="44.728710" lon="4.088330">
						<ele>1122</ele>
						<time>2026-09-03T07:31:22Z</time>
					</trkpt>
					<trkpt lat="44.728340" lon="4.088510">
						<ele>1123</ele>
						<time>2026-09-03T07:31:41Z</time>
					</trkpt>
					<trkpt lat="44.728280" lon="4.088630">
						<ele>1124</ele>
						<time>2026-09-03T07:31:46Z</time>
					</trkpt>
					<trkpt lat="44.728280" lon="4.088860">
						<ele>1125</ele>
						<time>2026-09-03T07:31:55Z</time>
					</trkpt>
					<trkpt lat="44.728030" lon="4.088930">
						<ele>1127</ele>
						<time>2026-09-03T07:32:07Z</time>
					</trkpt>
					<trkpt lat="44.727680" lon="4.088890">
						<ele>1130</ele>
						<time>2026-09-03T07:32:25Z</time>
					</trkpt>
					<trkpt lat="44.727560" lon="4.088830">
						<ele>1131</ele>
						<time>2026-09-03T07:32:31Z</time>
					</trkpt>
					<trkpt lat="44.727310" lon="4.088630">
						<ele>1133</ele>
						<time>2026-09-03T07:32:46Z</time>
					</trkpt>
					<trkpt lat="44.727240" lon="4.088620">
						<ele>1134</ele>
						<time>2026-09-03T07:32:49Z</time>
					</trkpt>
					<trkpt lat="44.727130" lon="4.088480">
						<ele>1134</ele>
						<time>2026-09-03T07:32:57Z</time>
					</trkpt>
					<trkpt lat="44.727270" lon="4.088660">
						<ele>1134</ele>
						<time>2026-09-03T07:33:06Z</time>
					</trkpt>
					<trkpt lat="44.727160" lon="4.088690">
						<ele>1136</ele>
						<time>2026-09-03T07:33:12Z</time>
					</trkpt>
					<trkpt lat="44.727010" lon="4.088640">
						<ele>1138</ele>
						<time>2026-09-03T07:33:19Z</time>
					</trkpt>
					<trkpt lat="44.726960" lon="4.088600">
						<ele>1138</ele>
						<time>2026-09-03T07:33:22Z</time>
					</trkpt>
					<trkpt lat="44.726830" lon="4.088580">
						<ele>1140</ele>
						<time>2026-09-03T07:33:29Z</time>
					</trkpt>
					<trkpt lat="44.726530" lon="4.088730">
						<ele>1149</ele>
						<time>2026-09-03T07:33:45Z</time>
					</trkpt>
					<trkpt lat="44.726370" lon="4.088760">
						<ele>1153</ele>
						<time>2026-09-03T07:33:53Z</time>
					</trkpt>
					<trkpt lat="44.726250" lon="4.088730">
						<ele>1156</ele>
						<time>2026-09-03T07:33:59Z</time>
					</trkpt>
					<trkpt lat="44.726190" lon="4.088750">
						<ele>1158</ele>
						<time>2026-09-03T07:34:02Z</time>
					</trkpt>
					<trkpt lat="44.726010" lon="4.088880">
						<ele>1165</ele>
						<time>2026-09-03T07:34:12Z</time>
					</trkpt>
					<trkpt lat="44.725900" lon="4.088920">
						<ele>1168</ele>
						<time>2026-09-03T07:34:18Z</time>
					</trkpt>
					<trkpt lat="44.725740" lon="4.089030">
						<ele>1173</ele>
						<time>2026-09-03T07:34:27Z</time>
					</trkpt>
					<trkpt lat="44.725480" lon="4.089490">
						<ele>1184</ele>
						<time>2026-09-03T07:34:48Z</time>
					</trkpt>
					<trkpt lat="44.725370" lon="4.089610">
						<ele>1189</ele>
						<time>2026-09-03T07:34:55Z</time>
					</trkpt>
					<trkpt lat="44.725130" lon="4.089650">
						<ele>1194</ele>
						<time>2026-09-03T07:35:07Z</time>
					</trkpt>
					<trkpt lat="44.725030" lon="4.089710">
						<ele>1198</ele>
						<time>2026-09-03T07:35:12Z</time>
					</trkpt>
					<trkpt lat="44.724850" lon="4.089980">
						<ele>1208</ele>
						<time>2026-09-03T07:35:25Z</time>
					</trkpt>
					<trkpt lat="44.724620" lon="4.090170">
						<ele>1212</ele>
						<time>2026-09-03T07:35:39Z</time>
					</trkpt>
					<trkpt lat="44.724250" lon="4.090540">
						<ele>1222</ele>
						<time>2026-09-03T07:36:01Z</time>
					</trkpt>
					<trkpt lat="44.724180" lon="4.090680">
						<ele>1225</ele>
						<time>2026-09-03T07:36:07Z</time>
					</trkpt>
					<trkpt lat="44.724100" lon="4.090680">
						<ele>1225</ele>
						<time>2026-09-03T07:36:11Z</time>
					</trkpt>
					<trkpt lat="44.723870" lon="4.090750">
						<ele>1227</ele>
						<time>2026-09-03T07:36:23Z</time>
					</trkpt>
					<trkpt lat="44.723610" lon="4.090860">
						<ele>1229</ele>
						<time>2026-09-03T07:36:37Z</time>
					</trkpt>
					<trkpt lat="44.723230" lon="4.091070">
						<ele>1234</ele>
						<time>2026-09-03T07:36:57Z</time>
					</trkpt>
					<trkpt lat="44.722990" lon="4.091230">
						<ele>1236</ele>
						<time>2026-09-03T07:37:10Z</time>
					</trkpt>
					<trkpt lat="44.722860" lon="4.091370">
						<ele>1239</ele>
						<time>2026-09-03T07:37:19Z</time>
					</trkpt>
					<trkpt lat="44.722800" lon="4.091400">
						<ele>1239</ele>
						<time>2026-09-03T07:37:22Z</time>
					</trkpt>
					<trkpt lat="44.722750" lon="4.091400">
						<ele>1239</ele>
						<time>2026-09-03T07:37:24Z</time>
					</trkpt>
					<trkpt lat="44.722710" lon="4.091350">
						<ele>1238</ele>
						<time>2026-09-03T07:37:27Z</time>
					</trkpt>
					<trkpt lat="44.722600" lon="4.090940">
						<ele>1232</ele>
						<time>2026-09-03T07:37:43Z</time>
					</trkpt>
					<trkpt lat="44.722540" lon="4.090880">
						<ele>1231</ele>
						<time>2026-09-03T07:37:46Z</time>
					</trkpt>
					<trkpt lat="44.722180" lon="4.091070">
						<ele>1235</ele>
						<time>2026-09-03T07:38:06Z</time>
					</trkpt>
					<trkpt lat="44.721530" lon="4.091200">
						<ele>1243</ele>
						<time>2026-09-03T07:38:38Z</time>
					</trkpt>
					<trkpt lat="44.721390" lon="4.091280">
						<ele>1246</ele>
						<time>2026-09-03T07:38:46Z</time>
					</trkpt>
					<trkpt lat="44.721300" lon="4.091270">
						<ele>1248</ele>
						<time>2026-09-03T07:38:50Z</time>
					</trkpt>
					<trkpt lat="44.721240" lon="4.091200">
						<ele>1247</ele>
						<time>2026-09-03T07:38:54Z</time>
					</trkpt>
					<trkpt lat="44.721220" lon="4.090780">
						<ele>1240</ele>
						<time>2026-09-03T07:39:09Z</time>
					</trkpt>
					<trkpt lat="44.721110" lon="4.090410">
						<ele>1238</ele>
						<time>2026-09-03T07:39:24Z</time>
					</trkpt>
					<trkpt lat="44.720890" lon="4.090070">
						<ele>1238</ele>
						<time>2026-09-03T07:39:40Z</time>
					</trkpt>
					<trkpt lat="44.720770" lon="4.089980">
						<ele>1239</ele>
						<time>2026-09-03T07:39:47Z</time>
					</trkpt>
					<trkpt lat="44.720550" lon="4.089940">
						<ele>1238</ele>
						<time>2026-09-03T07:39:58Z</time>
					</trkpt>
					<trkpt lat="44.720350" lon="4.089970">
						<ele>1239</ele>
						<time>2026-09-03T07:40:08Z</time>
					</trkpt>
					<trkpt lat="44.720280" lon="4.090060">
						<ele>1242</ele>
						<time>2026-09-03T07:40:13Z</time>
					</trkpt>
					<trkpt lat="44.720260" lon="4.090150">
						<ele>1244</ele>
						<time>2026-09-03T07:40:16Z</time>
					</trkpt>
					<trkpt lat="44.719820" lon="4.090450">
						<ele>1252</ele>
						<time>2026-09-03T07:40:41Z</time>
					</trkpt>
					<trkpt lat="44.719520" lon="4.090550">
						<ele>1254</ele>
						<time>2026-09-03T07:40:56Z</time>
					</trkpt>
					<trkpt lat="44.719080" lon="4.090640">
						<ele>1255</ele>
						<time>2026-09-03T07:41:18Z</time>
					</trkpt>
					<trkpt lat="44.718480" lon="4.090810">
						<ele>1255</ele>
						<time>2026-09-03T07:41:49Z</time>
					</trkpt>
					<trkpt lat="44.718110" lon="4.090990">
						<ele>1261</ele>
						<time>2026-09-03T07:42:08Z</time>
					</trkpt>
					<trkpt lat="44.717810" lon="4.091290">
						<ele>1267</ele>
						<time>2026-09-03T07:42:27Z</time>
					</trkpt>
					<trkpt lat="44.717720" lon="4.091310">
						<ele>1267</ele>
						<time>2026-09-03T07:42:31Z</time>
					</trkpt>
					<trkpt lat="44.717660" lon="4.091270">
						<ele>1267</ele>
						<time>2026-09-03T07:42:35Z</time>
					</trkpt>
					<trkpt lat="44.717640" lon="4.091110">
						<ele>1266</ele>
						<time>2026-09-03T07:42:40Z</time>
					</trkpt>
					<trkpt lat="44.717800" lon="4.090460">
						<ele>1266</ele>
						<time>2026-09-03T07:43:05Z</time>
					</trkpt>
					<trkpt lat="44.717980" lon="4.089930">
						<ele>1264</ele>
						<time>2026-09-03T07:43:26Z</time>
					</trkpt>
					<trkpt lat="44.718390" lon="4.088310">
						<ele>1262</ele>
						<time>2026-09-03T07:44:27Z</time>
					</trkpt>
					<trkpt lat="44.718420" lon="4.088030">
						<ele>1259</ele>
						<time>2026-09-03T07:44:37Z</time>
					</trkpt>
					<trkpt lat="44.718410" lon="4.087810">
						<ele>1257</ele>
						<time>2026-09-03T07:44:45Z</time>
					</trkpt>
					<trkpt lat="44.718370" lon="4.087720">
						<ele>1258</ele>
						<time>2026-09-03T07:44:49Z</time>
					</trkpt>
					<trkpt lat="44.718130" lon="4.087430">
						<ele>1264</ele>
						<time>2026-09-03T07:45:04Z</time>
					</trkpt>
					<trkpt lat="44.718020" lon="4.087210">
						<ele>1265</ele>
						<time>2026-09-03T07:45:14Z</time>
					</trkpt>
					<trkpt lat="44.717870" lon="4.086670">
						<ele>1263</ele>
						<time>2026-09-03T07:45:35Z</time>
					</trkpt>
					<trkpt lat="44.717750" lon="4.086430">
						<ele>1263</ele>
						<time>2026-09-03T07:45:45Z</time>
					</trkpt>
					<trkpt lat="44.717130" lon="4.085760">
						<ele>1263</ele>
						<time>2026-09-03T07:46:24Z</time>
					</trkpt>
					<trkpt lat="44.717040" lon="4.085690">
						<ele>1263</ele>
						<time>2026-09-03T07:46:29Z</time>
					</trkpt>
					<trkpt lat="44.716820" lon="4.085590">
						<ele>1264</ele>
						<time>2026-09-03T07:46:41Z</time>
					</trkpt>
					<trkpt lat="44.716480" lon="4.085570">
						<ele>1274</ele>
						<time>2026-09-03T07:46:58Z</time>
					</trkpt>
					<trkpt lat="44.716370" lon="4.085500">
						<ele>1277</ele>
						<time>2026-09-03T07:47:04Z</time>
					</trkpt>
					<trkpt lat="44.716310" lon="4.085380">
						<ele>1277</ele>
						<time>2026-09-03T07:47:09Z</time>
					</trkpt>
					<trkpt lat="44.716180" lon="4.084670">
						<ele>1272</ele>
						<time>2026-09-03T07:47:35Z</time>
					</trkpt>
					<trkpt lat="44.716170" lon="4.084210">
						<ele>1268</ele>
						<time>2026-09-03T07:47:52Z</time>
					</trkpt>
					<trkpt lat="44.716190" lon="4.083820">
						<ele>1265</ele>
						<time>2026-09-03T07:48:06Z</time>
					</trkpt>
					<trkpt lat="44.716150" lon="4.082620">
						<ele>1262</ele>
						<time>2026-09-03T07:48:48Z</time>
					</trkpt>
					<trkpt lat="44.716080" lon="4.082230">
						<ele>1260</ele>
						<time>2026-09-03T07:49:03Z</time>
					</trkpt>
					<trkpt lat="44.715960" lon="4.082050">
						<ele>1261</ele>
						<time>2026-09-03T07:49:11Z</time>
					</trkpt>
					<trkpt lat="44.715860" lon="4.082000">
						<ele>1263</ele>
						<time>2026-09-03T07:49:17Z</time>
					</trkpt>
					<trkpt lat="44.715650" lon="4.082040">
						<ele>1264</ele>
						<time>2026-09-03T07:49:27Z</time>
					</trkpt>
					<trkpt lat="44.715090" lon="4.082250">
						<ele>1269</ele>
						<time>2026-09-03T07:49:56Z</time>
					</trkpt>
					<trkpt lat="44.714730" lon="4.082470">
						<ele>1275</ele>
						<time>2026-09-03T07:50:16Z</time>
					</trkpt>
					<trkpt lat="44.714550" lon="4.082530">
						<ele>1277</ele>
						<time>2026-09-03T07:50:25Z</time>
					</trkpt>
					<trkpt lat="44.714390" lon="4.082500">
						<ele>1276</ele>
						<time>2026-09-03T07:50:33Z</time>
					</trkpt>
					<trkpt lat="44.714180" lon="4.082320">
						<ele>1273</ele>
						<time>2026-09-03T07:50:46Z</time>
					</trkpt>
					<trkpt lat="44.713970" lon="4.082190">
						<ele>1272</ele>
						<time>2026-09-03T07:50:57Z</time>
					</trkpt>
					<trkpt lat="44.713440" lon="4.082020">
						<ele>1275</ele>
						<time>2026-09-03T07:51:24Z</time>
					</trkpt>
					<trkpt lat="44.713280" lon="4.082000">
						<ele>1275</ele>
						<time>2026-09-03T07:51:32Z</time>
					</trkpt>
					<trkpt lat="44.713110" lon="4.082060">
						<ele>1275</ele>
						<time>2026-09-03T07:51:41Z</time>
					</trkpt>
					<trkpt lat="44.712440" lon="4.082580">
						<ele>1283</ele>
						<time>2026-09-03T07:52:19Z</time>
					</trkpt>
					<trkpt lat="44.711990" lon="4.082760">
						<ele>1290</ele>
						<time>2026-09-03T07:52:43Z</time>
					</trkpt>
					<trkpt lat="44.711870" lon="4.082790">
						<ele>1291</ele>
						<time>2026-09-03T07:52:49Z</time>
					</trkpt>
					<trkpt lat="44.711810" lon="4.082780">
						<ele>1292</ele>
						<time>2026-09-03T07:52:52Z</time>
					</trkpt>
					<trkpt lat="44.711690" lon="4.082680">
						<ele>1291</ele>
						<time>2026-09-03T07:52:59Z</time>
					</trkpt>
					<trkpt lat="44.711530" lon="4.082450">
						<ele>1292</ele>
						<time>2026-09-03T07:53:10Z</time>
					</trkpt>
					<trkpt lat="44.711520" lon="4.082350">
						<ele>1292</ele>
						<time>2026-09-03T07:53:14Z</time>
					</trkpt>
					<trkpt lat="44.711570" lon="4.081940">
						<ele>1290</ele>
						<time>2026-09-03T07:53:29Z</time>
					</trkpt>
					<trkpt lat="44.711600" lon="4.081370">
						<ele>1286</ele>
						<time>2026-09-03T07:53:49Z</time>
					</trkpt>
					<trkpt lat="44.711600" lon="4.080910">
						<ele>1282</ele>
						<time>2026-09-03T07:54:05Z</time>
					</trkpt>
					<trkpt lat="44.711550" lon="4.080620">
						<ele>1278</ele>
						<time>2026-09-03T07:54:16Z</time>
					</trkpt>
					<trkpt lat="44.711470" lon="4.080480">
						<ele>1276</ele>
						<time>2026-09-03T07:54:22Z</time>
					</trkpt>
					<trkpt lat="44.711240" lon="4.080380">
						<ele>1277</ele>
						<time>2026-09-03T07:54:34Z</time>
					</trkpt>
					<trkpt lat="44.710850" lon="4.080380">
						<ele>1282</ele>
						<time>2026-09-03T07:54:54Z</time>
					</trkpt>
					<trkpt lat="44.710560" lon="4.080480">
						<ele>1280</ele>
						<time>2026-09-03T07:55:09Z</time>
					</trkpt>
					<trkpt lat="44.709620" lon="4.081170">
						<ele>1276</ele>
						<time>2026-09-03T07:56:02Z</time>
					</trkpt>
					<trkpt lat="44.709580" lon="4.081410">
						<ele>1280</ele>
						<time>2026-09-03T07:56:11Z</time>
					</trkpt>
					<trkpt lat="44.709360" lon="4.082190">
						<ele>1289</ele>
						<time>2026-09-03T07:56:41Z</time>
					</trkpt>
					<trkpt lat="44.708990" lon="4.082660">
						<ele>1292</ele>
						<time>2026-09-03T07:57:06Z</time>
					</trkpt>
					<trkpt lat="44.709050" lon="4.082930">
						<ele>1295</ele>
						<time>2026-09-03T07:57:16Z</time>
					</trkpt>
					<trkpt lat="44.709010" lon="4.083040">
						<ele>1296</ele>
						<time>2026-09-03T07:57:20Z</time>
					</trkpt>
					<trkpt lat="44.708960" lon="4.083090">
						<ele>1296</ele>
						<time>2026-09-03T07:57:23Z</time>
					</trkpt>
					<trkpt lat="44.708630" lon="4.083230">
						<ele>1295</ele>
						<time>2026-09-03T07:57:40Z</time>
					</trkpt>
					<trkpt lat="44.708340" lon="4.083410">
						<ele>1294</ele>
						<time>2026-09-03T07:57:56Z</time>
					</trkpt>
					<trkpt lat="44.707980" lon="4.083800">
						<ele>1293</ele>
						<time>2026-09-03T07:58:19Z</time>
					</trkpt>
					<trkpt lat="44.707810" lon="4.084180">
						<ele>1293</ele>
						<time>2026-09-03T07:58:35Z</time>
					</trkpt>
					<trkpt lat="44.707730" lon="4.084310">
						<ele>1292</ele>
						<time>2026-09-03T07:58:41Z</time>
					</trkpt>
					<trkpt lat="44.707680" lon="4.084350">
						<ele>1292</ele>
						<time>2026-09-03T07:58:44Z</time>
					</trkpt>
					<trkpt lat="44.707590" lon="4.084020">
						<ele>1291</ele>
						<time>2026-09-03T07:58:56Z</time>
					</trkpt>
					<trkpt lat="44.707430" lon="4.083620">
						<ele>1289</ele>
						<time>2026-09-03T07:59:13Z</time>
					</trkpt>
					<trkpt lat="44.707300" lon="4.083380">
						<ele>1289</ele>
						<time>2026-09-03T07:59:23Z</time>
					</trkpt>
					<trkpt lat="44.706860" lon="4.082710">
						<ele>1289</ele>
						<time>2026-09-03T07:59:56Z</time>
					</trkpt>
					<trkpt lat="44.706660" lon="4.082180">
						<ele>1292</ele>
						<time>2026-09-03T08:00:17Z</time>
					</trkpt>
					<trkpt lat="44.706670" lon="4.081780">
						<ele>1293</ele>
						<time>2026-09-03T08:00:31Z</time>
					</trkpt>
					<trkpt lat="44.706650" lon="4.081620">
						<ele>1294</ele>
						<time>2026-09-03T08:00:37Z</time>
					</trkpt>
					<trkpt lat="44.706450" lon="4.080690">
						<ele>1298</ele>
						<time>2026-09-03T08:01:12Z</time>
					</trkpt>
					<trkpt lat="44.706030" lon="4.080230">
						<ele>1303</ele>
						<time>2026-09-03T08:01:38Z</time>
					</trkpt>
					<trkpt lat="44.705710" lon="4.079930">
						<ele>1308</ele>
						<time>2026-09-03T08:01:58Z</time>
					</trkpt>
					<trkpt lat="44.705300" lon="4.079690">
						<ele>1314</ele>
						<time>2026-09-03T08:02:20Z</time>
					</trkpt>
					<trkpt lat="44.705120" lon="4.079610">
						<ele>1317</ele>
						<time>2026-09-03T08:02:29Z</time>
					</trkpt>
					<trkpt lat="44.704850" lon="4.079550">
						<ele>1319</ele>
						<time>2026-09-03T08:02:43Z</time>
					</trkpt>
					<trkpt lat="44.704650" lon="4.079420">
						<ele>1322</ele>
						<time>2026-09-03T08:02:54Z</time>
					</trkpt>
					<trkpt lat="44.704000" lon="4.078460">
						<ele>1332</ele>
						<time>2026-09-03T08:03:41Z</time>
					</trkpt>
					<trkpt lat="44.703640" lon="4.078000">
						<ele>1336</ele>
						<time>2026-09-03T08:04:06Z</time>
					</trkpt>
					<trkpt lat="44.703330" lon="4.077490">
						<ele>1339</ele>
						<time>2026-09-03T08:04:29Z</time>
					</trkpt>
					<trkpt lat="44.703180" lon="4.077000">
						<ele>1339</ele>
						<time>2026-09-03T08:04:48Z</time>
					</trkpt>
					<trkpt lat="44.703090" lon="4.076830">
						<ele>1339</ele>
						<time>2026-09-03T08:04:56Z</time>
					</trkpt>
					<trkpt lat="44.702680" lon="4.075840">
						<ele>1334</ele>
						<time>2026-09-03T08:05:37Z</time>
					</trkpt>
					<trkpt lat="44.701770" lon="4.074030">
						<ele>1329</ele>
						<time>2026-09-03T08:06:56Z</time>
					</trkpt>
					<trkpt lat="44.700890" lon="4.072350">
						<ele>1328</ele>
						<time>2026-09-03T08:08:10Z</time>
					</trkpt>
					<trkpt lat="44.700080" lon="4.070430">
						<ele>1335</ele>
						<time>2026-09-03T08:09:29Z</time>
					</trkpt>
					<trkpt lat="44.699860" lon="4.070080">
						<ele>1337</ele>
						<time>2026-09-03T08:09:46Z</time>
					</trkpt>
					<trkpt lat="44.699140" lon="4.068780">
						<ele>1337</ele>
						<time>2026-09-03T08:10:44Z</time>
					</trkpt>
					<trkpt lat="44.698920" lon="4.068490">
						<ele>1337</ele>
						<time>2026-09-03T08:11:00Z</time>
					</trkpt>
					<trkpt lat="44.698810" lon="4.068300">
						<ele>1337</ele>
						<time>2026-09-03T08:11:08Z</time>
					</trkpt>
					<trkpt lat="44.698670" lon="4.067990">
						<ele>1339</ele>
						<time>2026-09-03T08:11:21Z</time>
					</trkpt>
					<trkpt lat="44.698460" lon="4.067150">
						<ele>1343</ele>
						<time>2026-09-03T08:11:53Z</time>
					</trkpt>
					<trkpt lat="44.698100" lon="4.066060">
						<ele>1347</ele>
						<time>2026-09-03T08:12:36Z</time>
					</trkpt>
					<trkpt lat="44.698030" lon="4.065930">
						<ele>1347</ele>
						<time>2026-09-03T08:12:42Z</time>
					</trkpt>
					<trkpt lat="44.697550" lon="4.065430">
						<ele>1351</ele>
						<time>2026-09-03T08:13:11Z</time>
					</trkpt>
					<trkpt lat="44.697550" lon="4.065210">
						<ele>1351</ele>
						<time>2026-09-03T08:13:19Z</time>
					</trkpt>
					<trkpt lat="44.697320" lon="4.064790">
						<ele>1350</ele>
						<time>2026-09-03T08:13:38Z</time>
					</trkpt>
					<trkpt lat="44.697230" lon="4.064400">
						<ele>1350</ele>
						<time>2026-09-03T08:13:53Z</time>
					</trkpt>
					<trkpt lat="44.697240" lon="4.063860">
						<ele>1350</ele>
						<time>2026-09-03T08:14:12Z</time>
					</trkpt>
					<trkpt lat="44.697430" lon="4.061780">
						<ele>1353</ele>
						<time>2026-09-03T08:15:27Z</time>
					</trkpt>
					<trkpt lat="44.697570" lon="4.061090">
						<ele>1354</ele>
						<time>2026-09-03T08:15:52Z</time>
					</trkpt>
					<trkpt lat="44.697660" lon="4.060790">
						<ele>1354</ele>
						<time>2026-09-03T08:16:04Z</time>
					</trkpt>
					<trkpt lat="44.697930" lon="4.060110">
						<ele>1355</ele>
						<time>2026-09-03T08:16:31Z</time>
					</trkpt>
					<trkpt lat="44.698000" lon="4.059630">
						<ele>1356</ele>
						<time>2026-09-03T08:16:49Z</time>
					</trkpt>
					<trkpt lat="44.697990" lon="4.059370">
						<ele>1356</ele>
						<time>2026-09-03T08:16:58Z</time>
					</trkpt>
					<trkpt lat="44.698110" lon="4.059010">
						<ele>1356</ele>
						<time>2026-09-03T08:17:12Z</time>
					</trkpt>
					<trkpt lat="44.698100" lon="4.058660">
						<ele>1355</ele>
						<time>2026-09-03T08:17:25Z</time>
					</trkpt>
					<trkpt lat="44.698050" lon="4.058240">
						<ele>1355</ele>
						<time>2026-09-03T08:17:40Z</time>
					</trkpt>
					<trkpt lat="44.698080" lon="4.057830">
						<ele>1355</ele>
						<time>2026-09-03T08:17:54Z</time>
					</trkpt>
					<trkpt lat="44.698210" lon="4.057220">
						<ele>1354</ele>
						<time>2026-09-03T08:18:17Z</time>
					</trkpt>
					<trkpt lat="44.698380" lon="4.056940">
						<ele>1354</ele>
						<time>2026-09-03T08:18:30Z</time>
					</trkpt>
					<trkpt lat="44.698550" lon="4.056580">
						<ele>1353</ele>
						<time>2026-09-03T08:18:46Z</time>
					</trkpt>
					<trkpt lat="44.698920" lon="4.056090">
						<ele>1352</ele>
						<time>2026-09-03T08:19:11Z</time>
					</trkpt>
					<trkpt lat="44.699550" lon="4.054740">
						<ele>1354</ele>
						<time>2026-09-03T08:20:08Z</time>
					</trkpt>
					<trkpt lat="44.699550" lon="4.054630">
						<ele>1354</ele>
						<time>2026-09-03T08:20:12Z</time>
					</trkpt>
					<trkpt lat="44.699700" lon="4.054130">
						<ele>1356</ele>
						<time>2026-09-03T08:20:32Z</time>
					</trkpt>
					<trkpt lat="44.699730" lon="4.053800">
						<ele>1360</ele>
						<time>2026-09-03T08:20:43Z</time>
					</trkpt>
					<trkpt lat="44.699710" lon="4.053680">
						<ele>1362</ele>
						<time>2026-09-03T08:20:48Z</time>
					</trkpt>
					<trkpt lat="44.699570" lon="4.053380">
						<ele>1365</ele>
						<time>2026-09-03T08:21:01Z</time>
					</trkpt>
					<trkpt lat="44.699250" lon="4.053000">
						<ele>1371</ele>
						<time>2026-09-03T08:21:22Z</time>
					</trkpt>
					<trkpt lat="44.699160" lon="4.052840">
						<ele>1374</ele>
						<time>2026-09-03T08:21:29Z</time>
					</trkpt>
					<trkpt lat="44.699050" lon="4.052500">
						<ele>1377</ele>
						<time>2026-09-03T08:21:42Z</time>
					</trkpt>
					<trkpt lat="44.699040" lon="4.052340">
						<ele>1379</ele>
						<time>2026-09-03T08:21:48Z</time>
					</trkpt>
					<trkpt lat="44.698730" lon="4.051960">
						<ele>1380</ele>
						<time>2026-09-03T08:22:08Z</time>
					</trkpt>
					<trkpt lat="44.698580" lon="4.051710">
						<ele>1381</ele>
						<time>2026-09-03T08:22:20Z</time>
					</trkpt>
					<trkpt lat="44.698450" lon="4.051470">
						<ele>1382</ele>
						<time>2026-09-03T08:22:31Z</time>
					</trkpt>
					<trkpt lat="44.698080" lon="4.050620">
						<ele>1385</ele>
						<time>2026-09-03T08:23:06Z</time>
					</trkpt>
					<trkpt lat="44.697960" lon="4.050470">
						<ele>1385</ele>
						<time>2026-09-03T08:23:14Z</time>
					</trkpt>
					<trkpt lat="44.697650" lon="4.050220">
						<ele>1384</ele>
						<time>2026-09-03T08:23:32Z</time>
					</trkpt>
					<trkpt lat="44.697380" lon="4.049900">
						<ele>1385</ele>
						<time>2026-09-03T08:23:50Z</time>
					</trkpt>
					<trkpt lat="44.697060" lon="4.049320">
						<ele>1387</ele>
						<time>2026-09-03T08:24:16Z</time>
					</trkpt>
					<trkpt lat="44.696680" lon="4.048770">
						<ele>1387</ele>
						<time>2026-09-03T08:24:43Z</time>
					</trkpt>
					<trkpt lat="44.696580" lon="4.048590">
						<ele>1386</ele>
						<time>2026-09-03T08:24:51Z</time>
					</trkpt>
					<trkpt lat="44.696600" lon="4.048460">
						<ele>1388</ele>
						<time>2026-09-03T08:24:56Z</time>
					</trkpt>
					<trkpt lat="44.696550" lon="4.048170">
						<ele>1389</ele>
						<time>2026-09-03T08:25:07Z</time>
					</trkpt>
					<trkpt lat="44.696580" lon="4.047730">
						<ele>1394</ele>
						<time>2026-09-03T08:25:22Z</time>
					</trkpt>
					<trkpt lat="44.696560" lon="4.047360">
						<ele>1396</ele>
						<time>2026-09-03T08:25:36Z</time>
					</trkpt>
					<trkpt lat="44.696450" lon="4.046430">
						<ele>1398</ele>
						<time>2026-09-03T08:26:09Z</time>
					</trkpt>
					<trkpt lat="44.696440" lon="4.045990">
						<ele>1400</ele>
						<time>2026-09-03T08:26:25Z</time>
					</trkpt>
					<trkpt lat="44.696480" lon="4.045780">
						<ele>1401</ele>
						<time>2026-09-03T08:26:33Z</time>
					</trkpt>
					<trkpt lat="44.696440" lon="4.045400">
						<ele>1400</ele>
						<time>2026-09-03T08:26:46Z</time>
					</trkpt>
					<trkpt lat="44.696460" lon="4.045260">
						<ele>1400</ele>
						<time>2026-09-03T08:26:51Z</time>
					</trkpt>
					<trkpt lat="44.696450" lon="4.044820">
						<ele>1399</ele>
						<time>2026-09-03T08:27:07Z</time>
					</trkpt>
					<trkpt lat="44.696200" lon="4.043820">
						<ele>1394</ele>
						<time>2026-09-03T08:27:45Z</time>
					</trkpt>
					<trkpt lat="44.696160" lon="4.043820">
						<ele>1393</ele>
						<time>2026-09-03T08:27:47Z</time>
					</trkpt>
					<trkpt lat="44.696090" lon="4.043730">
						<ele>1393</ele>
						<time>2026-09-03T08:27:51Z</time>
					</trkpt>
					<trkpt lat="44.695810" lon="4.043200">
						<ele>1390</ele>
						<time>2026-09-03T08:28:15Z</time>
					</trkpt>
					<trkpt lat="44.695750" lon="4.043020">
						<ele>1389</ele>
						<time>2026-09-03T08:28:22Z</time>
					</trkpt>
					<trkpt lat="44.695780" lon="4.042700">
						<ele>1387</ele>
						<time>2026-09-03T08:28:33Z</time>
					</trkpt>
					<trkpt lat="44.695910" lon="4.042240">
						<ele>1385</ele>
						<time>2026-09-03T08:28:51Z</time>
					</trkpt>
					<trkpt lat="44.695920" lon="4.042050">
						<ele>1384</ele>
						<time>2026-09-03T08:28:58Z</time>
					</trkpt>
					<trkpt lat="44.695620" lon="4.040150">
						<ele>1369</ele>
						<time>2026-09-03T08:30:07Z</time>
					</trkpt>
					<trkpt lat="44.695580" lon="4.039440">
						<ele>1361</ele>
						<time>2026-09-03T08:30:32Z</time>
					</trkpt>
					<trkpt lat="44.695590" lon="4.039250">
						<ele>1359</ele>
						<time>2026-09-03T08:30:39Z</time>
					</trkpt>
					<trkpt lat="44.695520" lon="4.038710">
						<ele>1356</ele>
						<time>2026-09-03T08:30:59Z</time>
					</trkpt>
					<trkpt lat="44.695450" lon="4.037770">
						<ele>1351</ele>
						<time>2026-09-03T08:31:32Z</time>
					</trkpt>
					<trkpt lat="44.695440" lon="4.037140">
						<ele>1348</ele>
						<time>2026-09-03T08:31:55Z</time>
					</trkpt>
					<trkpt lat="44.695400" lon="4.036700">
						<ele>1347</ele>
						<time>2026-09-03T08:32:11Z</time>
					</trkpt>
					<trkpt lat="44.695370" lon="4.034880">
						<ele>1336</ele>
						<time>2026-09-03T08:33:15Z</time>
					</trkpt>
					<trkpt lat="44.695280" lon="4.034100">
						<ele>1330</ele>
						<time>2026-09-03T08:33:43Z</time>
					</trkpt>
					<trkpt lat="44.695200" lon="4.033620">
						<ele>1326</ele>
						<time>2026-09-03T08:34:01Z</time>
					</trkpt>
					<trkpt lat="44.695210" lon="4.033450">
						<ele>1324</ele>
						<time>2026-09-03T08:34:07Z</time>
					</trkpt>
					<trkpt lat="44.695290" lon="4.033030">
						<ele>1319</ele>
						<time>2026-09-03T08:34:22Z</time>
					</trkpt>
					<trkpt lat="44.695270" lon="4.032910">
						<ele>1318</ele>
						<time>2026-09-03T08:34:27Z</time>
					</trkpt>
					<trkpt lat="44.695310" lon="4.032880">
						<ele>1317</ele>
						<time>2026-09-03T08:34:29Z</time>
					</trkpt>
					<trkpt lat="44.695470" lon="4.032850">
						<ele>1317</ele>
						<time>2026-09-03T08:34:37Z</time>
					</trkpt>
					<trkpt lat="44.695720" lon="4.032900">
						<ele>1318</ele>
						<time>2026-09-03T08:34:50Z</time>
					</trkpt>
					<trkpt lat="44.695880" lon="4.032980">
						<ele>1320</ele>
						<time>2026-09-03T08:34:58Z</time>
					</trkpt>
					<trkpt lat="44.696230" lon="4.033270">
						<ele>1325</ele>
						<time>2026-09-03T08:35:19Z</time>
					</trkpt>
					<trkpt lat="44.696350" lon="4.033210">
						<ele>1324</ele>
						<time>2026-09-03T08:35:25Z</time>
					</trkpt>
					<trkpt lat="44.696400" lon="4.033110">
						<ele>1323</ele>
						<time>2026-09-03T08:35:29Z</time>
					</trkpt>
					<trkpt lat="44.696390" lon="4.032960">
						<ele>1323</ele>
						<time>2026-09-03T08:35:35Z</time>
					</trkpt>
					<trkpt lat="44.696050" lon="4.032100">
						<ele>1313</ele>
						<time>2026-09-03T08:36:10Z</time>
					</trkpt>
					<trkpt lat="44.695970" lon="4.031760">
						<ele>1308</ele>
						<time>2026-09-03T08:36:23Z</time>
					</trkpt>
					<trkpt lat="44.695910" lon="4.031190">
						<ele>1303</ele>
						<time>2026-09-03T08:36:43Z</time>
					</trkpt>
					<trkpt lat="44.695910" lon="4.031000">
						<ele>1301</ele>
						<time>2026-09-03T08:36:50Z</time>
					</trkpt>
					<trkpt lat="44.695960" lon="4.030600">
						<ele>1300</ele>
						<time>2026-09-03T08:37:04Z</time>
					</trkpt>
					<trkpt lat="44.696040" lon="4.030300">
						<ele>1299</ele>
						<time>2026-09-03T08:37:16Z</time>
					</trkpt>
					<trkpt lat="44.696840" lon="4.028480">
						<ele>1294</ele>
						<time>2026-09-03T08:38:32Z</time>
					</trkpt>
					<trkpt lat="44.697560" lon="4.026320">
						<ele>1288</ele>
						<time>2026-09-03T08:39:57Z</time>
					</trkpt>
					<trkpt lat="44.697850" lon="4.025670">
						<ele>1289</ele>
						<time>2026-09-03T08:40:24Z</time>
					</trkpt>
					<trkpt lat="44.697920" lon="4.025390">
						<ele>1287</ele>
						<time>2026-09-03T08:40:34Z</time>
					</trkpt>
					<trkpt lat="44.698010" lon="4.024730">
						<ele>1284</ele>
						<time>2026-09-03T08:40:58Z</time>
					</trkpt>
					<trkpt lat="44.698000" lon="4.024380">
						<ele>1282</ele>
						<time>2026-09-03T08:41:11Z</time>
					</trkpt>
					<trkpt lat="44.697640" lon="4.023070">
						<ele>1272</ele>
						<time>2026-09-03T08:42:01Z</time>
					</trkpt>
					<trkpt lat="44.697460" lon="4.021990">
						<ele>1267</ele>
						<time>2026-09-03T08:42:40Z</time>
					</trkpt>
					<trkpt lat="44.697470" lon="4.021740">
						<ele>1267</ele>
						<time>2026-09-03T08:42:49Z</time>
					</trkpt>
					<trkpt lat="44.697610" lon="4.021260">
						<ele>1266</ele>
						<time>2026-09-03T08:43:08Z</time>
					</trkpt>
					<trkpt lat="44.697610" lon="4.021090">
						<ele>1265</ele>
						<time>2026-09-03T08:43:14Z</time>
					</trkpt>
					<trkpt lat="44.697680" lon="4.021050">
						<ele>1265</ele>
						<time>2026-09-03T08:43:17Z</time>
					</trkpt>
					<trkpt lat="44.697610" lon="4.021090">
						<ele>1265</ele>
						<time>2026-09-03T08:43:21Z</time>
					</trkpt>
					<trkpt lat="44.697570" lon="4.020940">
						<ele>1263</ele>
						<time>2026-09-03T08:43:27Z</time>
					</trkpt>
					<trkpt lat="44.697460" lon="4.020850">
						<ele>1262</ele>
						<time>2026-09-03T08:43:33Z</time>
					</trkpt>
					<trkpt lat="44.697290" lon="4.020870">
						<ele>1261</ele>
						<time>2026-09-03T08:43:42Z</time>
					</trkpt>
					<trkpt lat="44.697050" lon="4.021000">
						<ele>1261</ele>
						<time>2026-09-03T08:43:55Z</time>
					</trkpt>
					<trkpt lat="44.696300" lon="4.020570">
						<ele>1257</ele>
						<time>2026-09-03T08:44:35Z</time>
					</trkpt>
					<trkpt lat="44.695580" lon="4.019970">
						<ele>1258</ele>
						<time>2026-09-03T08:45:17Z</time>
					</trkpt>
					<trkpt lat="44.695350" lon="4.019970">
						<ele>1261</ele>
						<time>2026-09-03T08:45:29Z</time>
					</trkpt>
					<trkpt lat="44.695200" lon="4.019920">
						<ele>1262</ele>
						<time>2026-09-03T08:45:36Z</time>
					</trkpt>
					<trkpt lat="44.694980" lon="4.019760">
						<ele>1264</ele>
						<time>2026-09-03T08:45:49Z</time>
					</trkpt>
					<trkpt lat="44.694630" lon="4.019600">
						<ele>1268</ele>
						<time>2026-09-03T08:46:07Z</time>
					</trkpt>
					<trkpt lat="44.694540" lon="4.019580">
						<ele>1269</ele>
						<time>2026-09-03T08:46:12Z</time>
					</trkpt>
					<trkpt lat="44.694370" lon="4.019630">
						<ele>1271</ele>
						<time>2026-09-03T08:46:20Z</time>
					</trkpt>
					<trkpt lat="44.694080" lon="4.019590">
						<ele>1274</ele>
						<time>2026-09-03T08:46:35Z</time>
					</trkpt>
					<trkpt lat="44.694020" lon="4.019620">
						<ele>1274</ele>
						<time>2026-09-03T08:46:38Z</time>
					</trkpt>
					<trkpt lat="44.693850" lon="4.019780">
						<ele>1277</ele>
						<time>2026-09-03T08:46:48Z</time>
					</trkpt>
					<trkpt lat="44.693800" lon="4.019880">
						<ele>1277</ele>
						<time>2026-09-03T08:46:53Z</time>
					</trkpt>
					<trkpt lat="44.693520" lon="4.019760">
						<ele>1280</ele>
						<time>2026-09-03T08:47:07Z</time>
					</trkpt>
					<trkpt lat="44.692890" lon="4.019550">
						<ele>1281</ele>
						<time>2026-09-03T08:47:40Z</time>
					</trkpt>
					<trkpt lat="44.692600" lon="4.019510">
						<ele>1280</ele>
						<time>2026-09-03T08:47:54Z</time>
					</trkpt>
					<trkpt lat="44.692380" lon="4.019550">
						<ele>1281</ele>
						<time>2026-09-03T08:48:05Z</time>
					</trkpt>
					<trkpt lat="44.690870" lon="4.020340">
						<ele>1288</ele>
						<time>2026-09-03T08:49:26Z</time>
					</trkpt>
					<trkpt lat="44.690150" lon="4.020640">
						<ele>1292</ele>
						<time>2026-09-03T08:50:04Z</time>
					</trkpt>
					<trkpt lat="44.690100" lon="4.020590">
						<ele>1293</ele>
						<time>2026-09-03T08:50:07Z</time>
					</trkpt>
					<trkpt lat="44.690010" lon="4.020580">
						<ele>1293</ele>
						<time>2026-09-03T08:50:11Z</time>
					</trkpt>
					<trkpt lat="44.689310" lon="4.020820">
						<ele>1298</ele>
						<time>2026-09-03T08:50:47Z</time>
					</trkpt>
					<trkpt lat="44.688900" lon="4.020860">
						<ele>1303</ele>
						<time>2026-09-03T08:51:08Z</time>
					</trkpt>
					<trkpt lat="44.688330" lon="4.020830">
						<ele>1312</ele>
						<time>2026-09-03T08:51:36Z</time>
					</trkpt>
					<trkpt lat="44.687730" lon="4.020610">
						<ele>1320</ele>
						<time>2026-09-03T08:52:07Z</time>
					</trkpt>
					<trkpt lat="44.687230" lon="4.020230">
						<ele>1324</ele>
						<time>2026-09-03T08:52:36Z</time>
					</trkpt>
					<trkpt lat="44.686900" lon="4.019860">
						<ele>1325</ele>
						<time>2026-09-03T08:52:57Z</time>
					</trkpt>
					<trkpt lat="44.686450" lon="4.019500">
						<ele>1327</ele>
						<time>2026-09-03T08:53:23Z</time>
					</trkpt>
					<trkpt lat="44.686030" lon="4.019250">
						<ele>1328</ele>
						<time>2026-09-03T08:53:46Z</time>
					</trkpt>
					<trkpt lat="44.685800" lon="4.019230">
						<ele>1329</ele>
						<time>2026-09-03T08:53:57Z</time>
					</trkpt>
					<trkpt lat="44.685090" lon="4.019490">
						<ele>1336</ele>
						<time>2026-09-03T08:54:34Z</time>
					</trkpt>
					<trkpt lat="44.684950" lon="4.019600">
						<ele>1337</ele>
						<time>2026-09-03T08:54:42Z</time>
					</trkpt>
					<trkpt lat="44.684830" lon="4.019640">
						<ele>1338</ele>
						<time>2026-09-03T08:54:48Z</time>
					</trkpt>
					<trkpt lat="44.684730" lon="4.019870">
						<ele>1340</ele>
						<time>2026-09-03T08:54:58Z</time>
					</trkpt>
					<trkpt lat="44.684450" lon="4.020150">
						<ele>1344</ele>
						<time>2026-09-03T08:55:15Z</time>
					</trkpt>
					<trkpt lat="44.683500" lon="4.021030">
						<ele>1355</ele>
						<time>2026-09-03T08:56:12Z</time>
					</trkpt>
					<trkpt lat="44.682900" lon="4.021440">
						<ele>1359</ele>
						<time>2026-09-03T08:56:45Z</time>
					</trkpt>
					<trkpt lat="44.682610" lon="4.021590">
						<ele>1360</ele>
						<time>2026-09-03T08:57:01Z</time>
					</trkpt>
					<trkpt lat="44.682010" lon="4.021800">
						<ele>1363</ele>
						<time>2026-09-03T08:57:32Z</time>
					</trkpt>
					<trkpt lat="44.681430" lon="4.021940">
						<ele>1367</ele>
						<time>2026-09-03T08:58:01Z</time>
					</trkpt>
					<trkpt lat="44.680790" lon="4.022220">
						<ele>1375</ele>
						<time>2026-09-03T08:58:35Z</time>
					</trkpt>
					<trkpt lat="44.680640" lon="4.022340">
						<ele>1376</ele>
						<time>2026-09-03T08:58:43Z</time>
					</trkpt>
					<trkpt lat="44.679850" lon="4.023140">
						<ele>1379</ele>
						<time>2026-09-03T08:59:32Z</time>
					</trkpt>
					<trkpt lat="44.679690" lon="4.023270">
						<ele>1379</ele>
						<time>2026-09-03T08:59:41Z</time>
					</trkpt>
					<trkpt lat="44.679580" lon="4.023310">
						<ele>1379</ele>
						<time>2026-09-03T08:59:47Z</time>
					</trkpt>
					<trkpt lat="44.678500" lon="4.024510">
						<ele>1381</ele>
						<time>2026-09-03T09:00:56Z</time>
					</trkpt>
					<trkpt lat="44.678110" lon="4.024850">
						<ele>1382</ele>
						<time>2026-09-03T09:01:19Z</time>
					</trkpt>
					<trkpt lat="44.678020" lon="4.024370">
						<ele>1380</ele>
						<time>2026-09-03T09:01:36Z</time>
					</trkpt>
					<trkpt lat="44.677900" lon="4.024070">
						<ele>1379</ele>
						<time>2026-09-03T09:01:49Z</time>
					</trkpt>
					<trkpt lat="44.677660" lon="4.023780">
						<ele>1377</ele>
						<time>2026-09-03T09:02:05Z</time>
					</trkpt>
					<trkpt lat="44.677510" lon="4.023650">
						<ele>1376</ele>
						<time>2026-09-03T09:02:13Z</time>
					</trkpt>
					<trkpt lat="44.677030" lon="4.023330">
						<ele>1380</ele>
						<time>2026-09-03T09:02:40Z</time>
					</trkpt>
					<trkpt lat="44.676980" lon="4.023200">
						<ele>1380</ele>
						<time>2026-09-03T09:02:45Z</time>
					</trkpt>
					<trkpt lat="44.676600" lon="4.022700">
						<ele>1382</ele>
						<time>2026-09-03T09:03:11Z</time>
					</trkpt>
					<trkpt lat="44.676480" lon="4.022500">
						<ele>1383</ele>
						<time>2026-09-03T09:03:21Z</time>
					</trkpt>
					<trkpt lat="44.676260" lon="4.021930">
						<ele>1383</ele>
						<time>2026-09-03T09:03:44Z</time>
					</trkpt>
					<trkpt lat="44.676130" lon="4.021770">
						<ele>1383</ele>
						<time>2026-09-03T09:03:52Z</time>
					</trkpt>
					<trkpt lat="44.675860" lon="4.021630">
						<ele>1385</ele>
						<time>2026-09-03T09:04:07Z</time>
					</trkpt>
					<trkpt lat="44.675110" lon="4.021420">
						<ele>1389</ele>
						<time>2026-09-03T09:04:45Z</time>
					</trkpt>
					<trkpt lat="44.674980" lon="4.021400">
						<ele>1390</ele>
						<time>2026-09-03T09:04:51Z</time>
					</trkpt>
					<trkpt lat="44.674810" lon="4.021490">
						<ele>1392</ele>
						<time>2026-09-03T09:05:01Z</time>
					</trkpt>
					<trkpt lat="44.674630" lon="4.021450">
						<ele>1392</ele>
						<time>2026-09-03T09:05:10Z</time>
					</trkpt>
					<trkpt lat="44.674420" lon="4.021490">
						<ele>1392</ele>
						<time>2026-09-03T09:05:20Z</time>
					</trkpt>
					<trkpt lat="44.673830" lon="4.021800">
						<ele>1397</ele>
						<time>2026-09-03T09:05:52Z</time>
					</trkpt>
					<trkpt lat="44.673200" lon="4.022240">
						<ele>1403</ele>
						<time>2026-09-03T09:06:27Z</time>
					</trkpt>
					<trkpt lat="44.672450" lon="4.022610">
						<ele>1406</ele>
						<time>2026-09-03T09:07:07Z</time>
					</trkpt>
					<trkpt lat="44.672220" lon="4.022690">
						<ele>1407</ele>
						<time>2026-09-03T09:07:19Z</time>
					</trkpt>
					<trkpt lat="44.672050" lon="4.022850">
						<ele>1409</ele>
						<time>2026-09-03T09:07:29Z</time>
					</trkpt>
					<trkpt lat="44.671680" lon="4.023090">
						<ele>1411</ele>
						<time>2026-09-03T09:07:49Z</time>
					</trkpt>
					<trkpt lat="44.671280" lon="4.023270">
						<ele>1412</ele>
						<time>2026-09-03T09:08:10Z</time>
					</trkpt>
					<trkpt lat="44.670690" lon="4.023260">
						<ele>1413</ele>
						<time>2026-09-03T09:08:40Z</time>
					</trkpt>
					<trkpt lat="44.670720" lon="4.023460">
						<ele>1412</ele>
						<time>2026-09-03T09:08:47Z</time>
					</trkpt>
					<trkpt lat="44.670620" lon="4.023470">
						<ele>1413</ele>
						<time>2026-09-03T09:08:52Z</time>
					</trkpt>
					<trkpt lat="44.670560" lon="4.023410">
						<ele>1413</ele>
						<time>2026-09-03T09:08:56Z</time>
					</trkpt>
					<trkpt lat="44.670040" lon="4.023340">
						<ele>1415</ele>
						<time>2026-09-03T09:09:22Z</time>
					</trkpt>
					<trkpt lat="44.669450" lon="4.022950">
						<ele>1421</ele>
						<time>2026-09-03T09:09:55Z</time>
					</trkpt>
					<trkpt lat="44.669030" lon="4.022600">
						<ele>1427</ele>
						<time>2026-09-03T09:10:19Z</time>
					</trkpt>
					<trkpt lat="44.668350" lon="4.022290">
						<ele>1434</ele>
						<time>2026-09-03T09:10:55Z</time>
					</trkpt>
					<trkpt lat="44.668210" lon="4.022160">
						<ele>1435</ele>
						<time>2026-09-03T09:11:03Z</time>
					</trkpt>
					<trkpt lat="44.667900" lon="4.021750">
						<ele>1440</ele>
						<time>2026-09-03T09:11:24Z</time>
					</trkpt>
					<trkpt lat="44.667660" lon="4.021350">
						<ele>1441</ele>
						<time>2026-09-03T09:11:43Z</time>
					</trkpt>
					<trkpt lat="44.667340" lon="4.020530">
						<ele>1438</ele>
						<time>2026-09-03T09:12:16Z</time>
					</trkpt>
					<trkpt lat="44.667240" lon="4.020360">
						<ele>1437</ele>
						<time>2026-09-03T09:12:24Z</time>
					</trkpt>
					<trkpt lat="44.666760" lon="4.019720">
						<ele>1438</ele>
						<time>2026-09-03T09:12:57Z</time>
					</trkpt>
					<trkpt lat="44.666160" lon="4.019100">
						<ele>1441</ele>
						<time>2026-09-03T09:13:35Z</time>
					</trkpt>
					<trkpt lat="44.665880" lon="4.019030">
						<ele>1441</ele>
						<time>2026-09-03T09:13:49Z</time>
					</trkpt>
					<trkpt lat="44.665760" lon="4.019030">
						<ele>1441</ele>
						<time>2026-09-03T09:13:55Z</time>
					</trkpt>
					<trkpt lat="44.665630" lon="4.019090">
						<ele>1442</ele>
						<time>2026-09-03T09:14:02Z</time>
					</trkpt>
					<trkpt lat="44.665500" lon="4.019070">
						<ele>1442</ele>
						<time>2026-09-03T09:14:08Z</time>
					</trkpt>
					<trkpt lat="44.665380" lon="4.019030">
						<ele>1443</ele>
						<time>2026-09-03T09:14:14Z</time>
					</trkpt>
					<trkpt lat="44.665270" lon="4.018920">
						<ele>1444</ele>
						<time>2026-09-03T09:14:21Z</time>
					</trkpt>
					<trkpt lat="44.665120" lon="4.019880">
						<ele>1443</ele>
						<time>2026-09-03T09:14:56Z</time>
					</trkpt>
					<trkpt lat="44.664910" lon="4.020530">
						<ele>1442</ele>
						<time>2026-09-03T09:15:22Z</time>
					</trkpt>
					<trkpt lat="44.664720" lon="4.020880">
						<ele>1441</ele>
						<time>2026-09-03T09:15:37Z</time>
					</trkpt>
					<trkpt lat="44.664560" lon="4.021070">
						<ele>1439</ele>
						<time>2026-09-03T09:15:48Z</time>
					</trkpt>
					<trkpt lat="44.664460" lon="4.021150">
						<ele>1439</ele>
						<time>2026-09-03T09:15:53Z</time>
					</trkpt>
					<trkpt lat="44.664160" lon="4.021310">
						<ele>1436</ele>
						<time>2026-09-03T09:16:09Z</time>
					</trkpt>
					<trkpt lat="44.664000" lon="4.021320">
						<ele>1434</ele>
						<time>2026-09-03T09:16:18Z</time>
					</trkpt>
					<trkpt lat="44.663790" lon="4.021290">
						<ele>1431</ele>
						<time>2026-09-03T09:16:28Z</time>
					</trkpt>
					<trkpt lat="44.663520" lon="4.021380">
						<ele>1427</ele>
						<time>2026-09-03T09:16:42Z</time>
					</trkpt>
					<trkpt lat="44.662890" lon="4.021780">
						<ele>1419</ele>
						<time>2026-09-03T09:17:17Z</time>
					</trkpt>
					<trkpt lat="44.662170" lon="4.022320">
						<ele>1411</ele>
						<time>2026-09-03T09:17:57Z</time>
					</trkpt>
					<trkpt lat="44.661980" lon="4.022540">
						<ele>1407</ele>
						<time>2026-09-03T09:18:10Z</time>
					</trkpt>
					<trkpt lat="44.661680" lon="4.023010">
						<ele>1402</ele>
						<time>2026-09-03T09:18:32Z</time>
					</trkpt>
					<trkpt lat="44.661370" lon="4.023750">
						<ele>1398</ele>
						<time>2026-09-03T09:19:03Z</time>
					</trkpt>
					<trkpt lat="44.661250" lon="4.023980">
						<ele>1397</ele>
						<time>2026-09-03T09:19:13Z</time>
					</trkpt>
					<trkpt lat="44.660990" lon="4.024420">
						<ele>1391</ele>
						<time>2026-09-03T09:19:33Z</time>
					</trkpt>
					<trkpt lat="44.660770" lon="4.024660">
						<ele>1385</ele>
						<time>2026-09-03T09:19:47Z</time>
					</trkpt>
					<trkpt lat="44.660540" lon="4.025100">
						<ele>1381</ele>
						<time>2026-09-03T09:20:07Z</time>
					</trkpt>
					<trkpt lat="44.660360" lon="4.025340">
						<ele>1378</ele>
						<time>2026-09-03T09:20:19Z</time>
					</trkpt>
					<trkpt lat="44.659910" lon="4.025810">
						<ele>1374</ele>
						<time>2026-09-03T09:20:47Z</time>
					</trkpt>
					<trkpt lat="44.659620" lon="4.026000">
						<ele>1371</ele>
						<time>2026-09-03T09:21:03Z</time>
					</trkpt>
					<trkpt lat="44.659270" lon="4.026390">
						<ele>1373</ele>
						<time>2026-09-03T09:21:25Z</time>
					</trkpt>
					<trkpt lat="44.659160" lon="4.026530">
						<ele>1374</ele>
						<time>2026-09-03T09:21:33Z</time>
					</trkpt>
					<trkpt lat="44.659040" lon="4.026740">
						<ele>1377</ele>
						<time>2026-09-03T09:21:42Z</time>
					</trkpt>
					<trkpt lat="44.658620" lon="4.027560">
						<ele>1385</ele>
						<time>2026-09-03T09:22:18Z</time>
					</trkpt>
					<trkpt lat="44.658320" lon="4.027960">
						<ele>1390</ele>
						<time>2026-09-03T09:22:39Z</time>
					</trkpt>
					<trkpt lat="44.658180" lon="4.028090">
						<ele>1390</ele>
						<time>2026-09-03T09:22:48Z</time>
					</trkpt>
					<trkpt lat="44.657320" lon="4.028550">
						<ele>1392</ele>
						<time>2026-09-03T09:23:34Z</time>
					</trkpt>
					<trkpt lat="44.657050" lon="4.028650">
						<ele>1390</ele>
						<time>2026-09-03T09:23:48Z</time>
					</trkpt>
					<trkpt lat="44.656210" lon="4.028820">
						<ele>1388</ele>
						<time>2026-09-03T09:24:30Z</time>
					</trkpt>
					<trkpt lat="44.655410" lon="4.029180">
						<ele>1389</ele>
						<time>2026-09-03T09:25:12Z</time>
					</trkpt>
					<trkpt lat="44.655200" lon="4.029210">
						<ele>1389</ele>
						<time>2026-09-03T09:25:23Z</time>
					</trkpt>
					<trkpt lat="44.654680" lon="4.029230">
						<ele>1392</ele>
						<time>2026-09-03T09:25:49Z</time>
					</trkpt>
					<trkpt lat="44.654530" lon="4.029270">
						<ele>1393</ele>
						<time>2026-09-03T09:25:56Z</time>
					</trkpt>
					<trkpt lat="44.654180" lon="4.029420">
						<ele>1395</ele>
						<time>2026-09-03T09:26:15Z</time>
					</trkpt>
					<trkpt lat="44.653890" lon="4.029610">
						<ele>1398</ele>
						<time>2026-09-03T09:26:31Z</time>
					</trkpt>
					<trkpt lat="44.653580" lon="4.029760">
						<ele>1400</ele>
						<time>2026-09-03T09:26:47Z</time>
					</trkpt>
					<trkpt lat="44.653000" lon="4.029980">
						<ele>1403</ele>
						<time>2026-09-03T09:27:17Z</time>
					</trkpt>
					<trkpt lat="44.652270" lon="4.030320">
						<ele>1402</ele>
						<time>2026-09-03T09:27:56Z</time>
					</trkpt>
					<trkpt lat="44.651960" lon="4.030530">
						<ele>1401</ele>
						<time>2026-09-03T09:28:13Z</time>
					</trkpt>
					<trkpt lat="44.651880" lon="4.030740">
						<ele>1401</ele>
						<time>2026-09-03T09:28:21Z</time>
					</trkpt>
					<trkpt lat="44.651830" lon="4.030770">
						<ele>1401</ele>
						<time>2026-09-03T09:28:24Z</time>
					</trkpt>
					<trkpt lat="44.651810" lon="4.030820">
						<ele>1401</ele>
						<time>2026-09-03T09:28:26Z</time>
					</trkpt>
					<trkpt lat="44.651790" lon="4.031120">
						<ele>1401</ele>
						<time>2026-09-03T09:28:37Z</time>
					</trkpt>
					<trkpt lat="44.651680" lon="4.031820">
						<ele>1404</ele>
						<time>2026-09-03T09:29:02Z</time>
					</trkpt>
					<trkpt lat="44.651710" lon="4.032380">
						<ele>1406</ele>
						<time>2026-09-03T09:29:22Z</time>
					</trkpt>
					<trkpt lat="44.651680" lon="4.032660">
						<ele>1408</ele>
						<time>2026-09-03T09:29:32Z</time>
					</trkpt>
					<trkpt lat="44.651770" lon="4.033530">
						<ele>1412</ele>
						<time>2026-09-03T09:30:04Z</time>
					</trkpt>
					<trkpt lat="44.651790" lon="4.034060">
						<ele>1412</ele>
						<time>2026-09-03T09:30:23Z</time>
					</trkpt>
					<trkpt lat="44.651610" lon="4.035790">
						<ele>1414</ele>
						<time>2026-09-03T09:31:25Z</time>
					</trkpt>
					<trkpt lat="44.651650" lon="4.036920">
						<ele>1416</ele>
						<time>2026-09-03T09:32:05Z</time>
					</trkpt>
					<trkpt lat="44.651560" lon="4.038490">
						<ele>1422</ele>
						<time>2026-09-03T09:33:01Z</time>
					</trkpt>
					<trkpt lat="44.651350" lon="4.039380">
						<ele>1424</ele>
						<time>2026-09-03T09:33:35Z</time>
					</trkpt>
					<trkpt lat="44.651140" lon="4.040090">
						<ele>1426</ele>
						<time>2026-09-03T09:34:02Z</time>
					</trkpt>
					<trkpt lat="44.651150" lon="4.040250">
						<ele>1427</ele>
						<time>2026-09-03T09:34:08Z</time>
					</trkpt>
					<trkpt lat="44.649760" lon="4.043650">
						<ele>1428</ele>
						<time>2026-09-03T09:36:27Z</time>
					</trkpt>
					<trkpt lat="44.649600" lon="4.043970">
						<ele>1429</ele>
						<time>2026-09-03T09:36:41Z</time>
					</trkpt>
					<trkpt lat="44.649400" lon="4.044140">
						<ele>1426</ele>
						<time>2026-09-03T09:36:53Z</time>
					</trkpt>
					<trkpt lat="44.648750" lon="4.044590">
						<ele>1418</ele>
						<time>2026-09-03T09:37:29Z</time>
					</trkpt>
					<trkpt lat="44.647750" lon="4.045480">
						<ele>1406</ele>
						<time>2026-09-03T09:38:28Z</time>
					</trkpt>
					<trkpt lat="44.647700" lon="4.045400">
						<ele>1403</ele>
						<time>2026-09-03T09:38:32Z</time>
					</trkpt>
					<trkpt lat="44.647600" lon="4.045360">
						<ele>1400</ele>
						<time>2026-09-03T09:38:37Z</time>
					</trkpt>
					<trkpt lat="44.647190" lon="4.045660">
						<ele>1395</ele>
						<time>2026-09-03T09:39:00Z</time>
					</trkpt>
					<trkpt lat="44.647030" lon="4.045750">
						<ele>1393</ele>
						<time>2026-09-03T09:39:09Z</time>
					</trkpt>
					<trkpt lat="44.646970" lon="4.045740">
						<ele>1391</ele>
						<time>2026-09-03T09:39:12Z</time>
					</trkpt>
					<trkpt lat="44.646450" lon="4.045300">
						<ele>1374</ele>
						<time>2026-09-03T09:39:42Z</time>
					</trkpt>
					<trkpt lat="44.646210" lon="4.044850">
						<ele>1362</ele>
						<time>2026-09-03T09:40:02Z</time>
					</trkpt>
					<trkpt lat="44.646150" lon="4.044750">
						<ele>1360</ele>
						<time>2026-09-03T09:40:07Z</time>
					</trkpt>
					<trkpt lat="44.645980" lon="4.044560">
						<ele>1354</ele>
						<time>2026-09-03T09:40:18Z</time>
					</trkpt>
					<trkpt lat="44.645900" lon="4.044380">
						<ele>1351</ele>
						<time>2026-09-03T09:40:26Z</time>
					</trkpt>
					<trkpt lat="44.645840" lon="4.044210">
						<ele>1348</ele>
						<time>2026-09-03T09:40:32Z</time>
					</trkpt>
					<trkpt lat="44.645820" lon="4.044060">
						<ele>1345</ele>
						<time>2026-09-03T09:40:38Z</time>
					</trkpt>
					<trkpt lat="44.645830" lon="4.043950">
						<ele>1344</ele>
						<time>2026-09-03T09:40:42Z</time>
					</trkpt>
					<trkpt lat="44.645930" lon="4.043780">
						<ele>1343</ele>
						<time>2026-09-03T09:40:50Z</time>
					</trkpt>
					<trkpt lat="44.645950" lon="4.043700">
						<ele>1342</ele>
						<time>2026-09-03T09:40:53Z</time>
					</trkpt>
					<trkpt lat="44.645930" lon="4.043640">
						<ele>1341</ele>
						<time>2026-09-03T09:40:55Z</time>
					</trkpt>
					<trkpt lat="44.645840" lon="4.043590">
						<ele>1339</ele>
						<time>2026-09-03T09:41:00Z</time>
					</trkpt>
					<trkpt lat="44.645900" lon="4.043540">
						<ele>1339</ele>
						<time>2026-09-03T09:41:03Z</time>
					</trkpt>
					<trkpt lat="44.645900" lon="4.043340">
						<ele>1337</ele>
						<time>2026-09-03T09:41:10Z</time>
					</trkpt>
					<trkpt lat="44.645810" lon="4.043080">
						<ele>1334</ele>
						<time>2026-09-03T09:41:21Z</time>
					</trkpt>
					<trkpt lat="44.645710" lon="4.042430">
						<ele>1327</ele>
						<time>2026-09-03T09:41:44Z</time>
					</trkpt>
					<trkpt lat="44.645540" lon="4.042000">
						<ele>1320</ele>
						<time>2026-09-03T09:42:02Z</time>
					</trkpt>
					<trkpt lat="44.645450" lon="4.041680">
						<ele>1316</ele>
						<time>2026-09-03T09:42:14Z</time>
					</trkpt>
					<trkpt lat="44.645300" lon="4.041390">
						<ele>1312</ele>
						<time>2026-09-03T09:42:27Z</time>
					</trkpt>
					<trkpt lat="44.645160" lon="4.041240">
						<ele>1311</ele>
						<time>2026-09-03T09:42:36Z</time>
					</trkpt>
					<trkpt lat="44.644820" lon="4.041800">
						<ele>1307</ele>
						<time>2026-09-03T09:43:02Z</time>
					</trkpt>
					<trkpt lat="44.644560" lon="4.042570">
						<ele>1300</ele>
						<time>2026-09-03T09:43:32Z</time>
					</trkpt>
					<trkpt lat="44.644380" lon="4.043000">
						<ele>1297</ele>
						<time>2026-09-03T09:43:50Z</time>
					</trkpt>
					<trkpt lat="44.644250" lon="4.043490">
						<ele>1296</ele>
						<time>2026-09-03T09:44:09Z</time>
					</trkpt>
					<trkpt lat="44.644140" lon="4.043780">
						<ele>1296</ele>
						<time>2026-09-03T09:44:20Z</time>
					</trkpt>
					<trkpt lat="44.644090" lon="4.044140">
						<ele>1298</ele>
						<time>2026-09-03T09:44:33Z</time>
					</trkpt>
					<trkpt lat="44.643990" lon="4.044400">
						<ele>1297</ele>
						<time>2026-09-03T09:44:44Z</time>
					</trkpt>
					<trkpt lat="44.643970" lon="4.044670">
						<ele>1298</ele>
						<time>2026-09-03T09:44:54Z</time>
					</trkpt>
					<trkpt lat="44.643850" lon="4.044890">
						<ele>1295</ele>
						<time>2026-09-03T09:45:03Z</time>
					</trkpt>
					<trkpt lat="44.643750" lon="4.045630">
						<ele>1296</ele>
						<time>2026-09-03T09:45:30Z</time>
					</trkpt>
					<trkpt lat="44.643590" lon="4.045760">
						<ele>1293</ele>
						<time>2026-09-03T09:45:40Z</time>
					</trkpt>
					<trkpt lat="44.643540" lon="4.045900">
						<ele>1294</ele>
						<time>2026-09-03T09:45:45Z</time>
					</trkpt>
					<trkpt lat="44.643360" lon="4.046120">
						<ele>1293</ele>
						<time>2026-09-03T09:45:57Z</time>
					</trkpt>
					<trkpt lat="44.643150" lon="4.046210">
						<ele>1291</ele>
						<time>2026-09-03T09:46:08Z</time>
					</trkpt>
					<trkpt lat="44.642740" lon="4.046460">
						<ele>1289</ele>
						<time>2026-09-03T09:46:30Z</time>
					</trkpt>
					<trkpt lat="44.642620" lon="4.046510">
						<ele>1289</ele>
						<time>2026-09-03T09:46:37Z</time>
					</trkpt>
					<trkpt lat="44.642310" lon="4.046740">
						<ele>1287</ele>
						<time>2026-09-03T09:46:54Z</time>
					</trkpt>
					<trkpt lat="44.642200" lon="4.046940">
						<ele>1287</ele>
						<time>2026-09-03T09:47:03Z</time>
					</trkpt>
					<trkpt lat="44.642090" lon="4.047300">
						<ele>1287</ele>
						<time>2026-09-03T09:47:17Z</time>
					</trkpt>
					<trkpt lat="44.641720" lon="4.047860">
						<ele>1281</ele>
						<time>2026-09-03T09:47:44Z</time>
					</trkpt>
					<trkpt lat="44.641440" lon="4.048140">
						<ele>1275</ele>
						<time>2026-09-03T09:48:02Z</time>
					</trkpt>
					<trkpt lat="44.641380" lon="4.048280">
						<ele>1274</ele>
						<time>2026-09-03T09:48:07Z</time>
					</trkpt>
					<trkpt lat="44.641330" lon="4.048530">
						<ele>1274</ele>
						<time>2026-09-03T09:48:17Z</time>
					</trkpt>
					<trkpt lat="44.641170" lon="4.048750">
						<ele>1272</ele>
						<time>2026-09-03T09:48:28Z</time>
					</trkpt>
					<trkpt lat="44.641100" lon="4.049020">
						<ele>1272</ele>
						<time>2026-09-03T09:48:38Z</time>
					</trkpt>
					<trkpt lat="44.641080" lon="4.049230">
						<ele>1273</ele>
						<time>2026-09-03T09:48:46Z</time>
					</trkpt>
					<trkpt lat="44.640960" lon="4.049370">
						<ele>1271</ele>
						<time>2026-09-03T09:48:53Z</time>
					</trkpt>
					<trkpt lat="44.640910" lon="4.049480">
						<ele>1271</ele>
						<time>2026-09-03T09:48:58Z</time>
					</trkpt>
					<trkpt lat="44.640700" lon="4.050100">
						<ele>1271</ele>
						<time>2026-09-03T09:49:23Z</time>
					</trkpt>
					<trkpt lat="44.640520" lon="4.050250">
						<ele>1267</ele>
						<time>2026-09-03T09:49:33Z</time>
					</trkpt>
					<trkpt lat="44.640290" lon="4.050570">
						<ele>1263</ele>
						<time>2026-09-03T09:49:49Z</time>
					</trkpt>
					<trkpt lat="44.639920" lon="4.050760">
						<ele>1255</ele>
						<time>2026-09-03T09:50:09Z</time>
					</trkpt>
					<trkpt lat="44.639690" lon="4.051000">
						<ele>1250</ele>
						<time>2026-09-03T09:50:23Z</time>
					</trkpt>
					<trkpt lat="44.639440" lon="4.050900">
						<ele>1244</ele>
						<time>2026-09-03T09:50:36Z</time>
					</trkpt>
					<trkpt lat="44.638790" lon="4.050730">
						<ele>1234</ele>
						<time>2026-09-03T09:51:09Z</time>
					</trkpt>
					<trkpt lat="44.638700" lon="4.050740">
						<ele>1233</ele>
						<time>2026-09-03T09:51:14Z</time>
					</trkpt>
					<trkpt lat="44.638650" lon="4.050820">
						<ele>1233</ele>
						<time>2026-09-03T09:51:18Z</time>
					</trkpt>
					<trkpt lat="44.638520" lon="4.050820">
						<ele>1232</ele>
						<time>2026-09-03T09:51:24Z</time>
					</trkpt>
					<trkpt lat="44.638430" lon="4.050610">
						<ele>1230</ele>
						<time>2026-09-03T09:51:33Z</time>
					</trkpt>
					<trkpt lat="44.638420" lon="4.050520">
						<ele>1229</ele>
						<time>2026-09-03T09:51:36Z</time>
					</trkpt>
					<trkpt lat="44.638190" lon="4.050550">
						<ele>1229</ele>
						<time>2026-09-03T09:51:48Z</time>
					</trkpt>
					<trkpt lat="44.637670" lon="4.050550">
						<ele>1230</ele>
						<time>2026-09-03T09:52:14Z</time>
					</trkpt>
					<trkpt lat="44.637310" lon="4.050750">
						<ele>1232</ele>
						<time>2026-09-03T09:52:33Z</time>
					</trkpt>
					<trkpt lat="44.636700" lon="4.050980">
						<ele>1234</ele>
						<time>2026-09-03T09:53:05Z</time>
					</trkpt>
					<trkpt lat="44.636560" lon="4.051010">
						<ele>1236</ele>
						<time>2026-09-03T09:53:12Z</time>
					</trkpt>
					<trkpt lat="44.636470" lon="4.051000">
						<ele>1236</ele>
						<time>2026-09-03T09:53:16Z</time>
					</trkpt>
					<trkpt lat="44.636350" lon="4.050940">
						<ele>1238</ele>
						<time>2026-09-03T09:53:23Z</time>
					</trkpt>
					<trkpt lat="44.635880" lon="4.050540">
						<ele>1243</ele>
						<time>2026-09-03T09:53:50Z</time>
					</trkpt>
					<trkpt lat="44.635760" lon="4.050310">
						<ele>1242</ele>
						<time>2026-09-03T09:54:00Z</time>
					</trkpt>
					<trkpt lat="44.635630" lon="4.050190">
						<ele>1242</ele>
						<time>2026-09-03T09:54:08Z</time>
					</trkpt>
					<trkpt lat="44.635320" lon="4.049630">
						<ele>1244</ele>
						<time>2026-09-03T09:54:33Z</time>
					</trkpt>
					<trkpt lat="44.635210" lon="4.049290">
						<ele>1248</ele>
						<time>2026-09-03T09:54:47Z</time>
					</trkpt>
					<trkpt lat="44.635150" lon="4.048870">
						<ele>1254</ele>
						<time>2026-09-03T09:55:02Z</time>
					</trkpt>
					<trkpt lat="44.635090" lon="4.048740">
						<ele>1256</ele>
						<time>2026-09-03T09:55:07Z</time>
					</trkpt>
					<trkpt lat="44.634960" lon="4.048220">
						<ele>1265</ele>
						<time>2026-09-03T09:55:27Z</time>
					</trkpt>
					<trkpt lat="44.634720" lon="4.047780">
						<ele>1272</ele>
						<time>2026-09-03T09:55:47Z</time>
					</trkpt>
					<trkpt lat="44.634290" lon="4.047300">
						<ele>1282</ele>
						<time>2026-09-03T09:56:14Z</time>
					</trkpt>
					<trkpt lat="44.633620" lon="4.046020">
						<ele>1306</ele>
						<time>2026-09-03T09:57:11Z</time>
					</trkpt>
					<trkpt lat="44.633500" lon="4.045720">
						<ele>1310</ele>
						<time>2026-09-03T09:57:23Z</time>
					</trkpt>
					<trkpt lat="44.633510" lon="4.045010">
						<ele>1314</ele>
						<time>2026-09-03T09:57:48Z</time>
					</trkpt>
					<trkpt lat="44.633430" lon="4.045090">
						<ele>1313</ele>
						<time>2026-09-03T09:57:53Z</time>
					</trkpt>
					<trkpt lat="44.633250" lon="4.044890">
						<ele>1312</ele>
						<time>2026-09-03T09:58:05Z</time>
					</trkpt>
					<trkpt lat="44.633090" lon="4.044780">
						<ele>1309</ele>
						<time>2026-09-03T09:58:14Z</time>
					</trkpt>
					<trkpt lat="44.632920" lon="4.044590">
						<ele>1305</ele>
						<time>2026-09-03T09:58:25Z</time>
					</trkpt>
					<trkpt lat="44.632580" lon="4.044420">
						<ele>1301</ele>
						<time>2026-09-03T09:58:43Z</time>
					</trkpt>
					<trkpt lat="44.632230" lon="4.044040">
						<ele>1296</ele>
						<time>2026-09-03T09:59:05Z</time>
					</trkpt>
					<trkpt lat="44.631910" lon="4.043590">
						<ele>1297</ele>
						<time>2026-09-03T09:59:27Z</time>
					</trkpt>
					<trkpt lat="44.631820" lon="4.043420">
						<ele>1298</ele>
						<time>2026-09-03T09:59:35Z</time>
					</trkpt>
					<trkpt lat="44.631720" lon="4.043100">
						<ele>1302</ele>
						<time>2026-09-03T09:59:47Z</time>
					</trkpt>
					<trkpt lat="44.631710" lon="4.042860">
						<ele>1305</ele>
						<time>2026-09-03T09:59:56Z</time>
					</trkpt>
					<trkpt lat="44.631640" lon="4.042480">
						<ele>1311</ele>
						<time>2026-09-03T10:00:10Z</time>
					</trkpt>
					<trkpt lat="44.631520" lon="4.042260">
						<ele>1311</ele>
						<time>2026-09-03T10:00:20Z</time>
					</trkpt>
					<trkpt lat="44.631470" lon="4.041870">
						<ele>1313</ele>
						<time>2026-09-03T10:00:34Z</time>
					</trkpt>
					<trkpt lat="44.631340" lon="4.041300">
						<ele>1315</ele>
						<time>2026-09-03T10:00:55Z</time>
					</trkpt>
					<trkpt lat="44.631150" lon="4.040680">
						<ele>1316</ele>
						<time>2026-09-03T10:01:19Z</time>
					</trkpt>
					<trkpt lat="44.631130" lon="4.040190">
						<ele>1319</ele>
						<time>2026-09-03T10:01:37Z</time>
					</trkpt>
					<trkpt lat="44.631190" lon="4.039890">
						<ele>1321</ele>
						<time>2026-09-03T10:01:48Z</time>
					</trkpt>
					<trkpt lat="44.631210" lon="4.039450">
						<ele>1324</ele>
						<time>2026-09-03T10:02:04Z</time>
					</trkpt>
					<trkpt lat="44.631070" lon="4.038920">
						<ele>1327</ele>
						<time>2026-09-03T10:02:24Z</time>
					</trkpt>
					<trkpt lat="44.630980" lon="4.038690">
						<ele>1329</ele>
						<time>2026-09-03T10:02:33Z</time>
					</trkpt>
					<trkpt lat="44.630800" lon="4.038500">
						<ele>1330</ele>
						<time>2026-09-03T10:02:44Z</time>
					</trkpt>
					<trkpt lat="44.630560" lon="4.038150">
						<ele>1327</ele>
						<time>2026-09-03T10:03:02Z</time>
					</trkpt>
					<trkpt lat="44.630410" lon="4.038050">
						<ele>1325</ele>
						<time>2026-09-03T10:03:10Z</time>
					</trkpt>
					<trkpt lat="44.630240" lon="4.037990">
						<ele>1324</ele>
						<time>2026-09-03T10:03:19Z</time>
					</trkpt>
					<trkpt lat="44.630050" lon="4.037770">
						<ele>1325</ele>
						<time>2026-09-03T10:03:31Z</time>
					</trkpt>
					<trkpt lat="44.629920" lon="4.037330">
						<ele>1327</ele>
						<time>2026-09-03T10:03:48Z</time>
					</trkpt>
					<trkpt lat="44.629770" lon="4.037100">
						<ele>1327</ele>
						<time>2026-09-03T10:03:59Z</time>
					</trkpt>
					<trkpt lat="44.629690" lon="4.037020">
						<ele>1327</ele>
						<time>2026-09-03T10:04:04Z</time>
					</trkpt>
					<trkpt lat="44.629590" lon="4.036780">
						<ele>1328</ele>
						<time>2026-09-03T10:04:14Z</time>
					</trkpt>
					<trkpt lat="44.629470" lon="4.036590">
						<ele>1329</ele>
						<time>2026-09-03T10:04:23Z</time>
					</trkpt>
					<trkpt lat="44.629400" lon="4.036290">
						<ele>1331</ele>
						<time>2026-09-03T10:04:34Z</time>
					</trkpt>
					<trkpt lat="44.629330" lon="4.036130">
						<ele>1333</ele>
						<time>2026-09-03T10:04:41Z</time>
					</trkpt>
					<trkpt lat="44.629310" lon="4.035760">
						<ele>1336</ele>
						<time>2026-09-03T10:04:54Z</time>
					</trkpt>
					<trkpt lat="44.629250" lon="4.035390">
						<ele>1341</ele>
						<time>2026-09-03T10:05:08Z</time>
					</trkpt>
					<trkpt lat="44.629000" lon="4.034830">
						<ele>1345</ele>
						<time>2026-09-03T10:05:31Z</time>
					</trkpt>
					<trkpt lat="44.628940" lon="4.034340">
						<ele>1347</ele>
						<time>2026-09-03T10:05:49Z</time>
					</trkpt>
					<trkpt lat="44.628840" lon="4.034000">
						<ele>1346</ele>
						<time>2026-09-03T10:06:02Z</time>
					</trkpt>
					<trkpt lat="44.628850" lon="4.033600">
						<ele>1347</ele>
						<time>2026-09-03T10:06:16Z</time>
					</trkpt>
					<trkpt lat="44.628920" lon="4.033350">
						<ele>1349</ele>
						<time>2026-09-03T10:06:26Z</time>
					</trkpt>
					<trkpt lat="44.629030" lon="4.033170">
						<ele>1350</ele>
						<time>2026-09-03T10:06:34Z</time>
					</trkpt>
					<trkpt lat="44.629040" lon="4.033100">
						<ele>1350</ele>
						<time>2026-09-03T10:06:37Z</time>
					</trkpt>
					<trkpt lat="44.628970" lon="4.032870">
						<ele>1347</ele>
						<time>2026-09-03T10:06:46Z</time>
					</trkpt>
					<trkpt lat="44.629000" lon="4.032590">
						<ele>1346</ele>
						<time>2026-09-03T10:06:56Z</time>
					</trkpt>
					<trkpt lat="44.629240" lon="4.032100">
						<ele>1346</ele>
						<time>2026-09-03T10:07:17Z</time>
					</trkpt>
					<trkpt lat="44.629230" lon="4.031870">
						<ele>1345</ele>
						<time>2026-09-03T10:07:25Z</time>
					</trkpt>
					<trkpt lat="44.629310" lon="4.031660">
						<ele>1343</ele>
						<time>2026-09-03T10:07:34Z</time>
					</trkpt>
					<trkpt lat="44.629330" lon="4.031450">
						<ele>1341</ele>
						<time>2026-09-03T10:07:41Z</time>
					</trkpt>
					<trkpt lat="44.629520" lon="4.031170">
						<ele>1339</ele>
						<time>2026-09-03T10:07:55Z</time>
					</trkpt>
					<trkpt lat="44.629860" lon="4.030320">
						<ele>1332</ele>
						<time>2026-09-03T10:08:30Z</time>
					</trkpt>
					<trkpt lat="44.629900" lon="4.030260">
						<ele>1332</ele>
						<time>2026-09-03T10:08:33Z</time>
					</trkpt>
					<trkpt lat="44.630110" lon="4.030090">
						<ele>1331</ele>
						<time>2026-09-03T10:08:45Z</time>
					</trkpt>
					<trkpt lat="44.630250" lon="4.029610">
						<ele>1326</ele>
						<time>2026-09-03T10:09:03Z</time>
					</trkpt>
					<trkpt lat="44.630370" lon="4.029360">
						<ele>1325</ele>
						<time>2026-09-03T10:09:14Z</time>
					</trkpt>
					<trkpt lat="44.630440" lon="4.028620">
						<ele>1326</ele>
						<time>2026-09-03T10:09:41Z</time>
					</trkpt>
					<trkpt lat="44.630500" lon="4.028250">
						<ele>1327</ele>
						<time>2026-09-03T10:09:54Z</time>
					</trkpt>
					<trkpt lat="44.630830" lon="4.027420">
						<ele>1329</ele>
						<time>2026-09-03T10:10:28Z</time>
					</trkpt>
					<trkpt lat="44.630840" lon="4.027190">
						<ele>1326</ele>
						<time>2026-09-03T10:10:36Z</time>
					</trkpt>
					<trkpt lat="44.630780" lon="4.027040">
						<ele>1323</ele>
						<time>2026-09-03T10:10:42Z</time>
					</trkpt>
					<trkpt lat="44.630680" lon="4.026900">
						<ele>1319</ele>
						<time>2026-09-03T10:10:49Z</time>
					</trkpt>
					<trkpt lat="44.630590" lon="4.026610">
						<ele>1314</ele>
						<time>2026-09-03T10:11:01Z</time>
					</trkpt>
					<trkpt lat="44.630640" lon="4.025920">
						<ele>1307</ele>
						<time>2026-09-03T10:11:25Z</time>
					</trkpt>
					<trkpt lat="44.630770" lon="4.025450">
						<ele>1307</ele>
						<time>2026-09-03T10:11:43Z</time>
					</trkpt>
					<trkpt lat="44.630500" lon="4.024210">
						<ele>1293</ele>
						<time>2026-09-03T10:12:29Z</time>
					</trkpt>
					<trkpt lat="44.630540" lon="4.023690">
						<ele>1296</ele>
						<time>2026-09-03T10:12:48Z</time>
					</trkpt>
					<trkpt lat="44.630450" lon="4.023090">
						<ele>1300</ele>
						<time>2026-09-03T10:13:10Z</time>
					</trkpt>
					<trkpt lat="44.630410" lon="4.023010">
						<ele>1301</ele>
						<time>2026-09-03T10:13:13Z</time>
					</trkpt>
					<trkpt lat="44.630390" lon="4.022810">
						<ele>1303</ele>
						<time>2026-09-03T10:13:21Z</time>
					</trkpt>
					<trkpt lat="44.630350" lon="4.022720">
						<ele>1304</ele>
						<time>2026-09-03T10:13:24Z</time>
					</trkpt>
					<trkpt lat="44.630400" lon="4.022490">
						<ele>1307</ele>
						<time>2026-09-03T10:13:33Z</time>
					</trkpt>
					<trkpt lat="44.630350" lon="4.022130">
						<ele>1314</ele>
						<time>2026-09-03T10:13:46Z</time>
					</trkpt>
					<trkpt lat="44.630380" lon="4.021710">
						<ele>1321</ele>
						<time>2026-09-03T10:14:01Z</time>
					</trkpt>
					<trkpt lat="44.630350" lon="4.021300">
						<ele>1327</ele>
						<time>2026-09-03T10:14:16Z</time>
					</trkpt>
					<trkpt lat="44.630450" lon="4.020990">
						<ele>1332</ele>
						<time>2026-09-03T10:14:28Z</time>
					</trkpt>
					<trkpt lat="44.630450" lon="4.020600">
						<ele>1334</ele>
						<time>2026-09-03T10:14:42Z</time>
					</trkpt>
					<trkpt lat="44.630410" lon="4.020360">
						<ele>1334</ele>
						<time>2026-09-03T10:14:50Z</time>
					</trkpt>
					<trkpt lat="44.630360" lon="4.020270">
						<ele>1335</ele>
						<time>2026-09-03T10:14:55Z</time>
					</trkpt>
					<trkpt lat="44.630220" lon="4.020150">
						<ele>1337</ele>
						<time>2026-09-03T10:15:03Z</time>
					</trkpt>
					<trkpt lat="44.630120" lon="4.020020">
						<ele>1339</ele>
						<time>2026-09-03T10:15:10Z</time>
					</trkpt>
					<trkpt lat="44.629990" lon="4.019810">
						<ele>1342</ele>
						<time>2026-09-03T10:15:19Z</time>
					</trkpt>
					<trkpt lat="44.629950" lon="4.019680">
						<ele>1341</ele>
						<time>2026-09-03T10:15:25Z</time>
					</trkpt>
					<trkpt lat="44.629930" lon="4.019480">
						<ele>1342</ele>
						<time>2026-09-03T10:15:32Z</time>
					</trkpt>
					<trkpt lat="44.629870" lon="4.019380">
						<ele>1341</ele>
						<time>2026-09-03T10:15:36Z</time>
					</trkpt>
					<trkpt lat="44.629710" lon="4.018740">
						<ele>1339</ele>
						<time>2026-09-03T10:16:01Z</time>
					</trkpt>
					<trkpt lat="44.629610" lon="4.018060">
						<ele>1340</ele>
						<time>2026-09-03T10:16:25Z</time>
					</trkpt>
					<trkpt lat="44.629300" lon="4.017230">
						<ele>1339</ele>
						<time>2026-09-03T10:16:59Z</time>
					</trkpt>
					<trkpt lat="44.629270" lon="4.017190">
						<ele>1339</ele>
						<time>2026-09-03T10:17:01Z</time>
					</trkpt>
					<trkpt lat="44.629050" lon="4.017080">
						<ele>1335</ele>
						<time>2026-09-03T10:17:12Z</time>
					</trkpt>
					<trkpt lat="44.628780" lon="4.016750">
						<ele>1330</ele>
						<time>2026-09-03T10:17:30Z</time>
					</trkpt>
					<trkpt lat="44.628680" lon="4.016660">
						<ele>1329</ele>
						<time>2026-09-03T10:17:36Z</time>
					</trkpt>
					<trkpt lat="44.628430" lon="4.016500">
						<ele>1324</ele>
						<time>2026-09-03T10:17:50Z</time>
					</trkpt>
					<trkpt lat="44.628280" lon="4.016320">
						<ele>1320</ele>
						<time>2026-09-03T10:18:00Z</time>
					</trkpt>
					<trkpt lat="44.628060" lon="4.016140">
						<ele>1314</ele>
						<time>2026-09-03T10:18:13Z</time>
					</trkpt>
					<trkpt lat="44.627530" lon="4.015490">
						<ele>1304</ele>
						<time>2026-09-03T10:18:48Z</time>
					</trkpt>
					<trkpt lat="44.627300" lon="4.015240">
						<ele>1301</ele>
						<time>2026-09-03T10:19:02Z</time>
					</trkpt>
					<trkpt lat="44.627040" lon="4.015020">
						<ele>1301</ele>
						<time>2026-09-03T10:19:18Z</time>
					</trkpt>
					<trkpt lat="44.626800" lon="4.014650">
						<ele>1302</ele>
						<time>2026-09-03T10:19:35Z</time>
					</trkpt>
					<trkpt lat="44.626710" lon="4.014390">
						<ele>1303</ele>
						<time>2026-09-03T10:19:46Z</time>
					</trkpt>
					<trkpt lat="44.626680" lon="4.014170">
						<ele>1304</ele>
						<time>2026-09-03T10:19:54Z</time>
					</trkpt>
					<trkpt lat="44.626680" lon="4.013280">
						<ele>1307</ele>
						<time>2026-09-03T10:20:25Z</time>
					</trkpt>
					<trkpt lat="44.626660" lon="4.013040">
						<ele>1306</ele>
						<time>2026-09-03T10:20:34Z</time>
					</trkpt>
					<trkpt lat="44.626540" lon="4.012340">
						<ele>1306</ele>
						<time>2026-09-03T10:21:00Z</time>
					</trkpt>
					<trkpt lat="44.626550" lon="4.012190">
						<ele>1307</ele>
						<time>2026-09-03T10:21:05Z</time>
					</trkpt>
					<trkpt lat="44.627030" lon="4.011020">
						<ele>1303</ele>
						<time>2026-09-03T10:21:53Z</time>
					</trkpt>
					<trkpt lat="44.627040" lon="4.010910">
						<ele>1303</ele>
						<time>2026-09-03T10:21:57Z</time>
					</trkpt>
					<trkpt lat="44.627260" lon="4.010210">
						<ele>1302</ele>
						<time>2026-09-03T10:22:24Z</time>
					</trkpt>
					<trkpt lat="44.627550" lon="4.009480">
						<ele>1302</ele>
						<time>2026-09-03T10:22:54Z</time>
					</trkpt>
					<trkpt lat="44.627680" lon="4.008720">
						<ele>1303</ele>
						<time>2026-09-03T10:23:22Z</time>
					</trkpt>
					<trkpt lat="44.627740" lon="4.008510">
						<ele>1303</ele>
						<time>2026-09-03T10:23:30Z</time>
					</trkpt>
					<trkpt lat="44.627840" lon="4.008190">
						<ele>1305</ele>
						<time>2026-09-03T10:23:42Z</time>
					</trkpt>
					<trkpt lat="44.628010" lon="4.007780">
						<ele>1306</ele>
						<time>2026-09-03T10:23:59Z</time>
					</trkpt>
					<trkpt lat="44.628130" lon="4.007330">
						<ele>1308</ele>
						<time>2026-09-03T10:24:16Z</time>
					</trkpt>
					<trkpt lat="44.628330" lon="4.006840">
						<ele>1311</ele>
						<time>2026-09-03T10:24:37Z</time>
					</trkpt>
					<trkpt lat="44.628510" lon="4.006150">
						<ele>1309</ele>
						<time>2026-09-03T10:25:03Z</time>
					</trkpt>
					<trkpt lat="44.628710" lon="4.005600">
						<ele>1310</ele>
						<time>2026-09-03T10:25:25Z</time>
					</trkpt>
					<trkpt lat="44.628840" lon="4.005110">
						<ele>1311</ele>
						<time>2026-09-03T10:25:43Z</time>
					</trkpt>
					<trkpt lat="44.628860" lon="4.004530">
						<ele>1313</ele>
						<time>2026-09-03T10:26:04Z</time>
					</trkpt>
					<trkpt lat="44.628940" lon="4.004000">
						<ele>1316</ele>
						<time>2026-09-03T10:26:23Z</time>
					</trkpt>
					<trkpt lat="44.628920" lon="4.003810">
						<ele>1317</ele>
						<time>2026-09-03T10:26:30Z</time>
					</trkpt>
					<trkpt lat="44.628880" lon="4.003710">
						<ele>1318</ele>
						<time>2026-09-03T10:26:34Z</time>
					</trkpt>
					<trkpt lat="44.628740" lon="4.003500">
						<ele>1317</ele>
						<time>2026-09-03T10:26:44Z</time>
					</trkpt>
					<trkpt lat="44.628570" lon="4.003100">
						<ele>1319</ele>
						<time>2026-09-03T10:27:01Z</time>
					</trkpt>
					<trkpt lat="44.628520" lon="4.002900">
						<ele>1320</ele>
						<time>2026-09-03T10:27:09Z</time>
					</trkpt>
					<trkpt lat="44.628430" lon="4.002710">
						<ele>1321</ele>
						<time>2026-09-03T10:27:17Z</time>
					</trkpt>
					<trkpt lat="44.628320" lon="4.002380">
						<ele>1324</ele>
						<time>2026-09-03T10:27:30Z</time>
					</trkpt>
					<trkpt lat="44.628130" lon="4.001390">
						<ele>1330</ele>
						<time>2026-09-03T10:28:06Z</time>
					</trkpt>
					<trkpt lat="44.628070" lon="4.001300">
						<ele>1329</ele>
						<time>2026-09-03T10:28:11Z</time>
					</trkpt>
					<trkpt lat="44.627960" lon="4.001030">
						<ele>1329</ele>
						<time>2026-09-03T10:28:22Z</time>
					</trkpt>
					<trkpt lat="44.627840" lon="4.000390">
						<ele>1328</ele>
						<time>2026-09-03T10:28:45Z</time>
					</trkpt>
					<trkpt lat="44.627800" lon="4.000030">
						<ele>1327</ele>
						<time>2026-09-03T10:28:58Z</time>
					</trkpt>
					<trkpt lat="44.627830" lon="3.998830">
						<ele>1320</ele>
						<time>2026-09-03T10:29:41Z</time>
					</trkpt>
					<trkpt lat="44.627890" lon="3.998190">
						<ele>1316</ele>
						<time>2026-09-03T10:30:04Z</time>
					</trkpt>
					<trkpt lat="44.627940" lon="3.997980">
						<ele>1315</ele>
						<time>2026-09-03T10:30:12Z</time>
					</trkpt>
					<trkpt lat="44.627960" lon="3.997750">
						<ele>1312</ele>
						<time>2026-09-03T10:30:20Z</time>
					</trkpt>
					<trkpt lat="44.627980" lon="3.996920">
						<ele>1305</ele>
						<time>2026-09-03T10:30:50Z</time>
					</trkpt>
					<trkpt lat="44.627800" lon="3.995930">
						<ele>1299</ele>
						<time>2026-09-03T10:31:26Z</time>
					</trkpt>
					<trkpt lat="44.627540" lon="3.994890">
						<ele>1296</ele>
						<time>2026-09-03T10:32:05Z</time>
					</trkpt>
					<trkpt lat="44.627240" lon="3.992960">
						<ele>1279</ele>
						<time>2026-09-03T10:33:16Z</time>
					</trkpt>
					<trkpt lat="44.627040" lon="3.992330">
						<ele>1268</ele>
						<time>2026-09-03T10:33:40Z</time>
					</trkpt>
					<trkpt lat="44.626840" lon="3.991940">
						<ele>1260</ele>
						<time>2026-09-03T10:33:57Z</time>
					</trkpt>
					<trkpt lat="44.626640" lon="3.991830">
						<ele>1256</ele>
						<time>2026-09-03T10:34:08Z</time>
					</trkpt>
					<trkpt lat="44.626580" lon="3.991740">
						<ele>1254</ele>
						<time>2026-09-03T10:34:13Z</time>
					</trkpt>
					<trkpt lat="44.626420" lon="3.991630">
						<ele>1249</ele>
						<time>2026-09-03T10:34:21Z</time>
					</trkpt>
					<trkpt lat="44.626300" lon="3.991590">
						<ele>1246</ele>
						<time>2026-09-03T10:34:28Z</time>
					</trkpt>
					<trkpt lat="44.626210" lon="3.991530">
						<ele>1243</ele>
						<time>2026-09-03T10:34:33Z</time>
					</trkpt>
					<trkpt lat="44.625940" lon="3.991250">
						<ele>1233</ele>
						<time>2026-09-03T10:34:49Z</time>
					</trkpt>
					<trkpt lat="44.625690" lon="3.991050">
						<ele>1227</ele>
						<time>2026-09-03T10:35:04Z</time>
					</trkpt>
					<trkpt lat="44.625590" lon="3.991030">
						<ele>1226</ele>
						<time>2026-09-03T10:35:09Z</time>
					</trkpt>
					<trkpt lat="44.625620" lon="3.991020">
						<ele>1226</ele>
						<time>2026-09-03T10:35:10Z</time>
					</trkpt>
					<trkpt lat="44.625590" lon="3.991030">
						<ele>1226</ele>
						<time>2026-09-03T10:35:12Z</time>
					</trkpt>
					<trkpt lat="44.625560" lon="3.990990">
						<ele>1226</ele>
						<time>2026-09-03T10:35:14Z</time>
					</trkpt>
					<trkpt lat="44.625490" lon="3.991150">
						<ele>1226</ele>
						<time>2026-09-03T10:35:21Z</time>
					</trkpt>
					<trkpt lat="44.625380" lon="3.991080">
						<ele>1225</ele>
						<time>2026-09-03T10:35:27Z</time>
					</trkpt>
					<trkpt lat="44.625010" lon="3.990440">
						<ele>1224</ele>
						<time>2026-09-03T10:35:56Z</time>
					</trkpt>
					<trkpt lat="44.624140" lon="3.988700">
						<ele>1250</ele>
						<time>2026-09-03T10:37:12Z</time>
					</trkpt>
					<trkpt lat="44.623310" lon="3.986900">
						<ele>1283</ele>
						<time>2026-09-03T10:38:28Z</time>
					</trkpt>
					<trkpt lat="44.622500" lon="3.986260">
						<ele>1299</ele>
						<time>2026-09-03T10:39:15Z</time>
					</trkpt>
					<trkpt lat="44.622060" lon="3.985250">
						<ele>1323</ele>
						<time>2026-09-03T10:39:57Z</time>
					</trkpt>
					<trkpt lat="44.621540" lon="3.984640">
						<ele>1338</ele>
						<time>2026-09-03T10:40:31Z</time>
					</trkpt>
					<trkpt lat="44.620820" lon="3.984090">
						<ele>1356</ele>
						<time>2026-09-03T10:41:12Z</time>
					</trkpt>
					<trkpt lat="44.620610" lon="3.983890">
						<ele>1362</ele>
						<time>2026-09-03T10:41:25Z</time>
					</trkpt>
					<trkpt lat="44.620390" lon="3.983570">
						<ele>1368</ele>
						<time>2026-09-03T10:41:40Z</time>
					</trkpt>
					<trkpt lat="44.619490" lon="3.984120">
						<ele>1367</ele>
						<time>2026-09-03T10:42:30Z</time>
					</trkpt>
					<trkpt lat="44.619230" lon="3.984050">
						<ele>1369</ele>
						<time>2026-09-03T10:42:43Z</time>
					</trkpt>
					<trkpt lat="44.619010" lon="3.982720">
						<ele>1372</ele>
						<time>2026-09-03T10:43:31Z</time>
					</trkpt>
					<trkpt lat="44.618940" lon="3.981280">
						<ele>1370</ele>
						<time>2026-09-03T10:44:23Z</time>
					</trkpt>
					<trkpt lat="44.619180" lon="3.978770">
						<ele>1364</ele>
						<time>2026-09-03T10:45:53Z</time>
					</trkpt>
					<trkpt lat="44.619050" lon="3.977400">
						<ele>1352</ele>
						<time>2026-09-03T10:46:42Z</time>
					</trkpt>
					<trkpt lat="44.618950" lon="3.976830">
						<ele>1350</ele>
						<time>2026-09-03T10:47:03Z</time>
					</trkpt>
					<trkpt lat="44.618790" lon="3.976590">
						<ele>1350</ele>
						<time>2026-09-03T10:47:15Z</time>
					</trkpt>
					<trkpt lat="44.618530" lon="3.975600">
						<ele>1353</ele>
						<time>2026-09-03T10:47:52Z</time>
					</trkpt>
					<trkpt lat="44.618470" lon="3.975290">
						<ele>1354</ele>
						<time>2026-09-03T10:48:04Z</time>
					</trkpt>
					<trkpt lat="44.618440" lon="3.974900">
						<ele>1355</ele>
						<time>2026-09-03T10:48:18Z</time>
					</trkpt>
					<trkpt lat="44.618510" lon="3.974560">
						<ele>1351</ele>
						<time>2026-09-03T10:48:30Z</time>
					</trkpt>
					<trkpt lat="44.618670" lon="3.974000">
						<ele>1347</ele>
						<time>2026-09-03T10:48:52Z</time>
					</trkpt>
					<trkpt lat="44.618770" lon="3.973720">
						<ele>1347</ele>
						<time>2026-09-03T10:49:03Z</time>
					</trkpt>
					<trkpt lat="44.618950" lon="3.973430">
						<ele>1348</ele>
						<time>2026-09-03T10:49:17Z</time>
					</trkpt>
					<trkpt lat="44.618980" lon="3.973340">
						<ele>1349</ele>
						<time>2026-09-03T10:49:20Z</time>
					</trkpt>
					<trkpt lat="44.619030" lon="3.973070">
						<ele>1349</ele>
						<time>2026-09-03T10:49:30Z</time>
					</trkpt>
					<trkpt lat="44.619130" lon="3.972740">
						<ele>1350</ele>
						<time>2026-09-03T10:49:43Z</time>
					</trkpt>
					<trkpt lat="44.619090" lon="3.972390">
						<ele>1348</ele>
						<time>2026-09-03T10:49:56Z</time>
					</trkpt>
					<trkpt lat="44.619130" lon="3.972090">
						<ele>1349</ele>
						<time>2026-09-03T10:50:07Z</time>
					</trkpt>
					<trkpt lat="44.619270" lon="3.971840">
						<ele>1348</ele>
						<time>2026-09-03T10:50:18Z</time>
					</trkpt>
					<trkpt lat="44.619330" lon="3.971680">
						<ele>1348</ele>
						<time>2026-09-03T10:50:24Z</time>
					</trkpt>
					<trkpt lat="44.619390" lon="3.971180">
						<ele>1351</ele>
						<time>2026-09-03T10:50:42Z</time>
					</trkpt>
					<trkpt lat="44.619330" lon="3.970890">
						<ele>1353</ele>
						<time>2026-09-03T10:50:53Z</time>
					</trkpt>
					<trkpt lat="44.619320" lon="3.970680">
						<ele>1355</ele>
						<time>2026-09-03T10:51:01Z</time>
					</trkpt>
					<trkpt lat="44.619230" lon="3.970330">
						<ele>1357</ele>
						<time>2026-09-03T10:51:14Z</time>
					</trkpt>
					<trkpt lat="44.619170" lon="3.969810">
						<ele>1360</ele>
						<time>2026-09-03T10:51:33Z</time>
					</trkpt>
					<trkpt lat="44.619160" lon="3.969120">
						<ele>1362</ele>
						<time>2026-09-03T10:51:57Z</time>
					</trkpt>
					<trkpt lat="44.619200" lon="3.967930">
						<ele>1363</ele>
						<time>2026-09-03T10:52:40Z</time>
					</trkpt>
					<trkpt lat="44.619180" lon="3.967420">
						<ele>1359</ele>
						<time>2026-09-03T10:52:58Z</time>
					</trkpt>
					<trkpt lat="44.619200" lon="3.967030">
						<ele>1356</ele>
						<time>2026-09-03T10:53:12Z</time>
					</trkpt>
					<trkpt lat="44.619340" lon="3.966330">
						<ele>1350</ele>
						<time>2026-09-03T10:53:38Z</time>
					</trkpt>
					<trkpt lat="44.619410" lon="3.965590">
						<ele>1339</ele>
						<time>2026-09-03T10:54:04Z</time>
					</trkpt>
					<trkpt lat="44.619460" lon="3.965350">
						<ele>1336</ele>
						<time>2026-09-03T10:54:13Z</time>
					</trkpt>
					<trkpt lat="44.619480" lon="3.964880">
						<ele>1329</ele>
						<time>2026-09-03T10:54:30Z</time>
					</trkpt>
					<trkpt lat="44.619580" lon="3.964470">
						<ele>1327</ele>
						<time>2026-09-03T10:54:45Z</time>
					</trkpt>
					<trkpt lat="44.619560" lon="3.964310">
						<ele>1326</ele>
						<time>2026-09-03T10:54:51Z</time>
					</trkpt>
					<trkpt lat="44.619470" lon="3.964160">
						<ele>1324</ele>
						<time>2026-09-03T10:54:58Z</time>
					</trkpt>
					<trkpt lat="44.619310" lon="3.963970">
						<ele>1323</ele>
						<time>2026-09-03T10:55:09Z</time>
					</trkpt>
					<trkpt lat="44.619250" lon="3.963790">
						<ele>1323</ele>
						<time>2026-09-03T10:55:16Z</time>
					</trkpt>
					<trkpt lat="44.619210" lon="3.963460">
						<ele>1324</ele>
						<time>2026-09-03T10:55:28Z</time>
					</trkpt>
					<trkpt lat="44.619140" lon="3.963300">
						<ele>1323</ele>
						<time>2026-09-03T10:55:34Z</time>
					</trkpt>
					<trkpt lat="44.619140" lon="3.962890">
						<ele>1322</ele>
						<time>2026-09-03T10:55:49Z</time>
					</trkpt>
					<trkpt lat="44.619110" lon="3.962700">
						<ele>1321</ele>
						<time>2026-09-03T10:55:56Z</time>
					</trkpt>
					<trkpt lat="44.618950" lon="3.961930">
						<ele>1320</ele>
						<time>2026-09-03T10:56:24Z</time>
					</trkpt>
					<trkpt lat="44.618830" lon="3.961600">
						<ele>1321</ele>
						<time>2026-09-03T10:56:38Z</time>
					</trkpt>
					<trkpt lat="44.618570" lon="3.961220">
						<ele>1326</ele>
						<time>2026-09-03T10:56:56Z</time>
					</trkpt>
					<trkpt lat="44.618080" lon="3.960620">
						<ele>1336</ele>
						<time>2026-09-03T10:57:29Z</time>
					</trkpt>
					<trkpt lat="44.617840" lon="3.960270">
						<ele>1343</ele>
						<time>2026-09-03T10:57:46Z</time>
					</trkpt>
					<trkpt lat="44.617640" lon="3.960050">
						<ele>1347</ele>
						<time>2026-09-03T10:57:59Z</time>
					</trkpt>
					<trkpt lat="44.617450" lon="3.959930">
						<ele>1350</ele>
						<time>2026-09-03T10:58:09Z</time>
					</trkpt>
					<trkpt lat="44.616860" lon="3.959200">
						<ele>1360</ele>
						<time>2026-09-03T10:58:49Z</time>
					</trkpt>
					<trkpt lat="44.616790" lon="3.959050">
						<ele>1360</ele>
						<time>2026-09-03T10:58:55Z</time>
					</trkpt>
					<trkpt lat="44.616770" lon="3.958860">
						<ele>1360</ele>
						<time>2026-09-03T10:59:02Z</time>
					</trkpt>
					<trkpt lat="44.616730" lon="3.958780">
						<ele>1359</ele>
						<time>2026-09-03T10:59:05Z</time>
					</trkpt>
					<trkpt lat="44.616690" lon="3.958740">
						<ele>1359</ele>
						<time>2026-09-03T10:59:08Z</time>
					</trkpt>
					<trkpt lat="44.616570" lon="3.958710">
						<ele>1359</ele>
						<time>2026-09-03T10:59:14Z</time>
					</trkpt>
					<trkpt lat="44.615890" lon="3.958340">
						<ele>1353</ele>
						<time>2026-09-03T10:59:51Z</time>
					</trkpt>
					<trkpt lat="44.615780" lon="3.958330">
						<ele>1352</ele>
						<time>2026-09-03T10:59:56Z</time>
					</trkpt>
					<trkpt lat="44.615710" lon="3.958290">
						<ele>1351</ele>
						<time>2026-09-03T11:00:00Z</time>
					</trkpt>
					<trkpt lat="44.615540" lon="3.958250">
						<ele>1349</ele>
						<time>2026-09-03T11:00:08Z</time>
					</trkpt>
					<trkpt lat="44.615430" lon="3.958160">
						<ele>1348</ele>
						<time>2026-09-03T11:00:15Z</time>
					</trkpt>
					<trkpt lat="44.614980" lon="3.957500">
						<ele>1340</ele>
						<time>2026-09-03T11:00:47Z</time>
					</trkpt>
					<trkpt lat="44.614810" lon="3.957300">
						<ele>1336</ele>
						<time>2026-09-03T11:00:58Z</time>
					</trkpt>
					<trkpt lat="44.614390" lon="3.956870">
						<ele>1330</ele>
						<time>2026-09-03T11:01:24Z</time>
					</trkpt>
					<trkpt lat="44.614200" lon="3.956620">
						<ele>1329</ele>
						<time>2026-09-03T11:01:38Z</time>
					</trkpt>
					<trkpt lat="44.613820" lon="3.956270">
						<ele>1321</ele>
						<time>2026-09-03T11:02:00Z</time>
					</trkpt>
					<trkpt lat="44.613480" lon="3.955870">
						<ele>1315</ele>
						<time>2026-09-03T11:02:22Z</time>
					</trkpt>
					<trkpt lat="44.613300" lon="3.955760">
						<ele>1312</ele>
						<time>2026-09-03T11:02:32Z</time>
					</trkpt>
					<trkpt lat="44.613200" lon="3.955610">
						<ele>1311</ele>
						<time>2026-09-03T11:02:40Z</time>
					</trkpt>
					<trkpt lat="44.612840" lon="3.955200">
						<ele>1304</ele>
						<time>2026-09-03T11:03:03Z</time>
					</trkpt>
					<trkpt lat="44.612800" lon="3.955100">
						<ele>1304</ele>
						<time>2026-09-03T11:03:07Z</time>
					</trkpt>
					<trkpt lat="44.612710" lon="3.954990">
						<ele>1302</ele>
						<time>2026-09-03T11:03:13Z</time>
					</trkpt>
					<trkpt lat="44.612420" lon="3.954820">
						<ele>1294</ele>
						<time>2026-09-03T11:03:29Z</time>
					</trkpt>
					<trkpt lat="44.612310" lon="3.954640">
						<ele>1289</ele>
						<time>2026-09-03T11:03:37Z</time>
					</trkpt>
					<trkpt lat="44.612240" lon="3.954600">
						<ele>1287</ele>
						<time>2026-09-03T11:03:41Z</time>
					</trkpt>
					<trkpt lat="44.612140" lon="3.954620">
						<ele>1285</ele>
						<time>2026-09-03T11:03:46Z</time>
					</trkpt>
					<trkpt lat="44.612090" lon="3.954560">
						<ele>1283</ele>
						<time>2026-09-03T11:03:49Z</time>
					</trkpt>
					<trkpt lat="44.611930" lon="3.954510">
						<ele>1279</ele>
						<time>2026-09-03T11:03:57Z</time>
					</trkpt>
					<trkpt lat="44.611760" lon="3.954400">
						<ele>1274</ele>
						<time>2026-09-03T11:04:07Z</time>
					</trkpt>
					<trkpt lat="44.611010" lon="3.954240">
						<ele>1267</ele>
						<time>2026-09-03T11:04:45Z</time>
					</trkpt>
					<trkpt lat="44.610450" lon="3.954750">
						<ele>1267</ele>
						<time>2026-09-03T11:05:18Z</time>
					</trkpt>
					<trkpt lat="44.610000" lon="3.955060">
						<ele>1267</ele>
						<time>2026-09-03T11:05:43Z</time>
					</trkpt>
					<trkpt lat="44.609780" lon="3.955110">
						<ele>1265</ele>
						<time>2026-09-03T11:05:54Z</time>
					</trkpt>
					<trkpt lat="44.609580" lon="3.955100">
						<ele>1263</ele>
						<time>2026-09-03T11:06:04Z</time>
					</trkpt>
					<trkpt lat="44.609300" lon="3.955140">
						<ele>1260</ele>
						<time>2026-09-03T11:06:18Z</time>
					</trkpt>
					<trkpt lat="44.609220" lon="3.955120">
						<ele>1260</ele>
						<time>2026-09-03T11:06:22Z</time>
					</trkpt>
					<trkpt lat="44.609050" lon="3.955040">
						<ele>1260</ele>
						<time>2026-09-03T11:06:31Z</time>
					</trkpt>
					<trkpt lat="44.608760" lon="3.954760">
						<ele>1258</ele>
						<time>2026-09-03T11:06:49Z</time>
					</trkpt>
					<trkpt lat="44.608680" lon="3.954640">
						<ele>1257</ele>
						<time>2026-09-03T11:06:55Z</time>
					</trkpt>
					<trkpt lat="44.608510" lon="3.954270">
						<ele>1256</ele>
						<time>2026-09-03T11:07:11Z</time>
					</trkpt>
					<trkpt lat="44.608420" lon="3.954230">
						<ele>1255</ele>
						<time>2026-09-03T11:07:15Z</time>
					</trkpt>
					<trkpt lat="44.608140" lon="3.954210">
						<ele>1247</ele>
						<time>2026-09-03T11:07:29Z</time>
					</trkpt>
					<trkpt lat="44.607890" lon="3.954000">
						<ele>1242</ele>
						<time>2026-09-03T11:07:44Z</time>
					</trkpt>
					<trkpt lat="44.607680" lon="3.953740">
						<ele>1239</ele>
						<time>2026-09-03T11:07:58Z</time>
					</trkpt>
					<trkpt lat="44.607180" lon="3.952980">
						<ele>1228</ele>
						<time>2026-09-03T11:08:35Z</time>
					</trkpt>
					<trkpt lat="44.606680" lon="3.952440">
						<ele>1214</ele>
						<time>2026-09-03T11:09:06Z</time>
					</trkpt>
					<trkpt lat="44.606460" lon="3.952240">
						<ele>1210</ele>
						<time>2026-09-03T11:09:19Z</time>
					</trkpt>
					<trkpt lat="44.606260" lon="3.951890">
						<ele>1208</ele>
						<time>2026-09-03T11:09:35Z</time>
					</trkpt>
					<trkpt lat="44.606180" lon="3.951800">
						<ele>1206</ele>
						<time>2026-09-03T11:09:41Z</time>
					</trkpt>
					<trkpt lat="44.606080" lon="3.951750">
						<ele>1204</ele>
						<time>2026-09-03T11:09:46Z</time>
					</trkpt>
					<trkpt lat="44.605860" lon="3.951720">
						<ele>1198</ele>
						<time>2026-09-03T11:09:57Z</time>
					</trkpt>
					<trkpt lat="44.605410" lon="3.951730">
						<ele>1190</ele>
						<time>2026-09-03T11:10:20Z</time>
					</trkpt>
					<trkpt lat="44.605230" lon="3.951770">
						<ele>1187</ele>
						<time>2026-09-03T11:10:29Z</time>
					</trkpt>
					<trkpt lat="44.605050" lon="3.951900">
						<ele>1183</ele>
						<time>2026-09-03T11:10:39Z</time>
					</trkpt>
					<trkpt lat="44.604830" lon="3.952010">
						<ele>1179</ele>
						<time>2026-09-03T11:10:50Z</time>
					</trkpt>
					<trkpt lat="44.604540" lon="3.952050">
						<ele>1175</ele>
						<time>2026-09-03T11:11:05Z</time>
					</trkpt>
					<trkpt lat="44.604170" lon="3.952050">
						<ele>1170</ele>
						<time>2026-09-03T11:11:24Z</time>
					</trkpt>
					<trkpt lat="44.604200" lon="3.951970">
						<ele>1171</ele>
						<time>2026-09-03T11:11:27Z</time>
					</trkpt>
					<trkpt lat="44.604240" lon="3.951300">
						<ele>1173</ele>
						<time>2026-09-03T11:11:51Z</time>
					</trkpt>
					<trkpt lat="44.604310" lon="3.950790">
						<ele>1174</ele>
						<time>2026-09-03T11:12:09Z</time>
					</trkpt>
					<trkpt lat="44.604440" lon="3.950210">
						<ele>1172</ele>
						<time>2026-09-03T11:12:31Z</time>
					</trkpt>
					<trkpt lat="44.604650" lon="3.949460">
						<ele>1168</ele>
						<time>2026-09-03T11:13:00Z</time>
					</trkpt>
					<trkpt lat="44.604940" lon="3.948690">
						<ele>1165</ele>
						<time>2026-09-03T11:13:31Z</time>
					</trkpt>
					<trkpt lat="44.605460" lon="3.947740">
						<ele>1163</ele>
						<time>2026-09-03T11:14:13Z</time>
					</trkpt>
					<trkpt lat="44.605890" lon="3.947060">
						<ele>1162</ele>
						<time>2026-09-03T11:14:46Z</time>
					</trkpt>
					<trkpt lat="44.606360" lon="3.946580">
						<ele>1162</ele>
						<time>2026-09-03T11:15:15Z</time>
					</trkpt>
					<trkpt lat="44.606530" lon="3.946340">
						<ele>1161</ele>
						<time>2026-09-03T11:15:27Z</time>
					</trkpt>
					<trkpt lat="44.606640" lon="3.946250">
						<ele>1161</ele>
						<time>2026-09-03T11:15:33Z</time>
					</trkpt>
					<trkpt lat="44.606700" lon="3.946240">
						<ele>1162</ele>
						<time>2026-09-03T11:15:36Z</time>
					</trkpt>
					<trkpt lat="44.606750" lon="3.946260">
						<ele>1163</ele>
						<time>2026-09-03T11:15:39Z</time>
					</trkpt>
					<trkpt lat="44.606610" lon="3.946210">
						<ele>1160</ele>
						<time>2026-09-03T11:15:46Z</time>
					</trkpt>
					<trkpt lat="44.606550" lon="3.946230">
						<ele>1159</ele>
						<time>2026-09-03T11:15:49Z</time>
					</trkpt>
					<trkpt lat="44.606220" lon="3.946510">
						<ele>1159</ele>
						<time>2026-09-03T11:16:08Z</time>
					</trkpt>
					<trkpt lat="44.605820" lon="3.946620">
						<ele>1154</ele>
						<time>2026-09-03T11:16:29Z</time>
					</trkpt>
					<trkpt lat="44.604950" lon="3.946610">
						<ele>1144</ele>
						<time>2026-09-03T11:17:12Z</time>
					</trkpt>
					<trkpt lat="44.604730" lon="3.946660">
						<ele>1145</ele>
						<time>2026-09-03T11:17:24Z</time>
					</trkpt>
					<trkpt lat="44.604680" lon="3.946650">
						<ele>1146</ele>
						<time>2026-09-03T11:17:26Z</time>
					</trkpt>
					<trkpt lat="44.604580" lon="3.946540">
						<ele>1146</ele>
						<time>2026-09-03T11:17:32Z</time>
					</trkpt>
					<trkpt lat="44.604550" lon="3.946450">
						<ele>1147</ele>
						<time>2026-09-03T11:17:36Z</time>
					</trkpt>
					<trkpt lat="44.604560" lon="3.946280">
						<ele>1147</ele>
						<time>2026-09-03T11:17:42Z</time>
					</trkpt>
					<trkpt lat="44.604590" lon="3.946190">
						<ele>1147</ele>
						<time>2026-09-03T11:17:46Z</time>
					</trkpt>
					<trkpt lat="44.605130" lon="3.945650">
						<ele>1144</ele>
						<time>2026-09-03T11:18:19Z</time>
					</trkpt>
					<trkpt lat="44.605370" lon="3.945290">
						<ele>1144</ele>
						<time>2026-09-03T11:18:36Z</time>
					</trkpt>
					<trkpt lat="44.605560" lon="3.944880">
						<ele>1142</ele>
						<time>2026-09-03T11:18:54Z</time>
					</trkpt>
					<trkpt lat="44.605670" lon="3.944260">
						<ele>1140</ele>
						<time>2026-09-03T11:19:17Z</time>
					</trkpt>
					<trkpt lat="44.605700" lon="3.943960">
						<ele>1140</ele>
						<time>2026-09-03T11:19:27Z</time>
					</trkpt>
					<trkpt lat="44.605690" lon="3.943440">
						<ele>1139</ele>
						<time>2026-09-03T11:19:46Z</time>
					</trkpt>
					<trkpt lat="44.605490" lon="3.942280">
						<ele>1137</ele>
						<time>2026-09-03T11:20:28Z</time>
					</trkpt>
					<trkpt lat="44.605260" lon="3.941360">
						<ele>1137</ele>
						<time>2026-09-03T11:21:03Z</time>
					</trkpt>
					<trkpt lat="44.605210" lon="3.941000">
						<ele>1137</ele>
						<time>2026-09-03T11:21:16Z</time>
					</trkpt>
					<trkpt lat="44.605220" lon="3.939930">
						<ele>1135</ele>
						<time>2026-09-03T11:21:54Z</time>
					</trkpt>
					<trkpt lat="44.605200" lon="3.939630">
						<ele>1133</ele>
						<time>2026-09-03T11:22:05Z</time>
					</trkpt>
					<trkpt lat="44.605080" lon="3.938860">
						<ele>1127</ele>
						<time>2026-09-03T11:22:33Z</time>
					</trkpt>
					<trkpt lat="44.604790" lon="3.937880">
						<ele>1119</ele>
						<time>2026-09-03T11:23:11Z</time>
					</trkpt>
					<trkpt lat="44.604620" lon="3.937510">
						<ele>1117</ele>
						<time>2026-09-03T11:23:27Z</time>
					</trkpt>
					<trkpt lat="44.604570" lon="3.937420">
						<ele>1117</ele>
						<time>2026-09-03T11:23:31Z</time>
					</trkpt>
					<trkpt lat="44.604260" lon="3.937090">
						<ele>1115</ele>
						<time>2026-09-03T11:23:50Z</time>
					</trkpt>
					<trkpt lat="44.604120" lon="3.936870">
						<ele>1110</ele>
						<time>2026-09-03T11:24:01Z</time>
					</trkpt>
					<trkpt lat="44.603970" lon="3.936720">
						<ele>1108</ele>
						<time>2026-09-03T11:24:10Z</time>
					</trkpt>
					<trkpt lat="44.603620" lon="3.936500">
						<ele>1108</ele>
						<time>2026-09-03T11:24:29Z</time>
					</trkpt>
					<trkpt lat="44.603110" lon="3.936280">
						<ele>1104</ele>
						<time>2026-09-03T11:24:56Z</time>
					</trkpt>
					<trkpt lat="44.602930" lon="3.936230">
						<ele>1101</ele>
						<time>2026-09-03T11:25:05Z</time>
					</trkpt>
					<trkpt lat="44.602400" lon="3.936150">
						<ele>1094</ele>
						<time>2026-09-03T11:25:32Z</time>
					</trkpt>
					<trkpt lat="44.601890" lon="3.936190">
						<ele>1090</ele>
						<time>2026-09-03T11:25:57Z</time>
					</trkpt>
					<trkpt lat="44.601690" lon="3.936230">
						<ele>1088</ele>
						<time>2026-09-03T11:26:07Z</time>
					</trkpt>
					<trkpt lat="44.600910" lon="3.936140">
						<ele>1085</ele>
						<time>2026-09-03T11:26:46Z</time>
					</trkpt>
					<trkpt lat="44.600860" lon="3.935990">
						<ele>1084</ele>
						<time>2026-09-03T11:26:52Z</time>
					</trkpt>
					<trkpt lat="44.600460" lon="3.935340">
						<ele>1086</ele>
						<time>2026-09-03T11:27:23Z</time>
					</trkpt>
					<trkpt lat="44.600140" lon="3.934880">
						<ele>1089</ele>
						<time>2026-09-03T11:27:46Z</time>
					</trkpt>
					<trkpt lat="44.600170" lon="3.934840">
						<ele>1089</ele>
						<time>2026-09-03T11:27:48Z</time>
					</trkpt>
					<trkpt lat="44.600140" lon="3.934880">
						<ele>1089</ele>
						<time>2026-09-03T11:27:50Z</time>
					</trkpt>
					<trkpt lat="44.599900" lon="3.934320">
						<ele>1092</ele>
						<time>2026-09-03T11:28:13Z</time>
					</trkpt>
					<trkpt lat="44.599810" lon="3.934040">
						<ele>1092</ele>
						<time>2026-09-03T11:28:24Z</time>
					</trkpt>
					<trkpt lat="44.599620" lon="3.933590">
						<ele>1089</ele>
						<time>2026-09-03T11:28:43Z</time>
					</trkpt>
					<trkpt lat="44.599530" lon="3.933290">
						<ele>1088</ele>
						<time>2026-09-03T11:28:55Z</time>
					</trkpt>
					<trkpt lat="44.599540" lon="3.932900">
						<ele>1088</ele>
						<time>2026-09-03T11:29:08Z</time>
					</trkpt>
					<trkpt lat="44.599620" lon="3.932400">
						<ele>1089</ele>
						<time>2026-09-03T11:29:27Z</time>
					</trkpt>
					<trkpt lat="44.599630" lon="3.932180">
						<ele>1090</ele>
						<time>2026-09-03T11:29:35Z</time>
					</trkpt>
					<trkpt lat="44.599440" lon="3.930560">
						<ele>1092</ele>
						<time>2026-09-03T11:30:33Z</time>
					</trkpt>
					<trkpt lat="44.599390" lon="3.929830">
						<ele>1092</ele>
						<time>2026-09-03T11:30:59Z</time>
					</trkpt>
					<trkpt lat="44.599330" lon="3.929750">
						<ele>1092</ele>
						<time>2026-09-03T11:31:03Z</time>
					</trkpt>
					<trkpt lat="44.598760" lon="3.929420">
						<ele>1087</ele>
						<time>2026-09-03T11:31:34Z</time>
					</trkpt>
					<trkpt lat="44.598390" lon="3.929090">
						<ele>1087</ele>
						<time>2026-09-03T11:31:56Z</time>
					</trkpt>
					<trkpt lat="44.598220" lon="3.928730">
						<ele>1087</ele>
						<time>2026-09-03T11:32:12Z</time>
					</trkpt>
					<trkpt lat="44.598180" lon="3.928370">
						<ele>1087</ele>
						<time>2026-09-03T11:32:24Z</time>
					</trkpt>
					<trkpt lat="44.598180" lon="3.927890">
						<ele>1087</ele>
						<time>2026-09-03T11:32:42Z</time>
					</trkpt>
					<trkpt lat="44.598240" lon="3.927370">
						<ele>1088</ele>
						<time>2026-09-03T11:33:00Z</time>
					</trkpt>
					<trkpt lat="44.598440" lon="3.926620">
						<ele>1093</ele>
						<time>2026-09-03T11:33:29Z</time>
					</trkpt>
					<trkpt lat="44.598410" lon="3.926330">
						<ele>1095</ele>
						<time>2026-09-03T11:33:39Z</time>
					</trkpt>
					<trkpt lat="44.598340" lon="3.926230">
						<ele>1095</ele>
						<time>2026-09-03T11:33:44Z</time>
					</trkpt>
					<trkpt lat="44.598220" lon="3.926120">
						<ele>1094</ele>
						<time>2026-09-03T11:33:52Z</time>
					</trkpt>
					<trkpt lat="44.597910" lon="3.925990">
						<ele>1087</ele>
						<time>2026-09-03T11:34:08Z</time>
					</trkpt>
					<trkpt lat="44.597800" lon="3.925910">
						<ele>1086</ele>
						<time>2026-09-03T11:34:14Z</time>
					</trkpt>
					<trkpt lat="44.597680" lon="3.925780">
						<ele>1084</ele>
						<time>2026-09-03T11:34:21Z</time>
					</trkpt>
					<trkpt lat="44.597510" lon="3.925410">
						<ele>1083</ele>
						<time>2026-09-03T11:34:37Z</time>
					</trkpt>
					<trkpt lat="44.597260" lon="3.924070">
						<ele>1079</ele>
						<time>2026-09-03T11:35:27Z</time>
					</trkpt>
					<trkpt lat="44.596830" lon="3.923190">
						<ele>1068</ele>
						<time>2026-09-03T11:36:05Z</time>
					</trkpt>
					<trkpt lat="44.596670" lon="3.922700">
						<ele>1064</ele>
						<time>2026-09-03T11:36:24Z</time>
					</trkpt>
					<trkpt lat="44.596620" lon="3.922350">
						<ele>1061</ele>
						<time>2026-09-03T11:36:36Z</time>
					</trkpt>
					<trkpt lat="44.596680" lon="3.922120">
						<ele>1060</ele>
						<time>2026-09-03T11:36:45Z</time>
					</trkpt>
					<trkpt lat="44.596770" lon="3.921990">
						<ele>1059</ele>
						<time>2026-09-03T11:36:52Z</time>
					</trkpt>
					<trkpt lat="44.596910" lon="3.921900">
						<ele>1058</ele>
						<time>2026-09-03T11:36:59Z</time>
					</trkpt>
					<trkpt lat="44.597120" lon="3.921820">
						<ele>1058</ele>
						<time>2026-09-03T11:37:10Z</time>
					</trkpt>
					<trkpt lat="44.597440" lon="3.921750">
						<ele>1059</ele>
						<time>2026-09-03T11:37:26Z</time>
					</trkpt>
					<trkpt lat="44.597480" lon="3.921670">
						<ele>1057</ele>
						<time>2026-09-03T11:37:30Z</time>
					</trkpt>
					<trkpt lat="44.597440" lon="3.921590">
						<ele>1057</ele>
						<time>2026-09-03T11:37:33Z</time>
					</trkpt>
					<trkpt lat="44.597330" lon="3.921580">
						<ele>1057</ele>
						<time>2026-09-03T11:37:39Z</time>
					</trkpt>
					<trkpt lat="44.596490" lon="3.921650">
						<ele>1052</ele>
						<time>2026-09-03T11:38:21Z</time>
					</trkpt>
					<trkpt lat="44.596250" lon="3.921640">
						<ele>1050</ele>
						<time>2026-09-03T11:38:33Z</time>
					</trkpt>
					<trkpt lat="44.596150" lon="3.921600">
						<ele>1049</ele>
						<time>2026-09-03T11:38:38Z</time>
					</trkpt>
					<trkpt lat="44.595980" lon="3.921510">
						<ele>1048</ele>
						<time>2026-09-03T11:38:47Z</time>
					</trkpt>
					<trkpt lat="44.595860" lon="3.920920">
						<ele>1047</ele>
						<time>2026-09-03T11:39:09Z</time>
					</trkpt>
					<trkpt lat="44.595860" lon="3.920550">
						<ele>1048</ele>
						<time>2026-09-03T11:39:22Z</time>
					</trkpt>
					<trkpt lat="44.596070" lon="3.919590">
						<ele>1052</ele>
						<time>2026-09-03T11:39:58Z</time>
					</trkpt>
					<trkpt lat="44.596240" lon="3.919120">
						<ele>1054</ele>
						<time>2026-09-03T11:40:17Z</time>
					</trkpt>
					<trkpt lat="44.596480" lon="3.918970">
						<ele>1057</ele>
						<time>2026-09-03T11:40:30Z</time>
					</trkpt>
					<trkpt lat="44.596620" lon="3.918720">
						<ele>1059</ele>
						<time>2026-09-03T11:40:41Z</time>
					</trkpt>
					<trkpt lat="44.596830" lon="3.917960">
						<ele>1059</ele>
						<time>2026-09-03T11:41:11Z</time>
					</trkpt>
					<trkpt lat="44.596960" lon="3.917640">
						<ele>1059</ele>
						<time>2026-09-03T11:41:24Z</time>
					</trkpt>
					<trkpt lat="44.597220" lon="3.917270">
						<ele>1060</ele>
						<time>2026-09-03T11:41:42Z</time>
					</trkpt>
					<trkpt lat="44.597470" lon="3.917120">
						<ele>1061</ele>
						<time>2026-09-03T11:41:56Z</time>
					</trkpt>
					<trkpt lat="44.597660" lon="3.917080">
						<ele>1063</ele>
						<time>2026-09-03T11:42:05Z</time>
					</trkpt>
					<trkpt lat="44.598250" lon="3.917040">
						<ele>1068</ele>
						<time>2026-09-03T11:42:35Z</time>
					</trkpt>
					<trkpt lat="44.598440" lon="3.917040">
						<ele>1070</ele>
						<time>2026-09-03T11:42:44Z</time>
					</trkpt>
					<trkpt lat="44.599050" lon="3.917110">
						<ele>1077</ele>
						<time>2026-09-03T11:43:15Z</time>
					</trkpt>
					<trkpt lat="44.599210" lon="3.917080">
						<ele>1079</ele>
						<time>2026-09-03T11:43:23Z</time>
					</trkpt>
					<trkpt lat="44.599270" lon="3.916990">
						<ele>1079</ele>
						<time>2026-09-03T11:43:28Z</time>
					</trkpt>
					<trkpt lat="44.599310" lon="3.916820">
						<ele>1079</ele>
						<time>2026-09-03T11:43:34Z</time>
					</trkpt>
					<trkpt lat="44.599240" lon="3.916360">
						<ele>1078</ele>
						<time>2026-09-03T11:43:51Z</time>
					</trkpt>
					<trkpt lat="44.599260" lon="3.916140">
						<ele>1079</ele>
						<time>2026-09-03T11:43:59Z</time>
					</trkpt>
					<trkpt lat="44.599220" lon="3.915980">
						<ele>1078</ele>
						<time>2026-09-03T11:44:05Z</time>
					</trkpt>
					<trkpt lat="44.599140" lon="3.915800">
						<ele>1078</ele>
						<time>2026-09-03T11:44:12Z</time>
					</trkpt>
					<trkpt lat="44.598750" lon="3.915260">
						<ele>1081</ele>
						<time>2026-09-03T11:44:40Z</time>
					</trkpt>
					<trkpt lat="44.598650" lon="3.915000">
						<ele>1083</ele>
						<time>2026-09-03T11:44:50Z</time>
					</trkpt>
					<trkpt lat="44.598340" lon="3.914470">
						<ele>1084</ele>
						<time>2026-09-03T11:45:15Z</time>
					</trkpt>
					<trkpt lat="44.598240" lon="3.914240">
						<ele>1085</ele>
						<time>2026-09-03T11:45:24Z</time>
					</trkpt>
					<trkpt lat="44.598070" lon="3.913520">
						<ele>1091</ele>
						<time>2026-09-03T11:45:51Z</time>
					</trkpt>
					<trkpt lat="44.597850" lon="3.913330">
						<ele>1090</ele>
						<time>2026-09-03T11:46:04Z</time>
					</trkpt>
					<trkpt lat="44.597570" lon="3.913170">
						<ele>1087</ele>
						<time>2026-09-03T11:46:19Z</time>
					</trkpt>
					<trkpt lat="44.597430" lon="3.913140">
						<ele>1086</ele>
						<time>2026-09-03T11:46:26Z</time>
					</trkpt>
					<trkpt lat="44.597190" lon="3.913150">
						<ele>1085</ele>
						<time>2026-09-03T11:46:38Z</time>
					</trkpt>
					<trkpt lat="44.597110" lon="3.913120">
						<ele>1085</ele>
						<time>2026-09-03T11:46:43Z</time>
					</trkpt>
					<trkpt lat="44.596990" lon="3.913040">
						<ele>1085</ele>
						<time>2026-09-03T11:46:49Z</time>
					</trkpt>
					<trkpt lat="44.596760" lon="3.912810">
						<ele>1085</ele>
						<time>2026-09-03T11:47:03Z</time>
					</trkpt>
					<trkpt lat="44.596080" lon="3.911880">
						<ele>1076</ele>
						<time>2026-09-03T11:47:51Z</time>
					</trkpt>
					<trkpt lat="44.595850" lon="3.911680">
						<ele>1073</ele>
						<time>2026-09-03T11:48:04Z</time>
					</trkpt>
					<trkpt lat="44.595250" lon="3.910980">
						<ele>1070</ele>
						<time>2026-09-03T11:48:43Z</time>
					</trkpt>
					<trkpt lat="44.594280" lon="3.909620">
						<ele>1062</ele>
						<time>2026-09-03T11:49:52Z</time>
					</trkpt>
					<trkpt lat="44.593940" lon="3.909240">
						<ele>1058</ele>
						<time>2026-09-03T11:50:14Z</time>
					</trkpt>
					<trkpt lat="44.593760" lon="3.909120">
						<ele>1057</ele>
						<time>2026-09-03T11:50:24Z</time>
					</trkpt>
					<trkpt lat="44.593770" lon="3.909020">
						<ele>1056</ele>
						<time>2026-09-03T11:50:27Z</time>
					</trkpt>
					<trkpt lat="44.593740" lon="3.908920">
						<ele>1055</ele>
						<time>2026-09-03T11:50:31Z</time>
					</trkpt>
					<trkpt lat="44.593340" lon="3.908410">
						<ele>1048</ele>
						<time>2026-09-03T11:50:58Z</time>
					</trkpt>
					<trkpt lat="44.593230" lon="3.908220">
						<ele>1044</ele>
						<time>2026-09-03T11:51:07Z</time>
					</trkpt>
					<trkpt lat="44.593110" lon="3.907890">
						<ele>1039</ele>
						<time>2026-09-03T11:51:20Z</time>
					</trkpt>
					<trkpt lat="44.592950" lon="3.907260">
						<ele>1030</ele>
						<time>2026-09-03T11:51:44Z</time>
					</trkpt>
					<trkpt lat="44.592880" lon="3.906840">
						<ele>1024</ele>
						<time>2026-09-03T11:51:59Z</time>
					</trkpt>
					<trkpt lat="44.592890" lon="3.906710">
						<ele>1022</ele>
						<time>2026-09-03T11:52:04Z</time>
					</trkpt>
					<trkpt lat="44.592850" lon="3.906690">
						<ele>1021</ele>
						<time>2026-09-03T11:52:06Z</time>
					</trkpt>
					<trkpt lat="44.592730" lon="3.906430">
						<ele>1020</ele>
						<time>2026-09-03T11:52:17Z</time>
					</trkpt>
					<trkpt lat="44.592660" lon="3.906370">
						<ele>1020</ele>
						<time>2026-09-03T11:52:21Z</time>
					</trkpt>
					<trkpt lat="44.592620" lon="3.906390">
						<ele>1020</ele>
						<time>2026-09-03T11:52:23Z</time>
					</trkpt>
					<trkpt lat="44.592570" lon="3.906290">
						<ele>1019</ele>
						<time>2026-09-03T11:52:28Z</time>
					</trkpt>
					<trkpt lat="44.592320" lon="3.906050">
						<ele>1019</ele>
						<time>2026-09-03T11:52:43Z</time>
					</trkpt>
					<trkpt lat="44.592250" lon="3.905890">
						<ele>1019</ele>
						<time>2026-09-03T11:52:50Z</time>
					</trkpt>
					<trkpt lat="44.592170" lon="3.905910">
						<ele>1020</ele>
						<time>2026-09-03T11:52:54Z</time>
					</trkpt>
					<trkpt lat="44.591910" lon="3.905840">
						<ele>1021</ele>
						<time>2026-09-03T11:53:07Z</time>
					</trkpt>
					<trkpt lat="44.591800" lon="3.905880">
						<ele>1022</ele>
						<time>2026-09-03T11:53:13Z</time>
					</trkpt>
					<trkpt lat="44.591780" lon="3.905700">
						<ele>1022</ele>
						<time>2026-09-03T11:53:19Z</time>
					</trkpt>
					<trkpt lat="44.591860" lon="3.905230">
						<ele>1020</ele>
						<time>2026-09-03T11:53:36Z</time>
					</trkpt>
					</trkseg>
				</trk>
			</gpx>